<?xml version="1.0" encoding="UTF-8" standalone="no" ?>
<gpx xmlns="http://www.topografix.com/GPX/1/1" xmlns:xsi="http://www.w3.org/2001/XMLSchema-instance" xsi:schemaLocation="http://www.topografix.com/GPX/1/1 http://www.topografix.com/GPX/1/1/gpx.xsd" version="1.1" creator="VisuGPX - https://www.visugpx.com">
  <metadata>
    <name>Bornay Courbette foret Presilly</name>
  </metadata>
  <trk>
    <name><![CDATA[Bornay Courbette foret Presilly]]></name>
    <extensions>
      <line xmlns="http://www.topografix.com/GPX/gpx_style/0/2">
        <color>0000FF</color>
        <width>4</width>
      </line>
    </extensions>
    <trkseg>
      <trkpt lat="46.61109" lon="5.56451">
        <ele>555.2</ele>
        <time>2022-12-26T10:58:50Z</time>
        <extensions>
          <visugpx:TrkExtension xmlns:visugpx="https://www.visugpx.com/editgpx/">
            <visugpx:node>11</visugpx:node>
            </visugpx:TrkExtension>
        </extensions>
      </trkpt>
      <trkpt lat="46.61107" lon="5.56451">
        <ele>555.4</ele>
        <time>2022-12-26T10:58:51Z</time>
      </trkpt>
      <trkpt lat="46.61103" lon="5.5645">
        <ele>555.4</ele>
        <time>2022-12-26T10:58:52Z</time>
      </trkpt>
      <trkpt lat="46.611" lon="5.56448">
        <ele>555.6</ele>
        <time>2022-12-26T10:58:53Z</time>
      </trkpt>
      <trkpt lat="46.61097" lon="5.56448">
        <ele>555.8</ele>
        <time>2022-12-26T10:58:54Z</time>
      </trkpt>
      <trkpt lat="46.61097" lon="5.56448">
        <ele>556</ele>
        <time>2022-12-26T10:58:55Z</time>
      </trkpt>
      <trkpt lat="46.61095" lon="5.56446">
        <ele>556</ele>
        <time>2022-12-26T10:58:56Z</time>
      </trkpt>
      <trkpt lat="46.61095" lon="5.56446">
        <ele>556.2</ele>
        <time>2022-12-26T10:58:57Z</time>
      </trkpt>
      <trkpt lat="46.61092" lon="5.56446">
        <ele>556.2</ele>
        <time>2022-12-26T10:58:58Z</time>
      </trkpt>
      <trkpt lat="46.6109" lon="5.56445">
        <ele>556.4</ele>
        <time>2022-12-26T10:58:59Z</time>
      </trkpt>
      <trkpt lat="46.6109" lon="5.56445">
        <ele>556.4</ele>
        <time>2022-12-26T10:59:00Z</time>
      </trkpt>
      <trkpt lat="46.61087" lon="5.56444">
        <ele>556.4</ele>
        <time>2022-12-26T10:59:01Z</time>
      </trkpt>
      <trkpt lat="46.61087" lon="5.56444">
        <ele>556.4</ele>
        <time>2022-12-26T10:59:02Z</time>
      </trkpt>
      <trkpt lat="46.61084" lon="5.56443">
        <ele>556.6</ele>
        <time>2022-12-26T10:59:03Z</time>
      </trkpt>
      <trkpt lat="46.61084" lon="5.56443">
        <ele>556.6</ele>
        <time>2022-12-26T10:59:04Z</time>
      </trkpt>
      <trkpt lat="46.61081" lon="5.56442">
        <ele>556.6</ele>
        <time>2022-12-26T10:59:05Z</time>
      </trkpt>
      <trkpt lat="46.61081" lon="5.56442">
        <ele>556.6</ele>
        <time>2022-12-26T10:59:06Z</time>
      </trkpt>
      <trkpt lat="46.61078" lon="5.56441">
        <ele>556.6</ele>
        <time>2022-12-26T10:59:07Z</time>
      </trkpt>
      <trkpt lat="46.61078" lon="5.56441">
        <ele>556.6</ele>
        <time>2022-12-26T10:59:08Z</time>
      </trkpt>
      <trkpt lat="46.61075" lon="5.5644">
        <ele>556.6</ele>
        <time>2022-12-26T10:59:09Z</time>
      </trkpt>
      <trkpt lat="46.61075" lon="5.5644">
        <ele>556.6</ele>
        <time>2022-12-26T10:59:10Z</time>
      </trkpt>
      <trkpt lat="46.61072" lon="5.56439">
        <ele>556.6</ele>
        <time>2022-12-26T10:59:11Z</time>
      </trkpt>
      <trkpt lat="46.61072" lon="5.56439">
        <ele>556.6</ele>
        <time>2022-12-26T10:59:12Z</time>
      </trkpt>
      <trkpt lat="46.61067" lon="5.56437">
        <ele>556.8</ele>
        <time>2022-12-26T10:59:13Z</time>
      </trkpt>
      <trkpt lat="46.61066" lon="5.56437">
        <ele>556.8</ele>
        <time>2022-12-26T10:59:14Z</time>
      </trkpt>
      <trkpt lat="46.61064" lon="5.56434">
        <ele>556.8</ele>
        <time>2022-12-26T10:59:15Z</time>
      </trkpt>
      <trkpt lat="46.61062" lon="5.56433">
        <ele>556.8</ele>
        <time>2022-12-26T10:59:16Z</time>
      </trkpt>
      <trkpt lat="46.61062" lon="5.56433">
        <ele>557</ele>
        <time>2022-12-26T10:59:17Z</time>
      </trkpt>
      <trkpt lat="46.61059" lon="5.56431">
        <ele>557</ele>
        <time>2022-12-26T10:59:18Z</time>
      </trkpt>
      <trkpt lat="46.61057" lon="5.5643">
        <ele>557.2</ele>
        <time>2022-12-26T10:59:19Z</time>
      </trkpt>
      <trkpt lat="46.61054" lon="5.5643">
        <ele>557.2</ele>
        <time>2022-12-26T10:59:20Z</time>
      </trkpt>
      <trkpt lat="46.61054" lon="5.5643">
        <ele>557.4</ele>
        <time>2022-12-26T10:59:21Z</time>
      </trkpt>
      <trkpt lat="46.61051" lon="5.56428">
        <ele>557.4</ele>
        <time>2022-12-26T10:59:22Z</time>
      </trkpt>
      <trkpt lat="46.61049" lon="5.56427">
        <ele>557.4</ele>
        <time>2022-12-26T10:59:23Z</time>
      </trkpt>
      <trkpt lat="46.61046" lon="5.56427">
        <ele>557.6</ele>
        <time>2022-12-26T10:59:24Z</time>
      </trkpt>
      <trkpt lat="46.61044" lon="5.56426">
        <ele>557.6</ele>
        <time>2022-12-26T10:59:25Z</time>
      </trkpt>
      <trkpt lat="46.61042" lon="5.56424">
        <ele>557.6</ele>
        <time>2022-12-26T10:59:26Z</time>
      </trkpt>
      <trkpt lat="46.6104" lon="5.56423">
        <ele>557.8</ele>
        <time>2022-12-26T10:59:27Z</time>
      </trkpt>
      <trkpt lat="46.61038" lon="5.56421">
        <ele>557.8</ele>
        <time>2022-12-26T10:59:28Z</time>
      </trkpt>
      <trkpt lat="46.61036" lon="5.5642">
        <ele>558</ele>
        <time>2022-12-26T10:59:29Z</time>
      </trkpt>
      <trkpt lat="46.61033" lon="5.56419">
        <ele>558</ele>
        <time>2022-12-26T10:59:30Z</time>
      </trkpt>
      <trkpt lat="46.61031" lon="5.56419">
        <ele>558.2</ele>
        <time>2022-12-26T10:59:31Z</time>
      </trkpt>
      <trkpt lat="46.61029" lon="5.56418">
        <ele>558.4</ele>
        <time>2022-12-26T10:59:32Z</time>
      </trkpt>
      <trkpt lat="46.61026" lon="5.56418">
        <ele>558.4</ele>
        <time>2022-12-26T10:59:33Z</time>
      </trkpt>
      <trkpt lat="46.61023" lon="5.56418">
        <ele>558.6</ele>
        <time>2022-12-26T10:59:34Z</time>
      </trkpt>
      <trkpt lat="46.61021" lon="5.56417">
        <ele>558.6</ele>
        <time>2022-12-26T10:59:35Z</time>
      </trkpt>
      <trkpt lat="46.61019" lon="5.56416">
        <ele>558.8</ele>
        <time>2022-12-26T10:59:36Z</time>
      </trkpt>
      <trkpt lat="46.61017" lon="5.56416">
        <ele>559</ele>
        <time>2022-12-26T10:59:37Z</time>
      </trkpt>
      <trkpt lat="46.61014" lon="5.56415">
        <ele>559</ele>
        <time>2022-12-26T10:59:38Z</time>
      </trkpt>
      <trkpt lat="46.61012" lon="5.56414">
        <ele>559</ele>
        <time>2022-12-26T10:59:39Z</time>
      </trkpt>
      <trkpt lat="46.6101" lon="5.56414">
        <ele>559.2</ele>
        <time>2022-12-26T10:59:40Z</time>
      </trkpt>
      <trkpt lat="46.61008" lon="5.56414">
        <ele>559.2</ele>
        <time>2022-12-26T10:59:41Z</time>
      </trkpt>
      <trkpt lat="46.61008" lon="5.56414">
        <ele>559.4</ele>
        <time>2022-12-26T10:59:42Z</time>
      </trkpt>
      <trkpt lat="46.61004" lon="5.56413">
        <ele>559.4</ele>
        <time>2022-12-26T10:59:43Z</time>
      </trkpt>
      <trkpt lat="46.61004" lon="5.56413">
        <ele>559.6</ele>
        <time>2022-12-26T10:59:44Z</time>
      </trkpt>
      <trkpt lat="46.61" lon="5.56412">
        <ele>559.6</ele>
        <time>2022-12-26T10:59:45Z</time>
      </trkpt>
      <trkpt lat="46.60997" lon="5.56412">
        <ele>559.8</ele>
        <time>2022-12-26T10:59:46Z</time>
      </trkpt>
      <trkpt lat="46.60997" lon="5.56412">
        <ele>560</ele>
        <time>2022-12-26T10:59:47Z</time>
      </trkpt>
      <trkpt lat="46.60994" lon="5.56412">
        <ele>560</ele>
        <time>2022-12-26T10:59:48Z</time>
      </trkpt>
      <trkpt lat="46.60994" lon="5.56412">
        <ele>560.2</ele>
        <time>2022-12-26T10:59:49Z</time>
      </trkpt>
      <trkpt lat="46.60994" lon="5.56412">
        <ele>560.4</ele>
        <time>2022-12-26T10:59:50Z</time>
      </trkpt>
      <trkpt lat="46.60994" lon="5.56412">
        <ele>560.4</ele>
        <time>2022-12-26T10:59:51Z</time>
      </trkpt>
      <trkpt lat="46.60994" lon="5.56412">
        <ele>560.6</ele>
        <time>2022-12-26T10:59:52Z</time>
      </trkpt>
      <trkpt lat="46.60994" lon="5.56412">
        <ele>560.8</ele>
        <time>2022-12-26T10:59:53Z</time>
      </trkpt>
      <trkpt lat="46.60994" lon="5.56412">
        <ele>560.8</ele>
        <time>2022-12-26T10:59:54Z</time>
      </trkpt>
      <trkpt lat="46.60992" lon="5.56413">
        <ele>561</ele>
        <time>2022-12-26T10:59:55Z</time>
      </trkpt>
      <trkpt lat="46.60992" lon="5.56413">
        <ele>561.2</ele>
        <time>2022-12-26T10:59:56Z</time>
      </trkpt>
      <trkpt lat="46.60989" lon="5.56411">
        <ele>561.2</ele>
        <time>2022-12-26T10:59:57Z</time>
      </trkpt>
      <trkpt lat="46.60989" lon="5.56411">
        <ele>561.4</ele>
        <time>2022-12-26T10:59:58Z</time>
      </trkpt>
      <trkpt lat="46.60986" lon="5.56411">
        <ele>561.6</ele>
        <time>2022-12-26T10:59:59Z</time>
      </trkpt>
      <trkpt lat="46.60984" lon="5.56409">
        <ele>562</ele>
        <time>2022-12-26T11:00:01Z</time>
      </trkpt>
      <trkpt lat="46.60982" lon="5.56409">
        <ele>562.2</ele>
        <time>2022-12-26T11:00:02Z</time>
      </trkpt>
      <trkpt lat="46.6098" lon="5.56409">
        <ele>562.4</ele>
        <time>2022-12-26T11:00:03Z</time>
      </trkpt>
      <trkpt lat="46.60978" lon="5.56409">
        <ele>562.6</ele>
        <time>2022-12-26T11:00:04Z</time>
      </trkpt>
      <trkpt lat="46.60978" lon="5.56409">
        <ele>562.8</ele>
        <time>2022-12-26T11:00:05Z</time>
      </trkpt>
      <trkpt lat="46.60974" lon="5.5641">
        <ele>563</ele>
        <time>2022-12-26T11:00:06Z</time>
      </trkpt>
      <trkpt lat="46.60974" lon="5.5641">
        <ele>563</ele>
        <time>2022-12-26T11:00:07Z</time>
      </trkpt>
      <trkpt lat="46.60972" lon="5.5641">
        <ele>563.2</ele>
        <time>2022-12-26T11:00:08Z</time>
      </trkpt>
      <trkpt lat="46.60972" lon="5.5641">
        <ele>563.4</ele>
        <time>2022-12-26T11:00:09Z</time>
      </trkpt>
      <trkpt lat="46.60969" lon="5.5641">
        <ele>563.4</ele>
        <time>2022-12-26T11:00:10Z</time>
      </trkpt>
      <trkpt lat="46.60969" lon="5.5641">
        <ele>563.6</ele>
        <time>2022-12-26T11:00:11Z</time>
      </trkpt>
      <trkpt lat="46.60966" lon="5.56409">
        <ele>563.8</ele>
        <time>2022-12-26T11:00:12Z</time>
      </trkpt>
      <trkpt lat="46.60966" lon="5.56409">
        <ele>564</ele>
        <time>2022-12-26T11:00:13Z</time>
      </trkpt>
      <trkpt lat="46.60964" lon="5.56408">
        <ele>564.2</ele>
        <time>2022-12-26T11:00:14Z</time>
      </trkpt>
      <trkpt lat="46.60964" lon="5.56408">
        <ele>564.4</ele>
        <time>2022-12-26T11:00:15Z</time>
      </trkpt>
      <trkpt lat="46.60962" lon="5.56408">
        <ele>564.6</ele>
        <time>2022-12-26T11:00:16Z</time>
      </trkpt>
      <trkpt lat="46.60962" lon="5.56408">
        <ele>564.8</ele>
        <time>2022-12-26T11:00:17Z</time>
      </trkpt>
      <trkpt lat="46.60959" lon="5.56408">
        <ele>565</ele>
        <time>2022-12-26T11:00:18Z</time>
      </trkpt>
      <trkpt lat="46.60959" lon="5.56408">
        <ele>565.2</ele>
        <time>2022-12-26T11:00:19Z</time>
      </trkpt>
      <trkpt lat="46.60956" lon="5.56407">
        <ele>565.4</ele>
        <time>2022-12-26T11:00:20Z</time>
      </trkpt>
      <trkpt lat="46.60956" lon="5.56407">
        <ele>565.6</ele>
        <time>2022-12-26T11:00:21Z</time>
      </trkpt>
      <trkpt lat="46.60954" lon="5.56407">
        <ele>565.6</ele>
        <time>2022-12-26T11:00:22Z</time>
      </trkpt>
      <trkpt lat="46.60954" lon="5.56407">
        <ele>566</ele>
        <time>2022-12-26T11:00:23Z</time>
      </trkpt>
      <trkpt lat="46.6095" lon="5.56407">
        <ele>566</ele>
        <time>2022-12-26T11:00:24Z</time>
      </trkpt>
      <trkpt lat="46.60949" lon="5.56407">
        <ele>566.4</ele>
        <time>2022-12-26T11:00:25Z</time>
      </trkpt>
      <trkpt lat="46.60949" lon="5.56407">
        <ele>566.6</ele>
        <time>2022-12-26T11:00:26Z</time>
      </trkpt>
      <trkpt lat="46.60946" lon="5.56407">
        <ele>566.8</ele>
        <time>2022-12-26T11:00:27Z</time>
      </trkpt>
      <trkpt lat="46.60942" lon="5.56408">
        <ele>567</ele>
        <time>2022-12-26T11:00:28Z</time>
      </trkpt>
      <trkpt lat="46.6094" lon="5.56407">
        <ele>567.2</ele>
        <time>2022-12-26T11:00:29Z</time>
      </trkpt>
      <trkpt lat="46.60938" lon="5.56407">
        <ele>567.4</ele>
        <time>2022-12-26T11:00:30Z</time>
      </trkpt>
      <trkpt lat="46.60936" lon="5.56407">
        <ele>567.6</ele>
        <time>2022-12-26T11:00:31Z</time>
      </trkpt>
      <trkpt lat="46.60936" lon="5.56407">
        <ele>567.6</ele>
        <time>2022-12-26T11:00:32Z</time>
      </trkpt>
      <trkpt lat="46.60934" lon="5.56406">
        <ele>567.8</ele>
        <time>2022-12-26T11:00:33Z</time>
      </trkpt>
      <trkpt lat="46.60934" lon="5.56406">
        <ele>568</ele>
        <time>2022-12-26T11:00:34Z</time>
      </trkpt>
      <trkpt lat="46.60931" lon="5.56405">
        <ele>568</ele>
        <time>2022-12-26T11:00:35Z</time>
      </trkpt>
      <trkpt lat="46.60931" lon="5.56405">
        <ele>568.2</ele>
        <time>2022-12-26T11:00:36Z</time>
      </trkpt>
      <trkpt lat="46.60928" lon="5.56404">
        <ele>568.4</ele>
        <time>2022-12-26T11:00:37Z</time>
      </trkpt>
      <trkpt lat="46.60928" lon="5.56404">
        <ele>568.4</ele>
        <time>2022-12-26T11:00:38Z</time>
      </trkpt>
      <trkpt lat="46.60925" lon="5.56402">
        <ele>568.6</ele>
        <time>2022-12-26T11:00:39Z</time>
      </trkpt>
      <trkpt lat="46.60925" lon="5.56402">
        <ele>568.6</ele>
        <time>2022-12-26T11:00:40Z</time>
      </trkpt>
      <trkpt lat="46.60923" lon="5.564">
        <ele>568.6</ele>
        <time>2022-12-26T11:00:41Z</time>
      </trkpt>
      <trkpt lat="46.60923" lon="5.564">
        <ele>568.8</ele>
        <time>2022-12-26T11:00:42Z</time>
      </trkpt>
      <trkpt lat="46.60919" lon="5.564">
        <ele>568.8</ele>
        <time>2022-12-26T11:00:43Z</time>
      </trkpt>
      <trkpt lat="46.60919" lon="5.564">
        <ele>568.8</ele>
        <time>2022-12-26T11:00:44Z</time>
      </trkpt>
      <trkpt lat="46.60916" lon="5.56399">
        <ele>569</ele>
        <time>2022-12-26T11:00:45Z</time>
      </trkpt>
      <trkpt lat="46.60914" lon="5.56399">
        <ele>569</ele>
        <time>2022-12-26T11:00:46Z</time>
      </trkpt>
      <trkpt lat="46.60914" lon="5.56399">
        <ele>569.2</ele>
        <time>2022-12-26T11:00:47Z</time>
      </trkpt>
      <trkpt lat="46.60911" lon="5.56399">
        <ele>569.2</ele>
        <time>2022-12-26T11:00:48Z</time>
      </trkpt>
      <trkpt lat="46.60909" lon="5.56398">
        <ele>569.4</ele>
        <time>2022-12-26T11:00:49Z</time>
      </trkpt>
      <trkpt lat="46.60909" lon="5.56398">
        <ele>569.4</ele>
        <time>2022-12-26T11:00:50Z</time>
      </trkpt>
      <trkpt lat="46.60905" lon="5.56399">
        <ele>569.6</ele>
        <time>2022-12-26T11:00:51Z</time>
      </trkpt>
      <trkpt lat="46.60902" lon="5.56398">
        <ele>569.6</ele>
        <time>2022-12-26T11:00:52Z</time>
      </trkpt>
      <trkpt lat="46.609" lon="5.56397">
        <ele>569.6</ele>
        <time>2022-12-26T11:00:53Z</time>
      </trkpt>
      <trkpt lat="46.609" lon="5.56397">
        <ele>569.8</ele>
        <time>2022-12-26T11:00:54Z</time>
      </trkpt>
      <trkpt lat="46.60897" lon="5.56394">
        <ele>570</ele>
        <time>2022-12-26T11:00:55Z</time>
      </trkpt>
      <trkpt lat="46.60894" lon="5.56394">
        <ele>570</ele>
        <time>2022-12-26T11:00:56Z</time>
      </trkpt>
      <trkpt lat="46.60891" lon="5.56395">
        <ele>570.2</ele>
        <time>2022-12-26T11:00:57Z</time>
      </trkpt>
      <trkpt lat="46.60888" lon="5.56395">
        <ele>570.2</ele>
        <time>2022-12-26T11:00:58Z</time>
      </trkpt>
      <trkpt lat="46.60888" lon="5.56395">
        <ele>570.4</ele>
        <time>2022-12-26T11:00:59Z</time>
      </trkpt>
      <trkpt lat="46.60885" lon="5.56392">
        <ele>570.4</ele>
        <time>2022-12-26T11:01:00Z</time>
      </trkpt>
      <trkpt lat="46.60883" lon="5.56389">
        <ele>570.6</ele>
        <time>2022-12-26T11:01:01Z</time>
      </trkpt>
      <trkpt lat="46.60881" lon="5.56388">
        <ele>570.6</ele>
        <time>2022-12-26T11:01:02Z</time>
      </trkpt>
      <trkpt lat="46.60881" lon="5.56388">
        <ele>570.8</ele>
        <time>2022-12-26T11:01:03Z</time>
      </trkpt>
      <trkpt lat="46.60879" lon="5.56386">
        <ele>571</ele>
        <time>2022-12-26T11:01:04Z</time>
      </trkpt>
      <trkpt lat="46.60879" lon="5.56386">
        <ele>571</ele>
        <time>2022-12-26T11:01:05Z</time>
      </trkpt>
      <trkpt lat="46.60876" lon="5.5639">
        <ele>571.2</ele>
        <time>2022-12-26T11:01:06Z</time>
      </trkpt>
      <trkpt lat="46.60876" lon="5.5639">
        <ele>571.4</ele>
        <time>2022-12-26T11:01:07Z</time>
      </trkpt>
      <trkpt lat="46.60871" lon="5.56392">
        <ele>571.4</ele>
        <time>2022-12-26T11:01:08Z</time>
      </trkpt>
      <trkpt lat="46.6087" lon="5.56392">
        <ele>571.6</ele>
        <time>2022-12-26T11:01:09Z</time>
      </trkpt>
      <trkpt lat="46.60867" lon="5.56394">
        <ele>571.6</ele>
        <time>2022-12-26T11:01:10Z</time>
      </trkpt>
      <trkpt lat="46.60865" lon="5.56396">
        <ele>571.8</ele>
        <time>2022-12-26T11:01:11Z</time>
      </trkpt>
      <trkpt lat="46.60862" lon="5.56396">
        <ele>571.8</ele>
        <time>2022-12-26T11:01:12Z</time>
      </trkpt>
      <trkpt lat="46.60859" lon="5.56397">
        <ele>572</ele>
        <time>2022-12-26T11:01:13Z</time>
      </trkpt>
      <trkpt lat="46.60859" lon="5.56397">
        <ele>572.2</ele>
        <time>2022-12-26T11:01:14Z</time>
      </trkpt>
      <trkpt lat="46.60859" lon="5.56397">
        <ele>572.2</ele>
        <time>2022-12-26T11:01:15Z</time>
      </trkpt>
      <trkpt lat="46.60859" lon="5.56397">
        <ele>572.4</ele>
        <time>2022-12-26T11:01:16Z</time>
      </trkpt>
      <trkpt lat="46.60857" lon="5.56393">
        <ele>572.6</ele>
        <time>2022-12-26T11:01:17Z</time>
      </trkpt>
      <trkpt lat="46.60856" lon="5.56389">
        <ele>572.8</ele>
        <time>2022-12-26T11:01:18Z</time>
      </trkpt>
      <trkpt lat="46.60855" lon="5.56386">
        <ele>572.8</ele>
        <time>2022-12-26T11:01:19Z</time>
      </trkpt>
      <trkpt lat="46.60855" lon="5.56386">
        <ele>573</ele>
        <time>2022-12-26T11:01:20Z</time>
      </trkpt>
      <trkpt lat="46.60852" lon="5.56385">
        <ele>573</ele>
        <time>2022-12-26T11:01:21Z</time>
      </trkpt>
      <trkpt lat="46.60852" lon="5.56385">
        <ele>573.2</ele>
        <time>2022-12-26T11:01:22Z</time>
      </trkpt>
      <trkpt lat="46.60852" lon="5.56385">
        <ele>573.2</ele>
        <time>2022-12-26T11:01:23Z</time>
      </trkpt>
      <trkpt lat="46.60852" lon="5.56385">
        <ele>573.4</ele>
        <time>2022-12-26T11:01:24Z</time>
      </trkpt>
      <trkpt lat="46.60849" lon="5.56385">
        <ele>573.4</ele>
        <time>2022-12-26T11:01:25Z</time>
      </trkpt>
      <trkpt lat="46.60849" lon="5.56385">
        <ele>573.6</ele>
        <time>2022-12-26T11:01:26Z</time>
      </trkpt>
      <trkpt lat="46.60847" lon="5.56386">
        <ele>573.6</ele>
        <time>2022-12-26T11:01:27Z</time>
      </trkpt>
      <trkpt lat="46.60847" lon="5.56386">
        <ele>573.8</ele>
        <time>2022-12-26T11:01:28Z</time>
      </trkpt>
      <trkpt lat="46.60845" lon="5.56386">
        <ele>573.8</ele>
        <time>2022-12-26T11:01:29Z</time>
      </trkpt>
      <trkpt lat="46.60845" lon="5.56386">
        <ele>573.8</ele>
        <time>2022-12-26T11:01:30Z</time>
      </trkpt>
      <trkpt lat="46.60842" lon="5.56384">
        <ele>574</ele>
        <time>2022-12-26T11:01:31Z</time>
      </trkpt>
      <trkpt lat="46.60842" lon="5.56384">
        <ele>574</ele>
        <time>2022-12-26T11:01:32Z</time>
      </trkpt>
      <trkpt lat="46.6084" lon="5.56383">
        <ele>574.2</ele>
        <time>2022-12-26T11:01:33Z</time>
      </trkpt>
      <trkpt lat="46.6084" lon="5.56383">
        <ele>574.2</ele>
        <time>2022-12-26T11:01:34Z</time>
      </trkpt>
      <trkpt lat="46.60838" lon="5.56382">
        <ele>574.4</ele>
        <time>2022-12-26T11:01:35Z</time>
      </trkpt>
      <trkpt lat="46.60838" lon="5.56382">
        <ele>574.4</ele>
        <time>2022-12-26T11:01:36Z</time>
      </trkpt>
      <trkpt lat="46.60835" lon="5.56382">
        <ele>574.6</ele>
        <time>2022-12-26T11:01:37Z</time>
      </trkpt>
      <trkpt lat="46.60835" lon="5.56382">
        <ele>574.6</ele>
        <time>2022-12-26T11:01:38Z</time>
      </trkpt>
      <trkpt lat="46.60833" lon="5.56382">
        <ele>574.8</ele>
        <time>2022-12-26T11:01:39Z</time>
      </trkpt>
      <trkpt lat="46.60833" lon="5.56382">
        <ele>574.8</ele>
        <time>2022-12-26T11:01:40Z</time>
      </trkpt>
      <trkpt lat="46.60829" lon="5.56381">
        <ele>574.8</ele>
        <time>2022-12-26T11:01:41Z</time>
      </trkpt>
      <trkpt lat="46.60829" lon="5.56381">
        <ele>575</ele>
        <time>2022-12-26T11:01:42Z</time>
      </trkpt>
      <trkpt lat="46.60827" lon="5.56381">
        <ele>575</ele>
        <time>2022-12-26T11:01:43Z</time>
      </trkpt>
      <trkpt lat="46.60827" lon="5.56381">
        <ele>575.2</ele>
        <time>2022-12-26T11:01:44Z</time>
      </trkpt>
      <trkpt lat="46.60825" lon="5.5638">
        <ele>575.2</ele>
        <time>2022-12-26T11:01:45Z</time>
      </trkpt>
      <trkpt lat="46.60825" lon="5.5638">
        <ele>575.2</ele>
        <time>2022-12-26T11:01:46Z</time>
      </trkpt>
      <trkpt lat="46.60823" lon="5.56379">
        <ele>575.2</ele>
        <time>2022-12-26T11:01:47Z</time>
      </trkpt>
      <trkpt lat="46.60823" lon="5.56379">
        <ele>575.4</ele>
        <time>2022-12-26T11:01:48Z</time>
      </trkpt>
      <trkpt lat="46.60821" lon="5.56378">
        <ele>575.4</ele>
        <time>2022-12-26T11:01:49Z</time>
      </trkpt>
      <trkpt lat="46.60821" lon="5.56378">
        <ele>575.4</ele>
        <time>2022-12-26T11:01:50Z</time>
      </trkpt>
      <trkpt lat="46.60819" lon="5.56377">
        <ele>575.4</ele>
        <time>2022-12-26T11:01:51Z</time>
      </trkpt>
      <trkpt lat="46.60819" lon="5.56377">
        <ele>575.4</ele>
        <time>2022-12-26T11:01:52Z</time>
      </trkpt>
      <trkpt lat="46.60816" lon="5.56376">
        <ele>575.4</ele>
        <time>2022-12-26T11:01:53Z</time>
      </trkpt>
      <trkpt lat="46.60816" lon="5.56376">
        <ele>575.6</ele>
        <time>2022-12-26T11:01:54Z</time>
      </trkpt>
      <trkpt lat="46.60813" lon="5.56376">
        <ele>575.6</ele>
        <time>2022-12-26T11:01:55Z</time>
      </trkpt>
      <trkpt lat="46.60811" lon="5.56377">
        <ele>575.6</ele>
        <time>2022-12-26T11:01:56Z</time>
      </trkpt>
      <trkpt lat="46.60811" lon="5.56377">
        <ele>575.8</ele>
        <time>2022-12-26T11:01:57Z</time>
      </trkpt>
      <trkpt lat="46.60808" lon="5.56374">
        <ele>576</ele>
        <time>2022-12-26T11:01:58Z</time>
      </trkpt>
      <trkpt lat="46.60806" lon="5.56373">
        <ele>576</ele>
        <time>2022-12-26T11:01:59Z</time>
      </trkpt>
      <trkpt lat="46.60805" lon="5.56372">
        <ele>576.2</ele>
        <time>2022-12-26T11:02:00Z</time>
      </trkpt>
      <trkpt lat="46.60805" lon="5.56372">
        <ele>576.4</ele>
        <time>2022-12-26T11:02:01Z</time>
      </trkpt>
      <trkpt lat="46.60802" lon="5.56371">
        <ele>576.4</ele>
        <time>2022-12-26T11:02:02Z</time>
      </trkpt>
      <trkpt lat="46.60802" lon="5.56371">
        <ele>576.6</ele>
        <time>2022-12-26T11:02:03Z</time>
      </trkpt>
      <trkpt lat="46.608" lon="5.5637">
        <ele>576.8</ele>
        <time>2022-12-26T11:02:04Z</time>
      </trkpt>
      <trkpt lat="46.608" lon="5.5637">
        <ele>577</ele>
        <time>2022-12-26T11:02:05Z</time>
      </trkpt>
      <trkpt lat="46.60797" lon="5.56368">
        <ele>577</ele>
        <time>2022-12-26T11:02:06Z</time>
      </trkpt>
      <trkpt lat="46.60797" lon="5.56368">
        <ele>577.2</ele>
        <time>2022-12-26T11:02:07Z</time>
      </trkpt>
      <trkpt lat="46.60793" lon="5.56367">
        <ele>577.4</ele>
        <time>2022-12-26T11:02:08Z</time>
      </trkpt>
      <trkpt lat="46.60793" lon="5.56367">
        <ele>577.4</ele>
        <time>2022-12-26T11:02:09Z</time>
      </trkpt>
      <trkpt lat="46.6079" lon="5.56367">
        <ele>577.6</ele>
        <time>2022-12-26T11:02:10Z</time>
      </trkpt>
      <trkpt lat="46.6079" lon="5.56367">
        <ele>577.8</ele>
        <time>2022-12-26T11:02:11Z</time>
      </trkpt>
      <trkpt lat="46.60787" lon="5.56366">
        <ele>577.8</ele>
        <time>2022-12-26T11:02:12Z</time>
      </trkpt>
      <trkpt lat="46.60785" lon="5.56366">
        <ele>578</ele>
        <time>2022-12-26T11:02:13Z</time>
      </trkpt>
      <trkpt lat="46.60783" lon="5.56365">
        <ele>578</ele>
        <time>2022-12-26T11:02:14Z</time>
      </trkpt>
      <trkpt lat="46.60781" lon="5.56365">
        <ele>578.2</ele>
        <time>2022-12-26T11:02:15Z</time>
      </trkpt>
      <trkpt lat="46.60781" lon="5.56365">
        <ele>578.2</ele>
        <time>2022-12-26T11:02:16Z</time>
      </trkpt>
      <trkpt lat="46.60779" lon="5.56363">
        <ele>578.4</ele>
        <time>2022-12-26T11:02:17Z</time>
      </trkpt>
      <trkpt lat="46.60779" lon="5.56363">
        <ele>578.4</ele>
        <time>2022-12-26T11:02:18Z</time>
      </trkpt>
      <trkpt lat="46.60777" lon="5.56361">
        <ele>578.6</ele>
        <time>2022-12-26T11:02:19Z</time>
      </trkpt>
      <trkpt lat="46.60775" lon="5.5636">
        <ele>578.6</ele>
        <time>2022-12-26T11:02:20Z</time>
      </trkpt>
      <trkpt lat="46.60773" lon="5.56359">
        <ele>578.8</ele>
        <time>2022-12-26T11:02:21Z</time>
      </trkpt>
      <trkpt lat="46.60773" lon="5.56359">
        <ele>578.8</ele>
        <time>2022-12-26T11:02:22Z</time>
      </trkpt>
      <trkpt lat="46.6077" lon="5.56357">
        <ele>579</ele>
        <time>2022-12-26T11:02:23Z</time>
      </trkpt>
      <trkpt lat="46.6077" lon="5.56357">
        <ele>579</ele>
        <time>2022-12-26T11:02:24Z</time>
      </trkpt>
      <trkpt lat="46.60767" lon="5.56355">
        <ele>579.2</ele>
        <time>2022-12-26T11:02:25Z</time>
      </trkpt>
      <trkpt lat="46.60767" lon="5.56355">
        <ele>579.4</ele>
        <time>2022-12-26T11:02:26Z</time>
      </trkpt>
      <trkpt lat="46.60764" lon="5.56354">
        <ele>579.6</ele>
        <time>2022-12-26T11:02:27Z</time>
      </trkpt>
      <trkpt lat="46.60764" lon="5.56354">
        <ele>579.8</ele>
        <time>2022-12-26T11:02:28Z</time>
      </trkpt>
      <trkpt lat="46.60761" lon="5.56353">
        <ele>580</ele>
        <time>2022-12-26T11:02:29Z</time>
      </trkpt>
      <trkpt lat="46.60761" lon="5.56353">
        <ele>580</ele>
        <time>2022-12-26T11:02:30Z</time>
      </trkpt>
      <trkpt lat="46.60759" lon="5.56352">
        <ele>580.2</ele>
        <time>2022-12-26T11:02:31Z</time>
      </trkpt>
      <trkpt lat="46.60759" lon="5.56352">
        <ele>580.2</ele>
        <time>2022-12-26T11:02:32Z</time>
      </trkpt>
      <trkpt lat="46.60757" lon="5.56352">
        <ele>580.4</ele>
        <time>2022-12-26T11:02:33Z</time>
      </trkpt>
      <trkpt lat="46.60757" lon="5.56352">
        <ele>580.6</ele>
        <time>2022-12-26T11:02:34Z</time>
      </trkpt>
      <trkpt lat="46.60757" lon="5.56352">
        <ele>580.6</ele>
        <time>2022-12-26T11:02:35Z</time>
      </trkpt>
      <trkpt lat="46.60757" lon="5.56352">
        <ele>580.8</ele>
        <time>2022-12-26T11:02:36Z</time>
      </trkpt>
      <trkpt lat="46.60754" lon="5.5635">
        <ele>580.8</ele>
        <time>2022-12-26T11:02:37Z</time>
      </trkpt>
      <trkpt lat="46.60752" lon="5.56349">
        <ele>581</ele>
        <time>2022-12-26T11:02:38Z</time>
      </trkpt>
      <trkpt lat="46.6075" lon="5.56349">
        <ele>581.2</ele>
        <time>2022-12-26T11:02:39Z</time>
      </trkpt>
      <trkpt lat="46.6075" lon="5.56349">
        <ele>581.4</ele>
        <time>2022-12-26T11:02:40Z</time>
      </trkpt>
      <trkpt lat="46.60748" lon="5.56349">
        <ele>581.4</ele>
        <time>2022-12-26T11:02:41Z</time>
      </trkpt>
      <trkpt lat="46.60746" lon="5.56349">
        <ele>581.6</ele>
        <time>2022-12-26T11:02:42Z</time>
      </trkpt>
      <trkpt lat="46.60744" lon="5.5635">
        <ele>581.8</ele>
        <time>2022-12-26T11:02:43Z</time>
      </trkpt>
      <trkpt lat="46.60744" lon="5.5635">
        <ele>582</ele>
        <time>2022-12-26T11:02:44Z</time>
      </trkpt>
      <trkpt lat="46.60741" lon="5.5635">
        <ele>582.2</ele>
        <time>2022-12-26T11:02:45Z</time>
      </trkpt>
      <trkpt lat="46.60741" lon="5.5635">
        <ele>582.4</ele>
        <time>2022-12-26T11:02:46Z</time>
      </trkpt>
      <trkpt lat="46.60737" lon="5.5635">
        <ele>582.6</ele>
        <time>2022-12-26T11:02:47Z</time>
      </trkpt>
      <trkpt lat="46.60737" lon="5.5635">
        <ele>582.8</ele>
        <time>2022-12-26T11:02:48Z</time>
      </trkpt>
      <trkpt lat="46.60734" lon="5.56349">
        <ele>582.8</ele>
        <time>2022-12-26T11:02:49Z</time>
      </trkpt>
      <trkpt lat="46.60732" lon="5.56348">
        <ele>583</ele>
        <time>2022-12-26T11:02:50Z</time>
      </trkpt>
      <trkpt lat="46.60732" lon="5.56348">
        <ele>583.2</ele>
        <time>2022-12-26T11:02:51Z</time>
      </trkpt>
      <trkpt lat="46.6073" lon="5.56347">
        <ele>583.4</ele>
        <time>2022-12-26T11:02:52Z</time>
      </trkpt>
      <trkpt lat="46.60727" lon="5.56347">
        <ele>583.6</ele>
        <time>2022-12-26T11:02:53Z</time>
      </trkpt>
      <trkpt lat="46.60725" lon="5.56346">
        <ele>583.8</ele>
        <time>2022-12-26T11:02:54Z</time>
      </trkpt>
      <trkpt lat="46.60723" lon="5.56346">
        <ele>583.8</ele>
        <time>2022-12-26T11:02:55Z</time>
      </trkpt>
      <trkpt lat="46.60723" lon="5.56346">
        <ele>584</ele>
        <time>2022-12-26T11:02:56Z</time>
      </trkpt>
      <trkpt lat="46.6072" lon="5.56345">
        <ele>584.2</ele>
        <time>2022-12-26T11:02:57Z</time>
      </trkpt>
      <trkpt lat="46.60717" lon="5.56345">
        <ele>584.2</ele>
        <time>2022-12-26T11:02:58Z</time>
      </trkpt>
      <trkpt lat="46.60717" lon="5.56345">
        <ele>584.4</ele>
        <time>2022-12-26T11:02:59Z</time>
      </trkpt>
      <trkpt lat="46.60717" lon="5.56345">
        <ele>584.4</ele>
        <time>2022-12-26T11:03:00Z</time>
      </trkpt>
      <trkpt lat="46.60716" lon="5.56345">
        <ele>584.6</ele>
        <time>2022-12-26T11:03:01Z</time>
      </trkpt>
      <trkpt lat="46.60716" lon="5.56345">
        <ele>584.8</ele>
        <time>2022-12-26T11:03:02Z</time>
      </trkpt>
      <trkpt lat="46.60712" lon="5.56343">
        <ele>584.8</ele>
        <time>2022-12-26T11:03:03Z</time>
      </trkpt>
      <trkpt lat="46.60712" lon="5.56343">
        <ele>585</ele>
        <time>2022-12-26T11:03:04Z</time>
      </trkpt>
      <trkpt lat="46.60709" lon="5.56341">
        <ele>585</ele>
        <time>2022-12-26T11:03:05Z</time>
      </trkpt>
      <trkpt lat="46.60709" lon="5.56341">
        <ele>585.2</ele>
        <time>2022-12-26T11:03:06Z</time>
      </trkpt>
      <trkpt lat="46.60706" lon="5.5634">
        <ele>585.2</ele>
        <time>2022-12-26T11:03:07Z</time>
      </trkpt>
      <trkpt lat="46.60706" lon="5.5634">
        <ele>585.4</ele>
        <time>2022-12-26T11:03:08Z</time>
      </trkpt>
      <trkpt lat="46.60704" lon="5.56339">
        <ele>585.6</ele>
        <time>2022-12-26T11:03:09Z</time>
      </trkpt>
      <trkpt lat="46.60704" lon="5.56339">
        <ele>585.6</ele>
        <time>2022-12-26T11:03:10Z</time>
      </trkpt>
      <trkpt lat="46.60701" lon="5.5634">
        <ele>585.6</ele>
        <time>2022-12-26T11:03:11Z</time>
      </trkpt>
      <trkpt lat="46.60699" lon="5.5634">
        <ele>585.8</ele>
        <time>2022-12-26T11:03:12Z</time>
      </trkpt>
      <trkpt lat="46.60699" lon="5.5634">
        <ele>586</ele>
        <time>2022-12-26T11:03:13Z</time>
      </trkpt>
      <trkpt lat="46.60697" lon="5.5634">
        <ele>586</ele>
        <time>2022-12-26T11:03:14Z</time>
      </trkpt>
      <trkpt lat="46.60697" lon="5.5634">
        <ele>586.2</ele>
        <time>2022-12-26T11:03:15Z</time>
      </trkpt>
      <trkpt lat="46.60695" lon="5.56342">
        <ele>586.4</ele>
        <time>2022-12-26T11:03:16Z</time>
      </trkpt>
      <trkpt lat="46.60693" lon="5.56343">
        <ele>586.4</ele>
        <time>2022-12-26T11:03:17Z</time>
      </trkpt>
      <trkpt lat="46.60691" lon="5.56344">
        <ele>586.6</ele>
        <time>2022-12-26T11:03:18Z</time>
      </trkpt>
      <trkpt lat="46.60691" lon="5.56344">
        <ele>586.6</ele>
        <time>2022-12-26T11:03:19Z</time>
      </trkpt>
      <trkpt lat="46.60688" lon="5.56345">
        <ele>586.8</ele>
        <time>2022-12-26T11:03:20Z</time>
      </trkpt>
      <trkpt lat="46.60688" lon="5.56345">
        <ele>586.8</ele>
        <time>2022-12-26T11:03:21Z</time>
      </trkpt>
      <trkpt lat="46.60688" lon="5.56345">
        <ele>587</ele>
        <time>2022-12-26T11:03:22Z</time>
      </trkpt>
      <trkpt lat="46.60686" lon="5.56347">
        <ele>587.2</ele>
        <time>2022-12-26T11:03:23Z</time>
      </trkpt>
      <trkpt lat="46.60686" lon="5.56347">
        <ele>587.4</ele>
        <time>2022-12-26T11:03:24Z</time>
      </trkpt>
      <trkpt lat="46.60686" lon="5.56347">
        <ele>587.6</ele>
        <time>2022-12-26T11:03:25Z</time>
      </trkpt>
      <trkpt lat="46.60686" lon="5.56347">
        <ele>587.8</ele>
        <time>2022-12-26T11:03:26Z</time>
      </trkpt>
      <trkpt lat="46.60684" lon="5.56349">
        <ele>588</ele>
        <time>2022-12-26T11:03:27Z</time>
      </trkpt>
      <trkpt lat="46.60684" lon="5.56349">
        <ele>588</ele>
        <time>2022-12-26T11:03:28Z</time>
      </trkpt>
      <trkpt lat="46.60681" lon="5.5635">
        <ele>588.2</ele>
        <time>2022-12-26T11:03:29Z</time>
      </trkpt>
      <trkpt lat="46.60681" lon="5.5635">
        <ele>588.4</ele>
        <time>2022-12-26T11:03:30Z</time>
      </trkpt>
      <trkpt lat="46.60679" lon="5.56351">
        <ele>588.4</ele>
        <time>2022-12-26T11:03:31Z</time>
      </trkpt>
      <trkpt lat="46.60679" lon="5.56351">
        <ele>588.6</ele>
        <time>2022-12-26T11:03:32Z</time>
      </trkpt>
      <trkpt lat="46.60676" lon="5.56352">
        <ele>588.8</ele>
        <time>2022-12-26T11:03:33Z</time>
      </trkpt>
      <trkpt lat="46.60676" lon="5.56352">
        <ele>588.8</ele>
        <time>2022-12-26T11:03:34Z</time>
      </trkpt>
      <trkpt lat="46.60676" lon="5.56352">
        <ele>589</ele>
        <time>2022-12-26T11:03:35Z</time>
      </trkpt>
      <trkpt lat="46.60676" lon="5.56352">
        <ele>589</ele>
        <time>2022-12-26T11:03:36Z</time>
      </trkpt>
      <trkpt lat="46.60676" lon="5.56352">
        <ele>589.2</ele>
        <time>2022-12-26T11:03:37Z</time>
      </trkpt>
      <trkpt lat="46.60674" lon="5.56352">
        <ele>589.2</ele>
        <time>2022-12-26T11:03:38Z</time>
      </trkpt>
      <trkpt lat="46.60671" lon="5.56353">
        <ele>589.4</ele>
        <time>2022-12-26T11:03:39Z</time>
      </trkpt>
      <trkpt lat="46.60671" lon="5.56353">
        <ele>589.6</ele>
        <time>2022-12-26T11:03:40Z</time>
      </trkpt>
      <trkpt lat="46.60668" lon="5.56353">
        <ele>589.8</ele>
        <time>2022-12-26T11:03:41Z</time>
      </trkpt>
      <trkpt lat="46.60668" lon="5.56353">
        <ele>590</ele>
        <time>2022-12-26T11:03:42Z</time>
      </trkpt>
      <trkpt lat="46.60666" lon="5.56353">
        <ele>590</ele>
        <time>2022-12-26T11:03:43Z</time>
      </trkpt>
      <trkpt lat="46.60666" lon="5.56353">
        <ele>590.2</ele>
        <time>2022-12-26T11:03:44Z</time>
      </trkpt>
      <trkpt lat="46.60662" lon="5.56353">
        <ele>590.4</ele>
        <time>2022-12-26T11:03:45Z</time>
      </trkpt>
      <trkpt lat="46.60662" lon="5.56353">
        <ele>590.6</ele>
        <time>2022-12-26T11:03:46Z</time>
      </trkpt>
      <trkpt lat="46.6066" lon="5.56354">
        <ele>590.8</ele>
        <time>2022-12-26T11:03:47Z</time>
      </trkpt>
      <trkpt lat="46.6066" lon="5.56354">
        <ele>591</ele>
        <time>2022-12-26T11:03:48Z</time>
      </trkpt>
      <trkpt lat="46.60656" lon="5.56353">
        <ele>591.2</ele>
        <time>2022-12-26T11:03:49Z</time>
      </trkpt>
      <trkpt lat="46.60656" lon="5.56353">
        <ele>591.4</ele>
        <time>2022-12-26T11:03:50Z</time>
      </trkpt>
      <trkpt lat="46.60654" lon="5.56354">
        <ele>591.8</ele>
        <time>2022-12-26T11:03:51Z</time>
      </trkpt>
      <trkpt lat="46.60654" lon="5.56354">
        <ele>592</ele>
        <time>2022-12-26T11:03:52Z</time>
      </trkpt>
      <trkpt lat="46.60654" lon="5.56354">
        <ele>592.2</ele>
        <time>2022-12-26T11:03:53Z</time>
      </trkpt>
      <trkpt lat="46.60654" lon="5.56354">
        <ele>592.4</ele>
        <time>2022-12-26T11:03:54Z</time>
      </trkpt>
      <trkpt lat="46.60651" lon="5.56354">
        <ele>592.6</ele>
        <time>2022-12-26T11:03:55Z</time>
      </trkpt>
      <trkpt lat="46.60649" lon="5.56355">
        <ele>592.8</ele>
        <time>2022-12-26T11:03:56Z</time>
      </trkpt>
      <trkpt lat="46.60649" lon="5.56355">
        <ele>593</ele>
        <time>2022-12-26T11:03:57Z</time>
      </trkpt>
      <trkpt lat="46.60646" lon="5.56356">
        <ele>593.2</ele>
        <time>2022-12-26T11:03:58Z</time>
      </trkpt>
      <trkpt lat="46.60646" lon="5.56356">
        <ele>593.4</ele>
        <time>2022-12-26T11:03:59Z</time>
      </trkpt>
      <trkpt lat="46.60645" lon="5.56359">
        <ele>593.6</ele>
        <time>2022-12-26T11:04:00Z</time>
      </trkpt>
      <trkpt lat="46.60645" lon="5.56359">
        <ele>593.6</ele>
        <time>2022-12-26T11:04:01Z</time>
      </trkpt>
      <trkpt lat="46.60642" lon="5.56361">
        <ele>593.8</ele>
        <time>2022-12-26T11:04:02Z</time>
      </trkpt>
      <trkpt lat="46.6064" lon="5.56363">
        <ele>594</ele>
        <time>2022-12-26T11:04:03Z</time>
      </trkpt>
      <trkpt lat="46.60638" lon="5.56365">
        <ele>594.4</ele>
        <time>2022-12-26T11:04:04Z</time>
      </trkpt>
      <trkpt lat="46.60637" lon="5.56366">
        <ele>594.6</ele>
        <time>2022-12-26T11:04:05Z</time>
      </trkpt>
      <trkpt lat="46.60634" lon="5.56366">
        <ele>595</ele>
        <time>2022-12-26T11:04:06Z</time>
      </trkpt>
      <trkpt lat="46.60634" lon="5.56366">
        <ele>595.2</ele>
        <time>2022-12-26T11:04:07Z</time>
      </trkpt>
      <trkpt lat="46.60631" lon="5.56365">
        <ele>595.4</ele>
        <time>2022-12-26T11:04:08Z</time>
      </trkpt>
      <trkpt lat="46.60631" lon="5.56365">
        <ele>595.6</ele>
        <time>2022-12-26T11:04:09Z</time>
      </trkpt>
      <trkpt lat="46.60629" lon="5.56364">
        <ele>595.8</ele>
        <time>2022-12-26T11:04:10Z</time>
      </trkpt>
      <trkpt lat="46.60629" lon="5.56364">
        <ele>596</ele>
        <time>2022-12-26T11:04:11Z</time>
      </trkpt>
      <trkpt lat="46.60626" lon="5.56364">
        <ele>596.2</ele>
        <time>2022-12-26T11:04:12Z</time>
      </trkpt>
      <trkpt lat="46.60626" lon="5.56364">
        <ele>596.4</ele>
        <time>2022-12-26T11:04:13Z</time>
      </trkpt>
      <trkpt lat="46.60624" lon="5.56364">
        <ele>596.6</ele>
        <time>2022-12-26T11:04:14Z</time>
      </trkpt>
      <trkpt lat="46.60624" lon="5.56364">
        <ele>596.8</ele>
        <time>2022-12-26T11:04:15Z</time>
      </trkpt>
      <trkpt lat="46.60621" lon="5.56363">
        <ele>597</ele>
        <time>2022-12-26T11:04:16Z</time>
      </trkpt>
      <trkpt lat="46.60621" lon="5.56363">
        <ele>597.2</ele>
        <time>2022-12-26T11:04:17Z</time>
      </trkpt>
      <trkpt lat="46.60618" lon="5.56364">
        <ele>597.4</ele>
        <time>2022-12-26T11:04:18Z</time>
      </trkpt>
      <trkpt lat="46.60618" lon="5.56364">
        <ele>597.6</ele>
        <time>2022-12-26T11:04:19Z</time>
      </trkpt>
      <trkpt lat="46.60615" lon="5.56363">
        <ele>597.8</ele>
        <time>2022-12-26T11:04:20Z</time>
      </trkpt>
      <trkpt lat="46.60615" lon="5.56363">
        <ele>598</ele>
        <time>2022-12-26T11:04:21Z</time>
      </trkpt>
      <trkpt lat="46.60613" lon="5.56362">
        <ele>598.2</ele>
        <time>2022-12-26T11:04:22Z</time>
      </trkpt>
      <trkpt lat="46.60613" lon="5.56362">
        <ele>598.4</ele>
        <time>2022-12-26T11:04:23Z</time>
      </trkpt>
      <trkpt lat="46.6061" lon="5.56363">
        <ele>598.6</ele>
        <time>2022-12-26T11:04:24Z</time>
      </trkpt>
      <trkpt lat="46.6061" lon="5.56363">
        <ele>598.8</ele>
        <time>2022-12-26T11:04:25Z</time>
      </trkpt>
      <trkpt lat="46.60608" lon="5.56364">
        <ele>599</ele>
        <time>2022-12-26T11:04:26Z</time>
      </trkpt>
      <trkpt lat="46.60608" lon="5.56364">
        <ele>599.2</ele>
        <time>2022-12-26T11:04:27Z</time>
      </trkpt>
      <trkpt lat="46.60605" lon="5.56364">
        <ele>599.4</ele>
        <time>2022-12-26T11:04:28Z</time>
      </trkpt>
      <trkpt lat="46.60605" lon="5.56364">
        <ele>599.6</ele>
        <time>2022-12-26T11:04:29Z</time>
      </trkpt>
      <trkpt lat="46.60603" lon="5.56363">
        <ele>599.8</ele>
        <time>2022-12-26T11:04:30Z</time>
      </trkpt>
      <trkpt lat="46.60601" lon="5.56363">
        <ele>600</ele>
        <time>2022-12-26T11:04:31Z</time>
      </trkpt>
      <trkpt lat="46.60601" lon="5.56363">
        <ele>600.2</ele>
        <time>2022-12-26T11:04:32Z</time>
      </trkpt>
      <trkpt lat="46.60599" lon="5.56361">
        <ele>600.4</ele>
        <time>2022-12-26T11:04:33Z</time>
      </trkpt>
      <trkpt lat="46.60599" lon="5.56361">
        <ele>600.6</ele>
        <time>2022-12-26T11:04:34Z</time>
      </trkpt>
      <trkpt lat="46.60599" lon="5.56361">
        <ele>600.8</ele>
        <time>2022-12-26T11:04:35Z</time>
      </trkpt>
      <trkpt lat="46.60599" lon="5.56361">
        <ele>601</ele>
        <time>2022-12-26T11:04:36Z</time>
      </trkpt>
      <trkpt lat="46.60597" lon="5.5636">
        <ele>601.2</ele>
        <time>2022-12-26T11:04:37Z</time>
      </trkpt>
      <trkpt lat="46.60595" lon="5.56361">
        <ele>601.4</ele>
        <time>2022-12-26T11:04:38Z</time>
      </trkpt>
      <trkpt lat="46.60593" lon="5.56362">
        <ele>601.8</ele>
        <time>2022-12-26T11:04:39Z</time>
      </trkpt>
      <trkpt lat="46.60593" lon="5.56362">
        <ele>602</ele>
        <time>2022-12-26T11:04:40Z</time>
      </trkpt>
      <trkpt lat="46.60591" lon="5.56362">
        <ele>602.4</ele>
        <time>2022-12-26T11:04:41Z</time>
      </trkpt>
      <trkpt lat="46.60591" lon="5.56362">
        <ele>602.6</ele>
        <time>2022-12-26T11:04:42Z</time>
      </trkpt>
      <trkpt lat="46.60589" lon="5.56361">
        <ele>603</ele>
        <time>2022-12-26T11:04:43Z</time>
      </trkpt>
      <trkpt lat="46.60589" lon="5.56361">
        <ele>603.4</ele>
        <time>2022-12-26T11:04:44Z</time>
      </trkpt>
      <trkpt lat="46.60589" lon="5.56361">
        <ele>603.6</ele>
        <time>2022-12-26T11:04:45Z</time>
      </trkpt>
      <trkpt lat="46.60588" lon="5.56359">
        <ele>604</ele>
        <time>2022-12-26T11:04:46Z</time>
      </trkpt>
      <trkpt lat="46.60588" lon="5.56359">
        <ele>604.2</ele>
        <time>2022-12-26T11:04:47Z</time>
      </trkpt>
      <trkpt lat="46.60588" lon="5.56359">
        <ele>604.6</ele>
        <time>2022-12-26T11:04:48Z</time>
      </trkpt>
      <trkpt lat="46.60586" lon="5.56359">
        <ele>604.8</ele>
        <time>2022-12-26T11:04:49Z</time>
      </trkpt>
      <trkpt lat="46.60584" lon="5.56361">
        <ele>605.2</ele>
        <time>2022-12-26T11:04:50Z</time>
      </trkpt>
      <trkpt lat="46.60584" lon="5.56361">
        <ele>605.4</ele>
        <time>2022-12-26T11:04:51Z</time>
      </trkpt>
      <trkpt lat="46.60584" lon="5.56361">
        <ele>605.8</ele>
        <time>2022-12-26T11:04:52Z</time>
      </trkpt>
      <trkpt lat="46.60581" lon="5.56361">
        <ele>606</ele>
        <time>2022-12-26T11:04:53Z</time>
      </trkpt>
      <trkpt lat="46.60581" lon="5.56361">
        <ele>606.4</ele>
        <time>2022-12-26T11:04:54Z</time>
      </trkpt>
      <trkpt lat="46.60581" lon="5.56361">
        <ele>606.6</ele>
        <time>2022-12-26T11:04:55Z</time>
      </trkpt>
      <trkpt lat="46.60578" lon="5.56361">
        <ele>606.8</ele>
        <time>2022-12-26T11:04:56Z</time>
      </trkpt>
      <trkpt lat="46.60578" lon="5.56361">
        <ele>607.2</ele>
        <time>2022-12-26T11:04:57Z</time>
      </trkpt>
      <trkpt lat="46.60578" lon="5.56361">
        <ele>607.4</ele>
        <time>2022-12-26T11:04:58Z</time>
      </trkpt>
      <trkpt lat="46.60578" lon="5.56361">
        <ele>607.8</ele>
        <time>2022-12-26T11:04:59Z</time>
      </trkpt>
      <trkpt lat="46.60576" lon="5.56361">
        <ele>608.2</ele>
        <time>2022-12-26T11:05:00Z</time>
      </trkpt>
      <trkpt lat="46.60576" lon="5.56361">
        <ele>608.4</ele>
        <time>2022-12-26T11:05:01Z</time>
      </trkpt>
      <trkpt lat="46.60574" lon="5.5636">
        <ele>608.6</ele>
        <time>2022-12-26T11:05:02Z</time>
      </trkpt>
      <trkpt lat="46.60574" lon="5.5636">
        <ele>609</ele>
        <time>2022-12-26T11:05:03Z</time>
      </trkpt>
      <trkpt lat="46.60572" lon="5.5636">
        <ele>609.2</ele>
        <time>2022-12-26T11:05:04Z</time>
      </trkpt>
      <trkpt lat="46.60572" lon="5.5636">
        <ele>609.4</ele>
        <time>2022-12-26T11:05:05Z</time>
      </trkpt>
      <trkpt lat="46.60568" lon="5.5636">
        <ele>609.6</ele>
        <time>2022-12-26T11:05:06Z</time>
      </trkpt>
      <trkpt lat="46.60568" lon="5.5636">
        <ele>609.8</ele>
        <time>2022-12-26T11:05:07Z</time>
      </trkpt>
      <trkpt lat="46.60565" lon="5.5636">
        <ele>610</ele>
        <time>2022-12-26T11:05:08Z</time>
      </trkpt>
      <trkpt lat="46.60565" lon="5.5636">
        <ele>610.2</ele>
        <time>2022-12-26T11:05:09Z</time>
      </trkpt>
      <trkpt lat="46.60562" lon="5.56359">
        <ele>610.4</ele>
        <time>2022-12-26T11:05:10Z</time>
      </trkpt>
      <trkpt lat="46.60562" lon="5.56359">
        <ele>610.6</ele>
        <time>2022-12-26T11:05:11Z</time>
      </trkpt>
      <trkpt lat="46.60558" lon="5.56359">
        <ele>610.8</ele>
        <time>2022-12-26T11:05:12Z</time>
      </trkpt>
      <trkpt lat="46.60557" lon="5.5636">
        <ele>611</ele>
        <time>2022-12-26T11:05:13Z</time>
      </trkpt>
      <trkpt lat="46.60555" lon="5.5636">
        <ele>611.4</ele>
        <time>2022-12-26T11:05:14Z</time>
      </trkpt>
      <trkpt lat="46.60555" lon="5.5636">
        <ele>611.6</ele>
        <time>2022-12-26T11:05:15Z</time>
      </trkpt>
      <trkpt lat="46.60551" lon="5.56361">
        <ele>611.8</ele>
        <time>2022-12-26T11:05:16Z</time>
      </trkpt>
      <trkpt lat="46.60549" lon="5.56361">
        <ele>612</ele>
        <time>2022-12-26T11:05:17Z</time>
      </trkpt>
      <trkpt lat="46.60547" lon="5.56361">
        <ele>612.2</ele>
        <time>2022-12-26T11:05:18Z</time>
      </trkpt>
      <trkpt lat="46.60547" lon="5.56361">
        <ele>612.2</ele>
        <time>2022-12-26T11:05:19Z</time>
      </trkpt>
      <trkpt lat="46.60545" lon="5.56359">
        <ele>612.4</ele>
        <time>2022-12-26T11:05:20Z</time>
      </trkpt>
      <trkpt lat="46.60543" lon="5.56359">
        <ele>612.6</ele>
        <time>2022-12-26T11:05:21Z</time>
      </trkpt>
      <trkpt lat="46.60541" lon="5.56358">
        <ele>612.8</ele>
        <time>2022-12-26T11:05:22Z</time>
      </trkpt>
      <trkpt lat="46.60539" lon="5.56358">
        <ele>613</ele>
        <time>2022-12-26T11:05:23Z</time>
      </trkpt>
      <trkpt lat="46.60539" lon="5.56358">
        <ele>613</ele>
        <time>2022-12-26T11:05:24Z</time>
      </trkpt>
      <trkpt lat="46.60536" lon="5.56358">
        <ele>613.2</ele>
        <time>2022-12-26T11:05:25Z</time>
      </trkpt>
      <trkpt lat="46.60533" lon="5.56358">
        <ele>613.4</ele>
        <time>2022-12-26T11:05:26Z</time>
      </trkpt>
      <trkpt lat="46.60531" lon="5.56358">
        <ele>613.6</ele>
        <time>2022-12-26T11:05:27Z</time>
      </trkpt>
      <trkpt lat="46.60529" lon="5.56358">
        <ele>613.8</ele>
        <time>2022-12-26T11:05:28Z</time>
      </trkpt>
      <trkpt lat="46.60527" lon="5.56357">
        <ele>614</ele>
        <time>2022-12-26T11:05:29Z</time>
      </trkpt>
      <trkpt lat="46.60527" lon="5.56357">
        <ele>614</ele>
        <time>2022-12-26T11:05:30Z</time>
      </trkpt>
      <trkpt lat="46.60525" lon="5.56357">
        <ele>614.2</ele>
        <time>2022-12-26T11:05:31Z</time>
      </trkpt>
      <trkpt lat="46.60525" lon="5.56357">
        <ele>614.4</ele>
        <time>2022-12-26T11:05:32Z</time>
      </trkpt>
      <trkpt lat="46.60522" lon="5.56355">
        <ele>614.6</ele>
        <time>2022-12-26T11:05:33Z</time>
      </trkpt>
      <trkpt lat="46.60522" lon="5.56355">
        <ele>614.8</ele>
        <time>2022-12-26T11:05:34Z</time>
      </trkpt>
      <trkpt lat="46.6052" lon="5.56355">
        <ele>615</ele>
        <time>2022-12-26T11:05:35Z</time>
      </trkpt>
      <trkpt lat="46.6052" lon="5.56355">
        <ele>615.2</ele>
        <time>2022-12-26T11:05:36Z</time>
      </trkpt>
      <trkpt lat="46.60517" lon="5.56355">
        <ele>615.6</ele>
        <time>2022-12-26T11:05:37Z</time>
      </trkpt>
      <trkpt lat="46.60515" lon="5.56354">
        <ele>615.8</ele>
        <time>2022-12-26T11:05:38Z</time>
      </trkpt>
      <trkpt lat="46.60512" lon="5.56355">
        <ele>615.8</ele>
        <time>2022-12-26T11:05:39Z</time>
      </trkpt>
      <trkpt lat="46.60509" lon="5.56356">
        <ele>616</ele>
        <time>2022-12-26T11:05:40Z</time>
      </trkpt>
      <trkpt lat="46.60507" lon="5.56357">
        <ele>616.2</ele>
        <time>2022-12-26T11:05:41Z</time>
      </trkpt>
      <trkpt lat="46.60505" lon="5.56357">
        <ele>616.4</ele>
        <time>2022-12-26T11:05:42Z</time>
      </trkpt>
      <trkpt lat="46.60503" lon="5.56357">
        <ele>616.6</ele>
        <time>2022-12-26T11:05:43Z</time>
      </trkpt>
      <trkpt lat="46.60501" lon="5.56357">
        <ele>616.8</ele>
        <time>2022-12-26T11:05:44Z</time>
      </trkpt>
      <trkpt lat="46.60499" lon="5.56358">
        <ele>617</ele>
        <time>2022-12-26T11:05:45Z</time>
      </trkpt>
      <trkpt lat="46.60495" lon="5.56359">
        <ele>617.2</ele>
        <time>2022-12-26T11:05:46Z</time>
      </trkpt>
      <trkpt lat="46.60493" lon="5.56359">
        <ele>617.4</ele>
        <time>2022-12-26T11:05:47Z</time>
      </trkpt>
      <trkpt lat="46.60491" lon="5.56359">
        <ele>617.6</ele>
        <time>2022-12-26T11:05:48Z</time>
      </trkpt>
      <trkpt lat="46.60491" lon="5.56359">
        <ele>617.8</ele>
        <time>2022-12-26T11:05:49Z</time>
      </trkpt>
      <trkpt lat="46.60487" lon="5.56359">
        <ele>618.2</ele>
        <time>2022-12-26T11:05:50Z</time>
      </trkpt>
      <trkpt lat="46.60485" lon="5.56359">
        <ele>618.4</ele>
        <time>2022-12-26T11:05:51Z</time>
      </trkpt>
      <trkpt lat="46.60483" lon="5.56359">
        <ele>618.8</ele>
        <time>2022-12-26T11:05:52Z</time>
      </trkpt>
      <trkpt lat="46.60481" lon="5.56359">
        <ele>619.2</ele>
        <time>2022-12-26T11:05:53Z</time>
      </trkpt>
      <trkpt lat="46.60478" lon="5.56358">
        <ele>619.4</ele>
        <time>2022-12-26T11:05:54Z</time>
      </trkpt>
      <trkpt lat="46.60478" lon="5.56358">
        <ele>619.8</ele>
        <time>2022-12-26T11:05:55Z</time>
      </trkpt>
      <trkpt lat="46.60475" lon="5.56358">
        <ele>620</ele>
        <time>2022-12-26T11:05:56Z</time>
      </trkpt>
      <trkpt lat="46.60472" lon="5.56359">
        <ele>620.2</ele>
        <time>2022-12-26T11:05:57Z</time>
      </trkpt>
      <trkpt lat="46.60469" lon="5.5636">
        <ele>620.6</ele>
        <time>2022-12-26T11:05:58Z</time>
      </trkpt>
      <trkpt lat="46.60466" lon="5.5636">
        <ele>620.8</ele>
        <time>2022-12-26T11:05:59Z</time>
      </trkpt>
      <trkpt lat="46.60462" lon="5.56361">
        <ele>621</ele>
        <time>2022-12-26T11:06:00Z</time>
      </trkpt>
      <trkpt lat="46.60458" lon="5.56362">
        <ele>621.2</ele>
        <time>2022-12-26T11:06:01Z</time>
      </trkpt>
      <trkpt lat="46.60454" lon="5.56366">
        <ele>621.4</ele>
        <time>2022-12-26T11:06:02Z</time>
      </trkpt>
      <trkpt lat="46.60451" lon="5.5637">
        <ele>621.8</ele>
        <time>2022-12-26T11:06:03Z</time>
      </trkpt>
      <trkpt lat="46.60451" lon="5.5637">
        <ele>622</ele>
        <time>2022-12-26T11:06:04Z</time>
      </trkpt>
      <trkpt lat="46.60451" lon="5.5637">
        <ele>622.2</ele>
        <time>2022-12-26T11:06:05Z</time>
      </trkpt>
      <trkpt lat="46.60448" lon="5.5637">
        <ele>622.4</ele>
        <time>2022-12-26T11:06:06Z</time>
      </trkpt>
      <trkpt lat="46.60448" lon="5.5637">
        <ele>622.6</ele>
        <time>2022-12-26T11:06:07Z</time>
      </trkpt>
      <trkpt lat="46.60448" lon="5.5637">
        <ele>622.8</ele>
        <time>2022-12-26T11:06:08Z</time>
      </trkpt>
      <trkpt lat="46.60446" lon="5.56368">
        <ele>623</ele>
        <time>2022-12-26T11:06:09Z</time>
      </trkpt>
      <trkpt lat="46.60444" lon="5.56367">
        <ele>623.2</ele>
        <time>2022-12-26T11:06:10Z</time>
      </trkpt>
      <trkpt lat="46.60444" lon="5.56367">
        <ele>623.4</ele>
        <time>2022-12-26T11:06:11Z</time>
      </trkpt>
      <trkpt lat="46.60444" lon="5.56367">
        <ele>623.6</ele>
        <time>2022-12-26T11:06:12Z</time>
      </trkpt>
      <trkpt lat="46.60444" lon="5.56367">
        <ele>623.8</ele>
        <time>2022-12-26T11:06:13Z</time>
      </trkpt>
      <trkpt lat="46.60442" lon="5.56365">
        <ele>624</ele>
        <time>2022-12-26T11:06:14Z</time>
      </trkpt>
      <trkpt lat="46.60442" lon="5.56365">
        <ele>624.2</ele>
        <time>2022-12-26T11:06:15Z</time>
      </trkpt>
      <trkpt lat="46.6044" lon="5.56365">
        <ele>624.4</ele>
        <time>2022-12-26T11:06:16Z</time>
      </trkpt>
      <trkpt lat="46.6044" lon="5.56365">
        <ele>624.6</ele>
        <time>2022-12-26T11:06:17Z</time>
      </trkpt>
      <trkpt lat="46.60437" lon="5.56366">
        <ele>624.6</ele>
        <time>2022-12-26T11:06:18Z</time>
      </trkpt>
      <trkpt lat="46.60437" lon="5.56366">
        <ele>624.8</ele>
        <time>2022-12-26T11:06:19Z</time>
      </trkpt>
      <trkpt lat="46.60436" lon="5.56366">
        <ele>625</ele>
        <time>2022-12-26T11:06:20Z</time>
      </trkpt>
      <trkpt lat="46.60436" lon="5.56366">
        <ele>625.2</ele>
        <time>2022-12-26T11:06:21Z</time>
      </trkpt>
      <trkpt lat="46.60432" lon="5.56366">
        <ele>625.4</ele>
        <time>2022-12-26T11:06:22Z</time>
      </trkpt>
      <trkpt lat="46.60429" lon="5.56367">
        <ele>625.6</ele>
        <time>2022-12-26T11:06:23Z</time>
      </trkpt>
      <trkpt lat="46.60429" lon="5.56367">
        <ele>625.8</ele>
        <time>2022-12-26T11:06:24Z</time>
      </trkpt>
      <trkpt lat="46.60428" lon="5.56366">
        <ele>626</ele>
        <time>2022-12-26T11:06:25Z</time>
      </trkpt>
      <trkpt lat="46.60428" lon="5.56366">
        <ele>626.2</ele>
        <time>2022-12-26T11:06:26Z</time>
      </trkpt>
      <trkpt lat="46.60428" lon="5.56366">
        <ele>626.4</ele>
        <time>2022-12-26T11:06:27Z</time>
      </trkpt>
      <trkpt lat="46.60428" lon="5.56366">
        <ele>626.6</ele>
        <time>2022-12-26T11:06:28Z</time>
      </trkpt>
      <trkpt lat="46.60426" lon="5.56367">
        <ele>626.8</ele>
        <time>2022-12-26T11:06:29Z</time>
      </trkpt>
      <trkpt lat="46.60426" lon="5.56367">
        <ele>626.8</ele>
        <time>2022-12-26T11:06:30Z</time>
      </trkpt>
      <trkpt lat="46.60426" lon="5.56367">
        <ele>627</ele>
        <time>2022-12-26T11:06:31Z</time>
      </trkpt>
      <trkpt lat="46.60426" lon="5.56367">
        <ele>627.2</ele>
        <time>2022-12-26T11:06:32Z</time>
      </trkpt>
      <trkpt lat="46.60426" lon="5.56367">
        <ele>627.2</ele>
        <time>2022-12-26T11:06:33Z</time>
      </trkpt>
      <trkpt lat="46.60426" lon="5.56367">
        <ele>627.4</ele>
        <time>2022-12-26T11:06:34Z</time>
      </trkpt>
      <trkpt lat="46.60425" lon="5.5637">
        <ele>627.4</ele>
        <time>2022-12-26T11:06:35Z</time>
      </trkpt>
      <trkpt lat="46.60425" lon="5.5637">
        <ele>627.6</ele>
        <time>2022-12-26T11:06:36Z</time>
      </trkpt>
      <trkpt lat="46.6042" lon="5.5637">
        <ele>627.8</ele>
        <time>2022-12-26T11:06:37Z</time>
      </trkpt>
      <trkpt lat="46.60418" lon="5.56369">
        <ele>627.8</ele>
        <time>2022-12-26T11:06:38Z</time>
      </trkpt>
      <trkpt lat="46.60415" lon="5.56368">
        <ele>628</ele>
        <time>2022-12-26T11:06:39Z</time>
      </trkpt>
      <trkpt lat="46.60412" lon="5.56367">
        <ele>628.2</ele>
        <time>2022-12-26T11:06:40Z</time>
      </trkpt>
      <trkpt lat="46.6041" lon="5.56365">
        <ele>628.2</ele>
        <time>2022-12-26T11:06:41Z</time>
      </trkpt>
      <trkpt lat="46.60409" lon="5.56364">
        <ele>628.4</ele>
        <time>2022-12-26T11:06:42Z</time>
      </trkpt>
      <trkpt lat="46.60409" lon="5.56364">
        <ele>628.4</ele>
        <time>2022-12-26T11:06:43Z</time>
      </trkpt>
      <trkpt lat="46.60406" lon="5.56363">
        <ele>628.6</ele>
        <time>2022-12-26T11:06:44Z</time>
      </trkpt>
      <trkpt lat="46.60404" lon="5.56363">
        <ele>628.6</ele>
        <time>2022-12-26T11:06:45Z</time>
      </trkpt>
      <trkpt lat="46.60402" lon="5.56363">
        <ele>628.6</ele>
        <time>2022-12-26T11:06:46Z</time>
      </trkpt>
      <trkpt lat="46.604" lon="5.56362">
        <ele>628.8</ele>
        <time>2022-12-26T11:06:47Z</time>
      </trkpt>
      <trkpt lat="46.60397" lon="5.56361">
        <ele>628.8</ele>
        <time>2022-12-26T11:06:48Z</time>
      </trkpt>
      <trkpt lat="46.60397" lon="5.56361">
        <ele>628.8</ele>
        <time>2022-12-26T11:06:49Z</time>
      </trkpt>
      <trkpt lat="46.60394" lon="5.5636">
        <ele>629</ele>
        <time>2022-12-26T11:06:50Z</time>
      </trkpt>
      <trkpt lat="46.60392" lon="5.5636">
        <ele>629</ele>
        <time>2022-12-26T11:06:51Z</time>
      </trkpt>
      <trkpt lat="46.6039" lon="5.5636">
        <ele>629</ele>
        <time>2022-12-26T11:06:52Z</time>
      </trkpt>
      <trkpt lat="46.60388" lon="5.5636">
        <ele>629</ele>
        <time>2022-12-26T11:06:53Z</time>
      </trkpt>
      <trkpt lat="46.60386" lon="5.5636">
        <ele>629</ele>
        <time>2022-12-26T11:06:54Z</time>
      </trkpt>
      <trkpt lat="46.60386" lon="5.5636">
        <ele>629</ele>
        <time>2022-12-26T11:06:55Z</time>
      </trkpt>
      <trkpt lat="46.60383" lon="5.56358">
        <ele>629</ele>
        <time>2022-12-26T11:06:56Z</time>
      </trkpt>
      <trkpt lat="46.60383" lon="5.56358">
        <ele>629</ele>
        <time>2022-12-26T11:06:57Z</time>
      </trkpt>
      <trkpt lat="46.6038" lon="5.56357">
        <ele>629</ele>
        <time>2022-12-26T11:06:58Z</time>
      </trkpt>
      <trkpt lat="46.6038" lon="5.56357">
        <ele>629</ele>
        <time>2022-12-26T11:06:59Z</time>
      </trkpt>
      <trkpt lat="46.6038" lon="5.56357">
        <ele>629.2</ele>
        <time>2022-12-26T11:07:00Z</time>
      </trkpt>
      <trkpt lat="46.60376" lon="5.56355">
        <ele>629.2</ele>
        <time>2022-12-26T11:07:01Z</time>
      </trkpt>
      <trkpt lat="46.60373" lon="5.56355">
        <ele>629.4</ele>
        <time>2022-12-26T11:07:02Z</time>
      </trkpt>
      <trkpt lat="46.6037" lon="5.56355">
        <ele>629.4</ele>
        <time>2022-12-26T11:07:03Z</time>
      </trkpt>
      <trkpt lat="46.60367" lon="5.56357">
        <ele>629.6</ele>
        <time>2022-12-26T11:07:04Z</time>
      </trkpt>
      <trkpt lat="46.60364" lon="5.56357">
        <ele>629.6</ele>
        <time>2022-12-26T11:07:05Z</time>
      </trkpt>
      <trkpt lat="46.60361" lon="5.56357">
        <ele>629.8</ele>
        <time>2022-12-26T11:07:06Z</time>
      </trkpt>
      <trkpt lat="46.60361" lon="5.56357">
        <ele>629.8</ele>
        <time>2022-12-26T11:07:07Z</time>
      </trkpt>
      <trkpt lat="46.60358" lon="5.56354">
        <ele>629.8</ele>
        <time>2022-12-26T11:07:08Z</time>
      </trkpt>
      <trkpt lat="46.60358" lon="5.56354">
        <ele>630</ele>
        <time>2022-12-26T11:07:09Z</time>
      </trkpt>
      <trkpt lat="46.60356" lon="5.56352">
        <ele>630</ele>
        <time>2022-12-26T11:07:10Z</time>
      </trkpt>
      <trkpt lat="46.60356" lon="5.56352">
        <ele>630</ele>
        <time>2022-12-26T11:07:11Z</time>
      </trkpt>
      <trkpt lat="46.60353" lon="5.56352">
        <ele>630</ele>
        <time>2022-12-26T11:07:12Z</time>
      </trkpt>
      <trkpt lat="46.60353" lon="5.56352">
        <ele>630.2</ele>
        <time>2022-12-26T11:07:13Z</time>
      </trkpt>
      <trkpt lat="46.6035" lon="5.56351">
        <ele>630.2</ele>
        <time>2022-12-26T11:07:14Z</time>
      </trkpt>
      <trkpt lat="46.60347" lon="5.5635">
        <ele>630.2</ele>
        <time>2022-12-26T11:07:15Z</time>
      </trkpt>
      <trkpt lat="46.60344" lon="5.5635">
        <ele>630.4</ele>
        <time>2022-12-26T11:07:16Z</time>
      </trkpt>
      <trkpt lat="46.60341" lon="5.56349">
        <ele>630.4</ele>
        <time>2022-12-26T11:07:17Z</time>
      </trkpt>
      <trkpt lat="46.60339" lon="5.56349">
        <ele>630.4</ele>
        <time>2022-12-26T11:07:18Z</time>
      </trkpt>
      <trkpt lat="46.60337" lon="5.56349">
        <ele>630.6</ele>
        <time>2022-12-26T11:07:19Z</time>
      </trkpt>
      <trkpt lat="46.60337" lon="5.56349">
        <ele>630.6</ele>
        <time>2022-12-26T11:07:20Z</time>
      </trkpt>
      <trkpt lat="46.60334" lon="5.56348">
        <ele>630.6</ele>
        <time>2022-12-26T11:07:21Z</time>
      </trkpt>
      <trkpt lat="46.60334" lon="5.56348">
        <ele>630.6</ele>
        <time>2022-12-26T11:07:22Z</time>
      </trkpt>
      <trkpt lat="46.60332" lon="5.56347">
        <ele>630.8</ele>
        <time>2022-12-26T11:07:23Z</time>
      </trkpt>
      <trkpt lat="46.6033" lon="5.56349">
        <ele>630.8</ele>
        <time>2022-12-26T11:07:24Z</time>
      </trkpt>
      <trkpt lat="46.60329" lon="5.56351">
        <ele>630.8</ele>
        <time>2022-12-26T11:07:25Z</time>
      </trkpt>
      <trkpt lat="46.60328" lon="5.56353">
        <ele>631</ele>
        <time>2022-12-26T11:07:26Z</time>
      </trkpt>
      <trkpt lat="46.60326" lon="5.56356">
        <ele>631</ele>
        <time>2022-12-26T11:07:27Z</time>
      </trkpt>
      <trkpt lat="46.60323" lon="5.56358">
        <ele>631</ele>
        <time>2022-12-26T11:07:28Z</time>
      </trkpt>
      <trkpt lat="46.60319" lon="5.56359">
        <ele>631.2</ele>
        <time>2022-12-26T11:07:29Z</time>
      </trkpt>
      <trkpt lat="46.60317" lon="5.5636">
        <ele>631.2</ele>
        <time>2022-12-26T11:07:30Z</time>
      </trkpt>
      <trkpt lat="46.60314" lon="5.56361">
        <ele>631.2</ele>
        <time>2022-12-26T11:07:31Z</time>
      </trkpt>
      <trkpt lat="46.60311" lon="5.56361">
        <ele>631.4</ele>
        <time>2022-12-26T11:07:32Z</time>
      </trkpt>
      <trkpt lat="46.60309" lon="5.56362">
        <ele>631.4</ele>
        <time>2022-12-26T11:07:33Z</time>
      </trkpt>
      <trkpt lat="46.60309" lon="5.56362">
        <ele>631.4</ele>
        <time>2022-12-26T11:07:34Z</time>
      </trkpt>
      <trkpt lat="46.60305" lon="5.56363">
        <ele>631.4</ele>
        <time>2022-12-26T11:07:35Z</time>
      </trkpt>
      <trkpt lat="46.60303" lon="5.56363">
        <ele>631.4</ele>
        <time>2022-12-26T11:07:36Z</time>
      </trkpt>
      <trkpt lat="46.60303" lon="5.56363">
        <ele>631.4</ele>
        <time>2022-12-26T11:07:37Z</time>
      </trkpt>
      <trkpt lat="46.603" lon="5.56362">
        <ele>631.4</ele>
        <time>2022-12-26T11:07:38Z</time>
      </trkpt>
      <trkpt lat="46.60298" lon="5.56362">
        <ele>631.2</ele>
        <time>2022-12-26T11:07:39Z</time>
      </trkpt>
      <trkpt lat="46.60296" lon="5.56362">
        <ele>631.2</ele>
        <time>2022-12-26T11:07:40Z</time>
      </trkpt>
      <trkpt lat="46.60296" lon="5.56362">
        <ele>631</ele>
        <time>2022-12-26T11:07:41Z</time>
      </trkpt>
      <trkpt lat="46.60294" lon="5.56362">
        <ele>631</ele>
        <time>2022-12-26T11:07:42Z</time>
      </trkpt>
      <trkpt lat="46.60292" lon="5.56364">
        <ele>631</ele>
        <time>2022-12-26T11:07:43Z</time>
      </trkpt>
      <trkpt lat="46.60289" lon="5.56366">
        <ele>630.8</ele>
        <time>2022-12-26T11:07:44Z</time>
      </trkpt>
      <trkpt lat="46.60287" lon="5.56367">
        <ele>630.8</ele>
        <time>2022-12-26T11:07:45Z</time>
      </trkpt>
      <trkpt lat="46.60284" lon="5.56368">
        <ele>630.6</ele>
        <time>2022-12-26T11:07:46Z</time>
      </trkpt>
      <trkpt lat="46.60283" lon="5.56369">
        <ele>630.4</ele>
        <time>2022-12-26T11:07:47Z</time>
      </trkpt>
      <trkpt lat="46.60281" lon="5.56371">
        <ele>630.4</ele>
        <time>2022-12-26T11:07:48Z</time>
      </trkpt>
      <trkpt lat="46.60281" lon="5.56371">
        <ele>630.2</ele>
        <time>2022-12-26T11:07:49Z</time>
      </trkpt>
      <trkpt lat="46.60278" lon="5.56373">
        <ele>630</ele>
        <time>2022-12-26T11:07:50Z</time>
      </trkpt>
      <trkpt lat="46.60276" lon="5.56376">
        <ele>630</ele>
        <time>2022-12-26T11:07:51Z</time>
      </trkpt>
      <trkpt lat="46.60274" lon="5.56377">
        <ele>629.8</ele>
        <time>2022-12-26T11:07:52Z</time>
      </trkpt>
      <trkpt lat="46.60271" lon="5.56379">
        <ele>629.6</ele>
        <time>2022-12-26T11:07:53Z</time>
      </trkpt>
      <trkpt lat="46.60269" lon="5.56379">
        <ele>629.4</ele>
        <time>2022-12-26T11:07:54Z</time>
      </trkpt>
      <trkpt lat="46.60267" lon="5.56378">
        <ele>629.2</ele>
        <time>2022-12-26T11:07:55Z</time>
      </trkpt>
      <trkpt lat="46.60265" lon="5.56377">
        <ele>629</ele>
        <time>2022-12-26T11:07:56Z</time>
      </trkpt>
      <trkpt lat="46.60263" lon="5.56374">
        <ele>628.8</ele>
        <time>2022-12-26T11:07:57Z</time>
      </trkpt>
      <trkpt lat="46.60261" lon="5.56372">
        <ele>628.6</ele>
        <time>2022-12-26T11:07:58Z</time>
      </trkpt>
      <trkpt lat="46.60259" lon="5.56371">
        <ele>628.4</ele>
        <time>2022-12-26T11:07:59Z</time>
      </trkpt>
      <trkpt lat="46.60256" lon="5.5637">
        <ele>628.4</ele>
        <time>2022-12-26T11:08:00Z</time>
      </trkpt>
      <trkpt lat="46.60253" lon="5.5637">
        <ele>628.2</ele>
        <time>2022-12-26T11:08:01Z</time>
      </trkpt>
      <trkpt lat="46.60251" lon="5.5637">
        <ele>628</ele>
        <time>2022-12-26T11:08:02Z</time>
      </trkpt>
      <trkpt lat="46.60249" lon="5.5637">
        <ele>627.8</ele>
        <time>2022-12-26T11:08:03Z</time>
      </trkpt>
      <trkpt lat="46.60246" lon="5.56369">
        <ele>627.6</ele>
        <time>2022-12-26T11:08:04Z</time>
      </trkpt>
      <trkpt lat="46.60243" lon="5.5637">
        <ele>627.6</ele>
        <time>2022-12-26T11:08:05Z</time>
      </trkpt>
      <trkpt lat="46.60239" lon="5.56372">
        <ele>627.4</ele>
        <time>2022-12-26T11:08:06Z</time>
      </trkpt>
      <trkpt lat="46.60236" lon="5.56373">
        <ele>627.2</ele>
        <time>2022-12-26T11:08:07Z</time>
      </trkpt>
      <trkpt lat="46.60232" lon="5.56375">
        <ele>627</ele>
        <time>2022-12-26T11:08:08Z</time>
      </trkpt>
      <trkpt lat="46.60229" lon="5.56376">
        <ele>626.8</ele>
        <time>2022-12-26T11:08:09Z</time>
      </trkpt>
      <trkpt lat="46.60223" lon="5.56377">
        <ele>626.6</ele>
        <time>2022-12-26T11:08:10Z</time>
      </trkpt>
      <trkpt lat="46.60216" lon="5.56379">
        <ele>626.4</ele>
        <time>2022-12-26T11:08:11Z</time>
      </trkpt>
      <trkpt lat="46.60212" lon="5.5638">
        <ele>626.2</ele>
        <time>2022-12-26T11:08:12Z</time>
      </trkpt>
      <trkpt lat="46.60212" lon="5.5638">
        <ele>626</ele>
        <time>2022-12-26T11:08:13Z</time>
      </trkpt>
      <trkpt lat="46.60208" lon="5.5638">
        <ele>626</ele>
        <time>2022-12-26T11:08:14Z</time>
      </trkpt>
      <trkpt lat="46.60205" lon="5.56381">
        <ele>625.8</ele>
        <time>2022-12-26T11:08:15Z</time>
      </trkpt>
      <trkpt lat="46.60205" lon="5.56381">
        <ele>625.6</ele>
        <time>2022-12-26T11:08:16Z</time>
      </trkpt>
      <trkpt lat="46.60202" lon="5.56382">
        <ele>625.4</ele>
        <time>2022-12-26T11:08:17Z</time>
      </trkpt>
      <trkpt lat="46.60202" lon="5.56382">
        <ele>625.2</ele>
        <time>2022-12-26T11:08:18Z</time>
      </trkpt>
      <trkpt lat="46.60199" lon="5.56382">
        <ele>625.2</ele>
        <time>2022-12-26T11:08:19Z</time>
      </trkpt>
      <trkpt lat="46.60199" lon="5.56382">
        <ele>625</ele>
        <time>2022-12-26T11:08:20Z</time>
      </trkpt>
      <trkpt lat="46.60199" lon="5.56382">
        <ele>624.8</ele>
        <time>2022-12-26T11:08:21Z</time>
      </trkpt>
      <trkpt lat="46.60196" lon="5.56385">
        <ele>624.6</ele>
        <time>2022-12-26T11:08:22Z</time>
      </trkpt>
      <trkpt lat="46.60194" lon="5.56386">
        <ele>624.4</ele>
        <time>2022-12-26T11:08:23Z</time>
      </trkpt>
      <trkpt lat="46.60192" lon="5.56387">
        <ele>624.2</ele>
        <time>2022-12-26T11:08:24Z</time>
      </trkpt>
      <trkpt lat="46.60192" lon="5.56387">
        <ele>624</ele>
        <time>2022-12-26T11:08:25Z</time>
      </trkpt>
      <trkpt lat="46.60189" lon="5.56385">
        <ele>623.8</ele>
        <time>2022-12-26T11:08:26Z</time>
      </trkpt>
      <trkpt lat="46.60186" lon="5.56385">
        <ele>623.6</ele>
        <time>2022-12-26T11:08:27Z</time>
      </trkpt>
      <trkpt lat="46.60184" lon="5.56385">
        <ele>623.4</ele>
        <time>2022-12-26T11:08:28Z</time>
      </trkpt>
      <trkpt lat="46.60184" lon="5.56385">
        <ele>623.2</ele>
        <time>2022-12-26T11:08:29Z</time>
      </trkpt>
      <trkpt lat="46.60184" lon="5.56385">
        <ele>623</ele>
        <time>2022-12-26T11:08:30Z</time>
      </trkpt>
      <trkpt lat="46.60184" lon="5.56385">
        <ele>622.8</ele>
        <time>2022-12-26T11:08:31Z</time>
      </trkpt>
      <trkpt lat="46.60181" lon="5.56385">
        <ele>622.8</ele>
        <time>2022-12-26T11:08:32Z</time>
      </trkpt>
      <trkpt lat="46.60181" lon="5.56385">
        <ele>622.6</ele>
        <time>2022-12-26T11:08:33Z</time>
      </trkpt>
      <trkpt lat="46.60178" lon="5.56386">
        <ele>622.4</ele>
        <time>2022-12-26T11:08:34Z</time>
      </trkpt>
      <trkpt lat="46.60178" lon="5.56386">
        <ele>622.2</ele>
        <time>2022-12-26T11:08:35Z</time>
      </trkpt>
      <trkpt lat="46.60175" lon="5.56388">
        <ele>622</ele>
        <time>2022-12-26T11:08:36Z</time>
      </trkpt>
      <trkpt lat="46.60175" lon="5.56388">
        <ele>621.8</ele>
        <time>2022-12-26T11:08:37Z</time>
      </trkpt>
      <trkpt lat="46.60173" lon="5.56389">
        <ele>621.6</ele>
        <time>2022-12-26T11:08:38Z</time>
      </trkpt>
      <trkpt lat="46.60173" lon="5.56389">
        <ele>621.4</ele>
        <time>2022-12-26T11:08:39Z</time>
      </trkpt>
      <trkpt lat="46.60172" lon="5.56386">
        <ele>621.2</ele>
        <time>2022-12-26T11:08:40Z</time>
      </trkpt>
      <trkpt lat="46.60172" lon="5.56386">
        <ele>621.2</ele>
        <time>2022-12-26T11:08:41Z</time>
      </trkpt>
      <trkpt lat="46.60172" lon="5.56386">
        <ele>621</ele>
        <time>2022-12-26T11:08:42Z</time>
      </trkpt>
      <trkpt lat="46.6017" lon="5.56385">
        <ele>620.8</ele>
        <time>2022-12-26T11:08:43Z</time>
      </trkpt>
      <trkpt lat="46.6017" lon="5.56385">
        <ele>620.6</ele>
        <time>2022-12-26T11:08:44Z</time>
      </trkpt>
      <trkpt lat="46.60167" lon="5.56388">
        <ele>620.6</ele>
        <time>2022-12-26T11:08:45Z</time>
      </trkpt>
      <trkpt lat="46.60165" lon="5.5639">
        <ele>620.4</ele>
        <time>2022-12-26T11:08:46Z</time>
      </trkpt>
      <trkpt lat="46.60163" lon="5.56391">
        <ele>620.2</ele>
        <time>2022-12-26T11:08:47Z</time>
      </trkpt>
      <trkpt lat="46.6016" lon="5.56391">
        <ele>620</ele>
        <time>2022-12-26T11:08:48Z</time>
      </trkpt>
      <trkpt lat="46.60158" lon="5.5639">
        <ele>619.8</ele>
        <time>2022-12-26T11:08:49Z</time>
      </trkpt>
      <trkpt lat="46.60157" lon="5.56391">
        <ele>619.4</ele>
        <time>2022-12-26T11:08:50Z</time>
      </trkpt>
      <trkpt lat="46.60154" lon="5.5639">
        <ele>619.2</ele>
        <time>2022-12-26T11:08:51Z</time>
      </trkpt>
      <trkpt lat="46.60152" lon="5.5639">
        <ele>619</ele>
        <time>2022-12-26T11:08:52Z</time>
      </trkpt>
      <trkpt lat="46.6015" lon="5.56389">
        <ele>618.8</ele>
        <time>2022-12-26T11:08:53Z</time>
      </trkpt>
      <trkpt lat="46.6015" lon="5.56389">
        <ele>618.6</ele>
        <time>2022-12-26T11:08:54Z</time>
      </trkpt>
      <trkpt lat="46.60146" lon="5.56386">
        <ele>618.4</ele>
        <time>2022-12-26T11:08:55Z</time>
      </trkpt>
      <trkpt lat="46.60146" lon="5.56386">
        <ele>618</ele>
        <time>2022-12-26T11:08:56Z</time>
      </trkpt>
      <trkpt lat="46.60143" lon="5.56382">
        <ele>617.8</ele>
        <time>2022-12-26T11:08:57Z</time>
      </trkpt>
      <trkpt lat="46.60141" lon="5.56381">
        <ele>617.6</ele>
        <time>2022-12-26T11:08:58Z</time>
      </trkpt>
      <trkpt lat="46.60138" lon="5.56382">
        <ele>617.4</ele>
        <time>2022-12-26T11:08:59Z</time>
      </trkpt>
      <trkpt lat="46.60133" lon="5.56383">
        <ele>617.2</ele>
        <time>2022-12-26T11:09:00Z</time>
      </trkpt>
      <trkpt lat="46.6013" lon="5.56383">
        <ele>617</ele>
        <time>2022-12-26T11:09:01Z</time>
      </trkpt>
      <trkpt lat="46.60126" lon="5.56383">
        <ele>616.8</ele>
        <time>2022-12-26T11:09:02Z</time>
      </trkpt>
      <trkpt lat="46.60124" lon="5.56384">
        <ele>616.6</ele>
        <time>2022-12-26T11:09:03Z</time>
      </trkpt>
      <trkpt lat="46.60121" lon="5.56384">
        <ele>616.4</ele>
        <time>2022-12-26T11:09:04Z</time>
      </trkpt>
      <trkpt lat="46.60117" lon="5.56383">
        <ele>616.4</ele>
        <time>2022-12-26T11:09:05Z</time>
      </trkpt>
      <trkpt lat="46.60115" lon="5.56383">
        <ele>616.2</ele>
        <time>2022-12-26T11:09:06Z</time>
      </trkpt>
      <trkpt lat="46.60112" lon="5.56383">
        <ele>616</ele>
        <time>2022-12-26T11:09:07Z</time>
      </trkpt>
      <trkpt lat="46.60112" lon="5.56383">
        <ele>615.8</ele>
        <time>2022-12-26T11:09:08Z</time>
      </trkpt>
      <trkpt lat="46.60109" lon="5.56383">
        <ele>615.6</ele>
        <time>2022-12-26T11:09:09Z</time>
      </trkpt>
      <trkpt lat="46.60109" lon="5.56383">
        <ele>615.4</ele>
        <time>2022-12-26T11:09:10Z</time>
      </trkpt>
      <trkpt lat="46.60106" lon="5.56384">
        <ele>615.2</ele>
        <time>2022-12-26T11:09:11Z</time>
      </trkpt>
      <trkpt lat="46.60104" lon="5.56385">
        <ele>615</ele>
        <time>2022-12-26T11:09:12Z</time>
      </trkpt>
      <trkpt lat="46.60102" lon="5.56384">
        <ele>614.8</ele>
        <time>2022-12-26T11:09:13Z</time>
      </trkpt>
      <trkpt lat="46.60102" lon="5.56384">
        <ele>614.6</ele>
        <time>2022-12-26T11:09:14Z</time>
      </trkpt>
      <trkpt lat="46.60098" lon="5.56382">
        <ele>614.4</ele>
        <time>2022-12-26T11:09:15Z</time>
      </trkpt>
      <trkpt lat="46.60096" lon="5.56381">
        <ele>614.2</ele>
        <time>2022-12-26T11:09:16Z</time>
      </trkpt>
      <trkpt lat="46.60094" lon="5.56381">
        <ele>614</ele>
        <time>2022-12-26T11:09:17Z</time>
      </trkpt>
      <trkpt lat="46.60092" lon="5.56382">
        <ele>613.8</ele>
        <time>2022-12-26T11:09:18Z</time>
      </trkpt>
      <trkpt lat="46.6009" lon="5.56383">
        <ele>613.6</ele>
        <time>2022-12-26T11:09:19Z</time>
      </trkpt>
      <trkpt lat="46.60088" lon="5.56383">
        <ele>613.4</ele>
        <time>2022-12-26T11:09:20Z</time>
      </trkpt>
      <trkpt lat="46.60085" lon="5.56382">
        <ele>613.2</ele>
        <time>2022-12-26T11:09:21Z</time>
      </trkpt>
      <trkpt lat="46.60084" lon="5.56382">
        <ele>612.8</ele>
        <time>2022-12-26T11:09:22Z</time>
      </trkpt>
      <trkpt lat="46.60084" lon="5.56382">
        <ele>612.6</ele>
        <time>2022-12-26T11:09:23Z</time>
      </trkpt>
      <trkpt lat="46.60081" lon="5.56381">
        <ele>612.4</ele>
        <time>2022-12-26T11:09:24Z</time>
      </trkpt>
      <trkpt lat="46.60079" lon="5.56381">
        <ele>612.2</ele>
        <time>2022-12-26T11:09:25Z</time>
      </trkpt>
      <trkpt lat="46.60079" lon="5.56381">
        <ele>611.8</ele>
        <time>2022-12-26T11:09:26Z</time>
      </trkpt>
      <trkpt lat="46.60073" lon="5.56381">
        <ele>611.6</ele>
        <time>2022-12-26T11:09:27Z</time>
      </trkpt>
      <trkpt lat="46.60071" lon="5.56381">
        <ele>611.4</ele>
        <time>2022-12-26T11:09:28Z</time>
      </trkpt>
      <trkpt lat="46.60068" lon="5.56381">
        <ele>611.2</ele>
        <time>2022-12-26T11:09:29Z</time>
      </trkpt>
      <trkpt lat="46.60066" lon="5.56382">
        <ele>610.8</ele>
        <time>2022-12-26T11:09:30Z</time>
      </trkpt>
      <trkpt lat="46.60061" lon="5.56383">
        <ele>610.6</ele>
        <time>2022-12-26T11:09:31Z</time>
      </trkpt>
      <trkpt lat="46.60056" lon="5.56386">
        <ele>610.4</ele>
        <time>2022-12-26T11:09:32Z</time>
      </trkpt>
      <trkpt lat="46.60051" lon="5.56389">
        <ele>610.2</ele>
        <time>2022-12-26T11:09:33Z</time>
      </trkpt>
      <trkpt lat="46.60046" lon="5.56392">
        <ele>610</ele>
        <time>2022-12-26T11:09:34Z</time>
      </trkpt>
      <trkpt lat="46.60041" lon="5.56394">
        <ele>609.8</ele>
        <time>2022-12-26T11:09:35Z</time>
      </trkpt>
      <trkpt lat="46.60037" lon="5.56394">
        <ele>609.6</ele>
        <time>2022-12-26T11:09:36Z</time>
      </trkpt>
      <trkpt lat="46.60033" lon="5.56394">
        <ele>609.4</ele>
        <time>2022-12-26T11:09:37Z</time>
      </trkpt>
      <trkpt lat="46.60033" lon="5.56394">
        <ele>609.4</ele>
        <time>2022-12-26T11:09:38Z</time>
      </trkpt>
      <trkpt lat="46.60029" lon="5.56394">
        <ele>609.2</ele>
        <time>2022-12-26T11:09:39Z</time>
      </trkpt>
      <trkpt lat="46.60027" lon="5.56396">
        <ele>609</ele>
        <time>2022-12-26T11:09:40Z</time>
      </trkpt>
      <trkpt lat="46.60025" lon="5.56397">
        <ele>608.8</ele>
        <time>2022-12-26T11:09:41Z</time>
      </trkpt>
      <trkpt lat="46.60023" lon="5.56396">
        <ele>608.6</ele>
        <time>2022-12-26T11:09:42Z</time>
      </trkpt>
      <trkpt lat="46.60021" lon="5.56396">
        <ele>608.4</ele>
        <time>2022-12-26T11:09:43Z</time>
      </trkpt>
      <trkpt lat="46.60019" lon="5.56396">
        <ele>608.2</ele>
        <time>2022-12-26T11:09:44Z</time>
      </trkpt>
      <trkpt lat="46.60017" lon="5.56395">
        <ele>608.2</ele>
        <time>2022-12-26T11:09:45Z</time>
      </trkpt>
      <trkpt lat="46.60014" lon="5.56394">
        <ele>608</ele>
        <time>2022-12-26T11:09:46Z</time>
      </trkpt>
      <trkpt lat="46.60013" lon="5.56393">
        <ele>607.8</ele>
        <time>2022-12-26T11:09:47Z</time>
      </trkpt>
      <trkpt lat="46.6001" lon="5.56392">
        <ele>607.6</ele>
        <time>2022-12-26T11:09:48Z</time>
      </trkpt>
      <trkpt lat="46.6001" lon="5.56392">
        <ele>607.4</ele>
        <time>2022-12-26T11:09:49Z</time>
      </trkpt>
      <trkpt lat="46.60007" lon="5.5639">
        <ele>607.4</ele>
        <time>2022-12-26T11:09:50Z</time>
      </trkpt>
      <trkpt lat="46.60007" lon="5.5639">
        <ele>607.2</ele>
        <time>2022-12-26T11:09:51Z</time>
      </trkpt>
      <trkpt lat="46.60001" lon="5.5639">
        <ele>607</ele>
        <time>2022-12-26T11:09:52Z</time>
      </trkpt>
      <trkpt lat="46.59999" lon="5.56391">
        <ele>606.8</ele>
        <time>2022-12-26T11:09:53Z</time>
      </trkpt>
      <trkpt lat="46.59996" lon="5.56391">
        <ele>606.6</ele>
        <time>2022-12-26T11:09:54Z</time>
      </trkpt>
      <trkpt lat="46.59994" lon="5.5639">
        <ele>606.4</ele>
        <time>2022-12-26T11:09:55Z</time>
      </trkpt>
      <trkpt lat="46.59991" lon="5.56391">
        <ele>606.2</ele>
        <time>2022-12-26T11:09:56Z</time>
      </trkpt>
      <trkpt lat="46.59991" lon="5.56391">
        <ele>606</ele>
        <time>2022-12-26T11:09:57Z</time>
      </trkpt>
      <trkpt lat="46.59989" lon="5.56388">
        <ele>605.8</ele>
        <time>2022-12-26T11:09:58Z</time>
      </trkpt>
      <trkpt lat="46.59987" lon="5.56386">
        <ele>605.6</ele>
        <time>2022-12-26T11:09:59Z</time>
      </trkpt>
      <trkpt lat="46.59984" lon="5.56386">
        <ele>605.4</ele>
        <time>2022-12-26T11:10:00Z</time>
      </trkpt>
      <trkpt lat="46.59981" lon="5.56387">
        <ele>605.2</ele>
        <time>2022-12-26T11:10:01Z</time>
      </trkpt>
      <trkpt lat="46.59977" lon="5.5639">
        <ele>605</ele>
        <time>2022-12-26T11:10:02Z</time>
      </trkpt>
      <trkpt lat="46.59974" lon="5.56392">
        <ele>604.8</ele>
        <time>2022-12-26T11:10:03Z</time>
      </trkpt>
      <trkpt lat="46.59971" lon="5.56393">
        <ele>604.8</ele>
        <time>2022-12-26T11:10:04Z</time>
      </trkpt>
      <trkpt lat="46.59968" lon="5.56393">
        <ele>604.6</ele>
        <time>2022-12-26T11:10:05Z</time>
      </trkpt>
      <trkpt lat="46.59965" lon="5.56392">
        <ele>604.4</ele>
        <time>2022-12-26T11:10:06Z</time>
      </trkpt>
      <trkpt lat="46.59963" lon="5.56391">
        <ele>604.2</ele>
        <time>2022-12-26T11:10:07Z</time>
      </trkpt>
      <trkpt lat="46.59959" lon="5.56392">
        <ele>604</ele>
        <time>2022-12-26T11:10:08Z</time>
      </trkpt>
      <trkpt lat="46.59957" lon="5.56392">
        <ele>603.8</ele>
        <time>2022-12-26T11:10:09Z</time>
      </trkpt>
      <trkpt lat="46.59954" lon="5.56391">
        <ele>603.6</ele>
        <time>2022-12-26T11:10:10Z</time>
      </trkpt>
      <trkpt lat="46.59951" lon="5.56391">
        <ele>603.4</ele>
        <time>2022-12-26T11:10:11Z</time>
      </trkpt>
      <trkpt lat="46.59945" lon="5.56392">
        <ele>603.4</ele>
        <time>2022-12-26T11:10:12Z</time>
      </trkpt>
      <trkpt lat="46.59943" lon="5.56392">
        <ele>603</ele>
        <time>2022-12-26T11:10:13Z</time>
      </trkpt>
      <trkpt lat="46.59941" lon="5.56393">
        <ele>602.8</ele>
        <time>2022-12-26T11:10:14Z</time>
      </trkpt>
      <trkpt lat="46.59937" lon="5.56395">
        <ele>602.6</ele>
        <time>2022-12-26T11:10:15Z</time>
      </trkpt>
      <trkpt lat="46.59934" lon="5.56395">
        <ele>602.4</ele>
        <time>2022-12-26T11:10:16Z</time>
      </trkpt>
      <trkpt lat="46.59934" lon="5.56395">
        <ele>602.2</ele>
        <time>2022-12-26T11:10:17Z</time>
      </trkpt>
      <trkpt lat="46.59933" lon="5.56391">
        <ele>602.2</ele>
        <time>2022-12-26T11:10:18Z</time>
      </trkpt>
      <trkpt lat="46.59929" lon="5.56392">
        <ele>602</ele>
        <time>2022-12-26T11:10:19Z</time>
      </trkpt>
      <trkpt lat="46.59926" lon="5.56394">
        <ele>601.8</ele>
        <time>2022-12-26T11:10:20Z</time>
      </trkpt>
      <trkpt lat="46.59922" lon="5.56395">
        <ele>601.6</ele>
        <time>2022-12-26T11:10:21Z</time>
      </trkpt>
      <trkpt lat="46.59918" lon="5.56395">
        <ele>601.4</ele>
        <time>2022-12-26T11:10:22Z</time>
      </trkpt>
      <trkpt lat="46.59914" lon="5.56394">
        <ele>601.2</ele>
        <time>2022-12-26T11:10:23Z</time>
      </trkpt>
      <trkpt lat="46.59911" lon="5.56392">
        <ele>601.2</ele>
        <time>2022-12-26T11:10:24Z</time>
      </trkpt>
      <trkpt lat="46.59909" lon="5.5639">
        <ele>601</ele>
        <time>2022-12-26T11:10:25Z</time>
      </trkpt>
      <trkpt lat="46.59908" lon="5.56385">
        <ele>600.8</ele>
        <time>2022-12-26T11:10:26Z</time>
      </trkpt>
      <trkpt lat="46.59908" lon="5.56385">
        <ele>600.8</ele>
        <time>2022-12-26T11:10:27Z</time>
      </trkpt>
      <trkpt lat="46.59902" lon="5.56386">
        <ele>600.6</ele>
        <time>2022-12-26T11:10:28Z</time>
      </trkpt>
      <trkpt lat="46.59901" lon="5.56387">
        <ele>600.4</ele>
        <time>2022-12-26T11:10:29Z</time>
      </trkpt>
      <trkpt lat="46.59898" lon="5.5639">
        <ele>600.2</ele>
        <time>2022-12-26T11:10:30Z</time>
      </trkpt>
      <trkpt lat="46.59895" lon="5.56389">
        <ele>600</ele>
        <time>2022-12-26T11:10:31Z</time>
      </trkpt>
      <trkpt lat="46.59893" lon="5.56388">
        <ele>599.8</ele>
        <time>2022-12-26T11:10:32Z</time>
      </trkpt>
      <trkpt lat="46.5989" lon="5.56388">
        <ele>599.6</ele>
        <time>2022-12-26T11:10:33Z</time>
      </trkpt>
      <trkpt lat="46.59888" lon="5.56386">
        <ele>599.4</ele>
        <time>2022-12-26T11:10:34Z</time>
      </trkpt>
      <trkpt lat="46.59885" lon="5.56385">
        <ele>599.2</ele>
        <time>2022-12-26T11:10:35Z</time>
      </trkpt>
      <trkpt lat="46.59883" lon="5.56384">
        <ele>598.8</ele>
        <time>2022-12-26T11:10:36Z</time>
      </trkpt>
      <trkpt lat="46.59881" lon="5.56382">
        <ele>598.6</ele>
        <time>2022-12-26T11:10:37Z</time>
      </trkpt>
      <trkpt lat="46.59878" lon="5.56382">
        <ele>598.2</ele>
        <time>2022-12-26T11:10:38Z</time>
      </trkpt>
      <trkpt lat="46.59876" lon="5.56382">
        <ele>598</ele>
        <time>2022-12-26T11:10:39Z</time>
      </trkpt>
      <trkpt lat="46.59874" lon="5.56383">
        <ele>597.6</ele>
        <time>2022-12-26T11:10:40Z</time>
      </trkpt>
      <trkpt lat="46.59874" lon="5.56383">
        <ele>597.6</ele>
        <time>2022-12-26T11:10:41Z</time>
      </trkpt>
      <trkpt lat="46.59871" lon="5.56382">
        <ele>597</ele>
        <time>2022-12-26T11:10:42Z</time>
      </trkpt>
      <trkpt lat="46.59869" lon="5.5638">
        <ele>596.8</ele>
        <time>2022-12-26T11:10:43Z</time>
      </trkpt>
      <trkpt lat="46.59867" lon="5.56379">
        <ele>596.4</ele>
        <time>2022-12-26T11:10:44Z</time>
      </trkpt>
      <trkpt lat="46.59865" lon="5.56378">
        <ele>596.2</ele>
        <time>2022-12-26T11:10:45Z</time>
      </trkpt>
      <trkpt lat="46.59863" lon="5.56377">
        <ele>595.8</ele>
        <time>2022-12-26T11:10:46Z</time>
      </trkpt>
      <trkpt lat="46.59861" lon="5.56376">
        <ele>595.6</ele>
        <time>2022-12-26T11:10:47Z</time>
      </trkpt>
      <trkpt lat="46.59859" lon="5.56375">
        <ele>595.2</ele>
        <time>2022-12-26T11:10:48Z</time>
      </trkpt>
      <trkpt lat="46.59859" lon="5.56375">
        <ele>594.8</ele>
        <time>2022-12-26T11:10:49Z</time>
      </trkpt>
      <trkpt lat="46.59857" lon="5.56374">
        <ele>594.6</ele>
        <time>2022-12-26T11:10:50Z</time>
      </trkpt>
      <trkpt lat="46.59854" lon="5.56375">
        <ele>594.2</ele>
        <time>2022-12-26T11:10:51Z</time>
      </trkpt>
      <trkpt lat="46.59852" lon="5.56375">
        <ele>593.8</ele>
        <time>2022-12-26T11:10:52Z</time>
      </trkpt>
      <trkpt lat="46.59852" lon="5.56375">
        <ele>593.4</ele>
        <time>2022-12-26T11:10:53Z</time>
      </trkpt>
      <trkpt lat="46.59848" lon="5.56373">
        <ele>593.2</ele>
        <time>2022-12-26T11:10:54Z</time>
      </trkpt>
      <trkpt lat="46.59848" lon="5.56373">
        <ele>592.8</ele>
        <time>2022-12-26T11:10:55Z</time>
      </trkpt>
      <trkpt lat="46.59848" lon="5.56373">
        <ele>592.4</ele>
        <time>2022-12-26T11:10:56Z</time>
      </trkpt>
      <trkpt lat="46.59846" lon="5.56372">
        <ele>592.2</ele>
        <time>2022-12-26T11:10:57Z</time>
      </trkpt>
      <trkpt lat="46.59846" lon="5.56372">
        <ele>591.8</ele>
        <time>2022-12-26T11:10:58Z</time>
      </trkpt>
      <trkpt lat="46.59843" lon="5.56371">
        <ele>591.6</ele>
        <time>2022-12-26T11:10:59Z</time>
      </trkpt>
      <trkpt lat="46.5984" lon="5.5637">
        <ele>591.2</ele>
        <time>2022-12-26T11:11:00Z</time>
      </trkpt>
      <trkpt lat="46.5984" lon="5.5637">
        <ele>591</ele>
        <time>2022-12-26T11:11:01Z</time>
      </trkpt>
      <trkpt lat="46.59837" lon="5.56368">
        <ele>590.6</ele>
        <time>2022-12-26T11:11:02Z</time>
      </trkpt>
      <trkpt lat="46.59837" lon="5.56368">
        <ele>590.2</ele>
        <time>2022-12-26T11:11:03Z</time>
      </trkpt>
      <trkpt lat="46.59834" lon="5.56366">
        <ele>589.8</ele>
        <time>2022-12-26T11:11:04Z</time>
      </trkpt>
      <trkpt lat="46.59832" lon="5.56365">
        <ele>589.6</ele>
        <time>2022-12-26T11:11:05Z</time>
      </trkpt>
      <trkpt lat="46.59829" lon="5.56364">
        <ele>589.2</ele>
        <time>2022-12-26T11:11:06Z</time>
      </trkpt>
      <trkpt lat="46.59828" lon="5.56363">
        <ele>589</ele>
        <time>2022-12-26T11:11:07Z</time>
      </trkpt>
      <trkpt lat="46.59825" lon="5.56363">
        <ele>588.6</ele>
        <time>2022-12-26T11:11:08Z</time>
      </trkpt>
      <trkpt lat="46.59825" lon="5.56363">
        <ele>588.2</ele>
        <time>2022-12-26T11:11:09Z</time>
      </trkpt>
      <trkpt lat="46.59822" lon="5.56361">
        <ele>588</ele>
        <time>2022-12-26T11:11:10Z</time>
      </trkpt>
      <trkpt lat="46.59822" lon="5.56361">
        <ele>587.6</ele>
        <time>2022-12-26T11:11:11Z</time>
      </trkpt>
      <trkpt lat="46.5982" lon="5.56359">
        <ele>587.2</ele>
        <time>2022-12-26T11:11:12Z</time>
      </trkpt>
      <trkpt lat="46.59818" lon="5.56358">
        <ele>587</ele>
        <time>2022-12-26T11:11:13Z</time>
      </trkpt>
      <trkpt lat="46.59817" lon="5.56357">
        <ele>586.6</ele>
        <time>2022-12-26T11:11:14Z</time>
      </trkpt>
      <trkpt lat="46.59817" lon="5.56357">
        <ele>586.2</ele>
        <time>2022-12-26T11:11:15Z</time>
      </trkpt>
      <trkpt lat="46.59815" lon="5.56354">
        <ele>585.8</ele>
        <time>2022-12-26T11:11:16Z</time>
      </trkpt>
      <trkpt lat="46.59815" lon="5.56354">
        <ele>585.6</ele>
        <time>2022-12-26T11:11:17Z</time>
      </trkpt>
      <trkpt lat="46.59813" lon="5.5635">
        <ele>585.2</ele>
        <time>2022-12-26T11:11:18Z</time>
      </trkpt>
      <trkpt lat="46.59813" lon="5.5635">
        <ele>584.8</ele>
        <time>2022-12-26T11:11:19Z</time>
      </trkpt>
      <trkpt lat="46.59811" lon="5.56348">
        <ele>584.4</ele>
        <time>2022-12-26T11:11:20Z</time>
      </trkpt>
      <trkpt lat="46.59811" lon="5.56348">
        <ele>584</ele>
        <time>2022-12-26T11:11:21Z</time>
      </trkpt>
      <trkpt lat="46.5981" lon="5.56346">
        <ele>583.8</ele>
        <time>2022-12-26T11:11:22Z</time>
      </trkpt>
      <trkpt lat="46.5981" lon="5.56346">
        <ele>583.4</ele>
        <time>2022-12-26T11:11:23Z</time>
      </trkpt>
      <trkpt lat="46.59806" lon="5.56344">
        <ele>583</ele>
        <time>2022-12-26T11:11:24Z</time>
      </trkpt>
      <trkpt lat="46.59804" lon="5.56344">
        <ele>582.6</ele>
        <time>2022-12-26T11:11:25Z</time>
      </trkpt>
      <trkpt lat="46.59802" lon="5.56344">
        <ele>582.4</ele>
        <time>2022-12-26T11:11:26Z</time>
      </trkpt>
      <trkpt lat="46.598" lon="5.56344">
        <ele>582</ele>
        <time>2022-12-26T11:11:27Z</time>
      </trkpt>
      <trkpt lat="46.59797" lon="5.56345">
        <ele>581.6</ele>
        <time>2022-12-26T11:11:28Z</time>
      </trkpt>
      <trkpt lat="46.59794" lon="5.56346">
        <ele>581.4</ele>
        <time>2022-12-26T11:11:29Z</time>
      </trkpt>
      <trkpt lat="46.59792" lon="5.56346">
        <ele>581</ele>
        <time>2022-12-26T11:11:30Z</time>
      </trkpt>
      <trkpt lat="46.5979" lon="5.56347">
        <ele>580.6</ele>
        <time>2022-12-26T11:11:31Z</time>
      </trkpt>
      <trkpt lat="46.59788" lon="5.56348">
        <ele>580.2</ele>
        <time>2022-12-26T11:11:32Z</time>
      </trkpt>
      <trkpt lat="46.59786" lon="5.56347">
        <ele>579.8</ele>
        <time>2022-12-26T11:11:33Z</time>
      </trkpt>
      <trkpt lat="46.59786" lon="5.56347">
        <ele>579.4</ele>
        <time>2022-12-26T11:11:34Z</time>
      </trkpt>
      <trkpt lat="46.59782" lon="5.56347">
        <ele>579</ele>
        <time>2022-12-26T11:11:35Z</time>
      </trkpt>
      <trkpt lat="46.59781" lon="5.56348">
        <ele>578.8</ele>
        <time>2022-12-26T11:11:36Z</time>
      </trkpt>
      <trkpt lat="46.59781" lon="5.56348">
        <ele>578.4</ele>
        <time>2022-12-26T11:11:37Z</time>
      </trkpt>
      <trkpt lat="46.59777" lon="5.56348">
        <ele>578</ele>
        <time>2022-12-26T11:11:38Z</time>
      </trkpt>
      <trkpt lat="46.59774" lon="5.56349">
        <ele>577.6</ele>
        <time>2022-12-26T11:11:39Z</time>
      </trkpt>
      <trkpt lat="46.59771" lon="5.56349">
        <ele>577.2</ele>
        <time>2022-12-26T11:11:40Z</time>
      </trkpt>
      <trkpt lat="46.59769" lon="5.5635">
        <ele>576.8</ele>
        <time>2022-12-26T11:11:41Z</time>
      </trkpt>
      <trkpt lat="46.59766" lon="5.56352">
        <ele>576.6</ele>
        <time>2022-12-26T11:11:42Z</time>
      </trkpt>
      <trkpt lat="46.59764" lon="5.56352">
        <ele>576.2</ele>
        <time>2022-12-26T11:11:43Z</time>
      </trkpt>
      <trkpt lat="46.59761" lon="5.56353">
        <ele>575.8</ele>
        <time>2022-12-26T11:11:44Z</time>
      </trkpt>
      <trkpt lat="46.59761" lon="5.56353">
        <ele>575.4</ele>
        <time>2022-12-26T11:11:45Z</time>
      </trkpt>
      <trkpt lat="46.59756" lon="5.56353">
        <ele>575.2</ele>
        <time>2022-12-26T11:11:46Z</time>
      </trkpt>
      <trkpt lat="46.59754" lon="5.56353">
        <ele>574.8</ele>
        <time>2022-12-26T11:11:47Z</time>
      </trkpt>
      <trkpt lat="46.59752" lon="5.56353">
        <ele>574.4</ele>
        <time>2022-12-26T11:11:48Z</time>
      </trkpt>
      <trkpt lat="46.5975" lon="5.56354">
        <ele>574.2</ele>
        <time>2022-12-26T11:11:49Z</time>
      </trkpt>
      <trkpt lat="46.59747" lon="5.56354">
        <ele>573.8</ele>
        <time>2022-12-26T11:11:50Z</time>
      </trkpt>
      <trkpt lat="46.59745" lon="5.56354">
        <ele>573.6</ele>
        <time>2022-12-26T11:11:51Z</time>
      </trkpt>
      <trkpt lat="46.59742" lon="5.56354">
        <ele>573.2</ele>
        <time>2022-12-26T11:11:52Z</time>
      </trkpt>
      <trkpt lat="46.5974" lon="5.56353">
        <ele>573</ele>
        <time>2022-12-26T11:11:53Z</time>
      </trkpt>
      <trkpt lat="46.59738" lon="5.56352">
        <ele>572.6</ele>
        <time>2022-12-26T11:11:54Z</time>
      </trkpt>
      <trkpt lat="46.59735" lon="5.56353">
        <ele>572.4</ele>
        <time>2022-12-26T11:11:55Z</time>
      </trkpt>
      <trkpt lat="46.59735" lon="5.56353">
        <ele>572</ele>
        <time>2022-12-26T11:11:56Z</time>
      </trkpt>
      <trkpt lat="46.59733" lon="5.56355">
        <ele>571.8</ele>
        <time>2022-12-26T11:11:57Z</time>
      </trkpt>
      <trkpt lat="46.59733" lon="5.56355">
        <ele>571.4</ele>
        <time>2022-12-26T11:11:58Z</time>
      </trkpt>
      <trkpt lat="46.59734" lon="5.56358">
        <ele>571</ele>
        <time>2022-12-26T11:11:59Z</time>
      </trkpt>
      <trkpt lat="46.59735" lon="5.56361">
        <ele>570.8</ele>
        <time>2022-12-26T11:12:00Z</time>
      </trkpt>
      <trkpt lat="46.59737" lon="5.56363">
        <ele>570.4</ele>
        <time>2022-12-26T11:12:01Z</time>
      </trkpt>
      <trkpt lat="46.59738" lon="5.56365">
        <ele>570</ele>
        <time>2022-12-26T11:12:02Z</time>
      </trkpt>
      <trkpt lat="46.59738" lon="5.56365">
        <ele>569.8</ele>
        <time>2022-12-26T11:12:03Z</time>
      </trkpt>
      <trkpt lat="46.5974" lon="5.56367">
        <ele>569.4</ele>
        <time>2022-12-26T11:12:04Z</time>
      </trkpt>
      <trkpt lat="46.5974" lon="5.56367">
        <ele>569.2</ele>
        <time>2022-12-26T11:12:05Z</time>
      </trkpt>
      <trkpt lat="46.59743" lon="5.56368">
        <ele>568.8</ele>
        <time>2022-12-26T11:12:06Z</time>
      </trkpt>
      <trkpt lat="46.59745" lon="5.56369">
        <ele>568.6</ele>
        <time>2022-12-26T11:12:07Z</time>
      </trkpt>
      <trkpt lat="46.59748" lon="5.5637">
        <ele>568.2</ele>
        <time>2022-12-26T11:12:08Z</time>
      </trkpt>
      <trkpt lat="46.59749" lon="5.56373">
        <ele>568</ele>
        <time>2022-12-26T11:12:09Z</time>
      </trkpt>
      <trkpt lat="46.59751" lon="5.56376">
        <ele>567.6</ele>
        <time>2022-12-26T11:12:10Z</time>
      </trkpt>
      <trkpt lat="46.59752" lon="5.56378">
        <ele>567.4</ele>
        <time>2022-12-26T11:12:11Z</time>
      </trkpt>
      <trkpt lat="46.59752" lon="5.56378">
        <ele>567</ele>
        <time>2022-12-26T11:12:12Z</time>
      </trkpt>
      <trkpt lat="46.59754" lon="5.56381">
        <ele>566.8</ele>
        <time>2022-12-26T11:12:13Z</time>
      </trkpt>
      <trkpt lat="46.59754" lon="5.56381">
        <ele>566.6</ele>
        <time>2022-12-26T11:12:14Z</time>
      </trkpt>
      <trkpt lat="46.59757" lon="5.56385">
        <ele>566.2</ele>
        <time>2022-12-26T11:12:15Z</time>
      </trkpt>
      <trkpt lat="46.59758" lon="5.56387">
        <ele>566</ele>
        <time>2022-12-26T11:12:16Z</time>
      </trkpt>
      <trkpt lat="46.59758" lon="5.56387">
        <ele>565.6</ele>
        <time>2022-12-26T11:12:17Z</time>
      </trkpt>
      <trkpt lat="46.59761" lon="5.56391">
        <ele>565.2</ele>
        <time>2022-12-26T11:12:18Z</time>
      </trkpt>
      <trkpt lat="46.59762" lon="5.56394">
        <ele>565</ele>
        <time>2022-12-26T11:12:19Z</time>
      </trkpt>
      <trkpt lat="46.59763" lon="5.56396">
        <ele>564.6</ele>
        <time>2022-12-26T11:12:20Z</time>
      </trkpt>
      <trkpt lat="46.59764" lon="5.56399">
        <ele>564.2</ele>
        <time>2022-12-26T11:12:21Z</time>
      </trkpt>
      <trkpt lat="46.59765" lon="5.56402">
        <ele>563.8</ele>
        <time>2022-12-26T11:12:22Z</time>
      </trkpt>
      <trkpt lat="46.59767" lon="5.56404">
        <ele>563.6</ele>
        <time>2022-12-26T11:12:23Z</time>
      </trkpt>
      <trkpt lat="46.59769" lon="5.56406">
        <ele>563.2</ele>
        <time>2022-12-26T11:12:24Z</time>
      </trkpt>
      <trkpt lat="46.59771" lon="5.56409">
        <ele>562.8</ele>
        <time>2022-12-26T11:12:25Z</time>
      </trkpt>
      <trkpt lat="46.59772" lon="5.56413">
        <ele>562.4</ele>
        <time>2022-12-26T11:12:26Z</time>
      </trkpt>
      <trkpt lat="46.59772" lon="5.56416">
        <ele>562</ele>
        <time>2022-12-26T11:12:27Z</time>
      </trkpt>
      <trkpt lat="46.59771" lon="5.5642">
        <ele>561.6</ele>
        <time>2022-12-26T11:12:28Z</time>
      </trkpt>
      <trkpt lat="46.5977" lon="5.56424">
        <ele>561.2</ele>
        <time>2022-12-26T11:12:29Z</time>
      </trkpt>
      <trkpt lat="46.59769" lon="5.56428">
        <ele>561</ele>
        <time>2022-12-26T11:12:30Z</time>
      </trkpt>
      <trkpt lat="46.59768" lon="5.56432">
        <ele>560.6</ele>
        <time>2022-12-26T11:12:31Z</time>
      </trkpt>
      <trkpt lat="46.59766" lon="5.56436">
        <ele>560.2</ele>
        <time>2022-12-26T11:12:32Z</time>
      </trkpt>
      <trkpt lat="46.59765" lon="5.5644">
        <ele>560</ele>
        <time>2022-12-26T11:12:33Z</time>
      </trkpt>
      <trkpt lat="46.59764" lon="5.56444">
        <ele>559.6</ele>
        <time>2022-12-26T11:12:34Z</time>
      </trkpt>
      <trkpt lat="46.59762" lon="5.56448">
        <ele>559.4</ele>
        <time>2022-12-26T11:12:35Z</time>
      </trkpt>
      <trkpt lat="46.59761" lon="5.56453">
        <ele>559</ele>
        <time>2022-12-26T11:12:36Z</time>
      </trkpt>
      <trkpt lat="46.59759" lon="5.56457">
        <ele>558.6</ele>
        <time>2022-12-26T11:12:37Z</time>
      </trkpt>
      <trkpt lat="46.59757" lon="5.56461">
        <ele>558.4</ele>
        <time>2022-12-26T11:12:38Z</time>
      </trkpt>
      <trkpt lat="46.59755" lon="5.56464">
        <ele>558</ele>
        <time>2022-12-26T11:12:39Z</time>
      </trkpt>
      <trkpt lat="46.59753" lon="5.56468">
        <ele>557.6</ele>
        <time>2022-12-26T11:12:40Z</time>
      </trkpt>
      <trkpt lat="46.59752" lon="5.56472">
        <ele>557.4</ele>
        <time>2022-12-26T11:12:41Z</time>
      </trkpt>
      <trkpt lat="46.59751" lon="5.56475">
        <ele>557</ele>
        <time>2022-12-26T11:12:42Z</time>
      </trkpt>
      <trkpt lat="46.5975" lon="5.5648">
        <ele>556.6</ele>
        <time>2022-12-26T11:12:43Z</time>
      </trkpt>
      <trkpt lat="46.5975" lon="5.56485">
        <ele>556.4</ele>
        <time>2022-12-26T11:12:44Z</time>
      </trkpt>
      <trkpt lat="46.59749" lon="5.56488">
        <ele>556</ele>
        <time>2022-12-26T11:12:45Z</time>
      </trkpt>
      <trkpt lat="46.59748" lon="5.56491">
        <ele>555.6</ele>
        <time>2022-12-26T11:12:46Z</time>
      </trkpt>
      <trkpt lat="46.59747" lon="5.56494">
        <ele>555.2</ele>
        <time>2022-12-26T11:12:47Z</time>
      </trkpt>
      <trkpt lat="46.59746" lon="5.56497">
        <ele>554.8</ele>
        <time>2022-12-26T11:12:48Z</time>
      </trkpt>
      <trkpt lat="46.59745" lon="5.56499">
        <ele>554.6</ele>
        <time>2022-12-26T11:12:49Z</time>
      </trkpt>
      <trkpt lat="46.59743" lon="5.56502">
        <ele>554.2</ele>
        <time>2022-12-26T11:12:50Z</time>
      </trkpt>
      <trkpt lat="46.59741" lon="5.56506">
        <ele>553.8</ele>
        <time>2022-12-26T11:12:51Z</time>
      </trkpt>
      <trkpt lat="46.59741" lon="5.56508">
        <ele>553.4</ele>
        <time>2022-12-26T11:12:52Z</time>
      </trkpt>
      <trkpt lat="46.59739" lon="5.56512">
        <ele>553</ele>
        <time>2022-12-26T11:12:53Z</time>
      </trkpt>
      <trkpt lat="46.59731" lon="5.56521">
        <ele>534.5</ele>
      </trkpt>
      <trkpt lat="46.59726" lon="5.56519">
        <ele>534</ele>
      </trkpt>
      <trkpt lat="46.59724" lon="5.56518">
        <ele>533.8</ele>
      </trkpt>
      <trkpt lat="46.59715" lon="5.56514">
        <ele>533</ele>
      </trkpt>
      <trkpt lat="46.59707" lon="5.56507">
        <ele>532.2</ele>
      </trkpt>
      <trkpt lat="46.59703" lon="5.56503">
        <ele>531.7</ele>
      </trkpt>
      <trkpt lat="46.59688" lon="5.56489">
        <ele>530.6</ele>
      </trkpt>
      <trkpt lat="46.5968" lon="5.56485">
        <ele>529.7</ele>
      </trkpt>
      <trkpt lat="46.59672" lon="5.56482">
        <ele>528.7</ele>
      </trkpt>
      <trkpt lat="46.59662" lon="5.56477">
        <ele>527.4</ele>
      </trkpt>
      <trkpt lat="46.59656" lon="5.56475">
        <ele>526.6</ele>
      </trkpt>
      <trkpt lat="46.59652" lon="5.56473">
        <ele>525.9</ele>
      </trkpt>
      <trkpt lat="46.59638" lon="5.56468">
        <ele>524.3</ele>
      </trkpt>
      <trkpt lat="46.59622" lon="5.56455">
        <ele>523.4</ele>
      </trkpt>
      <trkpt lat="46.59607" lon="5.56443">
        <ele>520.3</ele>
      </trkpt>
      <trkpt lat="46.59592" lon="5.56432">
        <ele>517.8</ele>
      </trkpt>
      <trkpt lat="46.5958" lon="5.5642">
        <ele>515.6</ele>
      </trkpt>
      <trkpt lat="46.59565" lon="5.5639">
        <ele>515</ele>
      </trkpt>
      <trkpt lat="46.59561" lon="5.56378">
        <ele>514.2</ele>
      </trkpt>
      <trkpt lat="46.59559" lon="5.5637">
        <ele>513.5</ele>
      </trkpt>
      <trkpt lat="46.59553" lon="5.5637">
        <ele>512.8</ele>
      </trkpt>
      <trkpt lat="46.59549" lon="5.56375">
        <ele>513.8</ele>
      </trkpt>
      <trkpt lat="46.59546" lon="5.56371">
        <ele>514.2</ele>
        <extensions>
          <visugpx:TrkExtension xmlns:visugpx="https://www.visugpx.com/editgpx/">
            <visugpx:node>1</visugpx:node>
            </visugpx:TrkExtension>
        </extensions>
      </trkpt>
      <trkpt lat="46.59549" lon="5.56375">
        <ele>513.8</ele>
      </trkpt>
      <trkpt lat="46.59545" lon="5.56383">
        <ele>515</ele>
      </trkpt>
      <trkpt lat="46.59539" lon="5.564">
        <ele>515.9</ele>
      </trkpt>
      <trkpt lat="46.59535" lon="5.56418">
        <ele>515.2</ele>
      </trkpt>
      <trkpt lat="46.59529" lon="5.5644">
        <ele>515.1</ele>
      </trkpt>
      <trkpt lat="46.59527" lon="5.56449">
        <ele>515.1</ele>
      </trkpt>
      <trkpt lat="46.59525" lon="5.56462">
        <ele>515.4</ele>
      </trkpt>
      <trkpt lat="46.59524" lon="5.56474">
        <ele>515.6</ele>
      </trkpt>
      <trkpt lat="46.5952" lon="5.56491">
        <ele>516.4</ele>
      </trkpt>
      <trkpt lat="46.59516" lon="5.5651">
        <ele>517.6</ele>
      </trkpt>
      <trkpt lat="46.59511" lon="5.56541">
        <ele>520.9</ele>
      </trkpt>
      <trkpt lat="46.59503" lon="5.56566">
        <ele>524.3</ele>
      </trkpt>
      <trkpt lat="46.59489" lon="5.56591">
        <ele>526.4</ele>
      </trkpt>
      <trkpt lat="46.59475" lon="5.56614">
        <ele>529.6</ele>
      </trkpt>
      <trkpt lat="46.59467" lon="5.56625">
        <ele>530.4</ele>
      </trkpt>
      <trkpt lat="46.59454" lon="5.56637">
        <ele>531.9</ele>
      </trkpt>
      <trkpt lat="46.59444" lon="5.56641">
        <ele>533</ele>
      </trkpt>
      <trkpt lat="46.59437" lon="5.5664">
        <ele>533.8</ele>
      </trkpt>
      <trkpt lat="46.59432" lon="5.56639">
        <ele>534.3</ele>
      </trkpt>
      <trkpt lat="46.59426" lon="5.56641">
        <ele>534.9</ele>
      </trkpt>
      <trkpt lat="46.59418" lon="5.56645">
        <ele>535.4</ele>
      </trkpt>
      <trkpt lat="46.59407" lon="5.56652">
        <ele>536.3</ele>
      </trkpt>
      <trkpt lat="46.59397" lon="5.5666">
        <ele>537.1</ele>
      </trkpt>
      <trkpt lat="46.59387" lon="5.56667">
        <ele>538.2</ele>
      </trkpt>
      <trkpt lat="46.59376" lon="5.56673">
        <ele>539.6</ele>
      </trkpt>
      <trkpt lat="46.59364" lon="5.56679">
        <ele>541.5</ele>
      </trkpt>
      <trkpt lat="46.59351" lon="5.56686">
        <ele>543.5</ele>
      </trkpt>
      <trkpt lat="46.59336" lon="5.56692">
        <ele>544.9</ele>
      </trkpt>
      <trkpt lat="46.5932" lon="5.56699">
        <ele>546</ele>
      </trkpt>
      <trkpt lat="46.59306" lon="5.56702">
        <ele>547</ele>
      </trkpt>
      <trkpt lat="46.59297" lon="5.56704">
        <ele>547.5</ele>
      </trkpt>
      <trkpt lat="46.59286" lon="5.56704">
        <ele>548.2</ele>
      </trkpt>
      <trkpt lat="46.59276" lon="5.56704">
        <ele>548.6</ele>
      </trkpt>
      <trkpt lat="46.59267" lon="5.56703">
        <ele>548.3</ele>
      </trkpt>
      <trkpt lat="46.59256" lon="5.567">
        <ele>548</ele>
      </trkpt>
      <trkpt lat="46.59247" lon="5.56697">
        <ele>547.7</ele>
      </trkpt>
      <trkpt lat="46.59239" lon="5.56697">
        <ele>547.1</ele>
      </trkpt>
      <trkpt lat="46.59242" lon="5.56704">
        <ele>547.1</ele>
      </trkpt>
      <trkpt lat="46.59247" lon="5.5672">
        <ele>546.9</ele>
      </trkpt>
      <trkpt lat="46.59248" lon="5.56723">
        <ele>546.8</ele>
        <extensions>
          <visugpx:TrkExtension xmlns:visugpx="https://www.visugpx.com/editgpx/">
            <visugpx:node>2</visugpx:node>
            </visugpx:TrkExtension>
        </extensions>
      </trkpt>
      <trkpt lat="46.5925" lon="5.56729">
        <ele>546.8</ele>
      </trkpt>
      <trkpt lat="46.59255" lon="5.56741">
        <ele>546.4</ele>
      </trkpt>
      <trkpt lat="46.59261" lon="5.56752">
        <ele>545.9</ele>
      </trkpt>
      <trkpt lat="46.59266" lon="5.56759">
        <ele>545.6</ele>
      </trkpt>
      <trkpt lat="46.59262" lon="5.56766">
        <ele>545.5</ele>
      </trkpt>
      <trkpt lat="46.59256" lon="5.56777">
        <ele>545.6</ele>
      </trkpt>
      <trkpt lat="46.59249" lon="5.56788">
        <ele>546</ele>
      </trkpt>
      <trkpt lat="46.59246" lon="5.56797">
        <ele>546</ele>
      </trkpt>
      <trkpt lat="46.59244" lon="5.56806">
        <ele>546</ele>
      </trkpt>
      <trkpt lat="46.59241" lon="5.5682">
        <ele>546</ele>
      </trkpt>
      <trkpt lat="46.59235" lon="5.56846">
        <ele>546.9</ele>
      </trkpt>
      <trkpt lat="46.59232" lon="5.56863">
        <ele>547.8</ele>
      </trkpt>
      <trkpt lat="46.5923" lon="5.56876">
        <ele>548.1</ele>
      </trkpt>
      <trkpt lat="46.59227" lon="5.56892">
        <ele>548.5</ele>
      </trkpt>
      <trkpt lat="46.59224" lon="5.56905">
        <ele>548.8</ele>
      </trkpt>
      <trkpt lat="46.59221" lon="5.56914">
        <ele>548.9</ele>
      </trkpt>
      <trkpt lat="46.5922" lon="5.56917">
        <ele>549</ele>
      </trkpt>
      <trkpt lat="46.59217" lon="5.56927">
        <ele>549.9</ele>
      </trkpt>
      <trkpt lat="46.59212" lon="5.5694">
        <ele>550.8</ele>
      </trkpt>
      <trkpt lat="46.59207" lon="5.56952">
        <ele>551.3</ele>
      </trkpt>
      <trkpt lat="46.59202" lon="5.56963">
        <ele>551.4</ele>
      </trkpt>
      <trkpt lat="46.59197" lon="5.56976">
        <ele>551.5</ele>
      </trkpt>
      <trkpt lat="46.59192" lon="5.56987">
        <ele>552</ele>
      </trkpt>
      <trkpt lat="46.59187" lon="5.56995">
        <ele>552.4</ele>
      </trkpt>
      <trkpt lat="46.5918" lon="5.57">
        <ele>552.5</ele>
      </trkpt>
      <trkpt lat="46.59171" lon="5.57004">
        <ele>552.5</ele>
      </trkpt>
      <trkpt lat="46.5916" lon="5.57004">
        <ele>552.3</ele>
      </trkpt>
      <trkpt lat="46.59145" lon="5.57004">
        <ele>552.2</ele>
      </trkpt>
      <trkpt lat="46.59129" lon="5.57004">
        <ele>552.4</ele>
      </trkpt>
      <trkpt lat="46.59117" lon="5.57004">
        <ele>552.7</ele>
      </trkpt>
      <trkpt lat="46.5911" lon="5.57007">
        <ele>552.8</ele>
      </trkpt>
      <trkpt lat="46.59102" lon="5.57012">
        <ele>552.9</ele>
      </trkpt>
      <trkpt lat="46.59093" lon="5.57021">
        <ele>553.2</ele>
      </trkpt>
      <trkpt lat="46.59082" lon="5.5703">
        <ele>554.1</ele>
      </trkpt>
      <trkpt lat="46.59065" lon="5.57047">
        <ele>555.1</ele>
      </trkpt>
      <trkpt lat="46.59043" lon="5.57067">
        <ele>557.5</ele>
      </trkpt>
      <trkpt lat="46.59033" lon="5.57076">
        <ele>559</ele>
      </trkpt>
      <trkpt lat="46.59023" lon="5.57085">
        <ele>560.3</ele>
      </trkpt>
      <trkpt lat="46.59012" lon="5.57098">
        <ele>561.9</ele>
      </trkpt>
      <trkpt lat="46.59001" lon="5.57109">
        <ele>562.8</ele>
      </trkpt>
      <trkpt lat="46.58993" lon="5.57115">
        <ele>563.9</ele>
      </trkpt>
      <trkpt lat="46.58989" lon="5.57127">
        <ele>565.8</ele>
      </trkpt>
      <trkpt lat="46.58983" lon="5.5714">
        <ele>567.5</ele>
      </trkpt>
      <trkpt lat="46.58972" lon="5.5716">
        <ele>569.3</ele>
      </trkpt>
      <trkpt lat="46.58964" lon="5.57178">
        <ele>571.6</ele>
      </trkpt>
      <trkpt lat="46.58953" lon="5.57204">
        <ele>574.6</ele>
      </trkpt>
      <trkpt lat="46.58947" lon="5.57213">
        <ele>575.2</ele>
      </trkpt>
      <trkpt lat="46.58939" lon="5.57226">
        <ele>575.9</ele>
      </trkpt>
      <trkpt lat="46.58938" lon="5.57228">
        <ele>576.1</ele>
      </trkpt>
      <trkpt lat="46.58929" lon="5.57244">
        <ele>577</ele>
      </trkpt>
      <trkpt lat="46.58919" lon="5.57259">
        <ele>577.6</ele>
      </trkpt>
      <trkpt lat="46.58907" lon="5.57279">
        <ele>579.8</ele>
      </trkpt>
      <trkpt lat="46.58897" lon="5.57296">
        <ele>581.2</ele>
      </trkpt>
      <trkpt lat="46.58891" lon="5.57309">
        <ele>581.7</ele>
      </trkpt>
      <trkpt lat="46.58885" lon="5.57327">
        <ele>583.3</ele>
      </trkpt>
      <trkpt lat="46.58882" lon="5.57338">
        <ele>584.5</ele>
      </trkpt>
      <trkpt lat="46.58876" lon="5.57353">
        <ele>586.1</ele>
      </trkpt>
      <trkpt lat="46.5886" lon="5.57387">
        <ele>587.9</ele>
      </trkpt>
      <trkpt lat="46.58851" lon="5.57404">
        <ele>591.4</ele>
      </trkpt>
      <trkpt lat="46.58844" lon="5.5742">
        <ele>593.1</ele>
      </trkpt>
      <trkpt lat="46.5884" lon="5.57433">
        <ele>593.6</ele>
      </trkpt>
      <trkpt lat="46.58839" lon="5.57448">
        <ele>594.3</ele>
      </trkpt>
      <trkpt lat="46.58839" lon="5.57468">
        <ele>594.6</ele>
      </trkpt>
      <trkpt lat="46.58838" lon="5.57492">
        <ele>595.5</ele>
      </trkpt>
      <trkpt lat="46.58838" lon="5.57506">
        <ele>596</ele>
      </trkpt>
      <trkpt lat="46.58831" lon="5.57508">
        <ele>595.7</ele>
      </trkpt>
      <trkpt lat="46.58827" lon="5.57505">
        <ele>596.9</ele>
      </trkpt>
      <trkpt lat="46.58822" lon="5.57501">
        <ele>598.6</ele>
        <extensions>
          <visugpx:TrkExtension xmlns:visugpx="https://www.visugpx.com/editgpx/">
            <visugpx:node>3</visugpx:node>
            </visugpx:TrkExtension>
        </extensions>
      </trkpt>
      <trkpt lat="46.5882" lon="5.57499">
        <ele>599.3</ele>
      </trkpt>
      <trkpt lat="46.58816" lon="5.57491">
        <ele>600.4</ele>
      </trkpt>
      <trkpt lat="46.58812" lon="5.57484">
        <ele>601.6</ele>
      </trkpt>
      <trkpt lat="46.58806" lon="5.57462">
        <ele>603.5</ele>
      </trkpt>
      <trkpt lat="46.588" lon="5.5743">
        <ele>606</ele>
      </trkpt>
      <trkpt lat="46.58797" lon="5.57409">
        <ele>607.9</ele>
      </trkpt>
      <trkpt lat="46.58796" lon="5.57394">
        <ele>608.6</ele>
      </trkpt>
      <trkpt lat="46.58794" lon="5.57385">
        <ele>609.2</ele>
      </trkpt>
      <trkpt lat="46.5879" lon="5.5738">
        <ele>609.9</ele>
      </trkpt>
      <trkpt lat="46.58779" lon="5.57377">
        <ele>612.4</ele>
      </trkpt>
      <trkpt lat="46.58768" lon="5.57374">
        <ele>612.7</ele>
      </trkpt>
      <trkpt lat="46.5876" lon="5.57371">
        <ele>612.7</ele>
      </trkpt>
      <trkpt lat="46.58752" lon="5.5737">
        <ele>612.9</ele>
      </trkpt>
      <trkpt lat="46.58745" lon="5.57391">
        <ele>615.4</ele>
      </trkpt>
      <trkpt lat="46.58741" lon="5.57406">
        <ele>617.2</ele>
      </trkpt>
      <trkpt lat="46.58738" lon="5.5742">
        <ele>618.7</ele>
      </trkpt>
      <trkpt lat="46.58736" lon="5.5743">
        <ele>619.5</ele>
      </trkpt>
      <trkpt lat="46.58736" lon="5.57437">
        <ele>620</ele>
      </trkpt>
      <trkpt lat="46.58736" lon="5.57451">
        <ele>621.2</ele>
      </trkpt>
      <trkpt lat="46.58736" lon="5.57466">
        <ele>622.8</ele>
      </trkpt>
      <trkpt lat="46.58735" lon="5.57475">
        <ele>623.7</ele>
      </trkpt>
      <trkpt lat="46.5873" lon="5.57482">
        <ele>624.4</ele>
      </trkpt>
      <trkpt lat="46.58722" lon="5.57494">
        <ele>626.4</ele>
      </trkpt>
      <trkpt lat="46.58716" lon="5.57503">
        <ele>627.5</ele>
      </trkpt>
      <trkpt lat="46.58706" lon="5.57516">
        <ele>628.5</ele>
      </trkpt>
      <trkpt lat="46.5869" lon="5.57528">
        <ele>630.1</ele>
      </trkpt>
      <trkpt lat="46.58683" lon="5.5753">
        <ele>629.8</ele>
      </trkpt>
      <trkpt lat="46.58673" lon="5.57532">
        <ele>629.8</ele>
      </trkpt>
      <trkpt lat="46.58658" lon="5.57533">
        <ele>630.1</ele>
      </trkpt>
      <trkpt lat="46.58638" lon="5.57532">
        <ele>630.9</ele>
      </trkpt>
      <trkpt lat="46.58616" lon="5.57518">
        <ele>634.6</ele>
      </trkpt>
      <trkpt lat="46.586" lon="5.57496">
        <ele>636.1</ele>
      </trkpt>
      <trkpt lat="46.58591" lon="5.5749">
        <ele>637.4</ele>
      </trkpt>
      <trkpt lat="46.58582" lon="5.57488">
        <ele>638.8</ele>
      </trkpt>
      <trkpt lat="46.58578" lon="5.57488">
        <ele>639.3</ele>
      </trkpt>
      <trkpt lat="46.58572" lon="5.57489">
        <ele>640</ele>
      </trkpt>
      <trkpt lat="46.58564" lon="5.57493">
        <ele>641.3</ele>
      </trkpt>
      <trkpt lat="46.58558" lon="5.57498">
        <ele>642.5</ele>
      </trkpt>
      <trkpt lat="46.5855" lon="5.57504">
        <ele>643.2</ele>
      </trkpt>
      <trkpt lat="46.58545" lon="5.57507">
        <ele>643.4</ele>
      </trkpt>
      <trkpt lat="46.58533" lon="5.5751">
        <ele>643.8</ele>
      </trkpt>
      <trkpt lat="46.58531" lon="5.57511">
        <ele>643.9</ele>
      </trkpt>
      <trkpt lat="46.58517" lon="5.57514">
        <ele>644</ele>
      </trkpt>
      <trkpt lat="46.58495" lon="5.57517">
        <ele>643.4</ele>
      </trkpt>
      <trkpt lat="46.58474" lon="5.57512">
        <ele>644</ele>
      </trkpt>
      <trkpt lat="46.58441" lon="5.57497">
        <ele>650.2</ele>
      </trkpt>
      <trkpt lat="46.58423" lon="5.57494">
        <ele>652.1</ele>
      </trkpt>
      <trkpt lat="46.58413" lon="5.57492">
        <ele>653</ele>
      </trkpt>
      <trkpt lat="46.58393" lon="5.57489">
        <ele>654.3</ele>
      </trkpt>
      <trkpt lat="46.58383" lon="5.57487">
        <ele>654.6</ele>
      </trkpt>
      <trkpt lat="46.58364" lon="5.57481">
        <ele>655.6</ele>
      </trkpt>
      <trkpt lat="46.5833" lon="5.57466">
        <ele>657.6</ele>
      </trkpt>
      <trkpt lat="46.58325" lon="5.57465">
        <ele>657.7</ele>
      </trkpt>
      <trkpt lat="46.58316" lon="5.57464">
        <ele>658</ele>
      </trkpt>
      <trkpt lat="46.58306" lon="5.57462">
        <ele>658.4</ele>
      </trkpt>
      <trkpt lat="46.58296" lon="5.5746">
        <ele>658.4</ele>
      </trkpt>
      <trkpt lat="46.58291" lon="5.57458">
        <ele>658.5</ele>
      </trkpt>
      <trkpt lat="46.58263" lon="5.57457">
        <ele>659.8</ele>
      </trkpt>
      <trkpt lat="46.58237" lon="5.57468">
        <ele>661.5</ele>
      </trkpt>
      <trkpt lat="46.58208" lon="5.57491">
        <ele>664.9</ele>
      </trkpt>
      <trkpt lat="46.58184" lon="5.57506">
        <ele>665.9</ele>
      </trkpt>
      <trkpt lat="46.58168" lon="5.57513">
        <ele>666</ele>
      </trkpt>
      <trkpt lat="46.58131" lon="5.5752">
        <ele>666.4</ele>
      </trkpt>
      <trkpt lat="46.58078" lon="5.57515">
        <ele>670.9</ele>
      </trkpt>
      <trkpt lat="46.58049" lon="5.5751">
        <ele>674.8</ele>
      </trkpt>
      <trkpt lat="46.58044" lon="5.57509">
        <ele>675.5</ele>
      </trkpt>
      <trkpt lat="46.58027" lon="5.57504">
        <ele>678.2</ele>
      </trkpt>
      <trkpt lat="46.58012" lon="5.575">
        <ele>680.7</ele>
      </trkpt>
      <trkpt lat="46.57999" lon="5.57496">
        <ele>682</ele>
      </trkpt>
      <trkpt lat="46.57985" lon="5.57492">
        <ele>683.3</ele>
      </trkpt>
      <trkpt lat="46.57964" lon="5.57488">
        <ele>685</ele>
      </trkpt>
      <trkpt lat="46.5795" lon="5.57486">
        <ele>685.7</ele>
      </trkpt>
      <trkpt lat="46.5794" lon="5.57484">
        <ele>686.3</ele>
      </trkpt>
      <trkpt lat="46.5793" lon="5.57482">
        <ele>687</ele>
      </trkpt>
      <trkpt lat="46.57916" lon="5.57482">
        <ele>688</ele>
      </trkpt>
      <trkpt lat="46.57908" lon="5.5748">
        <ele>688</ele>
      </trkpt>
      <trkpt lat="46.57894" lon="5.57476">
        <ele>688</ele>
      </trkpt>
      <trkpt lat="46.57852" lon="5.57475">
        <ele>686.6</ele>
        <extensions>
          <visugpx:TrkExtension xmlns:visugpx="https://www.visugpx.com/editgpx/">
            <visugpx:node>4</visugpx:node>
            </visugpx:TrkExtension>
        </extensions>
      </trkpt>
      <trkpt lat="46.5784" lon="5.57474">
        <ele>686.2</ele>
      </trkpt>
      <trkpt lat="46.5783" lon="5.57497">
        <ele>685.9</ele>
      </trkpt>
      <trkpt lat="46.57814" lon="5.57531">
        <ele>686</ele>
      </trkpt>
      <trkpt lat="46.57804" lon="5.57548">
        <ele>686</ele>
      </trkpt>
      <trkpt lat="46.57794" lon="5.57568">
        <ele>686</ele>
      </trkpt>
      <trkpt lat="46.57616" lon="5.57538">
        <ele>682.5</ele>
      </trkpt>
      <trkpt lat="46.57596" lon="5.5752">
        <ele>684.4</ele>
      </trkpt>
      <trkpt lat="46.5757" lon="5.575">
        <ele>686.5</ele>
      </trkpt>
      <trkpt lat="46.57538" lon="5.57479">
        <ele>688.4</ele>
      </trkpt>
      <trkpt lat="46.5748" lon="5.57494">
        <ele>693.9</ele>
      </trkpt>
      <trkpt lat="46.57389" lon="5.57526">
        <ele>699</ele>
      </trkpt>
      <trkpt lat="46.57324" lon="5.57558">
        <ele>700.3</ele>
      </trkpt>
      <trkpt lat="46.57308" lon="5.57559">
        <ele>702.5</ele>
      </trkpt>
      <trkpt lat="46.57272" lon="5.57551">
        <ele>702.7</ele>
      </trkpt>
      <trkpt lat="46.57244" lon="5.5755">
        <ele>700.9</ele>
      </trkpt>
      <trkpt lat="46.57244" lon="5.5755">
        <ele>700.9</ele>
        <extensions>
          <visugpx:TrkExtension xmlns:visugpx="https://www.visugpx.com/editgpx/">
            <visugpx:node>5</visugpx:node>
            </visugpx:TrkExtension>
        </extensions>
      </trkpt>
      <trkpt lat="46.57244" lon="5.5755">
        <ele>700.9</ele>
      </trkpt>
      <trkpt lat="46.57216" lon="5.5757">
        <ele>699</ele>
      </trkpt>
      <trkpt lat="46.57212" lon="5.57574">
        <ele>698.6</ele>
      </trkpt>
      <trkpt lat="46.5721" lon="5.57583">
        <ele>698.1</ele>
      </trkpt>
      <trkpt lat="46.57203" lon="5.57592">
        <ele>697.3</ele>
      </trkpt>
      <trkpt lat="46.57189" lon="5.57605">
        <ele>695.8</ele>
      </trkpt>
      <trkpt lat="46.57173" lon="5.57611">
        <ele>694.5</ele>
      </trkpt>
      <trkpt lat="46.57158" lon="5.57612">
        <ele>693.3</ele>
      </trkpt>
      <trkpt lat="46.57147" lon="5.57621">
        <ele>691.9</ele>
      </trkpt>
      <trkpt lat="46.57126" lon="5.57642">
        <ele>688.8</ele>
      </trkpt>
      <trkpt lat="46.57119" lon="5.57648">
        <ele>687.8</ele>
      </trkpt>
      <trkpt lat="46.57072" lon="5.5771">
        <ele>680.3</ele>
      </trkpt>
      <trkpt lat="46.57061" lon="5.57738">
        <ele>678.1</ele>
      </trkpt>
      <trkpt lat="46.57042" lon="5.57773">
        <ele>674.9</ele>
      </trkpt>
      <trkpt lat="46.57015" lon="5.57798">
        <ele>672.5</ele>
      </trkpt>
      <trkpt lat="46.57011" lon="5.57806">
        <ele>671.8</ele>
      </trkpt>
      <trkpt lat="46.57004" lon="5.57826">
        <ele>670.6</ele>
      </trkpt>
      <trkpt lat="46.56991" lon="5.57869">
        <ele>669</ele>
      </trkpt>
      <trkpt lat="46.56984" lon="5.57873">
        <ele>669.1</ele>
      </trkpt>
      <trkpt lat="46.56961" lon="5.57882">
        <ele>668.7</ele>
      </trkpt>
      <trkpt lat="46.56915" lon="5.57898">
        <ele>666.9</ele>
      </trkpt>
      <trkpt lat="46.56904" lon="5.57899">
        <ele>666.4</ele>
      </trkpt>
      <trkpt lat="46.56889" lon="5.57905">
        <ele>665.4</ele>
      </trkpt>
      <trkpt lat="46.56866" lon="5.57913">
        <ele>664.3</ele>
      </trkpt>
      <trkpt lat="46.56838" lon="5.5792">
        <ele>663</ele>
      </trkpt>
      <trkpt lat="46.56808" lon="5.57929">
        <ele>662</ele>
      </trkpt>
      <trkpt lat="46.56807" lon="5.57929">
        <ele>662</ele>
      </trkpt>
      <trkpt lat="46.56773" lon="5.57941">
        <ele>661</ele>
      </trkpt>
      <trkpt lat="46.56732" lon="5.57954">
        <ele>659</ele>
      </trkpt>
      <trkpt lat="46.56714" lon="5.5796">
        <ele>657.8</ele>
      </trkpt>
      <trkpt lat="46.56678" lon="5.57973">
        <ele>655.4</ele>
      </trkpt>
      <trkpt lat="46.56667" lon="5.57976">
        <ele>654.7</ele>
      </trkpt>
      <trkpt lat="46.56668" lon="5.57974">
        <ele>654.9</ele>
        <extensions>
          <visugpx:TrkExtension xmlns:visugpx="https://www.visugpx.com/editgpx/">
            <visugpx:node>6</visugpx:node>
            </visugpx:TrkExtension>
        </extensions>
      </trkpt>
      <trkpt lat="46.56673" lon="5.57959">
        <ele>655</ele>
      </trkpt>
      <trkpt lat="46.5668" lon="5.57939">
        <ele>655.6</ele>
      </trkpt>
      <trkpt lat="46.56684" lon="5.57919">
        <ele>656.8</ele>
      </trkpt>
      <trkpt lat="46.56689" lon="5.57892">
        <ele>657.4</ele>
      </trkpt>
      <trkpt lat="46.56691" lon="5.57856">
        <ele>656.4</ele>
      </trkpt>
      <trkpt lat="46.56693" lon="5.5783">
        <ele>654.9</ele>
      </trkpt>
      <trkpt lat="46.56694" lon="5.57809">
        <ele>654.1</ele>
      </trkpt>
      <trkpt lat="46.56696" lon="5.57779">
        <ele>653</ele>
      </trkpt>
      <trkpt lat="46.56697" lon="5.57766">
        <ele>652.1</ele>
      </trkpt>
      <trkpt lat="46.56699" lon="5.57751">
        <ele>650.9</ele>
      </trkpt>
      <trkpt lat="46.567" lon="5.57738">
        <ele>650</ele>
      </trkpt>
      <trkpt lat="46.56703" lon="5.57716">
        <ele>648.6</ele>
      </trkpt>
      <trkpt lat="46.56705" lon="5.57703">
        <ele>647.9</ele>
        <extensions>
          <visugpx:TrkExtension xmlns:visugpx="https://www.visugpx.com/editgpx/">
            <visugpx:node>7</visugpx:node>
            </visugpx:TrkExtension>
        </extensions>
      </trkpt>
      <trkpt lat="46.56712" lon="5.57604">
        <ele>651.5</ele>
      </trkpt>
      <trkpt lat="46.56722" lon="5.57375">
        <ele>656</ele>
      </trkpt>
      <trkpt lat="46.56722" lon="5.57373">
        <ele>655.8</ele>
        <extensions>
          <visugpx:TrkExtension xmlns:visugpx="https://www.visugpx.com/editgpx/">
            <visugpx:node>8</visugpx:node>
            </visugpx:TrkExtension>
        </extensions>
      </trkpt>
      <trkpt lat="46.56722" lon="5.57375">
        <ele>656</ele>
      </trkpt>
      <trkpt lat="46.5671" lon="5.5734">
        <ele>652.6</ele>
      </trkpt>
      <trkpt lat="46.56701" lon="5.5733">
        <ele>650.7</ele>
      </trkpt>
      <trkpt lat="46.56689" lon="5.57324">
        <ele>648.7</ele>
      </trkpt>
      <trkpt lat="46.56673" lon="5.5732">
        <ele>646.4</ele>
      </trkpt>
      <trkpt lat="46.56647" lon="5.5732">
        <ele>643.4</ele>
      </trkpt>
      <trkpt lat="46.56622" lon="5.57322">
        <ele>640.6</ele>
      </trkpt>
      <trkpt lat="46.56607" lon="5.57329">
        <ele>639.4</ele>
      </trkpt>
      <trkpt lat="46.56582" lon="5.57349">
        <ele>638.4</ele>
      </trkpt>
      <trkpt lat="46.56571" lon="5.57355">
        <ele>637.8</ele>
      </trkpt>
      <trkpt lat="46.56543" lon="5.57358">
        <ele>637.2</ele>
      </trkpt>
      <trkpt lat="46.56478" lon="5.57357">
        <ele>641.6</ele>
      </trkpt>
      <trkpt lat="46.56444" lon="5.57359">
        <ele>641.8</ele>
      </trkpt>
      <trkpt lat="46.56427" lon="5.57357">
        <ele>641.2</ele>
      </trkpt>
      <trkpt lat="46.5639" lon="5.57344">
        <ele>638.8</ele>
      </trkpt>
      <trkpt lat="46.56376" lon="5.57342">
        <ele>637.7</ele>
      </trkpt>
      <trkpt lat="46.5636" lon="5.57353">
        <ele>637.3</ele>
      </trkpt>
      <trkpt lat="46.56333" lon="5.57373">
        <ele>636.4</ele>
      </trkpt>
      <trkpt lat="46.56303" lon="5.57403">
        <ele>635.3</ele>
      </trkpt>
      <trkpt lat="46.56292" lon="5.57412">
        <ele>634.4</ele>
      </trkpt>
      <trkpt lat="46.56282" lon="5.57406">
        <ele>633.4</ele>
      </trkpt>
      <trkpt lat="46.56276" lon="5.57405">
        <ele>632.8</ele>
        <extensions>
          <visugpx:TrkExtension xmlns:visugpx="https://www.visugpx.com/editgpx/">
            <visugpx:node>9</visugpx:node>
            </visugpx:TrkExtension>
        </extensions>
      </trkpt>
      <trkpt lat="46.56271" lon="5.57404">
        <ele>632.4</ele>
        <extensions>
          <visugpx:TrkExtension xmlns:visugpx="https://www.visugpx.com/editgpx/">
            <visugpx:node>10</visugpx:node>
            </visugpx:TrkExtension>
        </extensions>
      </trkpt>
      <trkpt lat="46.5627" lon="5.57347">
        <ele>630.1</ele>
      </trkpt>
      <trkpt lat="46.56267" lon="5.57217">
        <ele>617.3</ele>
      </trkpt>
      <trkpt lat="46.56262" lon="5.57119">
        <ele>602.5</ele>
      </trkpt>
      <trkpt lat="46.56262" lon="5.57106">
        <ele>600.7</ele>
      </trkpt>
      <trkpt lat="46.56261" lon="5.57093">
        <ele>598.8</ele>
      </trkpt>
      <trkpt lat="46.56261" lon="5.57078">
        <ele>596.8</ele>
      </trkpt>
      <trkpt lat="46.5626" lon="5.57063">
        <ele>595.2</ele>
      </trkpt>
      <trkpt lat="46.5626" lon="5.57044">
        <ele>593.3</ele>
      </trkpt>
      <trkpt lat="46.5626" lon="5.57029">
        <ele>591.8</ele>
      </trkpt>
      <trkpt lat="46.56259" lon="5.57018">
        <ele>590.9</ele>
      </trkpt>
      <trkpt lat="46.56256" lon="5.57005">
        <ele>589.8</ele>
      </trkpt>
      <trkpt lat="46.56249" lon="5.57">
        <ele>589</ele>
      </trkpt>
      <trkpt lat="46.56241" lon="5.57">
        <ele>588.7</ele>
      </trkpt>
      <trkpt lat="46.56231" lon="5.57001">
        <ele>588.4</ele>
      </trkpt>
      <trkpt lat="46.56221" lon="5.57001">
        <ele>588</ele>
      </trkpt>
      <trkpt lat="46.56213" lon="5.57">
        <ele>587.3</ele>
      </trkpt>
      <trkpt lat="46.56208" lon="5.56997">
        <ele>586.8</ele>
      </trkpt>
      <trkpt lat="46.56209" lon="5.5699">
        <ele>586.5</ele>
      </trkpt>
      <trkpt lat="46.56206" lon="5.56978">
        <ele>585.7</ele>
      </trkpt>
      <trkpt lat="46.56205" lon="5.56963">
        <ele>584.7</ele>
      </trkpt>
      <trkpt lat="46.56203" lon="5.56946">
        <ele>583.4</ele>
      </trkpt>
      <trkpt lat="46.56202" lon="5.56927">
        <ele>582.6</ele>
      </trkpt>
      <trkpt lat="46.562" lon="5.56908">
        <ele>581.8</ele>
      </trkpt>
      <trkpt lat="46.56197" lon="5.56891">
        <ele>581.1</ele>
      </trkpt>
      <trkpt lat="46.56197" lon="5.56879">
        <ele>580.6</ele>
      </trkpt>
      <trkpt lat="46.56197" lon="5.56868">
        <ele>580.2</ele>
      </trkpt>
      <trkpt lat="46.56197" lon="5.56858">
        <ele>580</ele>
      </trkpt>
      <trkpt lat="46.56197" lon="5.56849">
        <ele>580.1</ele>
      </trkpt>
      <trkpt lat="46.56195" lon="5.5684">
        <ele>580</ele>
      </trkpt>
      <trkpt lat="46.5619" lon="5.56832">
        <ele>579.7</ele>
      </trkpt>
      <trkpt lat="46.56184" lon="5.56825">
        <ele>579.1</ele>
      </trkpt>
      <trkpt lat="46.56177" lon="5.56819">
        <ele>578.4</ele>
      </trkpt>
      <trkpt lat="46.56171" lon="5.56816">
        <ele>577.8</ele>
      </trkpt>
      <trkpt lat="46.56165" lon="5.56814">
        <ele>577.1</ele>
      </trkpt>
      <trkpt lat="46.56159" lon="5.5681">
        <ele>576.1</ele>
      </trkpt>
      <trkpt lat="46.56152" lon="5.56805">
        <ele>574.9</ele>
      </trkpt>
      <trkpt lat="46.56148" lon="5.56797">
        <ele>574.1</ele>
      </trkpt>
      <trkpt lat="46.56144" lon="5.56788">
        <ele>573.2</ele>
      </trkpt>
      <trkpt lat="46.5614" lon="5.56779">
        <ele>572.2</ele>
      </trkpt>
      <trkpt lat="46.56137" lon="5.56768">
        <ele>570.9</ele>
      </trkpt>
      <trkpt lat="46.56135" lon="5.56758">
        <ele>569.8</ele>
      </trkpt>
      <trkpt lat="46.56132" lon="5.56747">
        <ele>568.6</ele>
        <extensions>
          <visugpx:TrkExtension xmlns:visugpx="https://www.visugpx.com/editgpx/">
            <visugpx:node>12</visugpx:node>
            </visugpx:TrkExtension>
        </extensions>
      </trkpt>
      <trkpt lat="46.56124" lon="5.56541">
        <ele>542.3</ele>
      </trkpt>
      <trkpt lat="46.56196" lon="5.56535">
        <ele>538</ele>
      </trkpt>
      <trkpt lat="46.56196" lon="5.56524">
        <ele>536.4</ele>
        <extensions>
          <visugpx:TrkExtension xmlns:visugpx="https://www.visugpx.com/editgpx/">
            <visugpx:node>3</visugpx:node>
            </visugpx:TrkExtension>
        </extensions>
      </trkpt>
      <trkpt lat="46.56277" lon="5.56455">
        <ele>531.7</ele>
      </trkpt>
      <trkpt lat="46.56293" lon="5.56331">
        <ele>536.2</ele>
      </trkpt>
      <trkpt lat="46.56209" lon="5.56232">
        <ele>538.8</ele>
      </trkpt>
      <trkpt lat="46.56184" lon="5.5611">
        <ele>537.9</ele>
      </trkpt>
      <trkpt lat="46.56185" lon="5.56107">
        <ele>537.2</ele>
      </trkpt>
      <trkpt lat="46.56196" lon="5.5611">
        <ele>536.7</ele>
      </trkpt>
      <trkpt lat="46.56209" lon="5.56111">
        <ele>536.4</ele>
      </trkpt>
      <trkpt lat="46.56229" lon="5.56113">
        <ele>535.6</ele>
      </trkpt>
      <trkpt lat="46.56274" lon="5.56121">
        <ele>533.8</ele>
      </trkpt>
      <trkpt lat="46.56293" lon="5.56121">
        <ele>533.5</ele>
      </trkpt>
      <trkpt lat="46.56301" lon="5.56119">
        <ele>533</ele>
      </trkpt>
      <trkpt lat="46.56313" lon="5.56116">
        <ele>532.5</ele>
      </trkpt>
      <trkpt lat="46.56349" lon="5.56099">
        <ele>529.4</ele>
      </trkpt>
      <trkpt lat="46.56373" lon="5.56089">
        <ele>528.6</ele>
      </trkpt>
      <trkpt lat="46.56472" lon="5.56042">
        <ele>524.5</ele>
      </trkpt>
      <trkpt lat="46.56482" lon="5.56036">
        <ele>524.2</ele>
      </trkpt>
      <trkpt lat="46.56496" lon="5.56025">
        <ele>523.3</ele>
      </trkpt>
      <trkpt lat="46.56506" lon="5.56019">
        <ele>523.1</ele>
      </trkpt>
      <trkpt lat="46.56525" lon="5.56008">
        <ele>522.3</ele>
      </trkpt>
      <trkpt lat="46.56538" lon="5.56006">
        <ele>522.4</ele>
      </trkpt>
      <trkpt lat="46.56547" lon="5.56003">
        <ele>522.2</ele>
      </trkpt>
      <trkpt lat="46.56552" lon="5.55995">
        <ele>521.5</ele>
      </trkpt>
      <trkpt lat="46.56551" lon="5.55987">
        <ele>520.8</ele>
      </trkpt>
      <trkpt lat="46.56551" lon="5.55987">
        <ele>520.8</ele>
        <extensions>
          <visugpx:TrkExtension xmlns:visugpx="https://www.visugpx.com/editgpx/">
            <visugpx:node>1</visugpx:node>
            </visugpx:TrkExtension>
        </extensions>
      </trkpt>
      <trkpt lat="46.56552" lon="5.55995">
        <ele>521.5</ele>
      </trkpt>
      <trkpt lat="46.56583" lon="5.56006">
        <ele>522.9</ele>
      </trkpt>
      <trkpt lat="46.56605" lon="5.56014">
        <ele>524.4</ele>
      </trkpt>
      <trkpt lat="46.56645" lon="5.56021">
        <ele>525.3</ele>
      </trkpt>
      <trkpt lat="46.56662" lon="5.56019">
        <ele>525.1</ele>
      </trkpt>
      <trkpt lat="46.56674" lon="5.56017">
        <ele>524.8</ele>
      </trkpt>
      <trkpt lat="46.56701" lon="5.56013">
        <ele>524.4</ele>
      </trkpt>
      <trkpt lat="46.56709" lon="5.56011">
        <ele>524.2</ele>
      </trkpt>
      <trkpt lat="46.56721" lon="5.56007">
        <ele>523.8</ele>
      </trkpt>
      <trkpt lat="46.56735" lon="5.56001">
        <ele>522.6</ele>
      </trkpt>
      <trkpt lat="46.56745" lon="5.55997">
        <ele>521.9</ele>
      </trkpt>
      <trkpt lat="46.56756" lon="5.55992">
        <ele>521.4</ele>
      </trkpt>
      <trkpt lat="46.56765" lon="5.55985">
        <ele>520.9</ele>
      </trkpt>
      <trkpt lat="46.56774" lon="5.55988">
        <ele>521.1</ele>
      </trkpt>
      <trkpt lat="46.56789" lon="5.55994">
        <ele>521.4</ele>
      </trkpt>
      <trkpt lat="46.56791" lon="5.55988">
        <ele>521.3</ele>
      </trkpt>
      <trkpt lat="46.56792" lon="5.55987">
        <ele>521.3</ele>
        <extensions>
          <visugpx:TrkExtension xmlns:visugpx="https://www.visugpx.com/editgpx/">
            <visugpx:node>2</visugpx:node>
            </visugpx:TrkExtension>
        </extensions>
      </trkpt>
      <trkpt lat="46.56797" lon="5.55983">
        <ele>521.4</ele>
      </trkpt>
      <trkpt lat="46.56807" lon="5.55979">
        <ele>521.9</ele>
      </trkpt>
      <trkpt lat="46.56815" lon="5.55978">
        <ele>522.8</ele>
      </trkpt>
      <trkpt lat="46.56822" lon="5.55973">
        <ele>523.7</ele>
      </trkpt>
      <trkpt lat="46.56828" lon="5.55966">
        <ele>524.7</ele>
      </trkpt>
      <trkpt lat="46.56839" lon="5.55958">
        <ele>526.1</ele>
      </trkpt>
      <trkpt lat="46.56846" lon="5.55951">
        <ele>527.1</ele>
      </trkpt>
      <trkpt lat="46.56852" lon="5.55949">
        <ele>527.9</ele>
      </trkpt>
      <trkpt lat="46.56861" lon="5.55947">
        <ele>528.9</ele>
      </trkpt>
      <trkpt lat="46.56871" lon="5.55945">
        <ele>530</ele>
      </trkpt>
      <trkpt lat="46.56879" lon="5.55941">
        <ele>530.9</ele>
      </trkpt>
      <trkpt lat="46.56894" lon="5.55934">
        <ele>531.9</ele>
      </trkpt>
      <trkpt lat="46.56902" lon="5.55931">
        <ele>532.2</ele>
      </trkpt>
      <trkpt lat="46.56912" lon="5.55929">
        <ele>532.7</ele>
      </trkpt>
      <trkpt lat="46.56919" lon="5.55926">
        <ele>533.1</ele>
      </trkpt>
      <trkpt lat="46.56924" lon="5.55924">
        <ele>533.5</ele>
      </trkpt>
      <trkpt lat="46.56927" lon="5.55918">
        <ele>533.7</ele>
      </trkpt>
      <trkpt lat="46.56933" lon="5.55909">
        <ele>534.5</ele>
      </trkpt>
      <trkpt lat="46.56939" lon="5.55898">
        <ele>535.7</ele>
      </trkpt>
      <trkpt lat="46.56944" lon="5.55887">
        <ele>536.9</ele>
      </trkpt>
      <trkpt lat="46.56956" lon="5.55863">
        <ele>538.2</ele>
      </trkpt>
      <trkpt lat="46.56972" lon="5.55853">
        <ele>540.3</ele>
      </trkpt>
      <trkpt lat="46.56984" lon="5.55848">
        <ele>542.4</ele>
      </trkpt>
      <trkpt lat="46.56998" lon="5.55841">
        <ele>545.1</ele>
      </trkpt>
      <trkpt lat="46.57008" lon="5.55833">
        <ele>546.6</ele>
      </trkpt>
      <trkpt lat="46.57013" lon="5.55826">
        <ele>547.4</ele>
      </trkpt>
      <trkpt lat="46.57019" lon="5.55814">
        <ele>549</ele>
      </trkpt>
      <trkpt lat="46.57026" lon="5.55802">
        <ele>550.9</ele>
      </trkpt>
      <trkpt lat="46.5703" lon="5.55795">
        <ele>551.4</ele>
      </trkpt>
      <trkpt lat="46.57032" lon="5.55787">
        <ele>551.7</ele>
      </trkpt>
      <trkpt lat="46.57033" lon="5.55778">
        <ele>552.2</ele>
      </trkpt>
      <trkpt lat="46.57034" lon="5.55769">
        <ele>553.2</ele>
      </trkpt>
      <trkpt lat="46.5704" lon="5.55766">
        <ele>553.7</ele>
      </trkpt>
      <trkpt lat="46.57043" lon="5.55764">
        <ele>554</ele>
        <extensions>
          <visugpx:TrkExtension xmlns:visugpx="https://www.visugpx.com/editgpx/">
            <visugpx:node>3</visugpx:node>
            </visugpx:TrkExtension>
        </extensions>
      </trkpt>
      <trkpt lat="46.57047" lon="5.5576">
        <ele>554.6</ele>
      </trkpt>
      <trkpt lat="46.57055" lon="5.55756">
        <ele>555.3</ele>
      </trkpt>
      <trkpt lat="46.57061" lon="5.55754">
        <ele>555.9</ele>
      </trkpt>
      <trkpt lat="46.57074" lon="5.55751">
        <ele>557.1</ele>
      </trkpt>
      <trkpt lat="46.57089" lon="5.55751">
        <ele>558.6</ele>
      </trkpt>
      <trkpt lat="46.57118" lon="5.55753">
        <ele>562.7</ele>
      </trkpt>
      <trkpt lat="46.5716" lon="5.55752">
        <ele>570.5</ele>
      </trkpt>
      <trkpt lat="46.57185" lon="5.55755">
        <ele>574.7</ele>
      </trkpt>
      <trkpt lat="46.57206" lon="5.55759">
        <ele>578.2</ele>
      </trkpt>
      <trkpt lat="46.57251" lon="5.5577">
        <ele>583.8</ele>
      </trkpt>
      <trkpt lat="46.5727" lon="5.55775">
        <ele>586.1</ele>
      </trkpt>
      <trkpt lat="46.57296" lon="5.55778">
        <ele>589.6</ele>
      </trkpt>
      <trkpt lat="46.57298" lon="5.55768">
        <ele>591.7</ele>
      </trkpt>
      <trkpt lat="46.57299" lon="5.55757">
        <ele>593.8</ele>
      </trkpt>
      <trkpt lat="46.57297" lon="5.55747">
        <ele>595.2</ele>
      </trkpt>
      <trkpt lat="46.57292" lon="5.55735">
        <ele>596.2</ele>
      </trkpt>
      <trkpt lat="46.57288" lon="5.55721">
        <ele>597.7</ele>
      </trkpt>
      <trkpt lat="46.57285" lon="5.55704">
        <ele>600.1</ele>
      </trkpt>
      <trkpt lat="46.57285" lon="5.55685">
        <ele>602.7</ele>
      </trkpt>
      <trkpt lat="46.57288" lon="5.55652">
        <ele>606.5</ele>
        <extensions>
          <visugpx:TrkExtension xmlns:visugpx="https://www.visugpx.com/editgpx/">
            <visugpx:node>4</visugpx:node>
            </visugpx:TrkExtension>
        </extensions>
      </trkpt>
      <trkpt lat="46.57311" lon="5.55505">
        <ele>625.7</ele>
      </trkpt>
      <trkpt lat="46.57689" lon="5.55689">
        <ele>636.7</ele>
        <extensions>
          <visugpx:TrkExtension xmlns:visugpx="https://www.visugpx.com/editgpx/">
            <visugpx:node>5</visugpx:node>
            </visugpx:TrkExtension>
        </extensions>
      </trkpt>
      <trkpt lat="46.57848" lon="5.55766">
        <ele>635</ele>
      </trkpt>
      <trkpt lat="46.58057" lon="5.55857">
        <ele>630</ele>
      </trkpt>
      <trkpt lat="46.58534" lon="5.56042">
        <ele>610.5</ele>
      </trkpt>
      <trkpt lat="46.58624" lon="5.56041">
        <ele>601.5</ele>
      </trkpt>
      <trkpt lat="46.58672" lon="5.56063">
        <ele>600.2</ele>
      </trkpt>
      <trkpt lat="46.58751" lon="5.5614">
        <ele>596.8</ele>
      </trkpt>
      <trkpt lat="46.58784" lon="5.56172">
        <ele>588.8</ele>
        <extensions>
          <visugpx:TrkExtension xmlns:visugpx="https://www.visugpx.com/editgpx/">
            <visugpx:node>6</visugpx:node>
            </visugpx:TrkExtension>
        </extensions>
      </trkpt>
      <trkpt lat="46.5879" lon="5.56179">
        <ele>588.9</ele>
      </trkpt>
      <trkpt lat="46.58821" lon="5.56199">
        <ele>593.2</ele>
      </trkpt>
      <trkpt lat="46.5888" lon="5.56219">
        <ele>599.5</ele>
      </trkpt>
      <trkpt lat="46.58918" lon="5.56233">
        <ele>601.8</ele>
      </trkpt>
      <trkpt lat="46.58943" lon="5.56238">
        <ele>601.4</ele>
      </trkpt>
      <trkpt lat="46.58983" lon="5.56252">
        <ele>601.1</ele>
      </trkpt>
      <trkpt lat="46.59002" lon="5.56253">
        <ele>599.7</ele>
      </trkpt>
      <trkpt lat="46.59007" lon="5.56237">
        <ele>598.4</ele>
      </trkpt>
      <trkpt lat="46.59016" lon="5.56232">
        <ele>596.4</ele>
      </trkpt>
      <trkpt lat="46.59042" lon="5.56219">
        <ele>590.9</ele>
      </trkpt>
      <trkpt lat="46.59066" lon="5.5622">
        <ele>584.4</ele>
      </trkpt>
      <trkpt lat="46.59097" lon="5.56227">
        <ele>578.8</ele>
      </trkpt>
      <trkpt lat="46.59134" lon="5.56232">
        <ele>574.9</ele>
      </trkpt>
      <trkpt lat="46.59164" lon="5.56216">
        <ele>571.8</ele>
      </trkpt>
      <trkpt lat="46.59197" lon="5.56217">
        <ele>568.4</ele>
      </trkpt>
      <trkpt lat="46.59226" lon="5.56228">
        <ele>567.6</ele>
      </trkpt>
      <trkpt lat="46.59248" lon="5.56246">
        <ele>568.5</ele>
      </trkpt>
      <trkpt lat="46.59264" lon="5.56246">
        <ele>566.8</ele>
        <extensions>
          <visugpx:TrkExtension xmlns:visugpx="https://www.visugpx.com/editgpx/">
            <visugpx:node>7</visugpx:node>
            </visugpx:TrkExtension>
        </extensions>
      </trkpt>
      <trkpt lat="46.59272" lon="5.56246">
        <ele>565.9</ele>
      </trkpt>
      <trkpt lat="46.593" lon="5.56246">
        <ele>562.8</ele>
      </trkpt>
      <trkpt lat="46.59325" lon="5.56269">
        <ele>560.9</ele>
      </trkpt>
      <trkpt lat="46.59352" lon="5.56268">
        <ele>556.3</ele>
      </trkpt>
      <trkpt lat="46.59379" lon="5.5625">
        <ele>550.8</ele>
      </trkpt>
      <trkpt lat="46.59415" lon="5.56247">
        <ele>540.9</ele>
      </trkpt>
      <trkpt lat="46.59442" lon="5.5625">
        <ele>536.4</ele>
      </trkpt>
      <trkpt lat="46.59457" lon="5.56268">
        <ele>535.6</ele>
      </trkpt>
      <trkpt lat="46.59482" lon="5.56284">
        <ele>531.7</ele>
      </trkpt>
      <trkpt lat="46.59517" lon="5.56292">
        <ele>518.3</ele>
      </trkpt>
      <trkpt lat="46.59534" lon="5.56306">
        <ele>512.4</ele>
        <extensions>
          <visugpx:TrkExtension xmlns:visugpx="https://www.visugpx.com/editgpx/">
            <visugpx:node>8</visugpx:node>
            </visugpx:TrkExtension>
        </extensions>
      </trkpt>
      <trkpt lat="46.59542" lon="5.56362">
        <ele>514.6</ele>
      </trkpt>
      <trkpt lat="46.59554" lon="5.56367">
        <ele>512.5</ele>
      </trkpt>
      <trkpt lat="46.59556" lon="5.56368">
        <ele>533.2</ele>
        <time>2022-12-26T11:39:21Z</time>
      </trkpt>
      <trkpt lat="46.59557" lon="5.56365">
        <ele>533</ele>
        <time>2022-12-26T11:39:22Z</time>
      </trkpt>
      <trkpt lat="46.59559" lon="5.56359">
        <ele>532.6</ele>
        <time>2022-12-26T11:39:23Z</time>
      </trkpt>
      <trkpt lat="46.59559" lon="5.56357">
        <ele>532.4</ele>
        <time>2022-12-26T11:39:24Z</time>
      </trkpt>
      <trkpt lat="46.5956" lon="5.56353">
        <ele>532</ele>
        <time>2022-12-26T11:39:25Z</time>
      </trkpt>
      <trkpt lat="46.5956" lon="5.5635">
        <ele>531.8</ele>
        <time>2022-12-26T11:39:26Z</time>
      </trkpt>
      <trkpt lat="46.5956" lon="5.56346">
        <ele>531.6</ele>
        <time>2022-12-26T11:39:27Z</time>
      </trkpt>
      <trkpt lat="46.5956" lon="5.56341">
        <ele>531.2</ele>
        <time>2022-12-26T11:39:28Z</time>
      </trkpt>
      <trkpt lat="46.5956" lon="5.56337">
        <ele>531</ele>
        <time>2022-12-26T11:39:29Z</time>
      </trkpt>
      <trkpt lat="46.5956" lon="5.56333">
        <ele>530.6</ele>
        <time>2022-12-26T11:39:30Z</time>
      </trkpt>
      <trkpt lat="46.59559" lon="5.56328">
        <ele>530.4</ele>
        <time>2022-12-26T11:39:31Z</time>
      </trkpt>
      <trkpt lat="46.59558" lon="5.56324">
        <ele>530</ele>
        <time>2022-12-26T11:39:32Z</time>
      </trkpt>
      <trkpt lat="46.59558" lon="5.5632">
        <ele>529.8</ele>
        <time>2022-12-26T11:39:33Z</time>
      </trkpt>
      <trkpt lat="46.59559" lon="5.56316">
        <ele>529.6</ele>
        <time>2022-12-26T11:39:34Z</time>
      </trkpt>
      <trkpt lat="46.5956" lon="5.56312">
        <ele>529.4</ele>
        <time>2022-12-26T11:39:35Z</time>
      </trkpt>
      <trkpt lat="46.59561" lon="5.56307">
        <ele>529.2</ele>
        <time>2022-12-26T11:39:36Z</time>
      </trkpt>
      <trkpt lat="46.59562" lon="5.56303">
        <ele>529</ele>
        <time>2022-12-26T11:39:37Z</time>
      </trkpt>
      <trkpt lat="46.59563" lon="5.56298">
        <ele>528.6</ele>
        <time>2022-12-26T11:39:38Z</time>
      </trkpt>
      <trkpt lat="46.59564" lon="5.56294">
        <ele>528.4</ele>
        <time>2022-12-26T11:39:39Z</time>
      </trkpt>
      <trkpt lat="46.59565" lon="5.5629">
        <ele>528.2</ele>
        <time>2022-12-26T11:39:40Z</time>
      </trkpt>
      <trkpt lat="46.59566" lon="5.56286">
        <ele>527.8</ele>
        <time>2022-12-26T11:39:41Z</time>
      </trkpt>
      <trkpt lat="46.59568" lon="5.56282">
        <ele>527.6</ele>
        <time>2022-12-26T11:39:42Z</time>
      </trkpt>
      <trkpt lat="46.59569" lon="5.56278">
        <ele>527.4</ele>
        <time>2022-12-26T11:39:43Z</time>
      </trkpt>
      <trkpt lat="46.5957" lon="5.56275">
        <ele>527.2</ele>
        <time>2022-12-26T11:39:44Z</time>
      </trkpt>
      <trkpt lat="46.59572" lon="5.56271">
        <ele>527</ele>
        <time>2022-12-26T11:39:45Z</time>
      </trkpt>
      <trkpt lat="46.59573" lon="5.56268">
        <ele>526.8</ele>
        <time>2022-12-26T11:39:46Z</time>
      </trkpt>
      <trkpt lat="46.59574" lon="5.56265">
        <ele>526.4</ele>
        <time>2022-12-26T11:39:47Z</time>
      </trkpt>
      <trkpt lat="46.59576" lon="5.56261">
        <ele>526.2</ele>
        <time>2022-12-26T11:39:48Z</time>
      </trkpt>
      <trkpt lat="46.59577" lon="5.56257">
        <ele>526</ele>
        <time>2022-12-26T11:39:49Z</time>
      </trkpt>
      <trkpt lat="46.59578" lon="5.56254">
        <ele>525.8</ele>
        <time>2022-12-26T11:39:50Z</time>
      </trkpt>
      <trkpt lat="46.59579" lon="5.5625">
        <ele>525.6</ele>
        <time>2022-12-26T11:39:51Z</time>
      </trkpt>
      <trkpt lat="46.5958" lon="5.56246">
        <ele>525.4</ele>
        <time>2022-12-26T11:39:52Z</time>
      </trkpt>
      <trkpt lat="46.59581" lon="5.56242">
        <ele>525.2</ele>
        <time>2022-12-26T11:39:53Z</time>
      </trkpt>
      <trkpt lat="46.59582" lon="5.56238">
        <ele>524.8</ele>
        <time>2022-12-26T11:39:54Z</time>
      </trkpt>
      <trkpt lat="46.59582" lon="5.56235">
        <ele>524.6</ele>
        <time>2022-12-26T11:39:55Z</time>
      </trkpt>
      <trkpt lat="46.59583" lon="5.56231">
        <ele>524.4</ele>
        <time>2022-12-26T11:39:56Z</time>
      </trkpt>
      <trkpt lat="46.59584" lon="5.56227">
        <ele>524.2</ele>
        <time>2022-12-26T11:39:57Z</time>
      </trkpt>
      <trkpt lat="46.59584" lon="5.56223">
        <ele>524</ele>
        <time>2022-12-26T11:39:58Z</time>
      </trkpt>
      <trkpt lat="46.59585" lon="5.56218">
        <ele>523.8</ele>
        <time>2022-12-26T11:39:59Z</time>
      </trkpt>
      <trkpt lat="46.59584" lon="5.56214">
        <ele>523.6</ele>
        <time>2022-12-26T11:40:00Z</time>
      </trkpt>
      <trkpt lat="46.59584" lon="5.5621">
        <ele>523.2</ele>
        <time>2022-12-26T11:40:01Z</time>
      </trkpt>
      <trkpt lat="46.59585" lon="5.56205">
        <ele>523</ele>
        <time>2022-12-26T11:40:02Z</time>
      </trkpt>
      <trkpt lat="46.59586" lon="5.56202">
        <ele>522.6</ele>
        <time>2022-12-26T11:40:03Z</time>
      </trkpt>
      <trkpt lat="46.59587" lon="5.56195">
        <ele>522.6</ele>
        <time>2022-12-26T11:40:04Z</time>
      </trkpt>
      <trkpt lat="46.59587" lon="5.56192">
        <ele>522.6</ele>
        <time>2022-12-26T11:40:05Z</time>
      </trkpt>
      <trkpt lat="46.59587" lon="5.56189">
        <ele>521.8</ele>
        <time>2022-12-26T11:40:06Z</time>
      </trkpt>
      <trkpt lat="46.59588" lon="5.56185">
        <ele>521.6</ele>
        <time>2022-12-26T11:40:07Z</time>
      </trkpt>
      <trkpt lat="46.59589" lon="5.56182">
        <ele>521.4</ele>
        <time>2022-12-26T11:40:08Z</time>
      </trkpt>
      <trkpt lat="46.5959" lon="5.56179">
        <ele>521.2</ele>
        <time>2022-12-26T11:40:09Z</time>
      </trkpt>
      <trkpt lat="46.5959" lon="5.56175">
        <ele>521</ele>
        <time>2022-12-26T11:40:10Z</time>
      </trkpt>
      <trkpt lat="46.59592" lon="5.56171">
        <ele>520.8</ele>
        <time>2022-12-26T11:40:11Z</time>
      </trkpt>
      <trkpt lat="46.59593" lon="5.56167">
        <ele>520.6</ele>
        <time>2022-12-26T11:40:12Z</time>
      </trkpt>
      <trkpt lat="46.59594" lon="5.56162">
        <ele>520.4</ele>
        <time>2022-12-26T11:40:13Z</time>
      </trkpt>
      <trkpt lat="46.59595" lon="5.56158">
        <ele>520.2</ele>
        <time>2022-12-26T11:40:14Z</time>
      </trkpt>
      <trkpt lat="46.59597" lon="5.56154">
        <ele>520</ele>
        <time>2022-12-26T11:40:15Z</time>
      </trkpt>
      <trkpt lat="46.596" lon="5.56151">
        <ele>519.8</ele>
        <time>2022-12-26T11:40:16Z</time>
      </trkpt>
      <trkpt lat="46.59602" lon="5.56149">
        <ele>519.6</ele>
        <time>2022-12-26T11:40:17Z</time>
      </trkpt>
      <trkpt lat="46.59603" lon="5.56145">
        <ele>519.4</ele>
        <time>2022-12-26T11:40:18Z</time>
      </trkpt>
      <trkpt lat="46.59604" lon="5.56142">
        <ele>519.2</ele>
        <time>2022-12-26T11:40:19Z</time>
      </trkpt>
      <trkpt lat="46.59605" lon="5.56139">
        <ele>519</ele>
        <time>2022-12-26T11:40:20Z</time>
      </trkpt>
      <trkpt lat="46.59606" lon="5.56135">
        <ele>518.8</ele>
        <time>2022-12-26T11:40:21Z</time>
      </trkpt>
      <trkpt lat="46.59608" lon="5.56131">
        <ele>518.6</ele>
        <time>2022-12-26T11:40:22Z</time>
      </trkpt>
      <trkpt lat="46.59609" lon="5.56127">
        <ele>518.4</ele>
        <time>2022-12-26T11:40:23Z</time>
      </trkpt>
      <trkpt lat="46.5961" lon="5.56123">
        <ele>518.2</ele>
        <time>2022-12-26T11:40:24Z</time>
      </trkpt>
      <trkpt lat="46.59612" lon="5.5612">
        <ele>518</ele>
        <time>2022-12-26T11:40:25Z</time>
      </trkpt>
      <trkpt lat="46.59615" lon="5.56114">
        <ele>518</ele>
        <time>2022-12-26T11:40:26Z</time>
      </trkpt>
      <trkpt lat="46.59615" lon="5.56112">
        <ele>517.6</ele>
        <time>2022-12-26T11:40:27Z</time>
      </trkpt>
      <trkpt lat="46.59617" lon="5.56109">
        <ele>517.4</ele>
        <time>2022-12-26T11:40:28Z</time>
      </trkpt>
      <trkpt lat="46.59618" lon="5.56105">
        <ele>517.2</ele>
        <time>2022-12-26T11:40:29Z</time>
      </trkpt>
      <trkpt lat="46.5962" lon="5.56101">
        <ele>517</ele>
        <time>2022-12-26T11:40:30Z</time>
      </trkpt>
      <trkpt lat="46.59622" lon="5.56097">
        <ele>516.8</ele>
        <time>2022-12-26T11:40:31Z</time>
      </trkpt>
      <trkpt lat="46.59624" lon="5.56094">
        <ele>516.6</ele>
        <time>2022-12-26T11:40:32Z</time>
      </trkpt>
      <trkpt lat="46.59626" lon="5.5609">
        <ele>516.4</ele>
        <time>2022-12-26T11:40:33Z</time>
      </trkpt>
      <trkpt lat="46.59627" lon="5.56087">
        <ele>516.2</ele>
        <time>2022-12-26T11:40:34Z</time>
      </trkpt>
      <trkpt lat="46.59629" lon="5.56084">
        <ele>516.2</ele>
        <time>2022-12-26T11:40:35Z</time>
      </trkpt>
      <trkpt lat="46.59631" lon="5.56081">
        <ele>516</ele>
        <time>2022-12-26T11:40:36Z</time>
      </trkpt>
      <trkpt lat="46.59633" lon="5.56078">
        <ele>516</ele>
        <time>2022-12-26T11:40:37Z</time>
      </trkpt>
      <trkpt lat="46.59635" lon="5.56076">
        <ele>515.8</ele>
        <time>2022-12-26T11:40:38Z</time>
      </trkpt>
      <trkpt lat="46.59637" lon="5.56073">
        <ele>515.8</ele>
        <time>2022-12-26T11:40:39Z</time>
      </trkpt>
      <trkpt lat="46.59639" lon="5.56071">
        <ele>515.6</ele>
        <time>2022-12-26T11:40:40Z</time>
      </trkpt>
      <trkpt lat="46.59641" lon="5.56068">
        <ele>515.6</ele>
        <time>2022-12-26T11:40:41Z</time>
      </trkpt>
      <trkpt lat="46.59643" lon="5.56065">
        <ele>515.4</ele>
        <time>2022-12-26T11:40:42Z</time>
      </trkpt>
      <trkpt lat="46.59645" lon="5.56062">
        <ele>515.4</ele>
        <time>2022-12-26T11:40:43Z</time>
      </trkpt>
      <trkpt lat="46.59647" lon="5.56059">
        <ele>515.2</ele>
        <time>2022-12-26T11:40:44Z</time>
      </trkpt>
      <trkpt lat="46.59649" lon="5.56056">
        <ele>515</ele>
        <time>2022-12-26T11:40:45Z</time>
      </trkpt>
      <trkpt lat="46.59651" lon="5.56053">
        <ele>514.8</ele>
        <time>2022-12-26T11:40:46Z</time>
      </trkpt>
      <trkpt lat="46.59653" lon="5.56049">
        <ele>514.6</ele>
        <time>2022-12-26T11:40:47Z</time>
      </trkpt>
      <trkpt lat="46.59654" lon="5.56046">
        <ele>514.6</ele>
        <time>2022-12-26T11:40:48Z</time>
      </trkpt>
      <trkpt lat="46.59656" lon="5.56043">
        <ele>514.4</ele>
        <time>2022-12-26T11:40:49Z</time>
      </trkpt>
      <trkpt lat="46.59657" lon="5.5604">
        <ele>514.2</ele>
        <time>2022-12-26T11:40:50Z</time>
      </trkpt>
      <trkpt lat="46.59659" lon="5.56037">
        <ele>514</ele>
        <time>2022-12-26T11:40:51Z</time>
      </trkpt>
      <trkpt lat="46.59661" lon="5.56033">
        <ele>513.8</ele>
        <time>2022-12-26T11:40:52Z</time>
      </trkpt>
      <trkpt lat="46.59661" lon="5.56029">
        <ele>513.6</ele>
        <time>2022-12-26T11:40:53Z</time>
      </trkpt>
      <trkpt lat="46.59663" lon="5.56025">
        <ele>513.4</ele>
        <time>2022-12-26T11:40:54Z</time>
      </trkpt>
      <trkpt lat="46.59664" lon="5.56022">
        <ele>513.2</ele>
        <time>2022-12-26T11:40:55Z</time>
      </trkpt>
      <trkpt lat="46.59665" lon="5.56018">
        <ele>512.8</ele>
        <time>2022-12-26T11:40:56Z</time>
      </trkpt>
      <trkpt lat="46.59666" lon="5.56014">
        <ele>512.6</ele>
        <time>2022-12-26T11:40:57Z</time>
      </trkpt>
      <trkpt lat="46.59667" lon="5.5601">
        <ele>512.2</ele>
        <time>2022-12-26T11:40:58Z</time>
      </trkpt>
      <trkpt lat="46.59668" lon="5.56007">
        <ele>512</ele>
        <time>2022-12-26T11:40:59Z</time>
      </trkpt>
      <trkpt lat="46.59669" lon="5.56003">
        <ele>511.6</ele>
        <time>2022-12-26T11:41:00Z</time>
      </trkpt>
      <trkpt lat="46.59669" lon="5.55999">
        <ele>511.4</ele>
        <time>2022-12-26T11:41:01Z</time>
      </trkpt>
      <trkpt lat="46.59671" lon="5.55995">
        <ele>511.2</ele>
        <time>2022-12-26T11:41:02Z</time>
      </trkpt>
      <trkpt lat="46.59671" lon="5.55991">
        <ele>510.8</ele>
        <time>2022-12-26T11:41:03Z</time>
      </trkpt>
      <trkpt lat="46.59673" lon="5.55987">
        <ele>510.6</ele>
        <time>2022-12-26T11:41:04Z</time>
      </trkpt>
      <trkpt lat="46.59673" lon="5.55984">
        <ele>510.2</ele>
        <time>2022-12-26T11:41:05Z</time>
      </trkpt>
      <trkpt lat="46.59674" lon="5.5598">
        <ele>510</ele>
        <time>2022-12-26T11:41:06Z</time>
      </trkpt>
      <trkpt lat="46.59675" lon="5.55975">
        <ele>509.6</ele>
        <time>2022-12-26T11:41:07Z</time>
      </trkpt>
      <trkpt lat="46.59677" lon="5.55971">
        <ele>509.2</ele>
        <time>2022-12-26T11:41:08Z</time>
      </trkpt>
      <trkpt lat="46.59677" lon="5.55967">
        <ele>509</ele>
        <time>2022-12-26T11:41:09Z</time>
      </trkpt>
      <trkpt lat="46.59679" lon="5.55963">
        <ele>508.6</ele>
        <time>2022-12-26T11:41:10Z</time>
      </trkpt>
      <trkpt lat="46.59679" lon="5.55959">
        <ele>508.4</ele>
        <time>2022-12-26T11:41:11Z</time>
      </trkpt>
      <trkpt lat="46.5968" lon="5.55955">
        <ele>508</ele>
        <time>2022-12-26T11:41:12Z</time>
      </trkpt>
      <trkpt lat="46.59681" lon="5.55951">
        <ele>507.8</ele>
        <time>2022-12-26T11:41:13Z</time>
      </trkpt>
      <trkpt lat="46.59681" lon="5.55947">
        <ele>507.6</ele>
        <time>2022-12-26T11:41:14Z</time>
      </trkpt>
      <trkpt lat="46.59682" lon="5.55942">
        <ele>507.4</ele>
        <time>2022-12-26T11:41:15Z</time>
      </trkpt>
      <trkpt lat="46.59682" lon="5.5594">
        <ele>507.2</ele>
        <time>2022-12-26T11:41:16Z</time>
      </trkpt>
      <trkpt lat="46.59682" lon="5.55936">
        <ele>506.8</ele>
        <time>2022-12-26T11:41:17Z</time>
      </trkpt>
      <trkpt lat="46.59683" lon="5.55933">
        <ele>506.6</ele>
        <time>2022-12-26T11:41:18Z</time>
      </trkpt>
      <trkpt lat="46.59684" lon="5.5593">
        <ele>506.4</ele>
        <time>2022-12-26T11:41:19Z</time>
      </trkpt>
      <trkpt lat="46.59685" lon="5.55928">
        <ele>506.2</ele>
        <time>2022-12-26T11:41:20Z</time>
      </trkpt>
      <trkpt lat="46.59688" lon="5.55925">
        <ele>506</ele>
        <time>2022-12-26T11:41:21Z</time>
      </trkpt>
      <trkpt lat="46.5969" lon="5.55922">
        <ele>505.8</ele>
        <time>2022-12-26T11:41:22Z</time>
      </trkpt>
      <trkpt lat="46.59692" lon="5.5592">
        <ele>505.6</ele>
        <time>2022-12-26T11:41:23Z</time>
      </trkpt>
      <trkpt lat="46.59694" lon="5.55917">
        <ele>505.4</ele>
        <time>2022-12-26T11:41:24Z</time>
      </trkpt>
      <trkpt lat="46.59696" lon="5.55913">
        <ele>505.2</ele>
        <time>2022-12-26T11:41:25Z</time>
      </trkpt>
      <trkpt lat="46.59698" lon="5.5591">
        <ele>505</ele>
        <time>2022-12-26T11:41:26Z</time>
      </trkpt>
      <trkpt lat="46.59701" lon="5.55907">
        <ele>504.8</ele>
        <time>2022-12-26T11:41:27Z</time>
      </trkpt>
      <trkpt lat="46.59704" lon="5.55904">
        <ele>504.6</ele>
        <time>2022-12-26T11:41:28Z</time>
      </trkpt>
      <trkpt lat="46.59706" lon="5.55902">
        <ele>504.4</ele>
        <time>2022-12-26T11:41:29Z</time>
      </trkpt>
      <trkpt lat="46.59707" lon="5.55898">
        <ele>504.4</ele>
        <time>2022-12-26T11:41:30Z</time>
      </trkpt>
      <trkpt lat="46.59709" lon="5.55895">
        <ele>504.2</ele>
        <time>2022-12-26T11:41:31Z</time>
      </trkpt>
      <trkpt lat="46.5971" lon="5.55892">
        <ele>504</ele>
        <time>2022-12-26T11:41:32Z</time>
      </trkpt>
      <trkpt lat="46.59712" lon="5.55889">
        <ele>503.8</ele>
        <time>2022-12-26T11:41:33Z</time>
      </trkpt>
      <trkpt lat="46.59715" lon="5.55887">
        <ele>503.8</ele>
        <time>2022-12-26T11:41:34Z</time>
      </trkpt>
      <trkpt lat="46.59717" lon="5.55884">
        <ele>503.6</ele>
        <time>2022-12-26T11:41:35Z</time>
      </trkpt>
      <trkpt lat="46.59719" lon="5.55881">
        <ele>503.4</ele>
        <time>2022-12-26T11:41:36Z</time>
      </trkpt>
      <trkpt lat="46.59722" lon="5.55879">
        <ele>503.4</ele>
        <time>2022-12-26T11:41:37Z</time>
      </trkpt>
      <trkpt lat="46.59725" lon="5.55876">
        <ele>503.2</ele>
        <time>2022-12-26T11:41:38Z</time>
      </trkpt>
      <trkpt lat="46.59727" lon="5.55874">
        <ele>503.2</ele>
        <time>2022-12-26T11:41:39Z</time>
      </trkpt>
      <trkpt lat="46.59729" lon="5.55872">
        <ele>503</ele>
        <time>2022-12-26T11:41:40Z</time>
      </trkpt>
      <trkpt lat="46.59731" lon="5.5587">
        <ele>503</ele>
        <time>2022-12-26T11:41:41Z</time>
      </trkpt>
      <trkpt lat="46.59734" lon="5.55868">
        <ele>502.8</ele>
        <time>2022-12-26T11:41:42Z</time>
      </trkpt>
      <trkpt lat="46.59737" lon="5.55867">
        <ele>502.8</ele>
        <time>2022-12-26T11:41:43Z</time>
      </trkpt>
      <trkpt lat="46.59739" lon="5.55865">
        <ele>502.6</ele>
        <time>2022-12-26T11:41:44Z</time>
      </trkpt>
      <trkpt lat="46.59741" lon="5.55862">
        <ele>502.6</ele>
        <time>2022-12-26T11:41:45Z</time>
      </trkpt>
      <trkpt lat="46.59743" lon="5.5586">
        <ele>502.6</ele>
        <time>2022-12-26T11:41:46Z</time>
      </trkpt>
      <trkpt lat="46.59745" lon="5.55857">
        <ele>502.6</ele>
        <time>2022-12-26T11:41:47Z</time>
      </trkpt>
      <trkpt lat="46.59746" lon="5.55853">
        <ele>502.4</ele>
        <time>2022-12-26T11:41:48Z</time>
      </trkpt>
      <trkpt lat="46.59748" lon="5.5585">
        <ele>502.4</ele>
        <time>2022-12-26T11:41:49Z</time>
      </trkpt>
      <trkpt lat="46.59748" lon="5.5585">
        <ele>502.4</ele>
        <time>2022-12-26T11:41:50Z</time>
      </trkpt>
      <trkpt lat="46.5975" lon="5.55846">
        <ele>502.2</ele>
        <time>2022-12-26T11:41:51Z</time>
      </trkpt>
      <trkpt lat="46.5975" lon="5.55846">
        <ele>502.2</ele>
        <time>2022-12-26T11:41:52Z</time>
      </trkpt>
      <trkpt lat="46.59752" lon="5.55842">
        <ele>502.2</ele>
        <time>2022-12-26T11:41:53Z</time>
      </trkpt>
      <trkpt lat="46.59752" lon="5.55842">
        <ele>502</ele>
        <time>2022-12-26T11:41:54Z</time>
      </trkpt>
      <trkpt lat="46.59755" lon="5.55838">
        <ele>502</ele>
        <time>2022-12-26T11:41:55Z</time>
      </trkpt>
      <trkpt lat="46.59755" lon="5.55838">
        <ele>502</ele>
        <time>2022-12-26T11:41:56Z</time>
      </trkpt>
      <trkpt lat="46.59757" lon="5.55835">
        <ele>501.8</ele>
        <time>2022-12-26T11:41:57Z</time>
      </trkpt>
      <trkpt lat="46.59757" lon="5.55835">
        <ele>501.8</ele>
        <time>2022-12-26T11:41:58Z</time>
      </trkpt>
      <trkpt lat="46.59759" lon="5.55831">
        <ele>501.6</ele>
        <time>2022-12-26T11:41:59Z</time>
      </trkpt>
      <trkpt lat="46.5976" lon="5.55829">
        <ele>501.6</ele>
        <time>2022-12-26T11:42:00Z</time>
      </trkpt>
      <trkpt lat="46.59762" lon="5.55827">
        <ele>501.6</ele>
        <time>2022-12-26T11:42:01Z</time>
      </trkpt>
      <trkpt lat="46.59762" lon="5.55824">
        <ele>501.6</ele>
        <time>2022-12-26T11:42:02Z</time>
      </trkpt>
      <trkpt lat="46.59763" lon="5.55822">
        <ele>501.6</ele>
        <time>2022-12-26T11:42:03Z</time>
      </trkpt>
      <trkpt lat="46.59763" lon="5.55822">
        <ele>501.6</ele>
        <time>2022-12-26T11:42:04Z</time>
      </trkpt>
      <trkpt lat="46.59763" lon="5.55817">
        <ele>501.6</ele>
        <time>2022-12-26T11:42:05Z</time>
      </trkpt>
      <trkpt lat="46.59763" lon="5.55817">
        <ele>501.6</ele>
        <time>2022-12-26T11:42:06Z</time>
      </trkpt>
      <trkpt lat="46.59764" lon="5.55813">
        <ele>501.4</ele>
        <time>2022-12-26T11:42:07Z</time>
      </trkpt>
      <trkpt lat="46.59764" lon="5.55813">
        <ele>501.4</ele>
        <time>2022-12-26T11:42:08Z</time>
      </trkpt>
      <trkpt lat="46.59766" lon="5.5581">
        <ele>501.4</ele>
        <time>2022-12-26T11:42:09Z</time>
      </trkpt>
      <trkpt lat="46.59766" lon="5.5581">
        <ele>501.4</ele>
        <time>2022-12-26T11:42:10Z</time>
      </trkpt>
      <trkpt lat="46.59767" lon="5.55806">
        <ele>501.4</ele>
        <time>2022-12-26T11:42:11Z</time>
      </trkpt>
      <trkpt lat="46.59767" lon="5.55806">
        <ele>501.4</ele>
        <time>2022-12-26T11:42:12Z</time>
      </trkpt>
      <trkpt lat="46.59767" lon="5.55802">
        <ele>501.2</ele>
        <time>2022-12-26T11:42:13Z</time>
      </trkpt>
      <trkpt lat="46.59766" lon="5.558">
        <ele>501.2</ele>
        <time>2022-12-26T11:42:14Z</time>
      </trkpt>
      <trkpt lat="46.59765" lon="5.55798">
        <ele>501.2</ele>
        <time>2022-12-26T11:42:15Z</time>
      </trkpt>
      <trkpt lat="46.59764" lon="5.55795">
        <ele>501</ele>
        <time>2022-12-26T11:42:16Z</time>
      </trkpt>
      <trkpt lat="46.59764" lon="5.55795">
        <ele>501</ele>
        <time>2022-12-26T11:42:17Z</time>
      </trkpt>
      <trkpt lat="46.59762" lon="5.55792">
        <ele>501</ele>
        <time>2022-12-26T11:42:18Z</time>
      </trkpt>
      <trkpt lat="46.59762" lon="5.55792">
        <ele>501</ele>
        <time>2022-12-26T11:42:19Z</time>
      </trkpt>
      <trkpt lat="46.59762" lon="5.55789">
        <ele>501</ele>
        <time>2022-12-26T11:42:20Z</time>
      </trkpt>
      <trkpt lat="46.59762" lon="5.55789">
        <ele>501</ele>
        <time>2022-12-26T11:42:21Z</time>
      </trkpt>
      <trkpt lat="46.59761" lon="5.55785">
        <ele>501</ele>
        <time>2022-12-26T11:42:22Z</time>
      </trkpt>
      <trkpt lat="46.59761" lon="5.55785">
        <ele>501.2</ele>
        <time>2022-12-26T11:42:23Z</time>
      </trkpt>
      <trkpt lat="46.5976" lon="5.55781">
        <ele>501.2</ele>
        <time>2022-12-26T11:42:24Z</time>
      </trkpt>
      <trkpt lat="46.5976" lon="5.55781">
        <ele>501.4</ele>
        <time>2022-12-26T11:42:25Z</time>
      </trkpt>
      <trkpt lat="46.5976" lon="5.55778">
        <ele>501.4</ele>
        <time>2022-12-26T11:42:26Z</time>
      </trkpt>
      <trkpt lat="46.5976" lon="5.55778">
        <ele>501.4</ele>
        <time>2022-12-26T11:42:27Z</time>
      </trkpt>
      <trkpt lat="46.59758" lon="5.55776">
        <ele>501.4</ele>
        <time>2022-12-26T11:42:28Z</time>
      </trkpt>
      <trkpt lat="46.59758" lon="5.55776">
        <ele>501.4</ele>
        <time>2022-12-26T11:42:29Z</time>
      </trkpt>
      <trkpt lat="46.59757" lon="5.55773">
        <ele>501.4</ele>
        <time>2022-12-26T11:42:30Z</time>
      </trkpt>
      <trkpt lat="46.59757" lon="5.55773">
        <ele>501.4</ele>
        <time>2022-12-26T11:42:31Z</time>
      </trkpt>
      <trkpt lat="46.59755" lon="5.55771">
        <ele>501.4</ele>
        <time>2022-12-26T11:42:32Z</time>
      </trkpt>
      <trkpt lat="46.59755" lon="5.55771">
        <ele>501.4</ele>
        <time>2022-12-26T11:42:33Z</time>
      </trkpt>
      <trkpt lat="46.59755" lon="5.55771">
        <ele>501.2</ele>
        <time>2022-12-26T11:42:34Z</time>
      </trkpt>
      <trkpt lat="46.59755" lon="5.55771">
        <ele>501.2</ele>
        <time>2022-12-26T11:42:35Z</time>
      </trkpt>
      <trkpt lat="46.59755" lon="5.55771">
        <ele>501.2</ele>
        <time>2022-12-26T11:42:36Z</time>
      </trkpt>
      <trkpt lat="46.59755" lon="5.55771">
        <ele>501</ele>
        <time>2022-12-26T11:42:37Z</time>
      </trkpt>
      <trkpt lat="46.59756" lon="5.55769">
        <ele>501</ele>
        <time>2022-12-26T11:42:38Z</time>
      </trkpt>
      <trkpt lat="46.59756" lon="5.55769">
        <ele>501</ele>
        <time>2022-12-26T11:42:39Z</time>
      </trkpt>
      <trkpt lat="46.59754" lon="5.55766">
        <ele>501</ele>
        <time>2022-12-26T11:42:40Z</time>
      </trkpt>
      <trkpt lat="46.59754" lon="5.55766">
        <ele>500.8</ele>
        <time>2022-12-26T11:42:41Z</time>
      </trkpt>
      <trkpt lat="46.59754" lon="5.55763">
        <ele>500.8</ele>
        <time>2022-12-26T11:42:42Z</time>
      </trkpt>
      <trkpt lat="46.59754" lon="5.55763">
        <ele>500.8</ele>
        <time>2022-12-26T11:42:43Z</time>
      </trkpt>
      <trkpt lat="46.59754" lon="5.5576">
        <ele>500.6</ele>
        <time>2022-12-26T11:42:44Z</time>
      </trkpt>
      <trkpt lat="46.59754" lon="5.5576">
        <ele>500.4</ele>
        <time>2022-12-26T11:42:45Z</time>
      </trkpt>
      <trkpt lat="46.59754" lon="5.55756">
        <ele>500.4</ele>
        <time>2022-12-26T11:42:46Z</time>
      </trkpt>
      <trkpt lat="46.59754" lon="5.55756">
        <ele>500.2</ele>
        <time>2022-12-26T11:42:47Z</time>
      </trkpt>
      <trkpt lat="46.59753" lon="5.55752">
        <ele>500.2</ele>
        <time>2022-12-26T11:42:48Z</time>
      </trkpt>
      <trkpt lat="46.59753" lon="5.55752">
        <ele>500</ele>
        <time>2022-12-26T11:42:49Z</time>
      </trkpt>
      <trkpt lat="46.59753" lon="5.55749">
        <ele>499.8</ele>
        <time>2022-12-26T11:42:50Z</time>
      </trkpt>
      <trkpt lat="46.59753" lon="5.55749">
        <ele>499.6</ele>
        <time>2022-12-26T11:42:51Z</time>
      </trkpt>
      <trkpt lat="46.59753" lon="5.55749">
        <ele>499.6</ele>
        <time>2022-12-26T11:42:52Z</time>
      </trkpt>
      <trkpt lat="46.59753" lon="5.55749">
        <ele>499.4</ele>
        <time>2022-12-26T11:42:53Z</time>
      </trkpt>
      <trkpt lat="46.59753" lon="5.55749">
        <ele>499.4</ele>
        <time>2022-12-26T11:42:54Z</time>
      </trkpt>
      <trkpt lat="46.59753" lon="5.55749">
        <ele>499.2</ele>
        <time>2022-12-26T11:42:55Z</time>
      </trkpt>
      <trkpt lat="46.59753" lon="5.55749">
        <ele>499.2</ele>
        <time>2022-12-26T11:42:56Z</time>
      </trkpt>
      <trkpt lat="46.59753" lon="5.55749">
        <ele>499</ele>
        <time>2022-12-26T11:42:57Z</time>
      </trkpt>
      <trkpt lat="46.59753" lon="5.55749">
        <ele>499</ele>
        <time>2022-12-26T11:42:58Z</time>
      </trkpt>
      <trkpt lat="46.59753" lon="5.55749">
        <ele>498.8</ele>
        <time>2022-12-26T11:42:59Z</time>
      </trkpt>
      <trkpt lat="46.59753" lon="5.55749">
        <ele>498.8</ele>
        <time>2022-12-26T11:43:00Z</time>
      </trkpt>
      <trkpt lat="46.59753" lon="5.55749">
        <ele>498.8</ele>
        <time>2022-12-26T11:43:01Z</time>
      </trkpt>
      <trkpt lat="46.59753" lon="5.55749">
        <ele>498.8</ele>
        <time>2022-12-26T11:43:02Z</time>
      </trkpt>
      <trkpt lat="46.59751" lon="5.55748">
        <ele>498.8</ele>
        <time>2022-12-26T11:43:03Z</time>
      </trkpt>
      <trkpt lat="46.59751" lon="5.55748">
        <ele>498.6</ele>
        <time>2022-12-26T11:43:04Z</time>
      </trkpt>
      <trkpt lat="46.59751" lon="5.55748">
        <ele>498.6</ele>
        <time>2022-12-26T11:43:05Z</time>
      </trkpt>
      <trkpt lat="46.59753" lon="5.55746">
        <ele>498.4</ele>
        <time>2022-12-26T11:43:06Z</time>
      </trkpt>
      <trkpt lat="46.59753" lon="5.55746">
        <ele>498.2</ele>
        <time>2022-12-26T11:43:07Z</time>
      </trkpt>
      <trkpt lat="46.59754" lon="5.55744">
        <ele>498.2</ele>
        <time>2022-12-26T11:43:08Z</time>
      </trkpt>
      <trkpt lat="46.59754" lon="5.55744">
        <ele>498</ele>
        <time>2022-12-26T11:43:09Z</time>
      </trkpt>
      <trkpt lat="46.59754" lon="5.55744">
        <ele>498</ele>
        <time>2022-12-26T11:43:10Z</time>
      </trkpt>
      <trkpt lat="46.59754" lon="5.55741">
        <ele>498</ele>
        <time>2022-12-26T11:43:11Z</time>
      </trkpt>
      <trkpt lat="46.59754" lon="5.55741">
        <ele>497.8</ele>
        <time>2022-12-26T11:43:12Z</time>
      </trkpt>
      <trkpt lat="46.59755" lon="5.55737">
        <ele>497.8</ele>
        <time>2022-12-26T11:43:13Z</time>
      </trkpt>
      <trkpt lat="46.59755" lon="5.55734">
        <ele>497.6</ele>
        <time>2022-12-26T11:43:14Z</time>
      </trkpt>
      <trkpt lat="46.59755" lon="5.55731">
        <ele>497.6</ele>
        <time>2022-12-26T11:43:15Z</time>
      </trkpt>
      <trkpt lat="46.59755" lon="5.55728">
        <ele>497.4</ele>
        <time>2022-12-26T11:43:16Z</time>
      </trkpt>
      <trkpt lat="46.59755" lon="5.55724">
        <ele>497.2</ele>
        <time>2022-12-26T11:43:17Z</time>
      </trkpt>
      <trkpt lat="46.59754" lon="5.5572">
        <ele>497</ele>
        <time>2022-12-26T11:43:18Z</time>
      </trkpt>
      <trkpt lat="46.59754" lon="5.55717">
        <ele>496.8</ele>
        <time>2022-12-26T11:43:19Z</time>
      </trkpt>
      <trkpt lat="46.59754" lon="5.55713">
        <ele>496.6</ele>
        <time>2022-12-26T11:43:20Z</time>
      </trkpt>
      <trkpt lat="46.59753" lon="5.5571">
        <ele>496.4</ele>
        <time>2022-12-26T11:43:21Z</time>
      </trkpt>
      <trkpt lat="46.59752" lon="5.55706">
        <ele>496.2</ele>
        <time>2022-12-26T11:43:22Z</time>
      </trkpt>
      <trkpt lat="46.59752" lon="5.55702">
        <ele>496</ele>
        <time>2022-12-26T11:43:23Z</time>
      </trkpt>
      <trkpt lat="46.59752" lon="5.55698">
        <ele>495.6</ele>
        <time>2022-12-26T11:43:24Z</time>
      </trkpt>
      <trkpt lat="46.59751" lon="5.55694">
        <ele>495.4</ele>
        <time>2022-12-26T11:43:25Z</time>
      </trkpt>
      <trkpt lat="46.59751" lon="5.5569">
        <ele>495.2</ele>
        <time>2022-12-26T11:43:26Z</time>
      </trkpt>
      <trkpt lat="46.59751" lon="5.55686">
        <ele>495</ele>
        <time>2022-12-26T11:43:27Z</time>
      </trkpt>
      <trkpt lat="46.59751" lon="5.55682">
        <ele>494.6</ele>
        <time>2022-12-26T11:43:28Z</time>
      </trkpt>
      <trkpt lat="46.59751" lon="5.55678">
        <ele>494.4</ele>
        <time>2022-12-26T11:43:29Z</time>
      </trkpt>
      <trkpt lat="46.59751" lon="5.55674">
        <ele>494.2</ele>
        <time>2022-12-26T11:43:30Z</time>
      </trkpt>
      <trkpt lat="46.59751" lon="5.5567">
        <ele>494</ele>
        <time>2022-12-26T11:43:31Z</time>
      </trkpt>
      <trkpt lat="46.59751" lon="5.55666">
        <ele>493.8</ele>
        <time>2022-12-26T11:43:32Z</time>
      </trkpt>
      <trkpt lat="46.59751" lon="5.55662">
        <ele>493.6</ele>
        <time>2022-12-26T11:43:33Z</time>
      </trkpt>
      <trkpt lat="46.59751" lon="5.55658">
        <ele>493.4</ele>
        <time>2022-12-26T11:43:34Z</time>
      </trkpt>
      <trkpt lat="46.59752" lon="5.55655">
        <ele>493.2</ele>
        <time>2022-12-26T11:43:35Z</time>
      </trkpt>
      <trkpt lat="46.59752" lon="5.55652">
        <ele>493</ele>
        <time>2022-12-26T11:43:36Z</time>
      </trkpt>
      <trkpt lat="46.59752" lon="5.55649">
        <ele>492.8</ele>
        <time>2022-12-26T11:43:37Z</time>
      </trkpt>
      <trkpt lat="46.59752" lon="5.55646">
        <ele>492.6</ele>
        <time>2022-12-26T11:43:38Z</time>
      </trkpt>
      <trkpt lat="46.59752" lon="5.55642">
        <ele>492.4</ele>
        <time>2022-12-26T11:43:39Z</time>
      </trkpt>
      <trkpt lat="46.59752" lon="5.55638">
        <ele>492.2</ele>
        <time>2022-12-26T11:43:40Z</time>
      </trkpt>
      <trkpt lat="46.59752" lon="5.55634">
        <ele>492</ele>
        <time>2022-12-26T11:43:41Z</time>
      </trkpt>
      <trkpt lat="46.59753" lon="5.5563">
        <ele>491.8</ele>
        <time>2022-12-26T11:43:42Z</time>
      </trkpt>
      <trkpt lat="46.59753" lon="5.55626">
        <ele>491.6</ele>
        <time>2022-12-26T11:43:43Z</time>
      </trkpt>
      <trkpt lat="46.59753" lon="5.55622">
        <ele>491.4</ele>
        <time>2022-12-26T11:43:44Z</time>
      </trkpt>
      <trkpt lat="46.59754" lon="5.55618">
        <ele>491.2</ele>
        <time>2022-12-26T11:43:45Z</time>
      </trkpt>
      <trkpt lat="46.59754" lon="5.55614">
        <ele>491</ele>
        <time>2022-12-26T11:43:46Z</time>
      </trkpt>
      <trkpt lat="46.59754" lon="5.5561">
        <ele>490.6</ele>
        <time>2022-12-26T11:43:47Z</time>
      </trkpt>
      <trkpt lat="46.59754" lon="5.55607">
        <ele>490.4</ele>
        <time>2022-12-26T11:43:48Z</time>
      </trkpt>
      <trkpt lat="46.59754" lon="5.55603">
        <ele>490</ele>
        <time>2022-12-26T11:43:49Z</time>
      </trkpt>
      <trkpt lat="46.59754" lon="5.556">
        <ele>489.8</ele>
        <time>2022-12-26T11:43:50Z</time>
      </trkpt>
      <trkpt lat="46.59753" lon="5.55597">
        <ele>489.4</ele>
        <time>2022-12-26T11:43:51Z</time>
      </trkpt>
      <trkpt lat="46.59751" lon="5.55594">
        <ele>489.2</ele>
        <time>2022-12-26T11:43:52Z</time>
      </trkpt>
      <trkpt lat="46.59749" lon="5.55592">
        <ele>489</ele>
        <time>2022-12-26T11:43:53Z</time>
      </trkpt>
      <trkpt lat="46.59746" lon="5.55591">
        <ele>488.8</ele>
        <time>2022-12-26T11:43:54Z</time>
      </trkpt>
      <trkpt lat="46.59744" lon="5.55588">
        <ele>488.6</ele>
        <time>2022-12-26T11:43:55Z</time>
      </trkpt>
      <trkpt lat="46.59741" lon="5.55586">
        <ele>488.4</ele>
        <time>2022-12-26T11:43:56Z</time>
      </trkpt>
      <trkpt lat="46.59739" lon="5.55584">
        <ele>488.2</ele>
        <time>2022-12-26T11:43:57Z</time>
      </trkpt>
      <trkpt lat="46.59737" lon="5.55583">
        <ele>488</ele>
        <time>2022-12-26T11:43:58Z</time>
      </trkpt>
      <trkpt lat="46.59734" lon="5.55581">
        <ele>487.8</ele>
        <time>2022-12-26T11:43:59Z</time>
      </trkpt>
      <trkpt lat="46.59733" lon="5.55579">
        <ele>487.8</ele>
        <time>2022-12-26T11:44:00Z</time>
      </trkpt>
      <trkpt lat="46.5973" lon="5.55576">
        <ele>487.4</ele>
        <time>2022-12-26T11:44:01Z</time>
      </trkpt>
      <trkpt lat="46.59728" lon="5.55574">
        <ele>487.2</ele>
        <time>2022-12-26T11:44:02Z</time>
      </trkpt>
      <trkpt lat="46.59727" lon="5.55572">
        <ele>487.2</ele>
        <time>2022-12-26T11:44:03Z</time>
      </trkpt>
      <trkpt lat="46.59727" lon="5.55572">
        <ele>487.2</ele>
        <time>2022-12-26T11:44:04Z</time>
      </trkpt>
      <trkpt lat="46.59726" lon="5.55568">
        <ele>487.2</ele>
        <time>2022-12-26T11:44:05Z</time>
      </trkpt>
      <trkpt lat="46.59726" lon="5.55568">
        <ele>487.2</ele>
        <time>2022-12-26T11:44:06Z</time>
      </trkpt>
      <trkpt lat="46.59726" lon="5.55563">
        <ele>487</ele>
        <time>2022-12-26T11:44:07Z</time>
      </trkpt>
      <trkpt lat="46.59726" lon="5.5556">
        <ele>487</ele>
        <time>2022-12-26T11:44:08Z</time>
      </trkpt>
      <trkpt lat="46.59726" lon="5.55556">
        <ele>486.8</ele>
        <time>2022-12-26T11:44:09Z</time>
      </trkpt>
      <trkpt lat="46.59726" lon="5.55552">
        <ele>486.8</ele>
        <time>2022-12-26T11:44:10Z</time>
      </trkpt>
      <trkpt lat="46.59726" lon="5.55549">
        <ele>486.6</ele>
        <time>2022-12-26T11:44:11Z</time>
      </trkpt>
      <trkpt lat="46.59726" lon="5.55545">
        <ele>486.6</ele>
        <time>2022-12-26T11:44:12Z</time>
      </trkpt>
      <trkpt lat="46.59726" lon="5.55541">
        <ele>486.6</ele>
        <time>2022-12-26T11:44:13Z</time>
      </trkpt>
      <trkpt lat="46.59725" lon="5.55538">
        <ele>486.4</ele>
        <time>2022-12-26T11:44:14Z</time>
      </trkpt>
      <trkpt lat="46.59725" lon="5.55534">
        <ele>486.2</ele>
        <time>2022-12-26T11:44:15Z</time>
      </trkpt>
      <trkpt lat="46.59725" lon="5.5553">
        <ele>486.2</ele>
        <time>2022-12-26T11:44:16Z</time>
      </trkpt>
      <trkpt lat="46.59725" lon="5.55526">
        <ele>486</ele>
        <time>2022-12-26T11:44:17Z</time>
      </trkpt>
      <trkpt lat="46.59725" lon="5.55522">
        <ele>485.8</ele>
        <time>2022-12-26T11:44:18Z</time>
      </trkpt>
      <trkpt lat="46.59725" lon="5.55519">
        <ele>485.6</ele>
        <time>2022-12-26T11:44:19Z</time>
      </trkpt>
      <trkpt lat="46.59725" lon="5.55516">
        <ele>485.6</ele>
        <time>2022-12-26T11:44:20Z</time>
      </trkpt>
      <trkpt lat="46.59725" lon="5.55516">
        <ele>485.4</ele>
        <time>2022-12-26T11:44:21Z</time>
      </trkpt>
      <trkpt lat="46.59725" lon="5.55513">
        <ele>485.2</ele>
        <time>2022-12-26T11:44:22Z</time>
      </trkpt>
      <trkpt lat="46.59725" lon="5.55513">
        <ele>485.2</ele>
        <time>2022-12-26T11:44:23Z</time>
      </trkpt>
      <trkpt lat="46.59725" lon="5.55513">
        <ele>485.2</ele>
        <time>2022-12-26T11:44:24Z</time>
      </trkpt>
      <trkpt lat="46.59725" lon="5.55513">
        <ele>485.2</ele>
        <time>2022-12-26T11:44:25Z</time>
      </trkpt>
      <trkpt lat="46.59726" lon="5.55511">
        <ele>485.2</ele>
        <time>2022-12-26T11:44:26Z</time>
      </trkpt>
      <trkpt lat="46.59726" lon="5.55511">
        <ele>485.2</ele>
        <time>2022-12-26T11:44:27Z</time>
      </trkpt>
      <trkpt lat="46.59726" lon="5.55511">
        <ele>485.2</ele>
        <time>2022-12-26T11:44:28Z</time>
      </trkpt>
      <trkpt lat="46.59728" lon="5.55511">
        <ele>485</ele>
        <time>2022-12-26T11:44:29Z</time>
      </trkpt>
      <trkpt lat="46.59728" lon="5.55511">
        <ele>485</ele>
        <time>2022-12-26T11:44:30Z</time>
      </trkpt>
      <trkpt lat="46.59728" lon="5.55511">
        <ele>484.8</ele>
        <time>2022-12-26T11:44:31Z</time>
      </trkpt>
      <trkpt lat="46.59728" lon="5.55511">
        <ele>484.8</ele>
        <time>2022-12-26T11:44:32Z</time>
      </trkpt>
      <trkpt lat="46.59728" lon="5.55511">
        <ele>484.6</ele>
        <time>2022-12-26T11:44:33Z</time>
      </trkpt>
      <trkpt lat="46.59728" lon="5.55511">
        <ele>484.6</ele>
        <time>2022-12-26T11:44:34Z</time>
      </trkpt>
      <trkpt lat="46.59728" lon="5.55511">
        <ele>484.6</ele>
        <time>2022-12-26T11:44:35Z</time>
      </trkpt>
      <trkpt lat="46.59728" lon="5.55511">
        <ele>484.6</ele>
        <time>2022-12-26T11:44:36Z</time>
      </trkpt>
      <trkpt lat="46.5973" lon="5.55512">
        <ele>484.4</ele>
        <time>2022-12-26T11:44:37Z</time>
      </trkpt>
      <trkpt lat="46.5973" lon="5.55512">
        <ele>484.4</ele>
        <time>2022-12-26T11:44:38Z</time>
      </trkpt>
      <trkpt lat="46.59732" lon="5.55513">
        <ele>484.4</ele>
        <time>2022-12-26T11:44:39Z</time>
      </trkpt>
      <trkpt lat="46.59732" lon="5.55513">
        <ele>484.4</ele>
        <time>2022-12-26T11:44:40Z</time>
      </trkpt>
      <trkpt lat="46.59733" lon="5.55514">
        <ele>484.4</ele>
        <time>2022-12-26T11:44:41Z</time>
      </trkpt>
      <trkpt lat="46.59733" lon="5.55514">
        <ele>484.4</ele>
        <time>2022-12-26T11:44:42Z</time>
      </trkpt>
      <trkpt lat="46.59733" lon="5.55514">
        <ele>484.4</ele>
        <time>2022-12-26T11:44:43Z</time>
      </trkpt>
      <trkpt lat="46.59736" lon="5.55514">
        <ele>484.4</ele>
        <time>2022-12-26T11:44:44Z</time>
      </trkpt>
      <trkpt lat="46.59736" lon="5.55514">
        <ele>484.4</ele>
        <time>2022-12-26T11:44:45Z</time>
      </trkpt>
      <trkpt lat="46.59738" lon="5.55514">
        <ele>484.6</ele>
        <time>2022-12-26T11:44:46Z</time>
      </trkpt>
      <trkpt lat="46.59738" lon="5.55514">
        <ele>484.6</ele>
        <time>2022-12-26T11:44:47Z</time>
      </trkpt>
      <trkpt lat="46.59741" lon="5.55513">
        <ele>484.6</ele>
        <time>2022-12-26T11:44:48Z</time>
      </trkpt>
      <trkpt lat="46.59741" lon="5.55513">
        <ele>484.6</ele>
        <time>2022-12-26T11:44:49Z</time>
      </trkpt>
      <trkpt lat="46.59743" lon="5.55513">
        <ele>484.8</ele>
        <time>2022-12-26T11:44:50Z</time>
      </trkpt>
      <trkpt lat="46.59743" lon="5.55513">
        <ele>484.8</ele>
        <time>2022-12-26T11:44:51Z</time>
      </trkpt>
      <trkpt lat="46.59746" lon="5.55512">
        <ele>485</ele>
        <time>2022-12-26T11:44:52Z</time>
      </trkpt>
      <trkpt lat="46.59746" lon="5.55512">
        <ele>485</ele>
        <time>2022-12-26T11:44:53Z</time>
      </trkpt>
      <trkpt lat="46.59749" lon="5.55511">
        <ele>485.2</ele>
        <time>2022-12-26T11:44:54Z</time>
      </trkpt>
      <trkpt lat="46.59749" lon="5.55511">
        <ele>485.2</ele>
        <time>2022-12-26T11:44:55Z</time>
      </trkpt>
      <trkpt lat="46.59751" lon="5.55511">
        <ele>485.4</ele>
        <time>2022-12-26T11:44:56Z</time>
      </trkpt>
      <trkpt lat="46.59751" lon="5.55511">
        <ele>485.6</ele>
        <time>2022-12-26T11:44:57Z</time>
      </trkpt>
      <trkpt lat="46.59753" lon="5.55509">
        <ele>485.6</ele>
        <time>2022-12-26T11:44:58Z</time>
      </trkpt>
      <trkpt lat="46.59753" lon="5.55509">
        <ele>485.8</ele>
        <time>2022-12-26T11:44:59Z</time>
      </trkpt>
      <trkpt lat="46.59757" lon="5.55507">
        <ele>486</ele>
        <time>2022-12-26T11:45:00Z</time>
      </trkpt>
      <trkpt lat="46.59758" lon="5.55507">
        <ele>486</ele>
        <time>2022-12-26T11:45:01Z</time>
      </trkpt>
      <trkpt lat="46.59758" lon="5.55507">
        <ele>486.2</ele>
        <time>2022-12-26T11:45:02Z</time>
      </trkpt>
      <trkpt lat="46.5976" lon="5.55505">
        <ele>486.4</ele>
        <time>2022-12-26T11:45:03Z</time>
      </trkpt>
      <trkpt lat="46.5976" lon="5.55505">
        <ele>486.4</ele>
        <time>2022-12-26T11:45:04Z</time>
      </trkpt>
      <trkpt lat="46.59763" lon="5.55505">
        <ele>486.6</ele>
        <time>2022-12-26T11:45:05Z</time>
      </trkpt>
      <trkpt lat="46.59763" lon="5.55505">
        <ele>486.8</ele>
        <time>2022-12-26T11:45:06Z</time>
      </trkpt>
      <trkpt lat="46.59766" lon="5.55506">
        <ele>487</ele>
        <time>2022-12-26T11:45:07Z</time>
      </trkpt>
      <trkpt lat="46.59766" lon="5.55506">
        <ele>487.2</ele>
        <time>2022-12-26T11:45:08Z</time>
      </trkpt>
      <trkpt lat="46.59769" lon="5.55507">
        <ele>487.4</ele>
        <time>2022-12-26T11:45:09Z</time>
      </trkpt>
      <trkpt lat="46.59769" lon="5.55507">
        <ele>487.6</ele>
        <time>2022-12-26T11:45:10Z</time>
      </trkpt>
      <trkpt lat="46.59771" lon="5.55507">
        <ele>487.8</ele>
        <time>2022-12-26T11:45:11Z</time>
      </trkpt>
      <trkpt lat="46.59771" lon="5.55507">
        <ele>488</ele>
        <time>2022-12-26T11:45:12Z</time>
      </trkpt>
      <trkpt lat="46.59774" lon="5.55506">
        <ele>488.2</ele>
        <time>2022-12-26T11:45:13Z</time>
      </trkpt>
      <trkpt lat="46.59774" lon="5.55506">
        <ele>488.4</ele>
        <time>2022-12-26T11:45:14Z</time>
      </trkpt>
      <trkpt lat="46.59777" lon="5.55506">
        <ele>488.6</ele>
        <time>2022-12-26T11:45:15Z</time>
      </trkpt>
      <trkpt lat="46.59777" lon="5.55506">
        <ele>488.8</ele>
        <time>2022-12-26T11:45:16Z</time>
      </trkpt>
      <trkpt lat="46.59779" lon="5.55506">
        <ele>489</ele>
        <time>2022-12-26T11:45:17Z</time>
      </trkpt>
      <trkpt lat="46.59779" lon="5.55506">
        <ele>489.4</ele>
        <time>2022-12-26T11:45:18Z</time>
      </trkpt>
      <trkpt lat="46.59781" lon="5.55505">
        <ele>489.6</ele>
        <time>2022-12-26T11:45:19Z</time>
      </trkpt>
      <trkpt lat="46.59781" lon="5.55505">
        <ele>489.8</ele>
        <time>2022-12-26T11:45:20Z</time>
      </trkpt>
      <trkpt lat="46.59783" lon="5.55505">
        <ele>490</ele>
        <time>2022-12-26T11:45:21Z</time>
      </trkpt>
      <trkpt lat="46.59783" lon="5.55505">
        <ele>490.2</ele>
        <time>2022-12-26T11:45:22Z</time>
      </trkpt>
      <trkpt lat="46.59786" lon="5.55505">
        <ele>490.4</ele>
        <time>2022-12-26T11:45:23Z</time>
      </trkpt>
      <trkpt lat="46.59786" lon="5.55505">
        <ele>490.6</ele>
        <time>2022-12-26T11:45:24Z</time>
      </trkpt>
      <trkpt lat="46.59788" lon="5.55506">
        <ele>490.8</ele>
        <time>2022-12-26T11:45:25Z</time>
      </trkpt>
      <trkpt lat="46.59788" lon="5.55506">
        <ele>491</ele>
        <time>2022-12-26T11:45:26Z</time>
      </trkpt>
      <trkpt lat="46.59791" lon="5.55506">
        <ele>491.2</ele>
        <time>2022-12-26T11:45:27Z</time>
      </trkpt>
      <trkpt lat="46.59791" lon="5.55506">
        <ele>491.4</ele>
        <time>2022-12-26T11:45:28Z</time>
      </trkpt>
      <trkpt lat="46.59794" lon="5.55507">
        <ele>491.6</ele>
        <time>2022-12-26T11:45:29Z</time>
      </trkpt>
      <trkpt lat="46.59794" lon="5.55507">
        <ele>491.8</ele>
        <time>2022-12-26T11:45:30Z</time>
      </trkpt>
      <trkpt lat="46.59797" lon="5.55506">
        <ele>491.8</ele>
        <time>2022-12-26T11:45:31Z</time>
      </trkpt>
      <trkpt lat="46.59797" lon="5.55506">
        <ele>492</ele>
        <time>2022-12-26T11:45:32Z</time>
      </trkpt>
      <trkpt lat="46.59799" lon="5.55505">
        <ele>492.2</ele>
        <time>2022-12-26T11:45:33Z</time>
      </trkpt>
      <trkpt lat="46.59799" lon="5.55505">
        <ele>492.2</ele>
        <time>2022-12-26T11:45:34Z</time>
      </trkpt>
      <trkpt lat="46.59802" lon="5.55504">
        <ele>492.4</ele>
        <time>2022-12-26T11:45:35Z</time>
      </trkpt>
      <trkpt lat="46.59802" lon="5.55504">
        <ele>492.6</ele>
        <time>2022-12-26T11:45:36Z</time>
      </trkpt>
      <trkpt lat="46.59804" lon="5.55503">
        <ele>492.8</ele>
        <time>2022-12-26T11:45:37Z</time>
      </trkpt>
      <trkpt lat="46.59804" lon="5.55503">
        <ele>493</ele>
        <time>2022-12-26T11:45:38Z</time>
      </trkpt>
      <trkpt lat="46.59806" lon="5.55502">
        <ele>493.2</ele>
        <time>2022-12-26T11:45:39Z</time>
      </trkpt>
      <trkpt lat="46.59806" lon="5.55502">
        <ele>493.4</ele>
        <time>2022-12-26T11:45:40Z</time>
      </trkpt>
      <trkpt lat="46.59809" lon="5.55501">
        <ele>493.6</ele>
        <time>2022-12-26T11:45:41Z</time>
      </trkpt>
      <trkpt lat="46.59809" lon="5.55501">
        <ele>493.8</ele>
        <time>2022-12-26T11:45:42Z</time>
      </trkpt>
      <trkpt lat="46.59812" lon="5.55502">
        <ele>493.8</ele>
        <time>2022-12-26T11:45:43Z</time>
      </trkpt>
      <trkpt lat="46.59812" lon="5.55502">
        <ele>494</ele>
        <time>2022-12-26T11:45:44Z</time>
      </trkpt>
      <trkpt lat="46.59814" lon="5.55502">
        <ele>494.2</ele>
        <time>2022-12-26T11:45:45Z</time>
      </trkpt>
      <trkpt lat="46.59814" lon="5.55502">
        <ele>494.2</ele>
        <time>2022-12-26T11:45:46Z</time>
      </trkpt>
      <trkpt lat="46.59816" lon="5.55502">
        <ele>494.4</ele>
        <time>2022-12-26T11:45:47Z</time>
      </trkpt>
      <trkpt lat="46.59816" lon="5.55502">
        <ele>494.4</ele>
        <time>2022-12-26T11:45:48Z</time>
      </trkpt>
      <trkpt lat="46.59819" lon="5.55501">
        <ele>494.6</ele>
        <time>2022-12-26T11:45:49Z</time>
      </trkpt>
      <trkpt lat="46.59819" lon="5.55501">
        <ele>494.8</ele>
        <time>2022-12-26T11:45:50Z</time>
      </trkpt>
      <trkpt lat="46.59821" lon="5.55501">
        <ele>494.8</ele>
        <time>2022-12-26T11:45:51Z</time>
      </trkpt>
      <trkpt lat="46.59821" lon="5.55501">
        <ele>494.8</ele>
        <time>2022-12-26T11:45:52Z</time>
      </trkpt>
      <trkpt lat="46.59824" lon="5.55501">
        <ele>495</ele>
        <time>2022-12-26T11:45:53Z</time>
      </trkpt>
      <trkpt lat="46.59824" lon="5.55501">
        <ele>495</ele>
        <time>2022-12-26T11:45:54Z</time>
      </trkpt>
      <trkpt lat="46.59827" lon="5.55502">
        <ele>495.2</ele>
        <time>2022-12-26T11:45:55Z</time>
      </trkpt>
      <trkpt lat="46.59827" lon="5.55502">
        <ele>495.2</ele>
        <time>2022-12-26T11:45:56Z</time>
      </trkpt>
      <trkpt lat="46.59829" lon="5.55502">
        <ele>495.4</ele>
        <time>2022-12-26T11:45:57Z</time>
      </trkpt>
      <trkpt lat="46.59829" lon="5.55502">
        <ele>495.6</ele>
        <time>2022-12-26T11:45:58Z</time>
      </trkpt>
      <trkpt lat="46.59832" lon="5.55502">
        <ele>495.6</ele>
        <time>2022-12-26T11:45:59Z</time>
      </trkpt>
      <trkpt lat="46.59832" lon="5.55502">
        <ele>495.8</ele>
        <time>2022-12-26T11:46:00Z</time>
      </trkpt>
      <trkpt lat="46.59835" lon="5.55501">
        <ele>495.8</ele>
        <time>2022-12-26T11:46:01Z</time>
      </trkpt>
      <trkpt lat="46.59835" lon="5.55501">
        <ele>496</ele>
        <time>2022-12-26T11:46:02Z</time>
      </trkpt>
      <trkpt lat="46.59838" lon="5.55502">
        <ele>496</ele>
        <time>2022-12-26T11:46:03Z</time>
      </trkpt>
      <trkpt lat="46.59838" lon="5.55502">
        <ele>496.2</ele>
        <time>2022-12-26T11:46:04Z</time>
      </trkpt>
      <trkpt lat="46.5984" lon="5.55502">
        <ele>496.4</ele>
        <time>2022-12-26T11:46:05Z</time>
      </trkpt>
      <trkpt lat="46.5984" lon="5.55502">
        <ele>496.4</ele>
        <time>2022-12-26T11:46:06Z</time>
      </trkpt>
      <trkpt lat="46.59844" lon="5.55501">
        <ele>496.6</ele>
        <time>2022-12-26T11:46:07Z</time>
      </trkpt>
      <trkpt lat="46.59845" lon="5.55501">
        <ele>496.8</ele>
        <time>2022-12-26T11:46:08Z</time>
      </trkpt>
      <trkpt lat="46.59847" lon="5.55501">
        <ele>497</ele>
        <time>2022-12-26T11:46:09Z</time>
      </trkpt>
      <trkpt lat="46.59847" lon="5.55501">
        <ele>497.2</ele>
        <time>2022-12-26T11:46:10Z</time>
      </trkpt>
      <trkpt lat="46.5985" lon="5.55502">
        <ele>497.2</ele>
        <time>2022-12-26T11:46:11Z</time>
      </trkpt>
      <trkpt lat="46.5985" lon="5.55502">
        <ele>497.4</ele>
        <time>2022-12-26T11:46:12Z</time>
      </trkpt>
      <trkpt lat="46.59853" lon="5.55502">
        <ele>497.6</ele>
        <time>2022-12-26T11:46:13Z</time>
      </trkpt>
      <trkpt lat="46.59853" lon="5.55502">
        <ele>497.8</ele>
        <time>2022-12-26T11:46:14Z</time>
      </trkpt>
      <trkpt lat="46.59856" lon="5.55502">
        <ele>497.8</ele>
        <time>2022-12-26T11:46:15Z</time>
      </trkpt>
      <trkpt lat="46.59856" lon="5.55502">
        <ele>498</ele>
        <time>2022-12-26T11:46:16Z</time>
      </trkpt>
      <trkpt lat="46.59859" lon="5.55503">
        <ele>498</ele>
        <time>2022-12-26T11:46:17Z</time>
      </trkpt>
      <trkpt lat="46.59859" lon="5.55503">
        <ele>498</ele>
        <time>2022-12-26T11:46:18Z</time>
      </trkpt>
      <trkpt lat="46.59862" lon="5.55503">
        <ele>498.2</ele>
        <time>2022-12-26T11:46:19Z</time>
      </trkpt>
      <trkpt lat="46.59862" lon="5.55503">
        <ele>498.2</ele>
        <time>2022-12-26T11:46:20Z</time>
      </trkpt>
      <trkpt lat="46.59865" lon="5.55504">
        <ele>498.2</ele>
        <time>2022-12-26T11:46:21Z</time>
      </trkpt>
      <trkpt lat="46.59865" lon="5.55504">
        <ele>498.4</ele>
        <time>2022-12-26T11:46:22Z</time>
      </trkpt>
      <trkpt lat="46.59868" lon="5.55505">
        <ele>498.6</ele>
        <time>2022-12-26T11:46:23Z</time>
      </trkpt>
      <trkpt lat="46.59868" lon="5.55505">
        <ele>498.6</ele>
        <time>2022-12-26T11:46:24Z</time>
      </trkpt>
      <trkpt lat="46.5987" lon="5.55505">
        <ele>498.8</ele>
        <time>2022-12-26T11:46:25Z</time>
      </trkpt>
      <trkpt lat="46.5987" lon="5.55505">
        <ele>499.2</ele>
        <time>2022-12-26T11:46:26Z</time>
      </trkpt>
      <trkpt lat="46.59873" lon="5.55505">
        <ele>499.4</ele>
        <time>2022-12-26T11:46:27Z</time>
      </trkpt>
      <trkpt lat="46.59873" lon="5.55505">
        <ele>499.6</ele>
        <time>2022-12-26T11:46:28Z</time>
      </trkpt>
      <trkpt lat="46.59876" lon="5.55505">
        <ele>499.8</ele>
        <time>2022-12-26T11:46:29Z</time>
      </trkpt>
      <trkpt lat="46.59876" lon="5.55505">
        <ele>500</ele>
        <time>2022-12-26T11:46:30Z</time>
      </trkpt>
      <trkpt lat="46.59878" lon="5.55506">
        <ele>500.2</ele>
        <time>2022-12-26T11:46:31Z</time>
      </trkpt>
      <trkpt lat="46.59878" lon="5.55506">
        <ele>500.2</ele>
        <time>2022-12-26T11:46:32Z</time>
      </trkpt>
      <trkpt lat="46.59881" lon="5.55507">
        <ele>500.6</ele>
        <time>2022-12-26T11:46:33Z</time>
      </trkpt>
      <trkpt lat="46.59883" lon="5.55507">
        <ele>500.8</ele>
        <time>2022-12-26T11:46:34Z</time>
      </trkpt>
      <trkpt lat="46.59883" lon="5.55507">
        <ele>500.8</ele>
        <time>2022-12-26T11:46:35Z</time>
      </trkpt>
      <trkpt lat="46.59886" lon="5.55508">
        <ele>501</ele>
        <time>2022-12-26T11:46:36Z</time>
      </trkpt>
      <trkpt lat="46.59886" lon="5.55508">
        <ele>501.2</ele>
        <time>2022-12-26T11:46:37Z</time>
      </trkpt>
      <trkpt lat="46.59889" lon="5.55509">
        <ele>501.2</ele>
        <time>2022-12-26T11:46:38Z</time>
      </trkpt>
      <trkpt lat="46.59889" lon="5.55509">
        <ele>501.4</ele>
        <time>2022-12-26T11:46:39Z</time>
      </trkpt>
      <trkpt lat="46.59892" lon="5.55511">
        <ele>501.4</ele>
        <time>2022-12-26T11:46:40Z</time>
      </trkpt>
      <trkpt lat="46.59893" lon="5.5551">
        <ele>501.6</ele>
        <time>2022-12-26T11:46:41Z</time>
      </trkpt>
      <trkpt lat="46.59893" lon="5.5551">
        <ele>501.6</ele>
        <time>2022-12-26T11:46:42Z</time>
      </trkpt>
      <trkpt lat="46.59895" lon="5.55511">
        <ele>501.8</ele>
        <time>2022-12-26T11:46:43Z</time>
      </trkpt>
      <trkpt lat="46.59895" lon="5.55511">
        <ele>501.8</ele>
        <time>2022-12-26T11:46:44Z</time>
      </trkpt>
      <trkpt lat="46.59898" lon="5.55512">
        <ele>501.8</ele>
        <time>2022-12-26T11:46:45Z</time>
      </trkpt>
      <trkpt lat="46.59898" lon="5.55512">
        <ele>502</ele>
        <time>2022-12-26T11:46:46Z</time>
      </trkpt>
      <trkpt lat="46.59901" lon="5.55513">
        <ele>502</ele>
        <time>2022-12-26T11:46:47Z</time>
      </trkpt>
      <trkpt lat="46.59901" lon="5.55513">
        <ele>502</ele>
        <time>2022-12-26T11:46:48Z</time>
      </trkpt>
      <trkpt lat="46.59903" lon="5.55513">
        <ele>502.2</ele>
        <time>2022-12-26T11:46:49Z</time>
      </trkpt>
      <trkpt lat="46.59903" lon="5.55513">
        <ele>502.2</ele>
        <time>2022-12-26T11:46:50Z</time>
      </trkpt>
      <trkpt lat="46.59906" lon="5.55513">
        <ele>502.2</ele>
        <time>2022-12-26T11:46:51Z</time>
      </trkpt>
      <trkpt lat="46.59906" lon="5.55513">
        <ele>502.2</ele>
        <time>2022-12-26T11:46:52Z</time>
      </trkpt>
      <trkpt lat="46.59909" lon="5.55513">
        <ele>502.2</ele>
        <time>2022-12-26T11:46:53Z</time>
      </trkpt>
      <trkpt lat="46.59909" lon="5.55513">
        <ele>502.2</ele>
        <time>2022-12-26T11:46:54Z</time>
      </trkpt>
      <trkpt lat="46.59912" lon="5.55514">
        <ele>502.2</ele>
        <time>2022-12-26T11:46:55Z</time>
      </trkpt>
      <trkpt lat="46.59914" lon="5.55514">
        <ele>502.2</ele>
        <time>2022-12-26T11:46:56Z</time>
      </trkpt>
      <trkpt lat="46.59914" lon="5.55514">
        <ele>502.2</ele>
        <time>2022-12-26T11:46:57Z</time>
      </trkpt>
      <trkpt lat="46.59917" lon="5.55514">
        <ele>502.4</ele>
        <time>2022-12-26T11:46:58Z</time>
      </trkpt>
      <trkpt lat="46.59917" lon="5.55514">
        <ele>502.4</ele>
        <time>2022-12-26T11:46:59Z</time>
      </trkpt>
      <trkpt lat="46.59919" lon="5.55515">
        <ele>502.4</ele>
        <time>2022-12-26T11:47:00Z</time>
      </trkpt>
      <trkpt lat="46.59919" lon="5.55515">
        <ele>502.6</ele>
        <time>2022-12-26T11:47:01Z</time>
      </trkpt>
      <trkpt lat="46.59922" lon="5.55516">
        <ele>502.6</ele>
        <time>2022-12-26T11:47:02Z</time>
      </trkpt>
      <trkpt lat="46.59922" lon="5.55516">
        <ele>502.8</ele>
        <time>2022-12-26T11:47:03Z</time>
      </trkpt>
      <trkpt lat="46.59925" lon="5.55517">
        <ele>503</ele>
        <time>2022-12-26T11:47:04Z</time>
      </trkpt>
      <trkpt lat="46.59925" lon="5.55517">
        <ele>503</ele>
        <time>2022-12-26T11:47:05Z</time>
      </trkpt>
      <trkpt lat="46.59927" lon="5.55516">
        <ele>503.2</ele>
        <time>2022-12-26T11:47:06Z</time>
      </trkpt>
      <trkpt lat="46.59927" lon="5.55516">
        <ele>503.2</ele>
        <time>2022-12-26T11:47:07Z</time>
      </trkpt>
      <trkpt lat="46.59929" lon="5.55515">
        <ele>503.4</ele>
        <time>2022-12-26T11:47:08Z</time>
      </trkpt>
      <trkpt lat="46.59929" lon="5.55515">
        <ele>503.6</ele>
        <time>2022-12-26T11:47:09Z</time>
      </trkpt>
      <trkpt lat="46.59932" lon="5.55514">
        <ele>503.8</ele>
        <time>2022-12-26T11:47:10Z</time>
      </trkpt>
      <trkpt lat="46.59932" lon="5.55514">
        <ele>503.8</ele>
        <time>2022-12-26T11:47:11Z</time>
      </trkpt>
      <trkpt lat="46.59935" lon="5.55513">
        <ele>504</ele>
        <time>2022-12-26T11:47:12Z</time>
      </trkpt>
      <trkpt lat="46.59935" lon="5.55513">
        <ele>504.2</ele>
        <time>2022-12-26T11:47:13Z</time>
      </trkpt>
      <trkpt lat="46.59938" lon="5.55513">
        <ele>504.2</ele>
        <time>2022-12-26T11:47:14Z</time>
      </trkpt>
      <trkpt lat="46.59938" lon="5.55513">
        <ele>504.4</ele>
        <time>2022-12-26T11:47:15Z</time>
      </trkpt>
      <trkpt lat="46.5994" lon="5.55513">
        <ele>504.4</ele>
        <time>2022-12-26T11:47:16Z</time>
      </trkpt>
      <trkpt lat="46.5994" lon="5.55513">
        <ele>504.4</ele>
        <time>2022-12-26T11:47:17Z</time>
      </trkpt>
      <trkpt lat="46.59942" lon="5.55512">
        <ele>504.6</ele>
        <time>2022-12-26T11:47:18Z</time>
      </trkpt>
      <trkpt lat="46.59942" lon="5.55512">
        <ele>504.8</ele>
        <time>2022-12-26T11:47:19Z</time>
      </trkpt>
      <trkpt lat="46.59945" lon="5.55513">
        <ele>504.8</ele>
        <time>2022-12-26T11:47:20Z</time>
      </trkpt>
      <trkpt lat="46.59947" lon="5.55512">
        <ele>505</ele>
        <time>2022-12-26T11:47:21Z</time>
      </trkpt>
      <trkpt lat="46.59947" lon="5.55512">
        <ele>505</ele>
        <time>2022-12-26T11:47:22Z</time>
      </trkpt>
      <trkpt lat="46.59949" lon="5.55513">
        <ele>505.2</ele>
        <time>2022-12-26T11:47:23Z</time>
      </trkpt>
      <trkpt lat="46.59949" lon="5.55513">
        <ele>505.2</ele>
        <time>2022-12-26T11:47:24Z</time>
      </trkpt>
      <trkpt lat="46.59952" lon="5.55513">
        <ele>505.4</ele>
        <time>2022-12-26T11:47:25Z</time>
      </trkpt>
      <trkpt lat="46.59952" lon="5.55513">
        <ele>505.4</ele>
        <time>2022-12-26T11:47:26Z</time>
      </trkpt>
      <trkpt lat="46.59954" lon="5.55513">
        <ele>505.6</ele>
        <time>2022-12-26T11:47:27Z</time>
      </trkpt>
      <trkpt lat="46.59954" lon="5.55513">
        <ele>505.8</ele>
        <time>2022-12-26T11:47:28Z</time>
      </trkpt>
      <trkpt lat="46.59957" lon="5.55512">
        <ele>506</ele>
        <time>2022-12-26T11:47:29Z</time>
      </trkpt>
      <trkpt lat="46.59957" lon="5.55512">
        <ele>506.2</ele>
        <time>2022-12-26T11:47:30Z</time>
      </trkpt>
      <trkpt lat="46.59959" lon="5.5551">
        <ele>506.4</ele>
        <time>2022-12-26T11:47:31Z</time>
      </trkpt>
      <trkpt lat="46.59959" lon="5.5551">
        <ele>506.6</ele>
        <time>2022-12-26T11:47:32Z</time>
      </trkpt>
      <trkpt lat="46.59962" lon="5.55509">
        <ele>506.8</ele>
        <time>2022-12-26T11:47:33Z</time>
      </trkpt>
      <trkpt lat="46.59962" lon="5.55509">
        <ele>506.8</ele>
        <time>2022-12-26T11:47:34Z</time>
      </trkpt>
      <trkpt lat="46.59965" lon="5.55509">
        <ele>507</ele>
        <time>2022-12-26T11:47:35Z</time>
      </trkpt>
      <trkpt lat="46.59965" lon="5.55509">
        <ele>507</ele>
        <time>2022-12-26T11:47:36Z</time>
      </trkpt>
      <trkpt lat="46.59967" lon="5.55509">
        <ele>507.2</ele>
        <time>2022-12-26T11:47:37Z</time>
      </trkpt>
      <trkpt lat="46.59967" lon="5.55509">
        <ele>507.2</ele>
        <time>2022-12-26T11:47:38Z</time>
      </trkpt>
      <trkpt lat="46.59969" lon="5.55508">
        <ele>507.4</ele>
        <time>2022-12-26T11:47:39Z</time>
      </trkpt>
      <trkpt lat="46.59969" lon="5.55508">
        <ele>507.6</ele>
        <time>2022-12-26T11:47:40Z</time>
      </trkpt>
      <trkpt lat="46.59972" lon="5.55507">
        <ele>507.8</ele>
        <time>2022-12-26T11:47:41Z</time>
      </trkpt>
      <trkpt lat="46.59972" lon="5.55507">
        <ele>508</ele>
        <time>2022-12-26T11:47:42Z</time>
      </trkpt>
      <trkpt lat="46.59975" lon="5.55506">
        <ele>508.2</ele>
        <time>2022-12-26T11:47:43Z</time>
      </trkpt>
      <trkpt lat="46.59975" lon="5.55506">
        <ele>508.4</ele>
        <time>2022-12-26T11:47:44Z</time>
      </trkpt>
      <trkpt lat="46.59978" lon="5.55506">
        <ele>508.6</ele>
        <time>2022-12-26T11:47:45Z</time>
      </trkpt>
      <trkpt lat="46.59978" lon="5.55506">
        <ele>508.8</ele>
        <time>2022-12-26T11:47:46Z</time>
      </trkpt>
      <trkpt lat="46.59981" lon="5.55505">
        <ele>508.8</ele>
        <time>2022-12-26T11:47:47Z</time>
      </trkpt>
      <trkpt lat="46.59981" lon="5.55505">
        <ele>509</ele>
        <time>2022-12-26T11:47:48Z</time>
      </trkpt>
      <trkpt lat="46.59983" lon="5.55504">
        <ele>509.2</ele>
        <time>2022-12-26T11:47:49Z</time>
      </trkpt>
      <trkpt lat="46.59983" lon="5.55504">
        <ele>509.4</ele>
        <time>2022-12-26T11:47:50Z</time>
      </trkpt>
      <trkpt lat="46.59985" lon="5.55503">
        <ele>509.6</ele>
        <time>2022-12-26T11:47:51Z</time>
      </trkpt>
      <trkpt lat="46.59985" lon="5.55503">
        <ele>509.8</ele>
        <time>2022-12-26T11:47:52Z</time>
      </trkpt>
      <trkpt lat="46.59988" lon="5.55502">
        <ele>510</ele>
        <time>2022-12-26T11:47:53Z</time>
      </trkpt>
      <trkpt lat="46.59988" lon="5.55502">
        <ele>510.2</ele>
        <time>2022-12-26T11:47:54Z</time>
      </trkpt>
      <trkpt lat="46.59991" lon="5.55502">
        <ele>510.4</ele>
        <time>2022-12-26T11:47:55Z</time>
      </trkpt>
      <trkpt lat="46.59991" lon="5.55502">
        <ele>510.6</ele>
        <time>2022-12-26T11:47:56Z</time>
      </trkpt>
      <trkpt lat="46.59993" lon="5.55501">
        <ele>510.8</ele>
        <time>2022-12-26T11:47:57Z</time>
      </trkpt>
      <trkpt lat="46.59993" lon="5.55501">
        <ele>511</ele>
        <time>2022-12-26T11:47:58Z</time>
      </trkpt>
      <trkpt lat="46.59996" lon="5.555">
        <ele>511.4</ele>
        <time>2022-12-26T11:47:59Z</time>
      </trkpt>
      <trkpt lat="46.59996" lon="5.555">
        <ele>511.6</ele>
        <time>2022-12-26T11:48:00Z</time>
      </trkpt>
      <trkpt lat="46.59999" lon="5.555">
        <ele>511.8</ele>
        <time>2022-12-26T11:48:01Z</time>
      </trkpt>
      <trkpt lat="46.59999" lon="5.555">
        <ele>512</ele>
        <time>2022-12-26T11:48:02Z</time>
      </trkpt>
      <trkpt lat="46.60001" lon="5.555">
        <ele>512.2</ele>
        <time>2022-12-26T11:48:03Z</time>
      </trkpt>
      <trkpt lat="46.60001" lon="5.555">
        <ele>512.4</ele>
        <time>2022-12-26T11:48:04Z</time>
      </trkpt>
      <trkpt lat="46.60004" lon="5.55499">
        <ele>512.6</ele>
        <time>2022-12-26T11:48:05Z</time>
      </trkpt>
      <trkpt lat="46.60004" lon="5.55499">
        <ele>512.8</ele>
        <time>2022-12-26T11:48:06Z</time>
      </trkpt>
      <trkpt lat="46.60006" lon="5.55499">
        <ele>513</ele>
        <time>2022-12-26T11:48:07Z</time>
      </trkpt>
      <trkpt lat="46.60006" lon="5.55499">
        <ele>513.2</ele>
        <time>2022-12-26T11:48:08Z</time>
      </trkpt>
      <trkpt lat="46.60009" lon="5.55499">
        <ele>513.4</ele>
        <time>2022-12-26T11:48:09Z</time>
      </trkpt>
      <trkpt lat="46.60009" lon="5.55499">
        <ele>513.6</ele>
        <time>2022-12-26T11:48:10Z</time>
      </trkpt>
      <trkpt lat="46.60012" lon="5.55498">
        <ele>513.8</ele>
        <time>2022-12-26T11:48:11Z</time>
      </trkpt>
      <trkpt lat="46.60012" lon="5.55498">
        <ele>514</ele>
        <time>2022-12-26T11:48:12Z</time>
      </trkpt>
      <trkpt lat="46.60015" lon="5.55497">
        <ele>514.2</ele>
        <time>2022-12-26T11:48:13Z</time>
      </trkpt>
      <trkpt lat="46.60015" lon="5.55497">
        <ele>514.4</ele>
        <time>2022-12-26T11:48:14Z</time>
      </trkpt>
      <trkpt lat="46.60018" lon="5.55496">
        <ele>514.4</ele>
        <time>2022-12-26T11:48:15Z</time>
      </trkpt>
      <trkpt lat="46.60018" lon="5.55496">
        <ele>514.6</ele>
        <time>2022-12-26T11:48:16Z</time>
      </trkpt>
      <trkpt lat="46.60021" lon="5.55495">
        <ele>514.6</ele>
        <time>2022-12-26T11:48:17Z</time>
      </trkpt>
      <trkpt lat="46.60021" lon="5.55495">
        <ele>514.8</ele>
        <time>2022-12-26T11:48:18Z</time>
      </trkpt>
      <trkpt lat="46.60025" lon="5.55495">
        <ele>515</ele>
        <time>2022-12-26T11:48:19Z</time>
      </trkpt>
      <trkpt lat="46.60027" lon="5.55495">
        <ele>515</ele>
        <time>2022-12-26T11:48:20Z</time>
      </trkpt>
      <trkpt lat="46.60027" lon="5.55495">
        <ele>515.2</ele>
        <time>2022-12-26T11:48:21Z</time>
      </trkpt>
      <trkpt lat="46.6003" lon="5.55494">
        <ele>515.4</ele>
        <time>2022-12-26T11:48:22Z</time>
      </trkpt>
      <trkpt lat="46.6003" lon="5.55494">
        <ele>515.6</ele>
        <time>2022-12-26T11:48:23Z</time>
      </trkpt>
      <trkpt lat="46.60034" lon="5.55493">
        <ele>515.8</ele>
        <time>2022-12-26T11:48:24Z</time>
      </trkpt>
      <trkpt lat="46.60036" lon="5.55492">
        <ele>516</ele>
        <time>2022-12-26T11:48:25Z</time>
      </trkpt>
      <trkpt lat="46.60038" lon="5.55493">
        <ele>516.2</ele>
        <time>2022-12-26T11:48:26Z</time>
      </trkpt>
      <trkpt lat="46.60041" lon="5.55493">
        <ele>516.4</ele>
        <time>2022-12-26T11:48:27Z</time>
      </trkpt>
      <trkpt lat="46.60043" lon="5.55493">
        <ele>516.6</ele>
        <time>2022-12-26T11:48:28Z</time>
      </trkpt>
      <trkpt lat="46.60045" lon="5.55493">
        <ele>516.8</ele>
        <time>2022-12-26T11:48:29Z</time>
      </trkpt>
      <trkpt lat="46.60047" lon="5.55493">
        <ele>516.8</ele>
        <time>2022-12-26T11:48:30Z</time>
      </trkpt>
      <trkpt lat="46.60047" lon="5.55493">
        <ele>517</ele>
        <time>2022-12-26T11:48:31Z</time>
      </trkpt>
      <trkpt lat="46.60049" lon="5.55493">
        <ele>517.2</ele>
        <time>2022-12-26T11:48:32Z</time>
      </trkpt>
      <trkpt lat="46.60049" lon="5.55493">
        <ele>517.2</ele>
        <time>2022-12-26T11:48:33Z</time>
      </trkpt>
      <trkpt lat="46.60052" lon="5.55493">
        <ele>517.4</ele>
        <time>2022-12-26T11:48:34Z</time>
      </trkpt>
      <trkpt lat="46.60052" lon="5.55493">
        <ele>517.6</ele>
        <time>2022-12-26T11:48:35Z</time>
      </trkpt>
      <trkpt lat="46.60055" lon="5.55493">
        <ele>517.8</ele>
        <time>2022-12-26T11:48:36Z</time>
      </trkpt>
      <trkpt lat="46.60055" lon="5.55493">
        <ele>517.8</ele>
        <time>2022-12-26T11:48:37Z</time>
      </trkpt>
      <trkpt lat="46.60058" lon="5.55493">
        <ele>518.2</ele>
        <time>2022-12-26T11:48:38Z</time>
      </trkpt>
      <trkpt lat="46.60058" lon="5.55493">
        <ele>518.4</ele>
        <time>2022-12-26T11:48:39Z</time>
      </trkpt>
      <trkpt lat="46.6006" lon="5.55493">
        <ele>518.6</ele>
        <time>2022-12-26T11:48:40Z</time>
      </trkpt>
      <trkpt lat="46.6006" lon="5.55493">
        <ele>519</ele>
        <time>2022-12-26T11:48:41Z</time>
      </trkpt>
      <trkpt lat="46.60064" lon="5.55492">
        <ele>519.2</ele>
        <time>2022-12-26T11:48:42Z</time>
      </trkpt>
      <trkpt lat="46.60066" lon="5.55493">
        <ele>519.6</ele>
        <time>2022-12-26T11:48:43Z</time>
      </trkpt>
      <trkpt lat="46.60068" lon="5.55493">
        <ele>519.8</ele>
        <time>2022-12-26T11:48:44Z</time>
      </trkpt>
      <trkpt lat="46.6007" lon="5.55493">
        <ele>520</ele>
        <time>2022-12-26T11:48:45Z</time>
      </trkpt>
      <trkpt lat="46.60072" lon="5.55493">
        <ele>520.2</ele>
        <time>2022-12-26T11:48:46Z</time>
      </trkpt>
      <trkpt lat="46.60075" lon="5.55493">
        <ele>520.4</ele>
        <time>2022-12-26T11:48:47Z</time>
      </trkpt>
      <trkpt lat="46.60077" lon="5.55492">
        <ele>520.6</ele>
        <time>2022-12-26T11:48:48Z</time>
      </trkpt>
      <trkpt lat="46.6008" lon="5.55492">
        <ele>520.6</ele>
        <time>2022-12-26T11:48:49Z</time>
      </trkpt>
      <trkpt lat="46.60082" lon="5.55492">
        <ele>520.8</ele>
        <time>2022-12-26T11:48:50Z</time>
      </trkpt>
      <trkpt lat="46.60085" lon="5.55491">
        <ele>521</ele>
        <time>2022-12-26T11:48:51Z</time>
      </trkpt>
      <trkpt lat="46.60087" lon="5.55491">
        <ele>521.4</ele>
        <time>2022-12-26T11:48:52Z</time>
      </trkpt>
      <trkpt lat="46.6009" lon="5.55492">
        <ele>521.4</ele>
        <time>2022-12-26T11:48:53Z</time>
      </trkpt>
      <trkpt lat="46.60092" lon="5.55492">
        <ele>521.6</ele>
        <time>2022-12-26T11:48:54Z</time>
      </trkpt>
      <trkpt lat="46.60095" lon="5.55493">
        <ele>521.8</ele>
        <time>2022-12-26T11:48:55Z</time>
      </trkpt>
      <trkpt lat="46.60098" lon="5.55493">
        <ele>522</ele>
        <time>2022-12-26T11:48:56Z</time>
      </trkpt>
      <trkpt lat="46.601" lon="5.55494">
        <ele>522.2</ele>
        <time>2022-12-26T11:48:57Z</time>
      </trkpt>
      <trkpt lat="46.60102" lon="5.55494">
        <ele>522.2</ele>
        <time>2022-12-26T11:48:58Z</time>
      </trkpt>
      <trkpt lat="46.60105" lon="5.55494">
        <ele>522.4</ele>
        <time>2022-12-26T11:48:59Z</time>
      </trkpt>
      <trkpt lat="46.60108" lon="5.55493">
        <ele>522.6</ele>
        <time>2022-12-26T11:49:00Z</time>
      </trkpt>
      <trkpt lat="46.6011" lon="5.55493">
        <ele>522.8</ele>
        <time>2022-12-26T11:49:01Z</time>
      </trkpt>
      <trkpt lat="46.60112" lon="5.55492">
        <ele>522.8</ele>
        <time>2022-12-26T11:49:02Z</time>
      </trkpt>
      <trkpt lat="46.60114" lon="5.55492">
        <ele>523</ele>
        <time>2022-12-26T11:49:03Z</time>
      </trkpt>
      <trkpt lat="46.60114" lon="5.55492">
        <ele>523.2</ele>
        <time>2022-12-26T11:49:04Z</time>
      </trkpt>
      <trkpt lat="46.60117" lon="5.55493">
        <ele>523.4</ele>
        <time>2022-12-26T11:49:05Z</time>
      </trkpt>
      <trkpt lat="46.60117" lon="5.55493">
        <ele>523.6</ele>
        <time>2022-12-26T11:49:06Z</time>
      </trkpt>
      <trkpt lat="46.6012" lon="5.55493">
        <ele>523.8</ele>
        <time>2022-12-26T11:49:07Z</time>
      </trkpt>
      <trkpt lat="46.6012" lon="5.55493">
        <ele>524</ele>
        <time>2022-12-26T11:49:08Z</time>
      </trkpt>
      <trkpt lat="46.60123" lon="5.55493">
        <ele>524.2</ele>
        <time>2022-12-26T11:49:09Z</time>
      </trkpt>
      <trkpt lat="46.60123" lon="5.55493">
        <ele>524.2</ele>
        <time>2022-12-26T11:49:10Z</time>
      </trkpt>
      <trkpt lat="46.60126" lon="5.55493">
        <ele>524.4</ele>
        <time>2022-12-26T11:49:11Z</time>
      </trkpt>
      <trkpt lat="46.60128" lon="5.55494">
        <ele>524.4</ele>
        <time>2022-12-26T11:49:12Z</time>
      </trkpt>
      <trkpt lat="46.60128" lon="5.55494">
        <ele>524.6</ele>
        <time>2022-12-26T11:49:13Z</time>
      </trkpt>
      <trkpt lat="46.6013" lon="5.55496">
        <ele>524.6</ele>
        <time>2022-12-26T11:49:14Z</time>
      </trkpt>
      <trkpt lat="46.6013" lon="5.55496">
        <ele>524.8</ele>
        <time>2022-12-26T11:49:15Z</time>
      </trkpt>
      <trkpt lat="46.60133" lon="5.55496">
        <ele>524.8</ele>
        <time>2022-12-26T11:49:16Z</time>
      </trkpt>
      <trkpt lat="46.60133" lon="5.55496">
        <ele>525</ele>
        <time>2022-12-26T11:49:17Z</time>
      </trkpt>
      <trkpt lat="46.60135" lon="5.55495">
        <ele>525.2</ele>
        <time>2022-12-26T11:49:18Z</time>
      </trkpt>
      <trkpt lat="46.60135" lon="5.55495">
        <ele>525.4</ele>
        <time>2022-12-26T11:49:19Z</time>
      </trkpt>
      <trkpt lat="46.60138" lon="5.55493">
        <ele>525.6</ele>
        <time>2022-12-26T11:49:20Z</time>
      </trkpt>
      <trkpt lat="46.60138" lon="5.55493">
        <ele>525.8</ele>
        <time>2022-12-26T11:49:21Z</time>
      </trkpt>
      <trkpt lat="46.6014" lon="5.55491">
        <ele>526</ele>
        <time>2022-12-26T11:49:22Z</time>
      </trkpt>
      <trkpt lat="46.6014" lon="5.55491">
        <ele>526.2</ele>
        <time>2022-12-26T11:49:23Z</time>
      </trkpt>
      <trkpt lat="46.60142" lon="5.5549">
        <ele>526.6</ele>
        <time>2022-12-26T11:49:24Z</time>
      </trkpt>
      <trkpt lat="46.60142" lon="5.5549">
        <ele>526.8</ele>
        <time>2022-12-26T11:49:25Z</time>
      </trkpt>
      <trkpt lat="46.60144" lon="5.55491">
        <ele>527</ele>
        <time>2022-12-26T11:49:26Z</time>
      </trkpt>
      <trkpt lat="46.60144" lon="5.55491">
        <ele>527</ele>
        <time>2022-12-26T11:49:27Z</time>
      </trkpt>
      <trkpt lat="46.60146" lon="5.55491">
        <ele>527.2</ele>
        <time>2022-12-26T11:49:28Z</time>
      </trkpt>
      <trkpt lat="46.60148" lon="5.55491">
        <ele>527.4</ele>
        <time>2022-12-26T11:49:29Z</time>
      </trkpt>
      <trkpt lat="46.60148" lon="5.55491">
        <ele>527.6</ele>
        <time>2022-12-26T11:49:30Z</time>
      </trkpt>
      <trkpt lat="46.6015" lon="5.55491">
        <ele>527.8</ele>
        <time>2022-12-26T11:49:31Z</time>
      </trkpt>
      <trkpt lat="46.6015" lon="5.55491">
        <ele>528</ele>
        <time>2022-12-26T11:49:32Z</time>
      </trkpt>
      <trkpt lat="46.60154" lon="5.5549">
        <ele>528.2</ele>
        <time>2022-12-26T11:49:33Z</time>
      </trkpt>
      <trkpt lat="46.60154" lon="5.5549">
        <ele>528.4</ele>
        <time>2022-12-26T11:49:34Z</time>
      </trkpt>
      <trkpt lat="46.60156" lon="5.55488">
        <ele>528.6</ele>
        <time>2022-12-26T11:49:35Z</time>
      </trkpt>
      <trkpt lat="46.60156" lon="5.55488">
        <ele>528.8</ele>
        <time>2022-12-26T11:49:36Z</time>
      </trkpt>
      <trkpt lat="46.60159" lon="5.55489">
        <ele>529</ele>
        <time>2022-12-26T11:49:37Z</time>
      </trkpt>
      <trkpt lat="46.60159" lon="5.55489">
        <ele>529.2</ele>
        <time>2022-12-26T11:49:38Z</time>
      </trkpt>
      <trkpt lat="46.60162" lon="5.5549">
        <ele>529.4</ele>
        <time>2022-12-26T11:49:39Z</time>
      </trkpt>
      <trkpt lat="46.60162" lon="5.5549">
        <ele>529.4</ele>
        <time>2022-12-26T11:49:40Z</time>
      </trkpt>
      <trkpt lat="46.60165" lon="5.55489">
        <ele>529.6</ele>
        <time>2022-12-26T11:49:41Z</time>
      </trkpt>
      <trkpt lat="46.60165" lon="5.55489">
        <ele>529.8</ele>
        <time>2022-12-26T11:49:42Z</time>
      </trkpt>
      <trkpt lat="46.60167" lon="5.55489">
        <ele>530</ele>
        <time>2022-12-26T11:49:43Z</time>
      </trkpt>
      <trkpt lat="46.60167" lon="5.55489">
        <ele>530</ele>
        <time>2022-12-26T11:49:44Z</time>
      </trkpt>
      <trkpt lat="46.6017" lon="5.55488">
        <ele>530.2</ele>
        <time>2022-12-26T11:49:45Z</time>
      </trkpt>
      <trkpt lat="46.60171" lon="5.55486">
        <ele>530.4</ele>
        <time>2022-12-26T11:49:46Z</time>
      </trkpt>
      <trkpt lat="46.60173" lon="5.55485">
        <ele>530.4</ele>
        <time>2022-12-26T11:49:47Z</time>
      </trkpt>
      <trkpt lat="46.60176" lon="5.55483">
        <ele>530.6</ele>
        <time>2022-12-26T11:49:48Z</time>
      </trkpt>
      <trkpt lat="46.60178" lon="5.55481">
        <ele>530.6</ele>
        <time>2022-12-26T11:49:49Z</time>
      </trkpt>
      <trkpt lat="46.60181" lon="5.5548">
        <ele>530.6</ele>
        <time>2022-12-26T11:49:50Z</time>
      </trkpt>
      <trkpt lat="46.60183" lon="5.55478">
        <ele>530.6</ele>
        <time>2022-12-26T11:49:51Z</time>
      </trkpt>
      <trkpt lat="46.60186" lon="5.55477">
        <ele>530.8</ele>
        <time>2022-12-26T11:49:52Z</time>
      </trkpt>
      <trkpt lat="46.60188" lon="5.55475">
        <ele>531</ele>
        <time>2022-12-26T11:49:53Z</time>
      </trkpt>
      <trkpt lat="46.60191" lon="5.55473">
        <ele>531</ele>
        <time>2022-12-26T11:49:54Z</time>
      </trkpt>
      <trkpt lat="46.60193" lon="5.55472">
        <ele>531.2</ele>
        <time>2022-12-26T11:49:55Z</time>
      </trkpt>
      <trkpt lat="46.60195" lon="5.5547">
        <ele>531.2</ele>
        <time>2022-12-26T11:49:56Z</time>
      </trkpt>
      <trkpt lat="46.60198" lon="5.55468">
        <ele>531.2</ele>
        <time>2022-12-26T11:49:57Z</time>
      </trkpt>
      <trkpt lat="46.60201" lon="5.55467">
        <ele>531.4</ele>
        <time>2022-12-26T11:49:58Z</time>
      </trkpt>
      <trkpt lat="46.60203" lon="5.55465">
        <ele>531.4</ele>
        <time>2022-12-26T11:49:59Z</time>
      </trkpt>
      <trkpt lat="46.60205" lon="5.55463">
        <ele>531.4</ele>
        <time>2022-12-26T11:50:00Z</time>
      </trkpt>
      <trkpt lat="46.60207" lon="5.55461">
        <ele>531.4</ele>
        <time>2022-12-26T11:50:01Z</time>
      </trkpt>
      <trkpt lat="46.6021" lon="5.55459">
        <ele>531.4</ele>
        <time>2022-12-26T11:50:02Z</time>
      </trkpt>
      <trkpt lat="46.60212" lon="5.55457">
        <ele>531.4</ele>
        <time>2022-12-26T11:50:03Z</time>
      </trkpt>
      <trkpt lat="46.60214" lon="5.55454">
        <ele>531.6</ele>
        <time>2022-12-26T11:50:04Z</time>
      </trkpt>
      <trkpt lat="46.60216" lon="5.55452">
        <ele>531.6</ele>
        <time>2022-12-26T11:50:05Z</time>
      </trkpt>
      <trkpt lat="46.60219" lon="5.5545">
        <ele>531.6</ele>
        <time>2022-12-26T11:50:06Z</time>
      </trkpt>
      <trkpt lat="46.60221" lon="5.55449">
        <ele>531.6</ele>
        <time>2022-12-26T11:50:07Z</time>
      </trkpt>
      <trkpt lat="46.60223" lon="5.55448">
        <ele>531.6</ele>
        <time>2022-12-26T11:50:08Z</time>
      </trkpt>
      <trkpt lat="46.60225" lon="5.55447">
        <ele>531.6</ele>
        <time>2022-12-26T11:50:09Z</time>
      </trkpt>
      <trkpt lat="46.60227" lon="5.55446">
        <ele>531.6</ele>
        <time>2022-12-26T11:50:10Z</time>
      </trkpt>
      <trkpt lat="46.60229" lon="5.55445">
        <ele>531.8</ele>
        <time>2022-12-26T11:50:11Z</time>
      </trkpt>
      <trkpt lat="46.60232" lon="5.55444">
        <ele>531.8</ele>
        <time>2022-12-26T11:50:12Z</time>
      </trkpt>
      <trkpt lat="46.60235" lon="5.55443">
        <ele>531.8</ele>
        <time>2022-12-26T11:50:13Z</time>
      </trkpt>
      <trkpt lat="46.60237" lon="5.55442">
        <ele>531.8</ele>
        <time>2022-12-26T11:50:14Z</time>
      </trkpt>
      <trkpt lat="46.60239" lon="5.55441">
        <ele>531.8</ele>
        <time>2022-12-26T11:50:15Z</time>
      </trkpt>
      <trkpt lat="46.60242" lon="5.55441">
        <ele>532</ele>
        <time>2022-12-26T11:50:16Z</time>
      </trkpt>
      <trkpt lat="46.60246" lon="5.55439">
        <ele>532</ele>
        <time>2022-12-26T11:50:17Z</time>
      </trkpt>
      <trkpt lat="46.60248" lon="5.55438">
        <ele>532</ele>
        <time>2022-12-26T11:50:18Z</time>
      </trkpt>
      <trkpt lat="46.60249" lon="5.55438">
        <ele>532</ele>
        <time>2022-12-26T11:50:19Z</time>
      </trkpt>
      <trkpt lat="46.60253" lon="5.55437">
        <ele>532</ele>
        <time>2022-12-26T11:50:20Z</time>
      </trkpt>
      <trkpt lat="46.60255" lon="5.55436">
        <ele>532</ele>
        <time>2022-12-26T11:50:21Z</time>
      </trkpt>
      <trkpt lat="46.60257" lon="5.55436">
        <ele>532</ele>
        <time>2022-12-26T11:50:22Z</time>
      </trkpt>
      <trkpt lat="46.6026" lon="5.55436">
        <ele>532</ele>
        <time>2022-12-26T11:50:23Z</time>
      </trkpt>
      <trkpt lat="46.60263" lon="5.55436">
        <ele>532.2</ele>
        <time>2022-12-26T11:50:24Z</time>
      </trkpt>
      <trkpt lat="46.60265" lon="5.55436">
        <ele>532.2</ele>
        <time>2022-12-26T11:50:25Z</time>
      </trkpt>
      <trkpt lat="46.60268" lon="5.55435">
        <ele>532.2</ele>
        <time>2022-12-26T11:50:26Z</time>
      </trkpt>
      <trkpt lat="46.6027" lon="5.55435">
        <ele>532.2</ele>
        <time>2022-12-26T11:50:27Z</time>
      </trkpt>
      <trkpt lat="46.60273" lon="5.55435">
        <ele>532.2</ele>
        <time>2022-12-26T11:50:28Z</time>
      </trkpt>
      <trkpt lat="46.60276" lon="5.55435">
        <ele>532.2</ele>
        <time>2022-12-26T11:50:29Z</time>
      </trkpt>
      <trkpt lat="46.60278" lon="5.55434">
        <ele>532.4</ele>
        <time>2022-12-26T11:50:30Z</time>
      </trkpt>
      <trkpt lat="46.60281" lon="5.55434">
        <ele>532.4</ele>
        <time>2022-12-26T11:50:31Z</time>
      </trkpt>
      <trkpt lat="46.60283" lon="5.55434">
        <ele>532.4</ele>
        <time>2022-12-26T11:50:32Z</time>
      </trkpt>
      <trkpt lat="46.60285" lon="5.55434">
        <ele>532.4</ele>
        <time>2022-12-26T11:50:33Z</time>
      </trkpt>
      <trkpt lat="46.60289" lon="5.55435">
        <ele>532.2</ele>
        <time>2022-12-26T11:50:34Z</time>
      </trkpt>
      <trkpt lat="46.60292" lon="5.55435">
        <ele>532.2</ele>
        <time>2022-12-26T11:50:35Z</time>
      </trkpt>
      <trkpt lat="46.60294" lon="5.55435">
        <ele>532.2</ele>
        <time>2022-12-26T11:50:36Z</time>
      </trkpt>
      <trkpt lat="46.60297" lon="5.55435">
        <ele>532.2</ele>
        <time>2022-12-26T11:50:37Z</time>
      </trkpt>
      <trkpt lat="46.60299" lon="5.55436">
        <ele>532.2</ele>
        <time>2022-12-26T11:50:38Z</time>
      </trkpt>
      <trkpt lat="46.60301" lon="5.55436">
        <ele>532</ele>
        <time>2022-12-26T11:50:39Z</time>
      </trkpt>
      <trkpt lat="46.60303" lon="5.55436">
        <ele>532</ele>
        <time>2022-12-26T11:50:40Z</time>
      </trkpt>
      <trkpt lat="46.60303" lon="5.55436">
        <ele>532</ele>
        <time>2022-12-26T11:50:41Z</time>
      </trkpt>
      <trkpt lat="46.60306" lon="5.55437">
        <ele>532</ele>
        <time>2022-12-26T11:50:42Z</time>
      </trkpt>
      <trkpt lat="46.60306" lon="5.55437">
        <ele>532</ele>
        <time>2022-12-26T11:50:43Z</time>
      </trkpt>
      <trkpt lat="46.60306" lon="5.55437">
        <ele>532</ele>
        <time>2022-12-26T11:50:44Z</time>
      </trkpt>
      <trkpt lat="46.60306" lon="5.55437">
        <ele>531.8</ele>
        <time>2022-12-26T11:50:45Z</time>
      </trkpt>
      <trkpt lat="46.60308" lon="5.55438">
        <ele>531.8</ele>
        <time>2022-12-26T11:50:46Z</time>
      </trkpt>
      <trkpt lat="46.60308" lon="5.55438">
        <ele>531.8</ele>
        <time>2022-12-26T11:50:47Z</time>
      </trkpt>
      <trkpt lat="46.60308" lon="5.55438">
        <ele>531.8</ele>
        <time>2022-12-26T11:50:48Z</time>
      </trkpt>
      <trkpt lat="46.60308" lon="5.55438">
        <ele>531.8</ele>
        <time>2022-12-26T11:50:49Z</time>
      </trkpt>
      <trkpt lat="46.60308" lon="5.55438">
        <ele>531.8</ele>
        <time>2022-12-26T11:50:50Z</time>
      </trkpt>
      <trkpt lat="46.60308" lon="5.55438">
        <ele>531.8</ele>
        <time>2022-12-26T11:50:51Z</time>
      </trkpt>
      <trkpt lat="46.6031" lon="5.5544">
        <ele>531.8</ele>
        <time>2022-12-26T11:50:52Z</time>
      </trkpt>
      <trkpt lat="46.6031" lon="5.5544">
        <ele>532</ele>
        <time>2022-12-26T11:50:53Z</time>
      </trkpt>
      <trkpt lat="46.6031" lon="5.55445">
        <ele>532</ele>
        <time>2022-12-26T11:50:54Z</time>
      </trkpt>
      <trkpt lat="46.6031" lon="5.55445">
        <ele>532</ele>
        <time>2022-12-26T11:50:55Z</time>
      </trkpt>
      <trkpt lat="46.6031" lon="5.5545">
        <ele>532</ele>
        <time>2022-12-26T11:50:56Z</time>
      </trkpt>
      <trkpt lat="46.6031" lon="5.55452">
        <ele>532</ele>
        <time>2022-12-26T11:50:57Z</time>
      </trkpt>
      <trkpt lat="46.60311" lon="5.55455">
        <ele>532</ele>
        <time>2022-12-26T11:50:58Z</time>
      </trkpt>
      <trkpt lat="46.60311" lon="5.55457">
        <ele>531.8</ele>
        <time>2022-12-26T11:50:59Z</time>
      </trkpt>
      <trkpt lat="46.60312" lon="5.5546">
        <ele>531.8</ele>
        <time>2022-12-26T11:51:00Z</time>
      </trkpt>
      <trkpt lat="46.60313" lon="5.55464">
        <ele>531.8</ele>
        <time>2022-12-26T11:51:01Z</time>
      </trkpt>
      <trkpt lat="46.60313" lon="5.55467">
        <ele>531.8</ele>
        <time>2022-12-26T11:51:02Z</time>
      </trkpt>
      <trkpt lat="46.60312" lon="5.5547">
        <ele>531.8</ele>
        <time>2022-12-26T11:51:03Z</time>
      </trkpt>
      <trkpt lat="46.60312" lon="5.55473">
        <ele>531.8</ele>
        <time>2022-12-26T11:51:04Z</time>
      </trkpt>
      <trkpt lat="46.60313" lon="5.55476">
        <ele>531.8</ele>
        <time>2022-12-26T11:51:05Z</time>
      </trkpt>
      <trkpt lat="46.60314" lon="5.55478">
        <ele>531.6</ele>
        <time>2022-12-26T11:51:06Z</time>
      </trkpt>
      <trkpt lat="46.60314" lon="5.55478">
        <ele>531.6</ele>
        <time>2022-12-26T11:51:07Z</time>
      </trkpt>
      <trkpt lat="46.60316" lon="5.55481">
        <ele>531.6</ele>
        <time>2022-12-26T11:51:08Z</time>
      </trkpt>
      <trkpt lat="46.60316" lon="5.55481">
        <ele>531.4</ele>
        <time>2022-12-26T11:51:09Z</time>
      </trkpt>
      <trkpt lat="46.60318" lon="5.55484">
        <ele>531.4</ele>
        <time>2022-12-26T11:51:10Z</time>
      </trkpt>
      <trkpt lat="46.60318" lon="5.55484">
        <ele>531.4</ele>
        <time>2022-12-26T11:51:11Z</time>
      </trkpt>
      <trkpt lat="46.6032" lon="5.55487">
        <ele>531.4</ele>
        <time>2022-12-26T11:51:12Z</time>
      </trkpt>
      <trkpt lat="46.60322" lon="5.55489">
        <ele>531.4</ele>
        <time>2022-12-26T11:51:13Z</time>
      </trkpt>
      <trkpt lat="46.60322" lon="5.55489">
        <ele>531.4</ele>
        <time>2022-12-26T11:51:14Z</time>
      </trkpt>
      <trkpt lat="46.60323" lon="5.55493">
        <ele>531.4</ele>
        <time>2022-12-26T11:51:15Z</time>
      </trkpt>
      <trkpt lat="46.60323" lon="5.55493">
        <ele>531.2</ele>
        <time>2022-12-26T11:51:16Z</time>
      </trkpt>
      <trkpt lat="46.60325" lon="5.55495">
        <ele>531.2</ele>
        <time>2022-12-26T11:51:17Z</time>
      </trkpt>
      <trkpt lat="46.60325" lon="5.55495">
        <ele>531</ele>
        <time>2022-12-26T11:51:18Z</time>
      </trkpt>
      <trkpt lat="46.60326" lon="5.55498">
        <ele>531</ele>
        <time>2022-12-26T11:51:19Z</time>
      </trkpt>
      <trkpt lat="46.60328" lon="5.55501">
        <ele>530.8</ele>
        <time>2022-12-26T11:51:20Z</time>
      </trkpt>
      <trkpt lat="46.60329" lon="5.55503">
        <ele>530.6</ele>
        <time>2022-12-26T11:51:21Z</time>
      </trkpt>
      <trkpt lat="46.6033" lon="5.55506">
        <ele>530.4</ele>
        <time>2022-12-26T11:51:22Z</time>
      </trkpt>
      <trkpt lat="46.60332" lon="5.55509">
        <ele>530.4</ele>
        <time>2022-12-26T11:51:23Z</time>
      </trkpt>
      <trkpt lat="46.60334" lon="5.55513">
        <ele>530.2</ele>
        <time>2022-12-26T11:51:24Z</time>
      </trkpt>
      <trkpt lat="46.60335" lon="5.55515">
        <ele>530</ele>
        <time>2022-12-26T11:51:25Z</time>
      </trkpt>
      <trkpt lat="46.60337" lon="5.55517">
        <ele>530</ele>
        <time>2022-12-26T11:51:26Z</time>
      </trkpt>
      <trkpt lat="46.60339" lon="5.55519">
        <ele>529.8</ele>
        <time>2022-12-26T11:51:27Z</time>
      </trkpt>
      <trkpt lat="46.60341" lon="5.5552">
        <ele>529.8</ele>
        <time>2022-12-26T11:51:28Z</time>
      </trkpt>
      <trkpt lat="46.60344" lon="5.55522">
        <ele>529.6</ele>
        <time>2022-12-26T11:51:29Z</time>
      </trkpt>
      <trkpt lat="46.60346" lon="5.55523">
        <ele>529.6</ele>
        <time>2022-12-26T11:51:30Z</time>
      </trkpt>
      <trkpt lat="46.60348" lon="5.55524">
        <ele>529.4</ele>
        <time>2022-12-26T11:51:31Z</time>
      </trkpt>
      <trkpt lat="46.6035" lon="5.55523">
        <ele>529.4</ele>
        <time>2022-12-26T11:51:32Z</time>
      </trkpt>
      <trkpt lat="46.60352" lon="5.55523">
        <ele>529.4</ele>
        <time>2022-12-26T11:51:33Z</time>
      </trkpt>
      <trkpt lat="46.60354" lon="5.55523">
        <ele>529.4</ele>
        <time>2022-12-26T11:51:34Z</time>
      </trkpt>
      <trkpt lat="46.60356" lon="5.55524">
        <ele>529.4</ele>
        <time>2022-12-26T11:51:35Z</time>
      </trkpt>
      <trkpt lat="46.60358" lon="5.55526">
        <ele>529.4</ele>
        <time>2022-12-26T11:51:36Z</time>
      </trkpt>
      <trkpt lat="46.60361" lon="5.55527">
        <ele>529.2</ele>
        <time>2022-12-26T11:51:37Z</time>
      </trkpt>
      <trkpt lat="46.60364" lon="5.55529">
        <ele>529.2</ele>
        <time>2022-12-26T11:51:38Z</time>
      </trkpt>
      <trkpt lat="46.60366" lon="5.55531">
        <ele>529.2</ele>
        <time>2022-12-26T11:51:39Z</time>
      </trkpt>
      <trkpt lat="46.60368" lon="5.55532">
        <ele>529</ele>
        <time>2022-12-26T11:51:40Z</time>
      </trkpt>
      <trkpt lat="46.6037" lon="5.55533">
        <ele>528.8</ele>
        <time>2022-12-26T11:51:41Z</time>
      </trkpt>
      <trkpt lat="46.60372" lon="5.55535">
        <ele>528.6</ele>
        <time>2022-12-26T11:51:42Z</time>
      </trkpt>
      <trkpt lat="46.60374" lon="5.55536">
        <ele>528.6</ele>
        <time>2022-12-26T11:51:43Z</time>
      </trkpt>
      <trkpt lat="46.60376" lon="5.55537">
        <ele>528.4</ele>
        <time>2022-12-26T11:51:44Z</time>
      </trkpt>
      <trkpt lat="46.60379" lon="5.55538">
        <ele>528.2</ele>
        <time>2022-12-26T11:51:45Z</time>
      </trkpt>
      <trkpt lat="46.60382" lon="5.55538">
        <ele>528</ele>
        <time>2022-12-26T11:51:46Z</time>
      </trkpt>
      <trkpt lat="46.60384" lon="5.55539">
        <ele>528</ele>
        <time>2022-12-26T11:51:47Z</time>
      </trkpt>
      <trkpt lat="46.60386" lon="5.55541">
        <ele>527.8</ele>
        <time>2022-12-26T11:51:48Z</time>
      </trkpt>
      <trkpt lat="46.60388" lon="5.55542">
        <ele>527.8</ele>
        <time>2022-12-26T11:51:49Z</time>
      </trkpt>
      <trkpt lat="46.6039" lon="5.55543">
        <ele>527.8</ele>
        <time>2022-12-26T11:51:50Z</time>
      </trkpt>
      <trkpt lat="46.60392" lon="5.55544">
        <ele>527.8</ele>
        <time>2022-12-26T11:51:51Z</time>
      </trkpt>
      <trkpt lat="46.60395" lon="5.55545">
        <ele>527.8</ele>
        <time>2022-12-26T11:51:52Z</time>
      </trkpt>
      <trkpt lat="46.60397" lon="5.55547">
        <ele>527.6</ele>
        <time>2022-12-26T11:51:53Z</time>
      </trkpt>
      <trkpt lat="46.604" lon="5.55548">
        <ele>527.6</ele>
        <time>2022-12-26T11:51:54Z</time>
      </trkpt>
      <trkpt lat="46.60403" lon="5.55549">
        <ele>527.6</ele>
        <time>2022-12-26T11:51:55Z</time>
      </trkpt>
      <trkpt lat="46.60405" lon="5.5555">
        <ele>527.6</ele>
        <time>2022-12-26T11:51:56Z</time>
      </trkpt>
      <trkpt lat="46.60408" lon="5.55551">
        <ele>527.6</ele>
        <time>2022-12-26T11:51:57Z</time>
      </trkpt>
      <trkpt lat="46.6041" lon="5.55552">
        <ele>527.6</ele>
        <time>2022-12-26T11:51:58Z</time>
      </trkpt>
      <trkpt lat="46.60413" lon="5.55554">
        <ele>527.6</ele>
        <time>2022-12-26T11:51:59Z</time>
      </trkpt>
      <trkpt lat="46.60415" lon="5.55555">
        <ele>527.6</ele>
        <time>2022-12-26T11:52:00Z</time>
      </trkpt>
      <trkpt lat="46.60418" lon="5.55556">
        <ele>527.6</ele>
        <time>2022-12-26T11:52:01Z</time>
      </trkpt>
      <trkpt lat="46.6042" lon="5.55558">
        <ele>527.4</ele>
        <time>2022-12-26T11:52:02Z</time>
      </trkpt>
      <trkpt lat="46.60423" lon="5.55559">
        <ele>527.4</ele>
        <time>2022-12-26T11:52:03Z</time>
      </trkpt>
      <trkpt lat="46.60425" lon="5.55561">
        <ele>527.2</ele>
        <time>2022-12-26T11:52:04Z</time>
      </trkpt>
      <trkpt lat="46.60428" lon="5.55562">
        <ele>527.2</ele>
        <time>2022-12-26T11:52:05Z</time>
      </trkpt>
      <trkpt lat="46.6043" lon="5.55563">
        <ele>527.2</ele>
        <time>2022-12-26T11:52:06Z</time>
      </trkpt>
      <trkpt lat="46.60432" lon="5.55565">
        <ele>527</ele>
        <time>2022-12-26T11:52:07Z</time>
      </trkpt>
      <trkpt lat="46.60435" lon="5.55566">
        <ele>527</ele>
        <time>2022-12-26T11:52:08Z</time>
      </trkpt>
      <trkpt lat="46.60437" lon="5.55568">
        <ele>527</ele>
        <time>2022-12-26T11:52:09Z</time>
      </trkpt>
      <trkpt lat="46.60439" lon="5.55569">
        <ele>527</ele>
        <time>2022-12-26T11:52:10Z</time>
      </trkpt>
      <trkpt lat="46.60442" lon="5.55571">
        <ele>527</ele>
        <time>2022-12-26T11:52:11Z</time>
      </trkpt>
      <trkpt lat="46.60444" lon="5.55572">
        <ele>527</ele>
        <time>2022-12-26T11:52:12Z</time>
      </trkpt>
      <trkpt lat="46.60446" lon="5.55574">
        <ele>527</ele>
        <time>2022-12-26T11:52:13Z</time>
      </trkpt>
      <trkpt lat="46.60449" lon="5.55575">
        <ele>527</ele>
        <time>2022-12-26T11:52:14Z</time>
      </trkpt>
      <trkpt lat="46.60452" lon="5.55576">
        <ele>527.2</ele>
        <time>2022-12-26T11:52:15Z</time>
      </trkpt>
      <trkpt lat="46.60454" lon="5.55578">
        <ele>527.2</ele>
        <time>2022-12-26T11:52:16Z</time>
      </trkpt>
      <trkpt lat="46.60456" lon="5.5558">
        <ele>527.2</ele>
        <time>2022-12-26T11:52:17Z</time>
      </trkpt>
      <trkpt lat="46.60458" lon="5.55581">
        <ele>527.4</ele>
        <time>2022-12-26T11:52:18Z</time>
      </trkpt>
      <trkpt lat="46.60461" lon="5.55583">
        <ele>527.4</ele>
        <time>2022-12-26T11:52:19Z</time>
      </trkpt>
      <trkpt lat="46.60463" lon="5.55584">
        <ele>527.4</ele>
        <time>2022-12-26T11:52:20Z</time>
      </trkpt>
      <trkpt lat="46.60465" lon="5.55585">
        <ele>527.6</ele>
        <time>2022-12-26T11:52:21Z</time>
      </trkpt>
      <trkpt lat="46.60468" lon="5.55586">
        <ele>527.6</ele>
        <time>2022-12-26T11:52:22Z</time>
      </trkpt>
      <trkpt lat="46.6047" lon="5.55588">
        <ele>527.6</ele>
        <time>2022-12-26T11:52:23Z</time>
      </trkpt>
      <trkpt lat="46.60472" lon="5.55589">
        <ele>527.8</ele>
        <time>2022-12-26T11:52:24Z</time>
      </trkpt>
      <trkpt lat="46.60474" lon="5.55591">
        <ele>527.8</ele>
        <time>2022-12-26T11:52:25Z</time>
      </trkpt>
      <trkpt lat="46.60477" lon="5.55592">
        <ele>527.8</ele>
        <time>2022-12-26T11:52:26Z</time>
      </trkpt>
      <trkpt lat="46.60479" lon="5.55593">
        <ele>527.8</ele>
        <time>2022-12-26T11:52:27Z</time>
      </trkpt>
      <trkpt lat="46.60481" lon="5.55595">
        <ele>527.8</ele>
        <time>2022-12-26T11:52:28Z</time>
      </trkpt>
      <trkpt lat="46.60483" lon="5.55596">
        <ele>527.8</ele>
        <time>2022-12-26T11:52:29Z</time>
      </trkpt>
      <trkpt lat="46.60485" lon="5.55597">
        <ele>527.8</ele>
        <time>2022-12-26T11:52:30Z</time>
      </trkpt>
      <trkpt lat="46.60487" lon="5.55599">
        <ele>527.8</ele>
        <time>2022-12-26T11:52:31Z</time>
      </trkpt>
      <trkpt lat="46.6049" lon="5.55599">
        <ele>527.8</ele>
        <time>2022-12-26T11:52:32Z</time>
      </trkpt>
      <trkpt lat="46.60492" lon="5.556">
        <ele>527.8</ele>
        <time>2022-12-26T11:52:33Z</time>
      </trkpt>
      <trkpt lat="46.60494" lon="5.55599">
        <ele>527.8</ele>
        <time>2022-12-26T11:52:34Z</time>
      </trkpt>
      <trkpt lat="46.60494" lon="5.55599">
        <ele>527.8</ele>
        <time>2022-12-26T11:52:35Z</time>
      </trkpt>
      <trkpt lat="46.60497" lon="5.55597">
        <ele>527.8</ele>
        <time>2022-12-26T11:52:36Z</time>
      </trkpt>
      <trkpt lat="46.60497" lon="5.55597">
        <ele>527.8</ele>
        <time>2022-12-26T11:52:37Z</time>
      </trkpt>
      <trkpt lat="46.60497" lon="5.55592">
        <ele>527.8</ele>
        <time>2022-12-26T11:52:38Z</time>
      </trkpt>
      <trkpt lat="46.60498" lon="5.55589">
        <ele>527.8</ele>
        <time>2022-12-26T11:52:39Z</time>
      </trkpt>
      <trkpt lat="46.60499" lon="5.55587">
        <ele>528</ele>
        <time>2022-12-26T11:52:40Z</time>
      </trkpt>
      <trkpt lat="46.60501" lon="5.55585">
        <ele>528</ele>
        <time>2022-12-26T11:52:41Z</time>
      </trkpt>
      <trkpt lat="46.60501" lon="5.55585">
        <ele>528</ele>
        <time>2022-12-26T11:52:42Z</time>
      </trkpt>
      <trkpt lat="46.60502" lon="5.55581">
        <ele>528</ele>
        <time>2022-12-26T11:52:43Z</time>
      </trkpt>
      <trkpt lat="46.60502" lon="5.55581">
        <ele>528</ele>
        <time>2022-12-26T11:52:44Z</time>
      </trkpt>
      <trkpt lat="46.60504" lon="5.55577">
        <ele>528</ele>
        <time>2022-12-26T11:52:45Z</time>
      </trkpt>
      <trkpt lat="46.60504" lon="5.55577">
        <ele>528.2</ele>
        <time>2022-12-26T11:52:46Z</time>
      </trkpt>
      <trkpt lat="46.60507" lon="5.55574">
        <ele>528.2</ele>
        <time>2022-12-26T11:52:47Z</time>
      </trkpt>
      <trkpt lat="46.60507" lon="5.55574">
        <ele>528.2</ele>
        <time>2022-12-26T11:52:48Z</time>
      </trkpt>
      <trkpt lat="46.60509" lon="5.5557">
        <ele>528.2</ele>
        <time>2022-12-26T11:52:49Z</time>
      </trkpt>
      <trkpt lat="46.60509" lon="5.55567">
        <ele>528.2</ele>
        <time>2022-12-26T11:52:50Z</time>
      </trkpt>
      <trkpt lat="46.60511" lon="5.55565">
        <ele>528.2</ele>
        <time>2022-12-26T11:52:51Z</time>
      </trkpt>
      <trkpt lat="46.60511" lon="5.55565">
        <ele>528.4</ele>
        <time>2022-12-26T11:52:52Z</time>
      </trkpt>
      <trkpt lat="46.60512" lon="5.55561">
        <ele>528.4</ele>
        <time>2022-12-26T11:52:53Z</time>
      </trkpt>
      <trkpt lat="46.60512" lon="5.55561">
        <ele>528.6</ele>
        <time>2022-12-26T11:52:54Z</time>
      </trkpt>
      <trkpt lat="46.60512" lon="5.55561">
        <ele>528.6</ele>
        <time>2022-12-26T11:52:55Z</time>
      </trkpt>
      <trkpt lat="46.60513" lon="5.55558">
        <ele>528.8</ele>
        <time>2022-12-26T11:52:56Z</time>
      </trkpt>
      <trkpt lat="46.60513" lon="5.55558">
        <ele>528.8</ele>
        <time>2022-12-26T11:52:57Z</time>
      </trkpt>
      <trkpt lat="46.60515" lon="5.55555">
        <ele>529</ele>
        <time>2022-12-26T11:52:58Z</time>
      </trkpt>
      <trkpt lat="46.60515" lon="5.55555">
        <ele>529.2</ele>
        <time>2022-12-26T11:52:59Z</time>
      </trkpt>
      <trkpt lat="46.60515" lon="5.55555">
        <ele>529.2</ele>
        <time>2022-12-26T11:53:00Z</time>
      </trkpt>
      <trkpt lat="46.60517" lon="5.55552">
        <ele>529.4</ele>
        <time>2022-12-26T11:53:01Z</time>
      </trkpt>
      <trkpt lat="46.60517" lon="5.55552">
        <ele>529.6</ele>
        <time>2022-12-26T11:53:02Z</time>
      </trkpt>
      <trkpt lat="46.60517" lon="5.55549">
        <ele>529.6</ele>
        <time>2022-12-26T11:53:03Z</time>
      </trkpt>
      <trkpt lat="46.60519" lon="5.55547">
        <ele>529.8</ele>
        <time>2022-12-26T11:53:04Z</time>
      </trkpt>
      <trkpt lat="46.60519" lon="5.55547">
        <ele>529.8</ele>
        <time>2022-12-26T11:53:05Z</time>
      </trkpt>
      <trkpt lat="46.60519" lon="5.55544">
        <ele>530</ele>
        <time>2022-12-26T11:53:06Z</time>
      </trkpt>
      <trkpt lat="46.60519" lon="5.55544">
        <ele>530.2</ele>
        <time>2022-12-26T11:53:07Z</time>
      </trkpt>
      <trkpt lat="46.60521" lon="5.55542">
        <ele>530.4</ele>
        <time>2022-12-26T11:53:08Z</time>
      </trkpt>
      <trkpt lat="46.60521" lon="5.55542">
        <ele>530.4</ele>
        <time>2022-12-26T11:53:09Z</time>
      </trkpt>
      <trkpt lat="46.60522" lon="5.5554">
        <ele>530.6</ele>
        <time>2022-12-26T11:53:10Z</time>
      </trkpt>
      <trkpt lat="46.60522" lon="5.5554">
        <ele>530.8</ele>
        <time>2022-12-26T11:53:11Z</time>
      </trkpt>
      <trkpt lat="46.60524" lon="5.55538">
        <ele>531</ele>
        <time>2022-12-26T11:53:12Z</time>
      </trkpt>
      <trkpt lat="46.60524" lon="5.55538">
        <ele>531.2</ele>
        <time>2022-12-26T11:53:13Z</time>
      </trkpt>
      <trkpt lat="46.60525" lon="5.55536">
        <ele>531.4</ele>
        <time>2022-12-26T11:53:14Z</time>
      </trkpt>
      <trkpt lat="46.60525" lon="5.55536">
        <ele>531.6</ele>
        <time>2022-12-26T11:53:15Z</time>
      </trkpt>
      <trkpt lat="46.60526" lon="5.55533">
        <ele>531.8</ele>
        <time>2022-12-26T11:53:16Z</time>
      </trkpt>
      <trkpt lat="46.60526" lon="5.55533">
        <ele>532</ele>
        <time>2022-12-26T11:53:17Z</time>
      </trkpt>
      <trkpt lat="46.60527" lon="5.55529">
        <ele>532.2</ele>
        <time>2022-12-26T11:53:18Z</time>
      </trkpt>
      <trkpt lat="46.60527" lon="5.55529">
        <ele>532.4</ele>
        <time>2022-12-26T11:53:19Z</time>
      </trkpt>
      <trkpt lat="46.60528" lon="5.55526">
        <ele>532.6</ele>
        <time>2022-12-26T11:53:20Z</time>
      </trkpt>
      <trkpt lat="46.60528" lon="5.55526">
        <ele>532.8</ele>
        <time>2022-12-26T11:53:21Z</time>
      </trkpt>
      <trkpt lat="46.6053" lon="5.55524">
        <ele>532.8</ele>
        <time>2022-12-26T11:53:22Z</time>
      </trkpt>
      <trkpt lat="46.6053" lon="5.55524">
        <ele>533</ele>
        <time>2022-12-26T11:53:23Z</time>
      </trkpt>
      <trkpt lat="46.60532" lon="5.55522">
        <ele>533</ele>
        <time>2022-12-26T11:53:24Z</time>
      </trkpt>
      <trkpt lat="46.60532" lon="5.55522">
        <ele>533.2</ele>
        <time>2022-12-26T11:53:25Z</time>
      </trkpt>
      <trkpt lat="46.60534" lon="5.55519">
        <ele>533.4</ele>
        <time>2022-12-26T11:53:26Z</time>
      </trkpt>
      <trkpt lat="46.60534" lon="5.55519">
        <ele>533.6</ele>
        <time>2022-12-26T11:53:27Z</time>
      </trkpt>
      <trkpt lat="46.60536" lon="5.55516">
        <ele>533.8</ele>
        <time>2022-12-26T11:53:28Z</time>
      </trkpt>
      <trkpt lat="46.60536" lon="5.55516">
        <ele>534</ele>
        <time>2022-12-26T11:53:29Z</time>
      </trkpt>
      <trkpt lat="46.60538" lon="5.55514">
        <ele>534.2</ele>
        <time>2022-12-26T11:53:30Z</time>
      </trkpt>
      <trkpt lat="46.60538" lon="5.55514">
        <ele>534.4</ele>
        <time>2022-12-26T11:53:31Z</time>
      </trkpt>
      <trkpt lat="46.60541" lon="5.55514">
        <ele>534.6</ele>
        <time>2022-12-26T11:53:32Z</time>
      </trkpt>
      <trkpt lat="46.60541" lon="5.55514">
        <ele>534.8</ele>
        <time>2022-12-26T11:53:33Z</time>
      </trkpt>
      <trkpt lat="46.60543" lon="5.55512">
        <ele>535.2</ele>
        <time>2022-12-26T11:53:34Z</time>
      </trkpt>
      <trkpt lat="46.60543" lon="5.55512">
        <ele>535.4</ele>
        <time>2022-12-26T11:53:35Z</time>
      </trkpt>
      <trkpt lat="46.60546" lon="5.5551">
        <ele>535.6</ele>
        <time>2022-12-26T11:53:36Z</time>
      </trkpt>
      <trkpt lat="46.60546" lon="5.5551">
        <ele>535.8</ele>
        <time>2022-12-26T11:53:37Z</time>
      </trkpt>
      <trkpt lat="46.60548" lon="5.5551">
        <ele>536</ele>
        <time>2022-12-26T11:53:38Z</time>
      </trkpt>
      <trkpt lat="46.60548" lon="5.5551">
        <ele>536.2</ele>
        <time>2022-12-26T11:53:39Z</time>
      </trkpt>
      <trkpt lat="46.60548" lon="5.5551">
        <ele>536.4</ele>
        <time>2022-12-26T11:53:40Z</time>
      </trkpt>
      <trkpt lat="46.60551" lon="5.55507">
        <ele>536.6</ele>
        <time>2022-12-26T11:53:41Z</time>
      </trkpt>
      <trkpt lat="46.60551" lon="5.55507">
        <ele>536.6</ele>
        <time>2022-12-26T11:53:42Z</time>
      </trkpt>
      <trkpt lat="46.60552" lon="5.55505">
        <ele>536.6</ele>
        <time>2022-12-26T11:53:43Z</time>
      </trkpt>
      <trkpt lat="46.60552" lon="5.55505">
        <ele>536.8</ele>
        <time>2022-12-26T11:53:44Z</time>
      </trkpt>
      <trkpt lat="46.60555" lon="5.55503">
        <ele>537</ele>
        <time>2022-12-26T11:53:45Z</time>
      </trkpt>
      <trkpt lat="46.60556" lon="5.55501">
        <ele>537</ele>
        <time>2022-12-26T11:53:46Z</time>
      </trkpt>
      <trkpt lat="46.60557" lon="5.55499">
        <ele>537.2</ele>
        <time>2022-12-26T11:53:47Z</time>
      </trkpt>
      <trkpt lat="46.60558" lon="5.55496">
        <ele>537.2</ele>
        <time>2022-12-26T11:53:48Z</time>
      </trkpt>
      <trkpt lat="46.6056" lon="5.55494">
        <ele>537.2</ele>
        <time>2022-12-26T11:53:49Z</time>
      </trkpt>
      <trkpt lat="46.60561" lon="5.55492">
        <ele>537.2</ele>
        <time>2022-12-26T11:53:50Z</time>
      </trkpt>
      <trkpt lat="46.60563" lon="5.55489">
        <ele>537.4</ele>
        <time>2022-12-26T11:53:51Z</time>
      </trkpt>
      <trkpt lat="46.60564" lon="5.55487">
        <ele>537.4</ele>
        <time>2022-12-26T11:53:52Z</time>
      </trkpt>
      <trkpt lat="46.60565" lon="5.55485">
        <ele>537.4</ele>
        <time>2022-12-26T11:53:53Z</time>
      </trkpt>
      <trkpt lat="46.60566" lon="5.55483">
        <ele>537.4</ele>
        <time>2022-12-26T11:53:54Z</time>
      </trkpt>
      <trkpt lat="46.60567" lon="5.5548">
        <ele>537.6</ele>
        <time>2022-12-26T11:53:55Z</time>
      </trkpt>
      <trkpt lat="46.60569" lon="5.55478">
        <ele>537.4</ele>
        <time>2022-12-26T11:53:56Z</time>
      </trkpt>
      <trkpt lat="46.60571" lon="5.55476">
        <ele>537.4</ele>
        <time>2022-12-26T11:53:57Z</time>
      </trkpt>
      <trkpt lat="46.60573" lon="5.55474">
        <ele>537.6</ele>
        <time>2022-12-26T11:53:58Z</time>
      </trkpt>
      <trkpt lat="46.60574" lon="5.55472">
        <ele>537.6</ele>
        <time>2022-12-26T11:53:59Z</time>
      </trkpt>
      <trkpt lat="46.60576" lon="5.5547">
        <ele>537.6</ele>
        <time>2022-12-26T11:54:00Z</time>
      </trkpt>
      <trkpt lat="46.60578" lon="5.55468">
        <ele>537.6</ele>
        <time>2022-12-26T11:54:01Z</time>
      </trkpt>
      <trkpt lat="46.6058" lon="5.55465">
        <ele>537.8</ele>
        <time>2022-12-26T11:54:02Z</time>
      </trkpt>
      <trkpt lat="46.60581" lon="5.55462">
        <ele>537.6</ele>
        <time>2022-12-26T11:54:03Z</time>
      </trkpt>
      <trkpt lat="46.60582" lon="5.5546">
        <ele>537.6</ele>
        <time>2022-12-26T11:54:04Z</time>
      </trkpt>
      <trkpt lat="46.60582" lon="5.5546">
        <ele>537.6</ele>
        <time>2022-12-26T11:54:05Z</time>
      </trkpt>
      <trkpt lat="46.60586" lon="5.55454">
        <ele>537.6</ele>
        <time>2022-12-26T11:54:06Z</time>
      </trkpt>
      <trkpt lat="46.60587" lon="5.55453">
        <ele>537.6</ele>
        <time>2022-12-26T11:54:07Z</time>
      </trkpt>
      <trkpt lat="46.60589" lon="5.55451">
        <ele>537.4</ele>
        <time>2022-12-26T11:54:08Z</time>
      </trkpt>
      <trkpt lat="46.6059" lon="5.55449">
        <ele>537.4</ele>
        <time>2022-12-26T11:54:09Z</time>
      </trkpt>
      <trkpt lat="46.60592" lon="5.55447">
        <ele>537.4</ele>
        <time>2022-12-26T11:54:10Z</time>
      </trkpt>
      <trkpt lat="46.60593" lon="5.55445">
        <ele>537.4</ele>
        <time>2022-12-26T11:54:11Z</time>
      </trkpt>
      <trkpt lat="46.60595" lon="5.55443">
        <ele>537.2</ele>
        <time>2022-12-26T11:54:12Z</time>
      </trkpt>
      <trkpt lat="46.60597" lon="5.55441">
        <ele>537.2</ele>
        <time>2022-12-26T11:54:13Z</time>
      </trkpt>
      <trkpt lat="46.60598" lon="5.55439">
        <ele>537.2</ele>
        <time>2022-12-26T11:54:14Z</time>
      </trkpt>
      <trkpt lat="46.60599" lon="5.55437">
        <ele>537</ele>
        <time>2022-12-26T11:54:15Z</time>
      </trkpt>
      <trkpt lat="46.60601" lon="5.55435">
        <ele>537</ele>
        <time>2022-12-26T11:54:16Z</time>
      </trkpt>
      <trkpt lat="46.60602" lon="5.55433">
        <ele>536.8</ele>
        <time>2022-12-26T11:54:17Z</time>
      </trkpt>
      <trkpt lat="46.60602" lon="5.55433">
        <ele>536.6</ele>
        <time>2022-12-26T11:54:18Z</time>
      </trkpt>
      <trkpt lat="46.60605" lon="5.5543">
        <ele>536.4</ele>
        <time>2022-12-26T11:54:19Z</time>
      </trkpt>
      <trkpt lat="46.60606" lon="5.55428">
        <ele>536.2</ele>
        <time>2022-12-26T11:54:20Z</time>
      </trkpt>
      <trkpt lat="46.60608" lon="5.55426">
        <ele>536.2</ele>
        <time>2022-12-26T11:54:21Z</time>
      </trkpt>
      <trkpt lat="46.60608" lon="5.55426">
        <ele>536</ele>
        <time>2022-12-26T11:54:22Z</time>
      </trkpt>
      <trkpt lat="46.6061" lon="5.55422">
        <ele>535.8</ele>
        <time>2022-12-26T11:54:23Z</time>
      </trkpt>
      <trkpt lat="46.6061" lon="5.55422">
        <ele>535.6</ele>
        <time>2022-12-26T11:54:24Z</time>
      </trkpt>
      <trkpt lat="46.60614" lon="5.55418">
        <ele>535.2</ele>
        <time>2022-12-26T11:54:25Z</time>
      </trkpt>
      <trkpt lat="46.60614" lon="5.55417">
        <ele>535</ele>
        <time>2022-12-26T11:54:26Z</time>
      </trkpt>
      <trkpt lat="46.60616" lon="5.55415">
        <ele>534.8</ele>
        <time>2022-12-26T11:54:27Z</time>
      </trkpt>
      <trkpt lat="46.60616" lon="5.55415">
        <ele>534.4</ele>
        <time>2022-12-26T11:54:28Z</time>
      </trkpt>
      <trkpt lat="46.60619" lon="5.55412">
        <ele>534.2</ele>
        <time>2022-12-26T11:54:29Z</time>
      </trkpt>
      <trkpt lat="46.6062" lon="5.55411">
        <ele>533.8</ele>
        <time>2022-12-26T11:54:30Z</time>
      </trkpt>
      <trkpt lat="46.60622" lon="5.55409">
        <ele>533.6</ele>
        <time>2022-12-26T11:54:31Z</time>
      </trkpt>
      <trkpt lat="46.60623" lon="5.55407">
        <ele>533.4</ele>
        <time>2022-12-26T11:54:32Z</time>
      </trkpt>
      <trkpt lat="46.60624" lon="5.55405">
        <ele>533</ele>
        <time>2022-12-26T11:54:33Z</time>
      </trkpt>
      <trkpt lat="46.60626" lon="5.55403">
        <ele>532.8</ele>
        <time>2022-12-26T11:54:34Z</time>
      </trkpt>
      <trkpt lat="46.60626" lon="5.55403">
        <ele>532.6</ele>
        <time>2022-12-26T11:54:35Z</time>
      </trkpt>
      <trkpt lat="46.60629" lon="5.55399">
        <ele>532.4</ele>
        <time>2022-12-26T11:54:36Z</time>
      </trkpt>
      <trkpt lat="46.6063" lon="5.55397">
        <ele>532</ele>
        <time>2022-12-26T11:54:37Z</time>
      </trkpt>
      <trkpt lat="46.60632" lon="5.55395">
        <ele>531.8</ele>
        <time>2022-12-26T11:54:38Z</time>
      </trkpt>
      <trkpt lat="46.60635" lon="5.55394">
        <ele>531.6</ele>
        <time>2022-12-26T11:54:39Z</time>
      </trkpt>
      <trkpt lat="46.60637" lon="5.55394">
        <ele>531.4</ele>
        <time>2022-12-26T11:54:40Z</time>
      </trkpt>
      <trkpt lat="46.6064" lon="5.55393">
        <ele>531.2</ele>
        <time>2022-12-26T11:54:41Z</time>
      </trkpt>
      <trkpt lat="46.60642" lon="5.55392">
        <ele>531</ele>
        <time>2022-12-26T11:54:42Z</time>
      </trkpt>
      <trkpt lat="46.60644" lon="5.5539">
        <ele>530.8</ele>
        <time>2022-12-26T11:54:43Z</time>
      </trkpt>
      <trkpt lat="46.60646" lon="5.55388">
        <ele>530.6</ele>
        <time>2022-12-26T11:54:44Z</time>
      </trkpt>
      <trkpt lat="46.6065" lon="5.55387">
        <ele>530.4</ele>
        <time>2022-12-26T11:54:45Z</time>
      </trkpt>
      <trkpt lat="46.60653" lon="5.55387">
        <ele>530.2</ele>
        <time>2022-12-26T11:54:46Z</time>
      </trkpt>
      <trkpt lat="46.60655" lon="5.55386">
        <ele>530</ele>
        <time>2022-12-26T11:54:47Z</time>
      </trkpt>
      <trkpt lat="46.60657" lon="5.55385">
        <ele>529.8</ele>
        <time>2022-12-26T11:54:48Z</time>
      </trkpt>
      <trkpt lat="46.60657" lon="5.55385">
        <ele>529.6</ele>
        <time>2022-12-26T11:54:49Z</time>
      </trkpt>
      <trkpt lat="46.60657" lon="5.55385">
        <ele>529.4</ele>
        <time>2022-12-26T11:54:50Z</time>
      </trkpt>
      <trkpt lat="46.60659" lon="5.55383">
        <ele>529.2</ele>
        <time>2022-12-26T11:54:51Z</time>
      </trkpt>
      <trkpt lat="46.60659" lon="5.55383">
        <ele>529</ele>
        <time>2022-12-26T11:54:52Z</time>
      </trkpt>
      <trkpt lat="46.60661" lon="5.55383">
        <ele>528.6</ele>
        <time>2022-12-26T11:54:53Z</time>
      </trkpt>
      <trkpt lat="46.60663" lon="5.55382">
        <ele>528.2</ele>
        <time>2022-12-26T11:54:54Z</time>
      </trkpt>
      <trkpt lat="46.60663" lon="5.55382">
        <ele>528</ele>
        <time>2022-12-26T11:54:55Z</time>
      </trkpt>
      <trkpt lat="46.60666" lon="5.55382">
        <ele>527.6</ele>
        <time>2022-12-26T11:54:56Z</time>
      </trkpt>
      <trkpt lat="46.60666" lon="5.55382">
        <ele>527.4</ele>
        <time>2022-12-26T11:54:57Z</time>
      </trkpt>
      <trkpt lat="46.60666" lon="5.55382">
        <ele>527</ele>
        <time>2022-12-26T11:54:58Z</time>
      </trkpt>
      <trkpt lat="46.60666" lon="5.55382">
        <ele>526.8</ele>
        <time>2022-12-26T11:54:59Z</time>
      </trkpt>
      <trkpt lat="46.60666" lon="5.55382">
        <ele>526.6</ele>
        <time>2022-12-26T11:55:00Z</time>
      </trkpt>
      <trkpt lat="46.60668" lon="5.55382">
        <ele>526.4</ele>
        <time>2022-12-26T11:55:01Z</time>
      </trkpt>
      <trkpt lat="46.60668" lon="5.55382">
        <ele>526.2</ele>
        <time>2022-12-26T11:55:02Z</time>
      </trkpt>
      <trkpt lat="46.6067" lon="5.5538">
        <ele>525.8</ele>
        <time>2022-12-26T11:55:03Z</time>
      </trkpt>
      <trkpt lat="46.60672" lon="5.55379">
        <ele>525.6</ele>
        <time>2022-12-26T11:55:04Z</time>
      </trkpt>
      <trkpt lat="46.60674" lon="5.55378">
        <ele>525.2</ele>
        <time>2022-12-26T11:55:05Z</time>
      </trkpt>
      <trkpt lat="46.60676" lon="5.55376">
        <ele>525</ele>
        <time>2022-12-26T11:55:06Z</time>
      </trkpt>
      <trkpt lat="46.60678" lon="5.55374">
        <ele>524.6</ele>
        <time>2022-12-26T11:55:07Z</time>
      </trkpt>
      <trkpt lat="46.6068" lon="5.55371">
        <ele>524.4</ele>
        <time>2022-12-26T11:55:08Z</time>
      </trkpt>
      <trkpt lat="46.60681" lon="5.55369">
        <ele>524</ele>
        <time>2022-12-26T11:55:09Z</time>
      </trkpt>
      <trkpt lat="46.60683" lon="5.55366">
        <ele>523.6</ele>
        <time>2022-12-26T11:55:10Z</time>
      </trkpt>
      <trkpt lat="46.60685" lon="5.55363">
        <ele>523.4</ele>
        <time>2022-12-26T11:55:11Z</time>
      </trkpt>
      <trkpt lat="46.60686" lon="5.55361">
        <ele>523.2</ele>
        <time>2022-12-26T11:55:12Z</time>
      </trkpt>
      <trkpt lat="46.60688" lon="5.55359">
        <ele>522.8</ele>
        <time>2022-12-26T11:55:13Z</time>
      </trkpt>
      <trkpt lat="46.6069" lon="5.55356">
        <ele>522.6</ele>
        <time>2022-12-26T11:55:14Z</time>
      </trkpt>
      <trkpt lat="46.60692" lon="5.55354">
        <ele>522.4</ele>
        <time>2022-12-26T11:55:15Z</time>
      </trkpt>
      <trkpt lat="46.60693" lon="5.55351">
        <ele>522.2</ele>
        <time>2022-12-26T11:55:16Z</time>
      </trkpt>
      <trkpt lat="46.60695" lon="5.55348">
        <ele>522</ele>
        <time>2022-12-26T11:55:17Z</time>
      </trkpt>
      <trkpt lat="46.60697" lon="5.55345">
        <ele>521.6</ele>
        <time>2022-12-26T11:55:18Z</time>
      </trkpt>
      <trkpt lat="46.60698" lon="5.55342">
        <ele>521.4</ele>
        <time>2022-12-26T11:55:19Z</time>
      </trkpt>
      <trkpt lat="46.607" lon="5.5534">
        <ele>521.2</ele>
        <time>2022-12-26T11:55:20Z</time>
      </trkpt>
      <trkpt lat="46.60702" lon="5.55339">
        <ele>520.8</ele>
        <time>2022-12-26T11:55:21Z</time>
      </trkpt>
      <trkpt lat="46.60704" lon="5.55338">
        <ele>520.4</ele>
        <time>2022-12-26T11:55:22Z</time>
      </trkpt>
      <trkpt lat="46.60706" lon="5.55336">
        <ele>520.2</ele>
        <time>2022-12-26T11:55:23Z</time>
      </trkpt>
      <trkpt lat="46.60708" lon="5.55334">
        <ele>519.8</ele>
        <time>2022-12-26T11:55:24Z</time>
      </trkpt>
      <trkpt lat="46.60709" lon="5.55331">
        <ele>519.6</ele>
        <time>2022-12-26T11:55:25Z</time>
      </trkpt>
      <trkpt lat="46.60711" lon="5.55329">
        <ele>519.2</ele>
        <time>2022-12-26T11:55:26Z</time>
      </trkpt>
      <trkpt lat="46.60712" lon="5.55327">
        <ele>519</ele>
        <time>2022-12-26T11:55:27Z</time>
      </trkpt>
      <trkpt lat="46.60714" lon="5.55324">
        <ele>518.6</ele>
        <time>2022-12-26T11:55:28Z</time>
      </trkpt>
      <trkpt lat="46.60715" lon="5.55322">
        <ele>518.4</ele>
        <time>2022-12-26T11:55:29Z</time>
      </trkpt>
      <trkpt lat="46.60716" lon="5.55319">
        <ele>518</ele>
        <time>2022-12-26T11:55:30Z</time>
      </trkpt>
      <trkpt lat="46.60717" lon="5.55316">
        <ele>517.8</ele>
        <time>2022-12-26T11:55:31Z</time>
      </trkpt>
      <trkpt lat="46.60718" lon="5.55314">
        <ele>517.4</ele>
        <time>2022-12-26T11:55:32Z</time>
      </trkpt>
      <trkpt lat="46.60718" lon="5.55314">
        <ele>517.2</ele>
        <time>2022-12-26T11:55:33Z</time>
      </trkpt>
      <trkpt lat="46.6072" lon="5.5531">
        <ele>516.8</ele>
        <time>2022-12-26T11:55:34Z</time>
      </trkpt>
      <trkpt lat="46.60721" lon="5.55307">
        <ele>516.4</ele>
        <time>2022-12-26T11:55:35Z</time>
      </trkpt>
      <trkpt lat="46.60722" lon="5.55305">
        <ele>516</ele>
        <time>2022-12-26T11:55:36Z</time>
      </trkpt>
      <trkpt lat="46.60722" lon="5.55302">
        <ele>515.6</ele>
        <time>2022-12-26T11:55:37Z</time>
      </trkpt>
      <trkpt lat="46.60724" lon="5.553">
        <ele>515.2</ele>
        <time>2022-12-26T11:55:38Z</time>
      </trkpt>
      <trkpt lat="46.60725" lon="5.55298">
        <ele>514.8</ele>
        <time>2022-12-26T11:55:39Z</time>
      </trkpt>
      <trkpt lat="46.60727" lon="5.55297">
        <ele>514.6</ele>
        <time>2022-12-26T11:55:40Z</time>
      </trkpt>
      <trkpt lat="46.6073" lon="5.55297">
        <ele>514.2</ele>
        <time>2022-12-26T11:55:41Z</time>
      </trkpt>
      <trkpt lat="46.60732" lon="5.55297">
        <ele>514</ele>
        <time>2022-12-26T11:55:42Z</time>
      </trkpt>
      <trkpt lat="46.60734" lon="5.55297">
        <ele>513.6</ele>
        <time>2022-12-26T11:55:43Z</time>
      </trkpt>
      <trkpt lat="46.60736" lon="5.55298">
        <ele>513.4</ele>
        <time>2022-12-26T11:55:44Z</time>
      </trkpt>
      <trkpt lat="46.60739" lon="5.55299">
        <ele>513</ele>
        <time>2022-12-26T11:55:45Z</time>
      </trkpt>
      <trkpt lat="46.60741" lon="5.553">
        <ele>512.6</ele>
        <time>2022-12-26T11:55:46Z</time>
      </trkpt>
      <trkpt lat="46.60743" lon="5.55302">
        <ele>512.4</ele>
        <time>2022-12-26T11:55:47Z</time>
      </trkpt>
      <trkpt lat="46.60746" lon="5.55304">
        <ele>512</ele>
        <time>2022-12-26T11:55:48Z</time>
      </trkpt>
      <trkpt lat="46.60747" lon="5.55305">
        <ele>511.6</ele>
        <time>2022-12-26T11:55:49Z</time>
      </trkpt>
      <trkpt lat="46.6075" lon="5.55307">
        <ele>511.4</ele>
        <time>2022-12-26T11:55:50Z</time>
      </trkpt>
      <trkpt lat="46.60752" lon="5.55309">
        <ele>511</ele>
        <time>2022-12-26T11:55:51Z</time>
      </trkpt>
      <trkpt lat="46.60754" lon="5.5531">
        <ele>510.8</ele>
        <time>2022-12-26T11:55:52Z</time>
      </trkpt>
      <trkpt lat="46.60756" lon="5.55312">
        <ele>510.4</ele>
        <time>2022-12-26T11:55:53Z</time>
      </trkpt>
      <trkpt lat="46.60758" lon="5.55313">
        <ele>510</ele>
        <time>2022-12-26T11:55:54Z</time>
      </trkpt>
      <trkpt lat="46.6076" lon="5.55315">
        <ele>509.8</ele>
        <time>2022-12-26T11:55:55Z</time>
      </trkpt>
      <trkpt lat="46.60763" lon="5.55317">
        <ele>509.6</ele>
        <time>2022-12-26T11:55:56Z</time>
      </trkpt>
      <trkpt lat="46.60765" lon="5.5532">
        <ele>509.2</ele>
        <time>2022-12-26T11:55:57Z</time>
      </trkpt>
      <trkpt lat="46.60767" lon="5.55323">
        <ele>509</ele>
        <time>2022-12-26T11:55:58Z</time>
      </trkpt>
      <trkpt lat="46.60769" lon="5.55326">
        <ele>508.8</ele>
        <time>2022-12-26T11:55:59Z</time>
      </trkpt>
      <trkpt lat="46.60771" lon="5.55328">
        <ele>508.6</ele>
        <time>2022-12-26T11:56:00Z</time>
      </trkpt>
      <trkpt lat="46.60774" lon="5.55331">
        <ele>508.2</ele>
        <time>2022-12-26T11:56:01Z</time>
      </trkpt>
      <trkpt lat="46.60777" lon="5.55334">
        <ele>508</ele>
        <time>2022-12-26T11:56:02Z</time>
      </trkpt>
      <trkpt lat="46.60779" lon="5.55337">
        <ele>507.6</ele>
        <time>2022-12-26T11:56:03Z</time>
      </trkpt>
      <trkpt lat="46.60782" lon="5.5534">
        <ele>507.4</ele>
        <time>2022-12-26T11:56:04Z</time>
      </trkpt>
      <trkpt lat="46.60785" lon="5.55342">
        <ele>507.2</ele>
        <time>2022-12-26T11:56:05Z</time>
      </trkpt>
      <trkpt lat="46.60787" lon="5.55344">
        <ele>507</ele>
        <time>2022-12-26T11:56:06Z</time>
      </trkpt>
      <trkpt lat="46.60789" lon="5.55347">
        <ele>506.8</ele>
        <time>2022-12-26T11:56:07Z</time>
      </trkpt>
      <trkpt lat="46.60791" lon="5.55349">
        <ele>506.6</ele>
        <time>2022-12-26T11:56:08Z</time>
      </trkpt>
      <trkpt lat="46.60792" lon="5.55352">
        <ele>506.4</ele>
        <time>2022-12-26T11:56:09Z</time>
      </trkpt>
      <trkpt lat="46.60794" lon="5.55354">
        <ele>506.2</ele>
        <time>2022-12-26T11:56:10Z</time>
      </trkpt>
      <trkpt lat="46.60796" lon="5.55356">
        <ele>505.8</ele>
        <time>2022-12-26T11:56:11Z</time>
      </trkpt>
      <trkpt lat="46.60798" lon="5.55358">
        <ele>505.6</ele>
        <time>2022-12-26T11:56:12Z</time>
      </trkpt>
      <trkpt lat="46.608" lon="5.55361">
        <ele>505.2</ele>
        <time>2022-12-26T11:56:13Z</time>
      </trkpt>
      <trkpt lat="46.60803" lon="5.55363">
        <ele>505</ele>
        <time>2022-12-26T11:56:14Z</time>
      </trkpt>
      <trkpt lat="46.60804" lon="5.55366">
        <ele>504.6</ele>
        <time>2022-12-26T11:56:15Z</time>
      </trkpt>
      <trkpt lat="46.60805" lon="5.55369">
        <ele>504.4</ele>
        <time>2022-12-26T11:56:16Z</time>
      </trkpt>
      <trkpt lat="46.60805" lon="5.55369">
        <ele>504</ele>
        <time>2022-12-26T11:56:17Z</time>
      </trkpt>
      <trkpt lat="46.60807" lon="5.55371">
        <ele>503.8</ele>
        <time>2022-12-26T11:56:18Z</time>
      </trkpt>
      <trkpt lat="46.60807" lon="5.55371">
        <ele>503.4</ele>
        <time>2022-12-26T11:56:19Z</time>
      </trkpt>
      <trkpt lat="46.60807" lon="5.55371">
        <ele>503.2</ele>
        <time>2022-12-26T11:56:20Z</time>
      </trkpt>
      <trkpt lat="46.60807" lon="5.55371">
        <ele>502.8</ele>
        <time>2022-12-26T11:56:21Z</time>
      </trkpt>
      <trkpt lat="46.60807" lon="5.55371">
        <ele>502.4</ele>
        <time>2022-12-26T11:56:22Z</time>
      </trkpt>
      <trkpt lat="46.60807" lon="5.55371">
        <ele>502.2</ele>
        <time>2022-12-26T11:56:23Z</time>
      </trkpt>
      <trkpt lat="46.60806" lon="5.55369">
        <ele>501.8</ele>
        <time>2022-12-26T11:56:24Z</time>
      </trkpt>
      <trkpt lat="46.60806" lon="5.55369">
        <ele>501.6</ele>
        <time>2022-12-26T11:56:25Z</time>
      </trkpt>
      <trkpt lat="46.60806" lon="5.55369">
        <ele>501.2</ele>
        <time>2022-12-26T11:56:26Z</time>
      </trkpt>
      <trkpt lat="46.60806" lon="5.55369">
        <ele>501</ele>
        <time>2022-12-26T11:56:27Z</time>
      </trkpt>
      <trkpt lat="46.60806" lon="5.55369">
        <ele>500.8</ele>
        <time>2022-12-26T11:56:28Z</time>
      </trkpt>
      <trkpt lat="46.60806" lon="5.55369">
        <ele>500.4</ele>
        <time>2022-12-26T11:56:29Z</time>
      </trkpt>
      <trkpt lat="46.60806" lon="5.55369">
        <ele>500.2</ele>
        <time>2022-12-26T11:56:30Z</time>
      </trkpt>
      <trkpt lat="46.60806" lon="5.55369">
        <ele>499.8</ele>
        <time>2022-12-26T11:56:31Z</time>
      </trkpt>
      <trkpt lat="46.60806" lon="5.55369">
        <ele>499.6</ele>
        <time>2022-12-26T11:56:32Z</time>
      </trkpt>
      <trkpt lat="46.60806" lon="5.55369">
        <ele>499.4</ele>
        <time>2022-12-26T11:56:33Z</time>
      </trkpt>
      <trkpt lat="46.60806" lon="5.55369">
        <ele>499</ele>
        <time>2022-12-26T11:56:34Z</time>
      </trkpt>
      <trkpt lat="46.60806" lon="5.55369">
        <ele>498.8</ele>
        <time>2022-12-26T11:56:35Z</time>
      </trkpt>
      <trkpt lat="46.60808" lon="5.5537">
        <ele>498.4</ele>
        <time>2022-12-26T11:56:36Z</time>
      </trkpt>
      <trkpt lat="46.60808" lon="5.5537">
        <ele>498.2</ele>
        <time>2022-12-26T11:56:37Z</time>
      </trkpt>
      <trkpt lat="46.60811" lon="5.55373">
        <ele>498</ele>
        <time>2022-12-26T11:56:38Z</time>
      </trkpt>
      <trkpt lat="46.60811" lon="5.55373">
        <ele>497.6</ele>
        <time>2022-12-26T11:56:39Z</time>
      </trkpt>
      <trkpt lat="46.60811" lon="5.55378">
        <ele>497.4</ele>
        <time>2022-12-26T11:56:40Z</time>
      </trkpt>
      <trkpt lat="46.60813" lon="5.55381">
        <ele>497</ele>
        <time>2022-12-26T11:56:41Z</time>
      </trkpt>
      <trkpt lat="46.60814" lon="5.55384">
        <ele>496.8</ele>
        <time>2022-12-26T11:56:42Z</time>
      </trkpt>
      <trkpt lat="46.60816" lon="5.55388">
        <ele>496.4</ele>
        <time>2022-12-26T11:56:43Z</time>
      </trkpt>
      <trkpt lat="46.60817" lon="5.55391">
        <ele>496.2</ele>
        <time>2022-12-26T11:56:44Z</time>
      </trkpt>
      <trkpt lat="46.6082" lon="5.55394">
        <ele>495.8</ele>
        <time>2022-12-26T11:56:45Z</time>
      </trkpt>
      <trkpt lat="46.60821" lon="5.55396">
        <ele>495.4</ele>
        <time>2022-12-26T11:56:46Z</time>
      </trkpt>
      <trkpt lat="46.60824" lon="5.55399">
        <ele>495.2</ele>
        <time>2022-12-26T11:56:47Z</time>
      </trkpt>
      <trkpt lat="46.60824" lon="5.554">
        <ele>494.8</ele>
        <time>2022-12-26T11:56:48Z</time>
      </trkpt>
      <trkpt lat="46.60824" lon="5.554">
        <ele>494.6</ele>
        <time>2022-12-26T11:56:49Z</time>
      </trkpt>
      <trkpt lat="46.60827" lon="5.55403">
        <ele>494.4</ele>
        <time>2022-12-26T11:56:50Z</time>
      </trkpt>
      <trkpt lat="46.60829" lon="5.55404">
        <ele>494.2</ele>
        <time>2022-12-26T11:56:51Z</time>
      </trkpt>
      <trkpt lat="46.60831" lon="5.55405">
        <ele>494</ele>
        <time>2022-12-26T11:56:52Z</time>
      </trkpt>
      <trkpt lat="46.60834" lon="5.55406">
        <ele>493.8</ele>
        <time>2022-12-26T11:56:53Z</time>
      </trkpt>
      <trkpt lat="46.60836" lon="5.55407">
        <ele>493.6</ele>
        <time>2022-12-26T11:56:54Z</time>
      </trkpt>
      <trkpt lat="46.60838" lon="5.55408">
        <ele>493.4</ele>
        <time>2022-12-26T11:56:55Z</time>
      </trkpt>
      <trkpt lat="46.60841" lon="5.55408">
        <ele>493.4</ele>
        <time>2022-12-26T11:56:56Z</time>
      </trkpt>
      <trkpt lat="46.60843" lon="5.55409">
        <ele>493.2</ele>
        <time>2022-12-26T11:56:57Z</time>
      </trkpt>
      <trkpt lat="46.60845" lon="5.55409">
        <ele>493</ele>
        <time>2022-12-26T11:56:58Z</time>
      </trkpt>
      <trkpt lat="46.60848" lon="5.55409">
        <ele>493</ele>
        <time>2022-12-26T11:56:59Z</time>
      </trkpt>
      <trkpt lat="46.6085" lon="5.55409">
        <ele>492.8</ele>
        <time>2022-12-26T11:57:00Z</time>
      </trkpt>
      <trkpt lat="46.60853" lon="5.5541">
        <ele>492.8</ele>
        <time>2022-12-26T11:57:01Z</time>
      </trkpt>
      <trkpt lat="46.60855" lon="5.5541">
        <ele>492.6</ele>
        <time>2022-12-26T11:57:02Z</time>
      </trkpt>
      <trkpt lat="46.60857" lon="5.5541">
        <ele>492.6</ele>
        <time>2022-12-26T11:57:03Z</time>
      </trkpt>
      <trkpt lat="46.6086" lon="5.5541">
        <ele>492.6</ele>
        <time>2022-12-26T11:57:04Z</time>
      </trkpt>
      <trkpt lat="46.60862" lon="5.5541">
        <ele>492.4</ele>
        <time>2022-12-26T11:57:05Z</time>
      </trkpt>
      <trkpt lat="46.60865" lon="5.5541">
        <ele>492.4</ele>
        <time>2022-12-26T11:57:06Z</time>
      </trkpt>
      <trkpt lat="46.60867" lon="5.5541">
        <ele>492.2</ele>
        <time>2022-12-26T11:57:07Z</time>
      </trkpt>
      <trkpt lat="46.6087" lon="5.5541">
        <ele>492</ele>
        <time>2022-12-26T11:57:08Z</time>
      </trkpt>
      <trkpt lat="46.60872" lon="5.55411">
        <ele>491.8</ele>
        <time>2022-12-26T11:57:09Z</time>
      </trkpt>
      <trkpt lat="46.60874" lon="5.55411">
        <ele>491.6</ele>
        <time>2022-12-26T11:57:10Z</time>
      </trkpt>
      <trkpt lat="46.60877" lon="5.55412">
        <ele>491.6</ele>
        <time>2022-12-26T11:57:11Z</time>
      </trkpt>
      <trkpt lat="46.60879" lon="5.55412">
        <ele>491.4</ele>
        <time>2022-12-26T11:57:12Z</time>
      </trkpt>
      <trkpt lat="46.60882" lon="5.55413">
        <ele>491.2</ele>
        <time>2022-12-26T11:57:13Z</time>
      </trkpt>
      <trkpt lat="46.60885" lon="5.55413">
        <ele>491.2</ele>
        <time>2022-12-26T11:57:14Z</time>
      </trkpt>
      <trkpt lat="46.60887" lon="5.55414">
        <ele>491</ele>
        <time>2022-12-26T11:57:15Z</time>
      </trkpt>
      <trkpt lat="46.6089" lon="5.55414">
        <ele>490.8</ele>
        <time>2022-12-26T11:57:16Z</time>
      </trkpt>
      <trkpt lat="46.60892" lon="5.55414">
        <ele>490.8</ele>
        <time>2022-12-26T11:57:17Z</time>
      </trkpt>
      <trkpt lat="46.60895" lon="5.55415">
        <ele>490.6</ele>
        <time>2022-12-26T11:57:18Z</time>
      </trkpt>
      <trkpt lat="46.60897" lon="5.55415">
        <ele>490.6</ele>
        <time>2022-12-26T11:57:19Z</time>
      </trkpt>
      <trkpt lat="46.609" lon="5.55416">
        <ele>490.6</ele>
        <time>2022-12-26T11:57:20Z</time>
      </trkpt>
      <trkpt lat="46.60902" lon="5.55416">
        <ele>490.8</ele>
        <time>2022-12-26T11:57:21Z</time>
      </trkpt>
      <trkpt lat="46.60905" lon="5.55417">
        <ele>490.8</ele>
        <time>2022-12-26T11:57:22Z</time>
      </trkpt>
      <trkpt lat="46.60908" lon="5.55418">
        <ele>490.8</ele>
        <time>2022-12-26T11:57:23Z</time>
      </trkpt>
      <trkpt lat="46.60911" lon="5.55418">
        <ele>490.8</ele>
        <time>2022-12-26T11:57:24Z</time>
      </trkpt>
      <trkpt lat="46.60914" lon="5.55418">
        <ele>490.8</ele>
        <time>2022-12-26T11:57:25Z</time>
      </trkpt>
      <trkpt lat="46.60916" lon="5.55418">
        <ele>490.8</ele>
        <time>2022-12-26T11:57:26Z</time>
      </trkpt>
      <trkpt lat="46.60919" lon="5.55418">
        <ele>490.8</ele>
        <time>2022-12-26T11:57:27Z</time>
      </trkpt>
      <trkpt lat="46.60922" lon="5.55418">
        <ele>490.8</ele>
        <time>2022-12-26T11:57:28Z</time>
      </trkpt>
      <trkpt lat="46.60924" lon="5.55418">
        <ele>490.8</ele>
        <time>2022-12-26T11:57:29Z</time>
      </trkpt>
      <trkpt lat="46.60927" lon="5.55417">
        <ele>490.8</ele>
        <time>2022-12-26T11:57:30Z</time>
      </trkpt>
      <trkpt lat="46.6093" lon="5.55418">
        <ele>491</ele>
        <time>2022-12-26T11:57:31Z</time>
      </trkpt>
      <trkpt lat="46.60933" lon="5.55418">
        <ele>491</ele>
        <time>2022-12-26T11:57:32Z</time>
      </trkpt>
      <trkpt lat="46.60935" lon="5.55418">
        <ele>491</ele>
        <time>2022-12-26T11:57:33Z</time>
      </trkpt>
      <trkpt lat="46.60938" lon="5.55419">
        <ele>491</ele>
        <time>2022-12-26T11:57:34Z</time>
      </trkpt>
      <trkpt lat="46.60941" lon="5.5542">
        <ele>491</ele>
        <time>2022-12-26T11:57:35Z</time>
      </trkpt>
      <trkpt lat="46.60944" lon="5.55421">
        <ele>491.2</ele>
        <time>2022-12-26T11:57:36Z</time>
      </trkpt>
      <trkpt lat="46.60946" lon="5.55422">
        <ele>491.2</ele>
        <time>2022-12-26T11:57:37Z</time>
      </trkpt>
      <trkpt lat="46.60949" lon="5.55422">
        <ele>491.2</ele>
        <time>2022-12-26T11:57:38Z</time>
      </trkpt>
      <trkpt lat="46.60952" lon="5.55423">
        <ele>491.2</ele>
        <time>2022-12-26T11:57:39Z</time>
      </trkpt>
      <trkpt lat="46.60954" lon="5.55424">
        <ele>491.2</ele>
        <time>2022-12-26T11:57:40Z</time>
      </trkpt>
      <trkpt lat="46.60957" lon="5.55425">
        <ele>491.4</ele>
        <time>2022-12-26T11:57:41Z</time>
      </trkpt>
      <trkpt lat="46.60959" lon="5.55425">
        <ele>491.4</ele>
        <time>2022-12-26T11:57:42Z</time>
      </trkpt>
      <trkpt lat="46.60962" lon="5.55426">
        <ele>491.4</ele>
        <time>2022-12-26T11:57:43Z</time>
      </trkpt>
      <trkpt lat="46.60964" lon="5.55427">
        <ele>491.6</ele>
        <time>2022-12-26T11:57:44Z</time>
      </trkpt>
      <trkpt lat="46.60966" lon="5.55428">
        <ele>491.8</ele>
        <time>2022-12-26T11:57:45Z</time>
      </trkpt>
      <trkpt lat="46.60969" lon="5.55429">
        <ele>491.8</ele>
        <time>2022-12-26T11:57:46Z</time>
      </trkpt>
      <trkpt lat="46.60972" lon="5.5543">
        <ele>492</ele>
        <time>2022-12-26T11:57:47Z</time>
      </trkpt>
      <trkpt lat="46.60974" lon="5.5543">
        <ele>492</ele>
        <time>2022-12-26T11:57:48Z</time>
      </trkpt>
      <trkpt lat="46.60977" lon="5.55431">
        <ele>492.2</ele>
        <time>2022-12-26T11:57:49Z</time>
      </trkpt>
      <trkpt lat="46.60979" lon="5.55432">
        <ele>492.2</ele>
        <time>2022-12-26T11:57:50Z</time>
      </trkpt>
      <trkpt lat="46.60981" lon="5.55433">
        <ele>492.4</ele>
        <time>2022-12-26T11:57:51Z</time>
      </trkpt>
      <trkpt lat="46.60984" lon="5.55433">
        <ele>492.4</ele>
        <time>2022-12-26T11:57:52Z</time>
      </trkpt>
      <trkpt lat="46.60987" lon="5.55434">
        <ele>492.6</ele>
        <time>2022-12-26T11:57:53Z</time>
      </trkpt>
      <trkpt lat="46.6099" lon="5.55435">
        <ele>492.8</ele>
        <time>2022-12-26T11:57:54Z</time>
      </trkpt>
      <trkpt lat="46.60993" lon="5.55436">
        <ele>492.8</ele>
        <time>2022-12-26T11:57:55Z</time>
      </trkpt>
      <trkpt lat="46.60996" lon="5.55437">
        <ele>493</ele>
        <time>2022-12-26T11:57:56Z</time>
      </trkpt>
      <trkpt lat="46.60999" lon="5.55439">
        <ele>493</ele>
        <time>2022-12-26T11:57:57Z</time>
      </trkpt>
      <trkpt lat="46.61002" lon="5.5544">
        <ele>493</ele>
        <time>2022-12-26T11:57:58Z</time>
      </trkpt>
      <trkpt lat="46.61004" lon="5.55442">
        <ele>493</ele>
        <time>2022-12-26T11:57:59Z</time>
      </trkpt>
      <trkpt lat="46.61006" lon="5.55444">
        <ele>493</ele>
        <time>2022-12-26T11:58:00Z</time>
      </trkpt>
      <trkpt lat="46.6101" lon="5.55445">
        <ele>493</ele>
        <time>2022-12-26T11:58:01Z</time>
      </trkpt>
      <trkpt lat="46.61013" lon="5.55447">
        <ele>493</ele>
        <time>2022-12-26T11:58:02Z</time>
      </trkpt>
      <trkpt lat="46.61016" lon="5.55448">
        <ele>493</ele>
        <time>2022-12-26T11:58:03Z</time>
      </trkpt>
      <trkpt lat="46.61018" lon="5.55449">
        <ele>493</ele>
        <time>2022-12-26T11:58:04Z</time>
      </trkpt>
      <trkpt lat="46.61021" lon="5.55451">
        <ele>493</ele>
        <time>2022-12-26T11:58:05Z</time>
      </trkpt>
      <trkpt lat="46.61024" lon="5.55452">
        <ele>493</ele>
        <time>2022-12-26T11:58:06Z</time>
      </trkpt>
      <trkpt lat="46.61026" lon="5.55452">
        <ele>493.2</ele>
        <time>2022-12-26T11:58:07Z</time>
      </trkpt>
      <trkpt lat="46.61029" lon="5.55453">
        <ele>493.2</ele>
        <time>2022-12-26T11:58:08Z</time>
      </trkpt>
      <trkpt lat="46.61032" lon="5.55454">
        <ele>493.2</ele>
        <time>2022-12-26T11:58:09Z</time>
      </trkpt>
      <trkpt lat="46.61035" lon="5.55455">
        <ele>493.2</ele>
        <time>2022-12-26T11:58:10Z</time>
      </trkpt>
      <trkpt lat="46.61037" lon="5.55455">
        <ele>493.2</ele>
        <time>2022-12-26T11:58:11Z</time>
      </trkpt>
      <trkpt lat="46.6104" lon="5.55456">
        <ele>493.2</ele>
        <time>2022-12-26T11:58:12Z</time>
      </trkpt>
      <trkpt lat="46.61043" lon="5.55457">
        <ele>493</ele>
        <time>2022-12-26T11:58:13Z</time>
      </trkpt>
      <trkpt lat="46.61045" lon="5.55458">
        <ele>493</ele>
        <time>2022-12-26T11:58:14Z</time>
      </trkpt>
      <trkpt lat="46.61048" lon="5.55458">
        <ele>492.8</ele>
        <time>2022-12-26T11:58:15Z</time>
      </trkpt>
      <trkpt lat="46.61051" lon="5.55458">
        <ele>492.8</ele>
        <time>2022-12-26T11:58:16Z</time>
      </trkpt>
      <trkpt lat="46.61053" lon="5.55459">
        <ele>492.8</ele>
        <time>2022-12-26T11:58:17Z</time>
      </trkpt>
      <trkpt lat="46.61057" lon="5.55459">
        <ele>492.6</ele>
        <time>2022-12-26T11:58:18Z</time>
      </trkpt>
      <trkpt lat="46.61059" lon="5.55459">
        <ele>492.6</ele>
        <time>2022-12-26T11:58:19Z</time>
      </trkpt>
      <trkpt lat="46.61062" lon="5.5546">
        <ele>492.6</ele>
        <time>2022-12-26T11:58:20Z</time>
      </trkpt>
      <trkpt lat="46.61065" lon="5.55459">
        <ele>492.4</ele>
        <time>2022-12-26T11:58:21Z</time>
      </trkpt>
      <trkpt lat="46.61067" lon="5.55459">
        <ele>492.4</ele>
        <time>2022-12-26T11:58:22Z</time>
      </trkpt>
      <trkpt lat="46.6107" lon="5.55459">
        <ele>492.4</ele>
        <time>2022-12-26T11:58:23Z</time>
      </trkpt>
      <trkpt lat="46.61073" lon="5.55459">
        <ele>492.2</ele>
        <time>2022-12-26T11:58:24Z</time>
      </trkpt>
      <trkpt lat="46.61076" lon="5.55459">
        <ele>492.2</ele>
        <time>2022-12-26T11:58:25Z</time>
      </trkpt>
      <trkpt lat="46.61079" lon="5.55459">
        <ele>492.2</ele>
        <time>2022-12-26T11:58:26Z</time>
      </trkpt>
      <trkpt lat="46.61081" lon="5.55459">
        <ele>492</ele>
        <time>2022-12-26T11:58:27Z</time>
      </trkpt>
      <trkpt lat="46.61085" lon="5.55459">
        <ele>492</ele>
        <time>2022-12-26T11:58:28Z</time>
      </trkpt>
      <trkpt lat="46.61087" lon="5.55458">
        <ele>492</ele>
        <time>2022-12-26T11:58:29Z</time>
      </trkpt>
      <trkpt lat="46.61089" lon="5.55458">
        <ele>491.8</ele>
        <time>2022-12-26T11:58:30Z</time>
      </trkpt>
      <trkpt lat="46.61093" lon="5.55458">
        <ele>491.8</ele>
        <time>2022-12-26T11:58:31Z</time>
      </trkpt>
      <trkpt lat="46.61095" lon="5.55458">
        <ele>491.8</ele>
        <time>2022-12-26T11:58:32Z</time>
      </trkpt>
      <trkpt lat="46.61099" lon="5.55458">
        <ele>491.8</ele>
        <time>2022-12-26T11:58:33Z</time>
      </trkpt>
      <trkpt lat="46.61101" lon="5.55458">
        <ele>491.6</ele>
        <time>2022-12-26T11:58:34Z</time>
      </trkpt>
      <trkpt lat="46.61103" lon="5.55458">
        <ele>491.6</ele>
        <time>2022-12-26T11:58:35Z</time>
      </trkpt>
      <trkpt lat="46.61107" lon="5.55459">
        <ele>491.6</ele>
        <time>2022-12-26T11:58:36Z</time>
      </trkpt>
      <trkpt lat="46.61109" lon="5.55459">
        <ele>491.6</ele>
        <time>2022-12-26T11:58:37Z</time>
      </trkpt>
      <trkpt lat="46.61113" lon="5.55459">
        <ele>491.6</ele>
        <time>2022-12-26T11:58:38Z</time>
      </trkpt>
      <trkpt lat="46.61116" lon="5.55459">
        <ele>491.6</ele>
        <time>2022-12-26T11:58:39Z</time>
      </trkpt>
      <trkpt lat="46.61118" lon="5.55459">
        <ele>491.4</ele>
        <time>2022-12-26T11:58:40Z</time>
      </trkpt>
      <trkpt lat="46.61121" lon="5.55459">
        <ele>491.4</ele>
        <time>2022-12-26T11:58:41Z</time>
      </trkpt>
      <trkpt lat="46.61124" lon="5.55459">
        <ele>491.4</ele>
        <time>2022-12-26T11:58:42Z</time>
      </trkpt>
      <trkpt lat="46.61127" lon="5.55459">
        <ele>491.4</ele>
        <time>2022-12-26T11:58:43Z</time>
      </trkpt>
      <trkpt lat="46.61129" lon="5.55459">
        <ele>491.4</ele>
        <time>2022-12-26T11:58:44Z</time>
      </trkpt>
      <trkpt lat="46.61132" lon="5.55459">
        <ele>491.4</ele>
        <time>2022-12-26T11:58:45Z</time>
      </trkpt>
      <trkpt lat="46.61134" lon="5.55458">
        <ele>491.6</ele>
        <time>2022-12-26T11:58:46Z</time>
      </trkpt>
      <trkpt lat="46.61137" lon="5.55458">
        <ele>491.6</ele>
        <time>2022-12-26T11:58:47Z</time>
      </trkpt>
      <trkpt lat="46.61139" lon="5.55458">
        <ele>491.6</ele>
        <time>2022-12-26T11:58:48Z</time>
      </trkpt>
      <trkpt lat="46.61142" lon="5.55458">
        <ele>491.8</ele>
        <time>2022-12-26T11:58:49Z</time>
      </trkpt>
      <trkpt lat="46.61145" lon="5.55457">
        <ele>491.8</ele>
        <time>2022-12-26T11:58:50Z</time>
      </trkpt>
      <trkpt lat="46.61148" lon="5.55458">
        <ele>491.8</ele>
        <time>2022-12-26T11:58:51Z</time>
      </trkpt>
      <trkpt lat="46.6115" lon="5.55458">
        <ele>491.8</ele>
        <time>2022-12-26T11:58:52Z</time>
      </trkpt>
      <trkpt lat="46.61153" lon="5.55458">
        <ele>491.8</ele>
        <time>2022-12-26T11:58:53Z</time>
      </trkpt>
      <trkpt lat="46.61156" lon="5.55459">
        <ele>491.8</ele>
        <time>2022-12-26T11:58:54Z</time>
      </trkpt>
      <trkpt lat="46.61158" lon="5.55459">
        <ele>491.8</ele>
        <time>2022-12-26T11:58:55Z</time>
      </trkpt>
      <trkpt lat="46.61161" lon="5.55459">
        <ele>492</ele>
        <time>2022-12-26T11:58:56Z</time>
      </trkpt>
      <trkpt lat="46.61164" lon="5.55458">
        <ele>492</ele>
        <time>2022-12-26T11:58:57Z</time>
      </trkpt>
      <trkpt lat="46.61166" lon="5.55457">
        <ele>492</ele>
        <time>2022-12-26T11:58:58Z</time>
      </trkpt>
      <trkpt lat="46.61169" lon="5.55457">
        <ele>492</ele>
        <time>2022-12-26T11:58:59Z</time>
      </trkpt>
      <trkpt lat="46.61172" lon="5.55456">
        <ele>492</ele>
        <time>2022-12-26T11:59:00Z</time>
      </trkpt>
      <trkpt lat="46.61175" lon="5.55455">
        <ele>492</ele>
        <time>2022-12-26T11:59:01Z</time>
      </trkpt>
      <trkpt lat="46.61178" lon="5.55454">
        <ele>492</ele>
        <time>2022-12-26T11:59:02Z</time>
      </trkpt>
      <trkpt lat="46.61181" lon="5.55454">
        <ele>492</ele>
        <time>2022-12-26T11:59:03Z</time>
      </trkpt>
      <trkpt lat="46.61183" lon="5.55454">
        <ele>492</ele>
        <time>2022-12-26T11:59:04Z</time>
      </trkpt>
      <trkpt lat="46.61186" lon="5.55454">
        <ele>492.2</ele>
        <time>2022-12-26T11:59:05Z</time>
      </trkpt>
      <trkpt lat="46.61189" lon="5.55453">
        <ele>492.2</ele>
        <time>2022-12-26T11:59:06Z</time>
      </trkpt>
      <trkpt lat="46.61192" lon="5.55453">
        <ele>492.2</ele>
        <time>2022-12-26T11:59:07Z</time>
      </trkpt>
      <trkpt lat="46.61195" lon="5.55453">
        <ele>492.2</ele>
        <time>2022-12-26T11:59:08Z</time>
      </trkpt>
      <trkpt lat="46.61198" lon="5.55453">
        <ele>492.2</ele>
        <time>2022-12-26T11:59:09Z</time>
      </trkpt>
      <trkpt lat="46.61201" lon="5.55453">
        <ele>492.2</ele>
        <time>2022-12-26T11:59:10Z</time>
      </trkpt>
      <trkpt lat="46.61204" lon="5.55453">
        <ele>492.2</ele>
        <time>2022-12-26T11:59:11Z</time>
      </trkpt>
      <trkpt lat="46.61206" lon="5.55452">
        <ele>492.2</ele>
        <time>2022-12-26T11:59:12Z</time>
      </trkpt>
      <trkpt lat="46.61208" lon="5.5545">
        <ele>492</ele>
        <time>2022-12-26T11:59:13Z</time>
      </trkpt>
      <trkpt lat="46.6121" lon="5.55449">
        <ele>492</ele>
        <time>2022-12-26T11:59:14Z</time>
      </trkpt>
      <trkpt lat="46.61212" lon="5.55448">
        <ele>492</ele>
        <time>2022-12-26T11:59:15Z</time>
      </trkpt>
      <trkpt lat="46.61214" lon="5.55447">
        <ele>492.2</ele>
        <time>2022-12-26T11:59:16Z</time>
      </trkpt>
      <trkpt lat="46.61216" lon="5.55446">
        <ele>492.2</ele>
        <time>2022-12-26T11:59:17Z</time>
      </trkpt>
      <trkpt lat="46.61218" lon="5.55445">
        <ele>492.2</ele>
        <time>2022-12-26T11:59:18Z</time>
      </trkpt>
      <trkpt lat="46.6122" lon="5.55444">
        <ele>492.4</ele>
        <time>2022-12-26T11:59:19Z</time>
      </trkpt>
      <trkpt lat="46.61222" lon="5.55442">
        <ele>492.4</ele>
        <time>2022-12-26T11:59:20Z</time>
      </trkpt>
      <trkpt lat="46.61224" lon="5.55441">
        <ele>492.6</ele>
        <time>2022-12-26T11:59:21Z</time>
      </trkpt>
      <trkpt lat="46.61227" lon="5.5544">
        <ele>492.6</ele>
        <time>2022-12-26T11:59:22Z</time>
      </trkpt>
      <trkpt lat="46.61229" lon="5.55439">
        <ele>492.6</ele>
        <time>2022-12-26T11:59:23Z</time>
      </trkpt>
      <trkpt lat="46.61231" lon="5.55438">
        <ele>492.8</ele>
        <time>2022-12-26T11:59:24Z</time>
      </trkpt>
      <trkpt lat="46.61234" lon="5.55437">
        <ele>492.8</ele>
        <time>2022-12-26T11:59:25Z</time>
      </trkpt>
      <trkpt lat="46.61236" lon="5.55435">
        <ele>492.8</ele>
        <time>2022-12-26T11:59:26Z</time>
      </trkpt>
      <trkpt lat="46.61238" lon="5.55434">
        <ele>493</ele>
        <time>2022-12-26T11:59:27Z</time>
      </trkpt>
      <trkpt lat="46.61241" lon="5.55432">
        <ele>493</ele>
        <time>2022-12-26T11:59:28Z</time>
      </trkpt>
      <trkpt lat="46.61243" lon="5.55431">
        <ele>493.2</ele>
        <time>2022-12-26T11:59:29Z</time>
      </trkpt>
      <trkpt lat="46.61246" lon="5.5543">
        <ele>493.2</ele>
        <time>2022-12-26T11:59:30Z</time>
      </trkpt>
      <trkpt lat="46.61249" lon="5.55429">
        <ele>493.4</ele>
        <time>2022-12-26T11:59:31Z</time>
      </trkpt>
      <trkpt lat="46.61252" lon="5.55429">
        <ele>493.4</ele>
        <time>2022-12-26T11:59:32Z</time>
      </trkpt>
      <trkpt lat="46.61255" lon="5.55428">
        <ele>493.6</ele>
        <time>2022-12-26T11:59:33Z</time>
      </trkpt>
      <trkpt lat="46.61258" lon="5.55428">
        <ele>493.6</ele>
        <time>2022-12-26T11:59:34Z</time>
      </trkpt>
      <trkpt lat="46.61261" lon="5.55427">
        <ele>493.6</ele>
        <time>2022-12-26T11:59:35Z</time>
      </trkpt>
      <trkpt lat="46.61264" lon="5.55426">
        <ele>493.8</ele>
        <time>2022-12-26T11:59:36Z</time>
      </trkpt>
      <trkpt lat="46.61267" lon="5.55425">
        <ele>493.8</ele>
        <time>2022-12-26T11:59:37Z</time>
      </trkpt>
      <trkpt lat="46.6127" lon="5.55424">
        <ele>493.8</ele>
        <time>2022-12-26T11:59:38Z</time>
      </trkpt>
      <trkpt lat="46.61273" lon="5.55424">
        <ele>493.8</ele>
        <time>2022-12-26T11:59:39Z</time>
      </trkpt>
      <trkpt lat="46.61276" lon="5.55424">
        <ele>493.8</ele>
        <time>2022-12-26T11:59:40Z</time>
      </trkpt>
      <trkpt lat="46.61279" lon="5.55424">
        <ele>493.8</ele>
        <time>2022-12-26T11:59:41Z</time>
      </trkpt>
      <trkpt lat="46.61282" lon="5.55423">
        <ele>493.8</ele>
        <time>2022-12-26T11:59:42Z</time>
      </trkpt>
      <trkpt lat="46.61286" lon="5.55422">
        <ele>493.8</ele>
        <time>2022-12-26T11:59:43Z</time>
      </trkpt>
      <trkpt lat="46.61289" lon="5.55421">
        <ele>493.8</ele>
        <time>2022-12-26T11:59:44Z</time>
      </trkpt>
      <trkpt lat="46.61292" lon="5.55419">
        <ele>493.6</ele>
        <time>2022-12-26T11:59:45Z</time>
      </trkpt>
      <trkpt lat="46.61295" lon="5.55418">
        <ele>493.6</ele>
        <time>2022-12-26T11:59:46Z</time>
      </trkpt>
      <trkpt lat="46.61298" lon="5.55417">
        <ele>493.6</ele>
        <time>2022-12-26T11:59:47Z</time>
      </trkpt>
      <trkpt lat="46.61301" lon="5.55417">
        <ele>493.4</ele>
        <time>2022-12-26T11:59:48Z</time>
      </trkpt>
      <trkpt lat="46.61304" lon="5.55416">
        <ele>493.4</ele>
        <time>2022-12-26T11:59:49Z</time>
      </trkpt>
      <trkpt lat="46.61307" lon="5.55415">
        <ele>493.2</ele>
        <time>2022-12-26T11:59:50Z</time>
      </trkpt>
      <trkpt lat="46.6131" lon="5.55414">
        <ele>493.2</ele>
        <time>2022-12-26T11:59:51Z</time>
      </trkpt>
      <trkpt lat="46.61313" lon="5.55413">
        <ele>493</ele>
        <time>2022-12-26T11:59:52Z</time>
      </trkpt>
      <trkpt lat="46.61316" lon="5.55412">
        <ele>493</ele>
        <time>2022-12-26T11:59:53Z</time>
      </trkpt>
      <trkpt lat="46.61319" lon="5.55411">
        <ele>493</ele>
        <time>2022-12-26T11:59:54Z</time>
      </trkpt>
      <trkpt lat="46.61321" lon="5.55409">
        <ele>493</ele>
        <time>2022-12-26T11:59:55Z</time>
      </trkpt>
      <trkpt lat="46.61324" lon="5.55408">
        <ele>493</ele>
        <time>2022-12-26T11:59:56Z</time>
      </trkpt>
      <trkpt lat="46.61327" lon="5.55407">
        <ele>493</ele>
        <time>2022-12-26T11:59:57Z</time>
      </trkpt>
      <trkpt lat="46.61329" lon="5.55405">
        <ele>492.8</ele>
        <time>2022-12-26T11:59:58Z</time>
      </trkpt>
      <trkpt lat="46.61333" lon="5.55405">
        <ele>492.8</ele>
        <time>2022-12-26T11:59:59Z</time>
      </trkpt>
      <trkpt lat="46.61337" lon="5.55404">
        <ele>492.8</ele>
        <time>2022-12-26T12:00:00Z</time>
      </trkpt>
      <trkpt lat="46.61338" lon="5.55403">
        <ele>492.8</ele>
        <time>2022-12-26T12:00:01Z</time>
      </trkpt>
      <trkpt lat="46.61341" lon="5.55403">
        <ele>492.8</ele>
        <time>2022-12-26T12:00:02Z</time>
      </trkpt>
      <trkpt lat="46.61343" lon="5.55403">
        <ele>492.6</ele>
        <time>2022-12-26T12:00:03Z</time>
      </trkpt>
      <trkpt lat="46.61347" lon="5.55402">
        <ele>492.6</ele>
        <time>2022-12-26T12:00:04Z</time>
      </trkpt>
      <trkpt lat="46.61349" lon="5.55401">
        <ele>492.6</ele>
        <time>2022-12-26T12:00:05Z</time>
      </trkpt>
      <trkpt lat="46.61352" lon="5.554">
        <ele>492.6</ele>
        <time>2022-12-26T12:00:06Z</time>
      </trkpt>
      <trkpt lat="46.61354" lon="5.55399">
        <ele>492.6</ele>
        <time>2022-12-26T12:00:07Z</time>
      </trkpt>
      <trkpt lat="46.61357" lon="5.55398">
        <ele>492.6</ele>
        <time>2022-12-26T12:00:08Z</time>
      </trkpt>
      <trkpt lat="46.6136" lon="5.55397">
        <ele>492.6</ele>
        <time>2022-12-26T12:00:09Z</time>
      </trkpt>
      <trkpt lat="46.61363" lon="5.55396">
        <ele>492.6</ele>
        <time>2022-12-26T12:00:10Z</time>
      </trkpt>
      <trkpt lat="46.61365" lon="5.55395">
        <ele>492.4</ele>
        <time>2022-12-26T12:00:11Z</time>
      </trkpt>
      <trkpt lat="46.61368" lon="5.55394">
        <ele>492.4</ele>
        <time>2022-12-26T12:00:12Z</time>
      </trkpt>
      <trkpt lat="46.61371" lon="5.55392">
        <ele>492.4</ele>
        <time>2022-12-26T12:00:13Z</time>
      </trkpt>
      <trkpt lat="46.61373" lon="5.55391">
        <ele>492.4</ele>
        <time>2022-12-26T12:00:14Z</time>
      </trkpt>
      <trkpt lat="46.61377" lon="5.5539">
        <ele>492.4</ele>
        <time>2022-12-26T12:00:15Z</time>
      </trkpt>
      <trkpt lat="46.61379" lon="5.55389">
        <ele>492.4</ele>
        <time>2022-12-26T12:00:16Z</time>
      </trkpt>
      <trkpt lat="46.61382" lon="5.55388">
        <ele>492.4</ele>
        <time>2022-12-26T12:00:17Z</time>
      </trkpt>
      <trkpt lat="46.61385" lon="5.55387">
        <ele>492.4</ele>
        <time>2022-12-26T12:00:18Z</time>
      </trkpt>
      <trkpt lat="46.61388" lon="5.55387">
        <ele>492.4</ele>
        <time>2022-12-26T12:00:19Z</time>
      </trkpt>
      <trkpt lat="46.61391" lon="5.55386">
        <ele>492.4</ele>
        <time>2022-12-26T12:00:20Z</time>
      </trkpt>
      <trkpt lat="46.61394" lon="5.55386">
        <ele>492.4</ele>
        <time>2022-12-26T12:00:21Z</time>
      </trkpt>
      <trkpt lat="46.61397" lon="5.55385">
        <ele>492.4</ele>
        <time>2022-12-26T12:00:22Z</time>
      </trkpt>
      <trkpt lat="46.61399" lon="5.55384">
        <ele>492.4</ele>
        <time>2022-12-26T12:00:23Z</time>
      </trkpt>
      <trkpt lat="46.61403" lon="5.55383">
        <ele>492.6</ele>
        <time>2022-12-26T12:00:24Z</time>
      </trkpt>
      <trkpt lat="46.61405" lon="5.55383">
        <ele>492.6</ele>
        <time>2022-12-26T12:00:25Z</time>
      </trkpt>
      <trkpt lat="46.61408" lon="5.55382">
        <ele>492.6</ele>
        <time>2022-12-26T12:00:26Z</time>
      </trkpt>
      <trkpt lat="46.61411" lon="5.55381">
        <ele>492.8</ele>
        <time>2022-12-26T12:00:27Z</time>
      </trkpt>
      <trkpt lat="46.61414" lon="5.5538">
        <ele>492.8</ele>
        <time>2022-12-26T12:00:28Z</time>
      </trkpt>
      <trkpt lat="46.61419" lon="5.55379">
        <ele>492.8</ele>
        <time>2022-12-26T12:00:29Z</time>
      </trkpt>
      <trkpt lat="46.6142" lon="5.55379">
        <ele>493</ele>
        <time>2022-12-26T12:00:30Z</time>
      </trkpt>
      <trkpt lat="46.61423" lon="5.55379">
        <ele>493</ele>
        <time>2022-12-26T12:00:31Z</time>
      </trkpt>
      <trkpt lat="46.61426" lon="5.55379">
        <ele>493</ele>
        <time>2022-12-26T12:00:32Z</time>
      </trkpt>
      <trkpt lat="46.61429" lon="5.55379">
        <ele>493</ele>
        <time>2022-12-26T12:00:33Z</time>
      </trkpt>
      <trkpt lat="46.61431" lon="5.55379">
        <ele>493</ele>
        <time>2022-12-26T12:00:34Z</time>
      </trkpt>
      <trkpt lat="46.61434" lon="5.5538">
        <ele>493.2</ele>
        <time>2022-12-26T12:00:35Z</time>
      </trkpt>
      <trkpt lat="46.61438" lon="5.55381">
        <ele>493.2</ele>
        <time>2022-12-26T12:00:36Z</time>
      </trkpt>
      <trkpt lat="46.61442" lon="5.55382">
        <ele>493.2</ele>
        <time>2022-12-26T12:00:37Z</time>
      </trkpt>
      <trkpt lat="46.61444" lon="5.55382">
        <ele>493.4</ele>
        <time>2022-12-26T12:00:38Z</time>
      </trkpt>
      <trkpt lat="46.61447" lon="5.55383">
        <ele>493.2</ele>
        <time>2022-12-26T12:00:39Z</time>
      </trkpt>
      <trkpt lat="46.6145" lon="5.55385">
        <ele>493.2</ele>
        <time>2022-12-26T12:00:40Z</time>
      </trkpt>
      <trkpt lat="46.61453" lon="5.55386">
        <ele>493</ele>
        <time>2022-12-26T12:00:41Z</time>
      </trkpt>
      <trkpt lat="46.61456" lon="5.55388">
        <ele>493</ele>
        <time>2022-12-26T12:00:42Z</time>
      </trkpt>
      <trkpt lat="46.61459" lon="5.5539">
        <ele>493</ele>
        <time>2022-12-26T12:00:43Z</time>
      </trkpt>
      <trkpt lat="46.61462" lon="5.55392">
        <ele>493</ele>
        <time>2022-12-26T12:00:44Z</time>
      </trkpt>
      <trkpt lat="46.61464" lon="5.55394">
        <ele>493</ele>
        <time>2022-12-26T12:00:45Z</time>
      </trkpt>
      <trkpt lat="46.61467" lon="5.55396">
        <ele>492.8</ele>
        <time>2022-12-26T12:00:46Z</time>
      </trkpt>
      <trkpt lat="46.6147" lon="5.55398">
        <ele>492.8</ele>
        <time>2022-12-26T12:00:47Z</time>
      </trkpt>
      <trkpt lat="46.61472" lon="5.554">
        <ele>492.8</ele>
        <time>2022-12-26T12:00:48Z</time>
      </trkpt>
      <trkpt lat="46.61475" lon="5.55402">
        <ele>492.8</ele>
        <time>2022-12-26T12:00:49Z</time>
      </trkpt>
      <trkpt lat="46.61478" lon="5.55404">
        <ele>492.8</ele>
        <time>2022-12-26T12:00:50Z</time>
      </trkpt>
      <trkpt lat="46.61481" lon="5.55405">
        <ele>492.8</ele>
        <time>2022-12-26T12:00:51Z</time>
      </trkpt>
      <trkpt lat="46.61484" lon="5.55406">
        <ele>492.8</ele>
        <time>2022-12-26T12:00:52Z</time>
      </trkpt>
      <trkpt lat="46.61486" lon="5.55407">
        <ele>492.8</ele>
        <time>2022-12-26T12:00:53Z</time>
      </trkpt>
      <trkpt lat="46.6149" lon="5.55407">
        <ele>492.8</ele>
        <time>2022-12-26T12:00:54Z</time>
      </trkpt>
      <trkpt lat="46.61492" lon="5.55407">
        <ele>492.8</ele>
        <time>2022-12-26T12:00:55Z</time>
      </trkpt>
      <trkpt lat="46.61495" lon="5.55407">
        <ele>492.8</ele>
        <time>2022-12-26T12:00:56Z</time>
      </trkpt>
      <trkpt lat="46.61497" lon="5.55409">
        <ele>493</ele>
        <time>2022-12-26T12:00:57Z</time>
      </trkpt>
      <trkpt lat="46.61499" lon="5.55411">
        <ele>493</ele>
        <time>2022-12-26T12:00:58Z</time>
      </trkpt>
      <trkpt lat="46.61502" lon="5.55412">
        <ele>493</ele>
        <time>2022-12-26T12:00:59Z</time>
      </trkpt>
      <trkpt lat="46.61504" lon="5.55413">
        <ele>493</ele>
        <time>2022-12-26T12:01:00Z</time>
      </trkpt>
      <trkpt lat="46.61508" lon="5.55413">
        <ele>493</ele>
        <time>2022-12-26T12:01:01Z</time>
      </trkpt>
      <trkpt lat="46.61511" lon="5.55414">
        <ele>493</ele>
        <time>2022-12-26T12:01:02Z</time>
      </trkpt>
      <trkpt lat="46.61514" lon="5.55414">
        <ele>493</ele>
        <time>2022-12-26T12:01:03Z</time>
      </trkpt>
      <trkpt lat="46.61517" lon="5.55415">
        <ele>493</ele>
        <time>2022-12-26T12:01:04Z</time>
      </trkpt>
      <trkpt lat="46.6152" lon="5.55415">
        <ele>493</ele>
        <time>2022-12-26T12:01:05Z</time>
      </trkpt>
      <trkpt lat="46.61524" lon="5.55416">
        <ele>493</ele>
        <time>2022-12-26T12:01:06Z</time>
      </trkpt>
      <trkpt lat="46.61526" lon="5.55417">
        <ele>493</ele>
        <time>2022-12-26T12:01:07Z</time>
      </trkpt>
      <trkpt lat="46.61529" lon="5.55417">
        <ele>492.8</ele>
        <time>2022-12-26T12:01:08Z</time>
      </trkpt>
      <trkpt lat="46.61532" lon="5.55417">
        <ele>492.8</ele>
        <time>2022-12-26T12:01:09Z</time>
      </trkpt>
      <trkpt lat="46.61534" lon="5.55417">
        <ele>492.8</ele>
        <time>2022-12-26T12:01:10Z</time>
      </trkpt>
      <trkpt lat="46.61538" lon="5.55417">
        <ele>492.8</ele>
        <time>2022-12-26T12:01:11Z</time>
      </trkpt>
      <trkpt lat="46.6154" lon="5.55417">
        <ele>492.8</ele>
        <time>2022-12-26T12:01:12Z</time>
      </trkpt>
      <trkpt lat="46.61543" lon="5.55417">
        <ele>492.8</ele>
        <time>2022-12-26T12:01:13Z</time>
      </trkpt>
      <trkpt lat="46.61546" lon="5.55417">
        <ele>492.8</ele>
        <time>2022-12-26T12:01:14Z</time>
      </trkpt>
      <trkpt lat="46.61549" lon="5.55417">
        <ele>492.8</ele>
        <time>2022-12-26T12:01:15Z</time>
      </trkpt>
      <trkpt lat="46.61552" lon="5.55417">
        <ele>492.8</ele>
        <time>2022-12-26T12:01:16Z</time>
      </trkpt>
      <trkpt lat="46.61554" lon="5.55417">
        <ele>492.6</ele>
        <time>2022-12-26T12:01:17Z</time>
      </trkpt>
      <trkpt lat="46.61557" lon="5.55417">
        <ele>492.6</ele>
        <time>2022-12-26T12:01:18Z</time>
      </trkpt>
      <trkpt lat="46.6156" lon="5.55417">
        <ele>492.6</ele>
        <time>2022-12-26T12:01:19Z</time>
      </trkpt>
      <trkpt lat="46.61562" lon="5.55417">
        <ele>492.6</ele>
        <time>2022-12-26T12:01:20Z</time>
      </trkpt>
      <trkpt lat="46.61564" lon="5.55417">
        <ele>492.6</ele>
        <time>2022-12-26T12:01:21Z</time>
      </trkpt>
      <trkpt lat="46.61566" lon="5.55418">
        <ele>492.6</ele>
        <time>2022-12-26T12:01:22Z</time>
      </trkpt>
      <trkpt lat="46.61568" lon="5.55419">
        <ele>492.6</ele>
        <time>2022-12-26T12:01:23Z</time>
      </trkpt>
      <trkpt lat="46.61568" lon="5.55419">
        <ele>492.6</ele>
        <time>2022-12-26T12:01:24Z</time>
      </trkpt>
      <trkpt lat="46.61572" lon="5.5542">
        <ele>492.6</ele>
        <time>2022-12-26T12:01:25Z</time>
      </trkpt>
      <trkpt lat="46.61572" lon="5.5542">
        <ele>492.6</ele>
        <time>2022-12-26T12:01:26Z</time>
      </trkpt>
      <trkpt lat="46.61574" lon="5.5542">
        <ele>492.6</ele>
        <time>2022-12-26T12:01:27Z</time>
      </trkpt>
      <trkpt lat="46.61574" lon="5.5542">
        <ele>492.6</ele>
        <time>2022-12-26T12:01:28Z</time>
      </trkpt>
      <trkpt lat="46.61577" lon="5.5542">
        <ele>492.6</ele>
        <time>2022-12-26T12:01:29Z</time>
      </trkpt>
      <trkpt lat="46.61577" lon="5.5542">
        <ele>492.6</ele>
        <time>2022-12-26T12:01:30Z</time>
      </trkpt>
      <trkpt lat="46.6158" lon="5.5542">
        <ele>492.8</ele>
        <time>2022-12-26T12:01:31Z</time>
      </trkpt>
      <trkpt lat="46.6158" lon="5.5542">
        <ele>492.8</ele>
        <time>2022-12-26T12:01:32Z</time>
      </trkpt>
      <trkpt lat="46.61582" lon="5.5542">
        <ele>492.8</ele>
        <time>2022-12-26T12:01:33Z</time>
      </trkpt>
      <trkpt lat="46.61582" lon="5.5542">
        <ele>493</ele>
        <time>2022-12-26T12:01:34Z</time>
      </trkpt>
      <trkpt lat="46.61584" lon="5.55419">
        <ele>493</ele>
        <time>2022-12-26T12:01:35Z</time>
      </trkpt>
      <trkpt lat="46.61584" lon="5.55419">
        <ele>493.2</ele>
        <time>2022-12-26T12:01:36Z</time>
      </trkpt>
      <trkpt lat="46.61587" lon="5.55419">
        <ele>493.2</ele>
        <time>2022-12-26T12:01:37Z</time>
      </trkpt>
      <trkpt lat="46.61587" lon="5.55419">
        <ele>493.2</ele>
        <time>2022-12-26T12:01:38Z</time>
      </trkpt>
      <trkpt lat="46.6159" lon="5.55418">
        <ele>493.4</ele>
        <time>2022-12-26T12:01:39Z</time>
      </trkpt>
      <trkpt lat="46.6159" lon="5.55418">
        <ele>493.4</ele>
        <time>2022-12-26T12:01:40Z</time>
      </trkpt>
      <trkpt lat="46.61593" lon="5.55417">
        <ele>493.6</ele>
        <time>2022-12-26T12:01:41Z</time>
      </trkpt>
      <trkpt lat="46.61593" lon="5.55417">
        <ele>493.8</ele>
        <time>2022-12-26T12:01:42Z</time>
      </trkpt>
      <trkpt lat="46.61596" lon="5.55417">
        <ele>493.8</ele>
        <time>2022-12-26T12:01:43Z</time>
      </trkpt>
      <trkpt lat="46.61596" lon="5.55417">
        <ele>494</ele>
        <time>2022-12-26T12:01:44Z</time>
      </trkpt>
      <trkpt lat="46.61598" lon="5.55416">
        <ele>494</ele>
        <time>2022-12-26T12:01:45Z</time>
      </trkpt>
      <trkpt lat="46.61598" lon="5.55416">
        <ele>494</ele>
        <time>2022-12-26T12:01:46Z</time>
      </trkpt>
      <trkpt lat="46.61601" lon="5.55414">
        <ele>494</ele>
        <time>2022-12-26T12:01:47Z</time>
      </trkpt>
      <trkpt lat="46.61601" lon="5.55414">
        <ele>494</ele>
        <time>2022-12-26T12:01:48Z</time>
      </trkpt>
      <trkpt lat="46.61603" lon="5.55413">
        <ele>494.2</ele>
        <time>2022-12-26T12:01:49Z</time>
      </trkpt>
      <trkpt lat="46.61603" lon="5.55413">
        <ele>494.2</ele>
        <time>2022-12-26T12:01:50Z</time>
      </trkpt>
      <trkpt lat="46.61606" lon="5.55411">
        <ele>494.2</ele>
        <time>2022-12-26T12:01:51Z</time>
      </trkpt>
      <trkpt lat="46.61606" lon="5.55411">
        <ele>494.2</ele>
        <time>2022-12-26T12:01:52Z</time>
      </trkpt>
      <trkpt lat="46.61609" lon="5.5541">
        <ele>494.2</ele>
        <time>2022-12-26T12:01:53Z</time>
      </trkpt>
      <trkpt lat="46.61611" lon="5.5541">
        <ele>494.2</ele>
        <time>2022-12-26T12:01:54Z</time>
      </trkpt>
      <trkpt lat="46.61611" lon="5.5541">
        <ele>494.2</ele>
        <time>2022-12-26T12:01:55Z</time>
      </trkpt>
      <trkpt lat="46.61614" lon="5.55409">
        <ele>494.2</ele>
        <time>2022-12-26T12:01:56Z</time>
      </trkpt>
      <trkpt lat="46.61614" lon="5.55409">
        <ele>494.2</ele>
        <time>2022-12-26T12:01:57Z</time>
      </trkpt>
      <trkpt lat="46.61617" lon="5.55409">
        <ele>494</ele>
        <time>2022-12-26T12:01:58Z</time>
      </trkpt>
      <trkpt lat="46.61617" lon="5.55409">
        <ele>494</ele>
        <time>2022-12-26T12:01:59Z</time>
      </trkpt>
      <trkpt lat="46.6162" lon="5.55409">
        <ele>494</ele>
        <time>2022-12-26T12:02:00Z</time>
      </trkpt>
      <trkpt lat="46.6162" lon="5.55409">
        <ele>494</ele>
        <time>2022-12-26T12:02:01Z</time>
      </trkpt>
      <trkpt lat="46.61623" lon="5.5541">
        <ele>494</ele>
        <time>2022-12-26T12:02:02Z</time>
      </trkpt>
      <trkpt lat="46.61623" lon="5.5541">
        <ele>494</ele>
        <time>2022-12-26T12:02:03Z</time>
      </trkpt>
      <trkpt lat="46.61625" lon="5.55411">
        <ele>494</ele>
        <time>2022-12-26T12:02:04Z</time>
      </trkpt>
      <trkpt lat="46.61625" lon="5.55411">
        <ele>494</ele>
        <time>2022-12-26T12:02:05Z</time>
      </trkpt>
      <trkpt lat="46.61628" lon="5.55412">
        <ele>494</ele>
        <time>2022-12-26T12:02:06Z</time>
      </trkpt>
      <trkpt lat="46.61628" lon="5.55412">
        <ele>494</ele>
        <time>2022-12-26T12:02:07Z</time>
      </trkpt>
      <trkpt lat="46.6163" lon="5.55413">
        <ele>494</ele>
        <time>2022-12-26T12:02:08Z</time>
      </trkpt>
      <trkpt lat="46.6163" lon="5.55413">
        <ele>494</ele>
        <time>2022-12-26T12:02:09Z</time>
      </trkpt>
      <trkpt lat="46.61632" lon="5.55414">
        <ele>494.2</ele>
        <time>2022-12-26T12:02:10Z</time>
      </trkpt>
      <trkpt lat="46.61632" lon="5.55414">
        <ele>494.2</ele>
        <time>2022-12-26T12:02:11Z</time>
      </trkpt>
      <trkpt lat="46.61635" lon="5.55416">
        <ele>494.4</ele>
        <time>2022-12-26T12:02:12Z</time>
      </trkpt>
      <trkpt lat="46.61635" lon="5.55416">
        <ele>494.4</ele>
        <time>2022-12-26T12:02:13Z</time>
      </trkpt>
      <trkpt lat="46.61637" lon="5.55417">
        <ele>494.6</ele>
        <time>2022-12-26T12:02:14Z</time>
      </trkpt>
      <trkpt lat="46.61637" lon="5.55417">
        <ele>494.8</ele>
        <time>2022-12-26T12:02:15Z</time>
      </trkpt>
      <trkpt lat="46.61639" lon="5.55417">
        <ele>495</ele>
        <time>2022-12-26T12:02:16Z</time>
      </trkpt>
      <trkpt lat="46.61639" lon="5.55417">
        <ele>495</ele>
        <time>2022-12-26T12:02:17Z</time>
      </trkpt>
      <trkpt lat="46.61641" lon="5.55418">
        <ele>495.2</ele>
        <time>2022-12-26T12:02:18Z</time>
      </trkpt>
      <trkpt lat="46.61641" lon="5.55418">
        <ele>495.4</ele>
        <time>2022-12-26T12:02:19Z</time>
      </trkpt>
      <trkpt lat="46.61645" lon="5.55419">
        <ele>495.6</ele>
        <time>2022-12-26T12:02:20Z</time>
      </trkpt>
      <trkpt lat="46.61645" lon="5.55419">
        <ele>495.8</ele>
        <time>2022-12-26T12:02:21Z</time>
      </trkpt>
      <trkpt lat="46.61647" lon="5.5542">
        <ele>496</ele>
        <time>2022-12-26T12:02:22Z</time>
      </trkpt>
      <trkpt lat="46.61647" lon="5.5542">
        <ele>496.2</ele>
        <time>2022-12-26T12:02:23Z</time>
      </trkpt>
      <trkpt lat="46.6165" lon="5.55422">
        <ele>496.2</ele>
        <time>2022-12-26T12:02:24Z</time>
      </trkpt>
      <trkpt lat="46.6165" lon="5.55422">
        <ele>496.4</ele>
        <time>2022-12-26T12:02:25Z</time>
      </trkpt>
      <trkpt lat="46.61653" lon="5.55423">
        <ele>496.6</ele>
        <time>2022-12-26T12:02:26Z</time>
      </trkpt>
      <trkpt lat="46.61653" lon="5.55423">
        <ele>496.8</ele>
        <time>2022-12-26T12:02:27Z</time>
      </trkpt>
      <trkpt lat="46.61656" lon="5.55424">
        <ele>497</ele>
        <time>2022-12-26T12:02:28Z</time>
      </trkpt>
      <trkpt lat="46.61657" lon="5.55426">
        <ele>497.2</ele>
        <time>2022-12-26T12:02:29Z</time>
      </trkpt>
      <trkpt lat="46.61659" lon="5.55427">
        <ele>497.2</ele>
        <time>2022-12-26T12:02:30Z</time>
      </trkpt>
      <trkpt lat="46.61659" lon="5.55427">
        <ele>497.4</ele>
        <time>2022-12-26T12:02:31Z</time>
      </trkpt>
      <trkpt lat="46.61661" lon="5.55429">
        <ele>497.6</ele>
        <time>2022-12-26T12:02:32Z</time>
      </trkpt>
      <trkpt lat="46.61663" lon="5.5543">
        <ele>497.6</ele>
        <time>2022-12-26T12:02:33Z</time>
        <extensions>
          <visugpx:TrkExtension xmlns:visugpx="https://www.visugpx.com/editgpx/">
            <visugpx:node>9</visugpx:node>
            </visugpx:TrkExtension>
        </extensions>
      </trkpt>
      <trkpt lat="46.61657" lon="5.55423">
        <ele>496.3</ele>
      </trkpt>
      <trkpt lat="46.61653" lon="5.55421">
        <ele>496.1</ele>
      </trkpt>
      <trkpt lat="46.61644" lon="5.55415">
        <ele>495.7</ele>
      </trkpt>
      <trkpt lat="46.61634" lon="5.55408">
        <ele>495.2</ele>
      </trkpt>
      <trkpt lat="46.61627" lon="5.55403">
        <ele>494.9</ele>
      </trkpt>
      <trkpt lat="46.61622" lon="5.55406">
        <ele>494.3</ele>
      </trkpt>
      <trkpt lat="46.61621" lon="5.5541">
        <ele>494</ele>
      </trkpt>
      <trkpt lat="46.61615" lon="5.55407">
        <ele>493.7</ele>
      </trkpt>
      <trkpt lat="46.61606" lon="5.55409">
        <ele>493.2</ele>
      </trkpt>
      <trkpt lat="46.61594" lon="5.55412">
        <ele>493.1</ele>
      </trkpt>
      <trkpt lat="46.61583" lon="5.55415">
        <ele>493</ele>
      </trkpt>
      <trkpt lat="46.61572" lon="5.55419">
        <ele>493.2</ele>
      </trkpt>
      <trkpt lat="46.61556" lon="5.5542">
        <ele>493.9</ele>
      </trkpt>
      <trkpt lat="46.61552" lon="5.55428">
        <ele>493.7</ele>
      </trkpt>
      <trkpt lat="46.61547" lon="5.55437">
        <ele>493.9</ele>
      </trkpt>
      <trkpt lat="46.61544" lon="5.55446">
        <ele>494.2</ele>
      </trkpt>
      <trkpt lat="46.61542" lon="5.55454">
        <ele>494.5</ele>
      </trkpt>
      <trkpt lat="46.61539" lon="5.55467">
        <ele>494.9</ele>
      </trkpt>
      <trkpt lat="46.61535" lon="5.55479">
        <ele>495.6</ele>
      </trkpt>
      <trkpt lat="46.61534" lon="5.55485">
        <ele>495.8</ele>
      </trkpt>
      <trkpt lat="46.6153" lon="5.55501">
        <ele>496.5</ele>
      </trkpt>
      <trkpt lat="46.61518" lon="5.55505">
        <ele>497.4</ele>
        <extensions>
          <visugpx:TrkExtension xmlns:visugpx="https://www.visugpx.com/editgpx/">
            <visugpx:node>10</visugpx:node>
            </visugpx:TrkExtension>
        </extensions>
      </trkpt>
      <trkpt lat="46.61517" lon="5.55506">
        <ele>497.4</ele>
      </trkpt>
      <trkpt lat="46.6151" lon="5.55512">
        <ele>497.6</ele>
      </trkpt>
      <trkpt lat="46.61503" lon="5.55519">
        <ele>497.9</ele>
      </trkpt>
      <trkpt lat="46.61492" lon="5.5553">
        <ele>498.1</ele>
      </trkpt>
      <trkpt lat="46.61481" lon="5.55544">
        <ele>498.6</ele>
      </trkpt>
      <trkpt lat="46.61473" lon="5.55554">
        <ele>498.9</ele>
      </trkpt>
      <trkpt lat="46.6146" lon="5.55566">
        <ele>499.2</ele>
      </trkpt>
      <trkpt lat="46.61455" lon="5.55569">
        <ele>499.3</ele>
      </trkpt>
      <trkpt lat="46.61435" lon="5.55581">
        <ele>499.9</ele>
      </trkpt>
      <trkpt lat="46.61427" lon="5.5559">
        <ele>500.3</ele>
      </trkpt>
      <trkpt lat="46.6142" lon="5.55599">
        <ele>501</ele>
      </trkpt>
      <trkpt lat="46.61414" lon="5.55607">
        <ele>501.6</ele>
      </trkpt>
      <trkpt lat="46.61409" lon="5.55615">
        <ele>501.8</ele>
      </trkpt>
      <trkpt lat="46.61405" lon="5.55623">
        <ele>501.8</ele>
      </trkpt>
      <trkpt lat="46.61403" lon="5.55634">
        <ele>501.9</ele>
      </trkpt>
      <trkpt lat="46.61401" lon="5.55644">
        <ele>502.2</ele>
      </trkpt>
      <trkpt lat="46.61399" lon="5.55655">
        <ele>502.6</ele>
      </trkpt>
      <trkpt lat="46.61399" lon="5.55664">
        <ele>502.9</ele>
      </trkpt>
      <trkpt lat="46.61398" lon="5.55673">
        <ele>503.5</ele>
      </trkpt>
      <trkpt lat="46.61398" lon="5.55684">
        <ele>504.2</ele>
      </trkpt>
      <trkpt lat="46.61366" lon="5.55733">
        <ele>506.3</ele>
      </trkpt>
      <trkpt lat="46.61361" lon="5.5574">
        <ele>506.6</ele>
      </trkpt>
      <trkpt lat="46.61347" lon="5.55758">
        <ele>508.2</ele>
      </trkpt>
      <trkpt lat="46.61343" lon="5.55764">
        <ele>509</ele>
      </trkpt>
      <trkpt lat="46.61339" lon="5.5577">
        <ele>509.8</ele>
      </trkpt>
      <trkpt lat="46.61333" lon="5.55777">
        <ele>510.9</ele>
      </trkpt>
      <trkpt lat="46.61327" lon="5.55784">
        <ele>511.7</ele>
      </trkpt>
      <trkpt lat="46.61315" lon="5.55793">
        <ele>512.6</ele>
      </trkpt>
      <trkpt lat="46.61307" lon="5.55797">
        <ele>513.1</ele>
      </trkpt>
      <trkpt lat="46.61294" lon="5.55805">
        <ele>514.8</ele>
      </trkpt>
      <trkpt lat="46.6128" lon="5.55815">
        <ele>516.5</ele>
      </trkpt>
      <trkpt lat="46.61274" lon="5.5582">
        <ele>517</ele>
      </trkpt>
      <trkpt lat="46.61265" lon="5.55828">
        <ele>517.6</ele>
      </trkpt>
      <trkpt lat="46.61255" lon="5.55837">
        <ele>518.2</ele>
      </trkpt>
      <trkpt lat="46.61252" lon="5.55841">
        <ele>518.3</ele>
      </trkpt>
      <trkpt lat="46.61249" lon="5.55847">
        <ele>518.4</ele>
      </trkpt>
      <trkpt lat="46.61247" lon="5.55852">
        <ele>518.6</ele>
        <extensions>
          <visugpx:TrkExtension xmlns:visugpx="https://www.visugpx.com/editgpx/">
            <visugpx:node>11</visugpx:node>
            </visugpx:TrkExtension>
        </extensions>
      </trkpt>
      <trkpt lat="46.61246" lon="5.55854">
        <ele>518.6</ele>
      </trkpt>
      <trkpt lat="46.61245" lon="5.5586">
        <ele>518.9</ele>
      </trkpt>
      <trkpt lat="46.61244" lon="5.55865">
        <ele>519.4</ele>
      </trkpt>
      <trkpt lat="46.61245" lon="5.55871">
        <ele>520.1</ele>
      </trkpt>
      <trkpt lat="46.61247" lon="5.55877">
        <ele>520.7</ele>
      </trkpt>
      <trkpt lat="46.61251" lon="5.55887">
        <ele>521.8</ele>
      </trkpt>
      <trkpt lat="46.61253" lon="5.55894">
        <ele>522.6</ele>
      </trkpt>
      <trkpt lat="46.61256" lon="5.559">
        <ele>523.2</ele>
      </trkpt>
      <trkpt lat="46.61258" lon="5.55905">
        <ele>523.7</ele>
      </trkpt>
      <trkpt lat="46.61261" lon="5.55914">
        <ele>524.4</ele>
      </trkpt>
      <trkpt lat="46.61264" lon="5.55922">
        <ele>525</ele>
      </trkpt>
      <trkpt lat="46.61266" lon="5.5593">
        <ele>525.6</ele>
      </trkpt>
      <trkpt lat="46.61266" lon="5.55935">
        <ele>526</ele>
      </trkpt>
      <trkpt lat="46.61266" lon="5.55942">
        <ele>526.6</ele>
      </trkpt>
      <trkpt lat="46.61264" lon="5.5595">
        <ele>527.3</ele>
      </trkpt>
      <trkpt lat="46.61261" lon="5.55957">
        <ele>527.9</ele>
      </trkpt>
      <trkpt lat="46.61258" lon="5.55961">
        <ele>528.4</ele>
      </trkpt>
      <trkpt lat="46.61254" lon="5.55965">
        <ele>529.1</ele>
      </trkpt>
      <trkpt lat="46.61249" lon="5.5597">
        <ele>529.9</ele>
      </trkpt>
      <trkpt lat="46.61242" lon="5.55975">
        <ele>530</ele>
      </trkpt>
      <trkpt lat="46.61235" lon="5.5598">
        <ele>529.9</ele>
      </trkpt>
      <trkpt lat="46.6123" lon="5.55983">
        <ele>530</ele>
      </trkpt>
      <trkpt lat="46.61227" lon="5.55985">
        <ele>530.1</ele>
      </trkpt>
      <trkpt lat="46.61222" lon="5.55987">
        <ele>530.5</ele>
      </trkpt>
      <trkpt lat="46.61215" lon="5.55991">
        <ele>530.2</ele>
      </trkpt>
      <trkpt lat="46.61208" lon="5.55994">
        <ele>529.9</ele>
      </trkpt>
      <trkpt lat="46.61201" lon="5.55996">
        <ele>529.6</ele>
      </trkpt>
      <trkpt lat="46.6119" lon="5.55997">
        <ele>529.2</ele>
      </trkpt>
      <trkpt lat="46.61176" lon="5.55999">
        <ele>528.4</ele>
      </trkpt>
      <trkpt lat="46.61169" lon="5.56">
        <ele>528.1</ele>
      </trkpt>
      <trkpt lat="46.61162" lon="5.56001">
        <ele>527.8</ele>
      </trkpt>
      <trkpt lat="46.61156" lon="5.56005">
        <ele>527.4</ele>
      </trkpt>
      <trkpt lat="46.61151" lon="5.56009">
        <ele>527.2</ele>
      </trkpt>
      <trkpt lat="46.61131" lon="5.56034">
        <ele>527.3</ele>
      </trkpt>
      <trkpt lat="46.61127" lon="5.56038">
        <ele>527.5</ele>
      </trkpt>
      <trkpt lat="46.61118" lon="5.56045">
        <ele>527.9</ele>
      </trkpt>
      <trkpt lat="46.61112" lon="5.56056">
        <ele>527.9</ele>
      </trkpt>
      <trkpt lat="46.61096" lon="5.56085">
        <ele>528.5</ele>
      </trkpt>
      <trkpt lat="46.61083" lon="5.56112">
        <ele>528</ele>
      </trkpt>
      <trkpt lat="46.61076" lon="5.56123">
        <ele>528.1</ele>
      </trkpt>
      <trkpt lat="46.6107" lon="5.56134">
        <ele>528.1</ele>
      </trkpt>
      <trkpt lat="46.6105" lon="5.56166">
        <ele>528.4</ele>
      </trkpt>
      <trkpt lat="46.61043" lon="5.56176">
        <ele>528.8</ele>
      </trkpt>
      <trkpt lat="46.61033" lon="5.5619">
        <ele>528.9</ele>
      </trkpt>
      <trkpt lat="46.61018" lon="5.56207">
        <ele>530.3</ele>
      </trkpt>
      <trkpt lat="46.61014" lon="5.56217">
        <ele>530.9</ele>
      </trkpt>
      <trkpt lat="46.6101" lon="5.5623">
        <ele>531.6</ele>
      </trkpt>
      <trkpt lat="46.61004" lon="5.56245">
        <ele>532.1</ele>
      </trkpt>
      <trkpt lat="46.60999" lon="5.56256">
        <ele>533</ele>
      </trkpt>
      <trkpt lat="46.60994" lon="5.56269">
        <ele>535.3</ele>
      </trkpt>
      <trkpt lat="46.60991" lon="5.56285">
        <ele>537.3</ele>
      </trkpt>
      <trkpt lat="46.60989" lon="5.56306">
        <ele>539.3</ele>
      </trkpt>
      <trkpt lat="46.6099" lon="5.56319">
        <ele>541.2</ele>
      </trkpt>
      <trkpt lat="46.61008" lon="5.56344">
        <ele>544.5</ele>
      </trkpt>
      <trkpt lat="46.61064" lon="5.56377">
        <ele>549.4</ele>
      </trkpt>
      <trkpt lat="46.61092" lon="5.564">
        <ele>553.2</ele>
      </trkpt>
      <trkpt lat="46.61103" lon="5.5641">
        <ele>554.9</ele>
        <extensions>
          <visugpx:TrkExtension xmlns:visugpx="https://www.visugpx.com/editgpx/">
            <visugpx:node>12</visugpx:node>
            </visugpx:TrkExtension>
        </extensions>
      </trkpt>
      <trkpt lat="46.61114" lon="5.56419">
        <ele>555.9</ele>
      </trkpt>
      <trkpt lat="46.61116" lon="5.56433">
        <ele>556.9</ele>
      </trkpt>
      <trkpt lat="46.61112" lon="5.56434">
        <ele>557.2</ele>
        <extensions>
          <visugpx:TrkExtension xmlns:visugpx="https://www.visugpx.com/editgpx/">
            <visugpx:node>13</visugpx:node>
            </visugpx:TrkExtension>
        </extensions>
      </trkpt>
    </trkseg>
  </trk>
</gpx>